<?xml version="1.0" encoding="UTF-8" standalone="no" ?>
<gpx xmlns="http://www.topografix.com/GPX/1/1" xmlns:xsi="http://www.w3.org/2001/XMLSchema-instance" xsi:schemaLocation="http://www.topografix.com/GPX/1/1 http://www.topografix.com/GPX/1/1/gpx.xsd" version="1.1" creator="VisuGPX - https://www.visugpx.com">
  <metadata>
    <name>48Km - neuillé (sportif 3) </name>
  </metadata>
  <trk>
    <name><![CDATA[48Km - neuillé (sportif 3) _1]]></name>
    <trkseg>
      <trkpt lat="47.35108" lon="0.01773">
        <ele>77.1</ele>
        <time>2012-08-15T10:14:09Z</time>
      </trkpt>
      <trkpt lat="47.35112" lon="0.01768">
        <ele>77</ele>
        <time>2012-08-15T10:14:10Z</time>
      </trkpt>
      <trkpt lat="47.35117" lon="0.01763">
        <ele>77</ele>
        <time>2012-08-15T10:14:11Z</time>
      </trkpt>
      <trkpt lat="47.35121" lon="0.01758">
        <ele>77</ele>
        <time>2012-08-15T10:14:12Z</time>
      </trkpt>
      <trkpt lat="47.35126" lon="0.01754">
        <ele>77</ele>
        <time>2012-08-15T10:14:13Z</time>
      </trkpt>
      <trkpt lat="47.35131" lon="0.0175">
        <ele>77</ele>
        <time>2012-08-15T10:14:14Z</time>
      </trkpt>
      <trkpt lat="47.35135" lon="0.01747">
        <ele>77</ele>
        <time>2012-08-15T10:14:15Z</time>
      </trkpt>
      <trkpt lat="47.35139" lon="0.01744">
        <ele>77</ele>
        <time>2012-08-15T10:14:16Z</time>
      </trkpt>
      <trkpt lat="47.35142" lon="0.0174">
        <ele>77</ele>
        <time>2012-08-15T10:14:17Z</time>
      </trkpt>
      <trkpt lat="47.35144" lon="0.01737">
        <ele>76.9</ele>
        <time>2012-08-15T10:14:18Z</time>
      </trkpt>
      <trkpt lat="47.35146" lon="0.01733">
        <ele>76.8</ele>
        <time>2012-08-15T10:14:19Z</time>
      </trkpt>
      <trkpt lat="47.35146" lon="0.01728">
        <ele>76.8</ele>
        <time>2012-08-15T10:14:20Z</time>
      </trkpt>
      <trkpt lat="47.35145" lon="0.01723">
        <ele>76.8</ele>
        <time>2012-08-15T10:14:21Z</time>
      </trkpt>
      <trkpt lat="47.35143" lon="0.01717">
        <ele>76.9</ele>
        <time>2012-08-15T10:14:22Z</time>
      </trkpt>
      <trkpt lat="47.35141" lon="0.01711">
        <ele>76.9</ele>
        <time>2012-08-15T10:14:23Z</time>
      </trkpt>
      <trkpt lat="47.35138" lon="0.01706">
        <ele>77</ele>
        <time>2012-08-15T10:14:24Z</time>
      </trkpt>
      <trkpt lat="47.35135" lon="0.01701">
        <ele>77</ele>
        <time>2012-08-15T10:14:25Z</time>
      </trkpt>
      <trkpt lat="47.35109" lon="0.01663">
        <ele>78.1</ele>
        <time>2012-08-15T10:14:32Z</time>
      </trkpt>
      <trkpt lat="47.35107" lon="0.01656">
        <ele>78.4</ele>
        <time>2012-08-15T10:14:33Z</time>
      </trkpt>
      <trkpt lat="47.35107" lon="0.0165">
        <ele>78.6</ele>
        <time>2012-08-15T10:14:34Z</time>
      </trkpt>
      <trkpt lat="47.35108" lon="0.01644">
        <ele>78.8</ele>
        <time>2012-08-15T10:14:35Z</time>
      </trkpt>
      <trkpt lat="47.35109" lon="0.01634">
        <ele>79.2</ele>
        <time>2012-08-15T10:14:37Z</time>
      </trkpt>
      <trkpt lat="47.35111" lon="0.01625">
        <ele>79.5</ele>
        <time>2012-08-15T10:14:39Z</time>
      </trkpt>
      <trkpt lat="47.35109" lon="0.01612">
        <ele>80</ele>
        <time>2012-08-15T10:14:46Z</time>
      </trkpt>
      <trkpt lat="47.35106" lon="0.01604">
        <ele>80.3</ele>
        <time>2012-08-15T10:14:58Z</time>
      </trkpt>
      <trkpt lat="47.35106" lon="0.01602">
        <ele>80.3</ele>
        <time>2012-08-15T10:15:06Z</time>
      </trkpt>
      <trkpt lat="47.35109" lon="0.01597">
        <ele>80.5</ele>
        <time>2012-08-15T10:15:15Z</time>
      </trkpt>
      <trkpt lat="47.35112" lon="0.01591">
        <ele>80.7</ele>
        <time>2012-08-15T10:15:21Z</time>
      </trkpt>
      <trkpt lat="47.35112" lon="0.01591">
        <ele>80.7</ele>
        <time>2012-08-15T10:15:33Z</time>
      </trkpt>
      <trkpt lat="47.35111" lon="0.01587">
        <ele>80.9</ele>
        <time>2012-08-15T10:15:40Z</time>
      </trkpt>
      <trkpt lat="47.35107" lon="0.01577">
        <ele>81.2</ele>
        <time>2012-08-15T10:15:46Z</time>
      </trkpt>
      <trkpt lat="47.35099" lon="0.01564">
        <ele>81.7</ele>
        <time>2012-08-15T10:15:52Z</time>
      </trkpt>
      <trkpt lat="47.35091" lon="0.01544">
        <ele>82.7</ele>
        <time>2012-08-15T10:16:00Z</time>
      </trkpt>
      <trkpt lat="47.35089" lon="0.01537">
        <ele>83.2</ele>
        <time>2012-08-15T10:16:03Z</time>
      </trkpt>
      <trkpt lat="47.35081" lon="0.01516">
        <ele>84.5</ele>
        <time>2012-08-15T10:16:09Z</time>
      </trkpt>
      <trkpt lat="47.3508" lon="0.01491">
        <ele>85.8</ele>
        <time>2012-08-15T10:16:17Z</time>
      </trkpt>
      <trkpt lat="47.35083" lon="0.01476">
        <ele>86.7</ele>
        <time>2012-08-15T10:16:23Z</time>
      </trkpt>
      <trkpt lat="47.35085" lon="0.01467">
        <ele>87.1</ele>
        <time>2012-08-15T10:16:27Z</time>
      </trkpt>
      <trkpt lat="47.3508" lon="0.01454">
        <ele>87.8</ele>
        <time>2012-08-15T10:16:33Z</time>
      </trkpt>
      <trkpt lat="47.35072" lon="0.01446">
        <ele>88.4</ele>
        <time>2012-08-15T10:16:39Z</time>
      </trkpt>
      <trkpt lat="47.35058" lon="0.01444">
        <ele>88.9</ele>
        <time>2012-08-15T10:16:46Z</time>
      </trkpt>
      <trkpt lat="47.35056" lon="0.01445">
        <ele>89</ele>
        <time>2012-08-15T10:16:47Z</time>
      </trkpt>
      <trkpt lat="47.35049" lon="0.01451">
        <ele>88.8</ele>
        <time>2012-08-15T10:16:51Z</time>
      </trkpt>
      <trkpt lat="47.35042" lon="0.0145">
        <ele>88.8</ele>
        <time>2012-08-15T10:16:55Z</time>
      </trkpt>
      <trkpt lat="47.35032" lon="0.01436">
        <ele>89.6</ele>
        <time>2012-08-15T10:17:01Z</time>
      </trkpt>
      <trkpt lat="47.3503" lon="0.01433">
        <ele>89.8</ele>
        <time>2012-08-15T10:17:02Z</time>
      </trkpt>
      <trkpt lat="47.35019" lon="0.01413">
        <ele>91.1</ele>
        <time>2012-08-15T10:17:11Z</time>
      </trkpt>
      <trkpt lat="47.35014" lon="0.01396">
        <ele>91.7</ele>
        <time>2012-08-15T10:17:17Z</time>
      </trkpt>
      <trkpt lat="47.35006" lon="0.0138">
        <ele>92.3</ele>
        <time>2012-08-15T10:17:23Z</time>
      </trkpt>
      <trkpt lat="47.35001" lon="0.01362">
        <ele>92.9</ele>
        <time>2012-08-15T10:17:29Z</time>
      </trkpt>
      <trkpt lat="47.34988" lon="0.01343">
        <ele>93</ele>
        <time>2012-08-15T10:17:36Z</time>
      </trkpt>
      <trkpt lat="47.34984" lon="0.01324">
        <ele>93.3</ele>
        <time>2012-08-15T10:17:42Z</time>
      </trkpt>
      <trkpt lat="47.34983" lon="0.01321">
        <ele>93.4</ele>
        <time>2012-08-15T10:17:43Z</time>
      </trkpt>
      <trkpt lat="47.34979" lon="0.01304">
        <ele>94</ele>
        <time>2012-08-15T10:17:50Z</time>
      </trkpt>
      <trkpt lat="47.34974" lon="0.01294">
        <ele>94</ele>
        <time>2012-08-15T10:17:55Z</time>
      </trkpt>
      <trkpt lat="47.34959" lon="0.0128">
        <ele>94</ele>
        <time>2012-08-15T10:18:02Z</time>
      </trkpt>
      <trkpt lat="47.34948" lon="0.01275">
        <ele>94.1</ele>
        <time>2012-08-15T10:18:07Z</time>
      </trkpt>
      <trkpt lat="47.34939" lon="0.01264">
        <ele>94.6</ele>
        <time>2012-08-15T10:18:14Z</time>
      </trkpt>
      <trkpt lat="47.34932" lon="0.01256">
        <ele>94.9</ele>
        <time>2012-08-15T10:18:20Z</time>
      </trkpt>
      <trkpt lat="47.34929" lon="0.01251">
        <ele>95</ele>
        <time>2012-08-15T10:18:23Z</time>
      </trkpt>
      <trkpt lat="47.34932" lon="0.01234">
        <ele>95.6</ele>
        <time>2012-08-15T10:18:30Z</time>
      </trkpt>
      <trkpt lat="47.34936" lon="0.01223">
        <ele>96</ele>
        <time>2012-08-15T10:18:37Z</time>
      </trkpt>
      <trkpt lat="47.34937" lon="0.01221">
        <ele>96</ele>
        <time>2012-08-15T10:18:40Z</time>
      </trkpt>
      <trkpt lat="47.3494" lon="0.01216">
        <ele>96</ele>
        <time>2012-08-15T10:18:42Z</time>
      </trkpt>
      <trkpt lat="47.34953" lon="0.01196">
        <ele>96</ele>
        <time>2012-08-15T10:18:49Z</time>
      </trkpt>
      <trkpt lat="47.34966" lon="0.01178">
        <ele>96</ele>
        <time>2012-08-15T10:18:55Z</time>
      </trkpt>
      <trkpt lat="47.34975" lon="0.01159">
        <ele>96</ele>
        <time>2012-08-15T10:19:01Z</time>
      </trkpt>
      <trkpt lat="47.34982" lon="0.01148">
        <ele>96</ele>
        <time>2012-08-15T10:19:04Z</time>
      </trkpt>
      <trkpt lat="47.34995" lon="0.01137">
        <ele>96</ele>
        <time>2012-08-15T10:19:08Z</time>
      </trkpt>
      <trkpt lat="47.35011" lon="0.01123">
        <ele>95.6</ele>
        <time>2012-08-15T10:19:12Z</time>
      </trkpt>
      <trkpt lat="47.3504" lon="0.01094">
        <ele>94.7</ele>
        <time>2012-08-15T10:19:19Z</time>
      </trkpt>
      <trkpt lat="47.35051" lon="0.01058">
        <ele>94.2</ele>
        <time>2012-08-15T10:19:25Z</time>
      </trkpt>
      <trkpt lat="47.35059" lon="0.01038">
        <ele>93.2</ele>
        <time>2012-08-15T10:19:29Z</time>
      </trkpt>
      <trkpt lat="47.3507" lon="0.0102">
        <ele>92.3</ele>
        <time>2012-08-15T10:19:33Z</time>
      </trkpt>
      <trkpt lat="47.35078" lon="0.00999">
        <ele>91.3</ele>
        <time>2012-08-15T10:19:38Z</time>
      </trkpt>
      <trkpt lat="47.35086" lon="0.00981">
        <ele>90.1</ele>
        <time>2012-08-15T10:19:42Z</time>
      </trkpt>
      <trkpt lat="47.35117" lon="0.00946">
        <ele>85.7</ele>
        <time>2012-08-15T10:19:47Z</time>
      </trkpt>
      <trkpt lat="47.35157" lon="0.00888">
        <ele>78.6</ele>
        <time>2012-08-15T10:19:53Z</time>
      </trkpt>
      <trkpt lat="47.3519" lon="0.00852">
        <ele>73.9</ele>
        <time>2012-08-15T10:19:58Z</time>
      </trkpt>
      <trkpt lat="47.35194" lon="0.00845">
        <ele>73.4</ele>
        <time>2012-08-15T10:19:59Z</time>
      </trkpt>
      <trkpt lat="47.35195" lon="0.00823">
        <ele>72.6</ele>
        <time>2012-08-15T10:20:02Z</time>
      </trkpt>
      <trkpt lat="47.35208" lon="0.008">
        <ele>71.9</ele>
        <time>2012-08-15T10:20:06Z</time>
      </trkpt>
      <trkpt lat="47.35228" lon="0.00779">
        <ele>71</ele>
        <time>2012-08-15T10:20:10Z</time>
      </trkpt>
      <trkpt lat="47.35239" lon="0.00771">
        <ele>70.9</ele>
        <time>2012-08-15T10:20:12Z</time>
      </trkpt>
      <trkpt lat="47.35261" lon="0.00749">
        <ele>69.6</ele>
        <time>2012-08-15T10:20:17Z</time>
      </trkpt>
      <trkpt lat="47.35264" lon="0.00744">
        <ele>69.3</ele>
        <time>2012-08-15T10:20:18Z</time>
      </trkpt>
      <trkpt lat="47.35288" lon="0.00719">
        <ele>67.6</ele>
        <time>2012-08-15T10:20:22Z</time>
      </trkpt>
      <trkpt lat="47.35298" lon="0.00713">
        <ele>67.2</ele>
        <time>2012-08-15T10:20:23Z</time>
      </trkpt>
      <trkpt lat="47.35318" lon="0.00696">
        <ele>66.6</ele>
        <time>2012-08-15T10:20:26Z</time>
      </trkpt>
      <trkpt lat="47.35342" lon="0.00675">
        <ele>65</ele>
        <time>2012-08-15T10:20:30Z</time>
      </trkpt>
      <trkpt lat="47.35361" lon="0.00648">
        <ele>64</ele>
        <time>2012-08-15T10:20:35Z</time>
      </trkpt>
      <trkpt lat="47.35375" lon="0.0064">
        <ele>64</ele>
        <time>2012-08-15T10:20:37Z</time>
      </trkpt>
      <trkpt lat="47.35385" lon="0.00631">
        <ele>64</ele>
        <time>2012-08-15T10:20:39Z</time>
      </trkpt>
      <trkpt lat="47.35389" lon="0.00626">
        <ele>64</ele>
        <time>2012-08-15T10:20:40Z</time>
      </trkpt>
      <trkpt lat="47.35408" lon="0.00609">
        <ele>64.7</ele>
        <time>2012-08-15T10:20:44Z</time>
      </trkpt>
      <trkpt lat="47.35425" lon="0.00596">
        <ele>65.2</ele>
        <time>2012-08-15T10:20:48Z</time>
      </trkpt>
      <trkpt lat="47.35431" lon="0.0059">
        <ele>65.4</ele>
        <time>2012-08-15T10:20:50Z</time>
      </trkpt>
      <trkpt lat="47.35455" lon="0.00569">
        <ele>66.2</ele>
        <time>2012-08-15T10:20:55Z</time>
      </trkpt>
      <trkpt lat="47.35461" lon="0.00563">
        <ele>66.4</ele>
        <time>2012-08-15T10:20:57Z</time>
      </trkpt>
      <trkpt lat="47.35478" lon="0.00551">
        <ele>67.2</ele>
        <time>2012-08-15T10:21:02Z</time>
      </trkpt>
      <trkpt lat="47.35498" lon="0.00529">
        <ele>67.9</ele>
        <time>2012-08-15T10:21:08Z</time>
      </trkpt>
      <trkpt lat="47.35502" lon="0.00526">
        <ele>68.1</ele>
        <time>2012-08-15T10:21:09Z</time>
      </trkpt>
      <trkpt lat="47.3552" lon="0.00508">
        <ele>68.7</ele>
        <time>2012-08-15T10:21:14Z</time>
      </trkpt>
      <trkpt lat="47.35535" lon="0.00492">
        <ele>69.5</ele>
        <time>2012-08-15T10:21:19Z</time>
      </trkpt>
      <trkpt lat="47.35542" lon="0.00484">
        <ele>69.8</ele>
        <time>2012-08-15T10:21:21Z</time>
      </trkpt>
      <trkpt lat="47.35578" lon="0.00453">
        <ele>70.9</ele>
        <time>2012-08-15T10:21:27Z</time>
      </trkpt>
      <trkpt lat="47.35592" lon="0.00437">
        <ele>71.6</ele>
        <time>2012-08-15T10:21:30Z</time>
      </trkpt>
      <trkpt lat="47.35599" lon="0.00427">
        <ele>72.2</ele>
        <time>2012-08-15T10:21:32Z</time>
      </trkpt>
      <trkpt lat="47.35615" lon="0.00403">
        <ele>73.1</ele>
        <time>2012-08-15T10:21:38Z</time>
      </trkpt>
      <trkpt lat="47.35639" lon="0.0037">
        <ele>74.7</ele>
        <time>2012-08-15T10:21:45Z</time>
      </trkpt>
      <trkpt lat="47.35658" lon="0.00354">
        <ele>76.2</ele>
        <time>2012-08-15T10:21:49Z</time>
      </trkpt>
      <trkpt lat="47.35677" lon="0.00333">
        <ele>77.1</ele>
        <time>2012-08-15T10:21:54Z</time>
      </trkpt>
      <trkpt lat="47.3568" lon="0.0033">
        <ele>77.4</ele>
        <time>2012-08-15T10:21:55Z</time>
      </trkpt>
      <trkpt lat="47.35694" lon="0.00318">
        <ele>78.4</ele>
        <time>2012-08-15T10:21:59Z</time>
      </trkpt>
      <trkpt lat="47.35707" lon="0.003">
        <ele>79.3</ele>
        <time>2012-08-15T10:22:06Z</time>
      </trkpt>
      <trkpt lat="47.35708" lon="0.00299">
        <ele>79.3</ele>
        <time>2012-08-15T10:22:19Z</time>
      </trkpt>
      <trkpt lat="47.35709" lon="0.00298">
        <ele>79.4</ele>
        <time>2012-08-15T10:22:48Z</time>
      </trkpt>
      <trkpt lat="47.357" lon="0.00273">
        <ele>78.4</ele>
        <time>2012-08-15T10:22:55Z</time>
      </trkpt>
      <trkpt lat="47.35683" lon="0.0024">
        <ele>78.2</ele>
        <time>2012-08-15T10:23:02Z</time>
      </trkpt>
      <trkpt lat="47.35659" lon="0.00207">
        <ele>78.8</ele>
        <time>2012-08-15T10:23:09Z</time>
      </trkpt>
      <trkpt lat="47.35635" lon="0.00182">
        <ele>79.2</ele>
        <time>2012-08-15T10:23:15Z</time>
      </trkpt>
      <trkpt lat="47.35627" lon="0.00174">
        <ele>78.9</ele>
        <time>2012-08-15T10:23:17Z</time>
      </trkpt>
      <trkpt lat="47.3562" lon="0.00166">
        <ele>78.7</ele>
        <time>2012-08-15T10:23:19Z</time>
      </trkpt>
      <trkpt lat="47.35616" lon="0.00162">
        <ele>78.7</ele>
        <time>2012-08-15T10:23:20Z</time>
      </trkpt>
      <trkpt lat="47.35591" lon="0.00133">
        <ele>78.8</ele>
        <time>2012-08-15T10:23:27Z</time>
      </trkpt>
      <trkpt lat="47.35588" lon="0.00128">
        <ele>78.8</ele>
        <time>2012-08-15T10:23:28Z</time>
      </trkpt>
      <trkpt lat="47.35571" lon="0.00109">
        <ele>78.7</ele>
        <time>2012-08-15T10:23:33Z</time>
      </trkpt>
      <trkpt lat="47.35549" lon="0.00076">
        <ele>78.8</ele>
        <time>2012-08-15T10:23:40Z</time>
      </trkpt>
      <trkpt lat="47.35534" lon="0.00059">
        <ele>78.3</ele>
        <time>2012-08-15T10:23:44Z</time>
      </trkpt>
      <trkpt lat="47.35509" lon="0.00025">
        <ele>78.7</ele>
        <time>2012-08-15T10:23:51Z</time>
      </trkpt>
      <trkpt lat="47.35492" lon="1.0E-5">
        <ele>78.7</ele>
        <time>2012-08-15T10:23:56Z</time>
      </trkpt>
      <trkpt lat="47.35479" lon="-0.00018">
        <ele>79.1</ele>
        <time>2012-08-15T10:24:00Z</time>
      </trkpt>
      <trkpt lat="47.35465" lon="-0.00043">
        <ele>79</ele>
        <time>2012-08-15T10:24:06Z</time>
      </trkpt>
      <trkpt lat="47.35463" lon="-0.00048">
        <ele>79.1</ele>
        <time>2012-08-15T10:24:07Z</time>
      </trkpt>
      <trkpt lat="47.3545" lon="-0.00077">
        <ele>79.2</ele>
        <time>2012-08-15T10:24:13Z</time>
      </trkpt>
      <trkpt lat="47.35435" lon="-0.00111">
        <ele>79.3</ele>
        <time>2012-08-15T10:24:19Z</time>
      </trkpt>
      <trkpt lat="47.35426" lon="-0.00126">
        <ele>79.4</ele>
        <time>2012-08-15T10:24:22Z</time>
      </trkpt>
      <trkpt lat="47.35416" lon="-0.00151">
        <ele>79.4</ele>
        <time>2012-08-15T10:24:26Z</time>
      </trkpt>
      <trkpt lat="47.35413" lon="-0.00164">
        <ele>79.5</ele>
        <time>2012-08-15T10:24:28Z</time>
      </trkpt>
      <trkpt lat="47.35404" lon="-0.00199">
        <ele>79.7</ele>
        <time>2012-08-15T10:24:33Z</time>
      </trkpt>
      <trkpt lat="47.35394" lon="-0.0022">
        <ele>78.7</ele>
        <time>2012-08-15T10:24:36Z</time>
      </trkpt>
      <trkpt lat="47.35369" lon="-0.00259">
        <ele>76.9</ele>
        <time>2012-08-15T10:24:43Z</time>
      </trkpt>
      <trkpt lat="47.35356" lon="-0.00275">
        <ele>75.6</ele>
        <time>2012-08-15T10:24:47Z</time>
      </trkpt>
      <trkpt lat="47.35333" lon="-0.00301">
        <ele>74</ele>
        <time>2012-08-15T10:24:53Z</time>
      </trkpt>
      <trkpt lat="47.35328" lon="-0.00306">
        <ele>73.6</ele>
        <time>2012-08-15T10:24:54Z</time>
      </trkpt>
      <trkpt lat="47.35306" lon="-0.00329">
        <ele>72</ele>
        <time>2012-08-15T10:24:59Z</time>
      </trkpt>
      <trkpt lat="47.35276" lon="-0.0036">
        <ele>69.9</ele>
        <time>2012-08-15T10:25:05Z</time>
      </trkpt>
      <trkpt lat="47.35256" lon="-0.00382">
        <ele>67.7</ele>
        <time>2012-08-15T10:25:10Z</time>
      </trkpt>
      <trkpt lat="47.35227" lon="-0.00406">
        <ele>65.7</ele>
        <time>2012-08-15T10:25:16Z</time>
      </trkpt>
      <trkpt lat="47.35218" lon="-0.00414">
        <ele>64.9</ele>
        <time>2012-08-15T10:25:18Z</time>
      </trkpt>
      <trkpt lat="47.3521" lon="-0.00422">
        <ele>64.6</ele>
        <time>2012-08-15T10:25:20Z</time>
      </trkpt>
      <trkpt lat="47.35166" lon="-0.00472">
        <ele>63</ele>
        <time>2012-08-15T10:25:30Z</time>
      </trkpt>
      <trkpt lat="47.35146" lon="-0.00499">
        <ele>62.3</ele>
        <time>2012-08-15T10:25:35Z</time>
      </trkpt>
      <trkpt lat="47.35137" lon="-0.00511">
        <ele>62.4</ele>
        <time>2012-08-15T10:25:37Z</time>
      </trkpt>
      <trkpt lat="47.35111" lon="-0.0054">
        <ele>62</ele>
        <time>2012-08-15T10:25:43Z</time>
      </trkpt>
      <trkpt lat="47.35078" lon="-0.00574">
        <ele>62</ele>
        <time>2012-08-15T10:25:51Z</time>
      </trkpt>
      <trkpt lat="47.35054" lon="-0.00599">
        <ele>61.4</ele>
        <time>2012-08-15T10:25:57Z</time>
      </trkpt>
      <trkpt lat="47.35057" lon="-0.00614">
        <ele>61</ele>
        <time>2012-08-15T10:26:02Z</time>
      </trkpt>
      <trkpt lat="47.35074" lon="-0.00635">
        <ele>61.1</ele>
        <time>2012-08-15T10:26:09Z</time>
      </trkpt>
      <trkpt lat="47.35101" lon="-0.00662">
        <ele>61.6</ele>
        <time>2012-08-15T10:26:17Z</time>
      </trkpt>
      <trkpt lat="47.35128" lon="-0.00686">
        <ele>63</ele>
        <time>2012-08-15T10:26:26Z</time>
      </trkpt>
      <trkpt lat="47.35135" lon="-0.00688">
        <ele>63.5</ele>
        <time>2012-08-15T10:26:28Z</time>
      </trkpt>
      <trkpt lat="47.35157" lon="-0.007">
        <ele>64.7</ele>
        <time>2012-08-15T10:26:35Z</time>
      </trkpt>
      <trkpt lat="47.35174" lon="-0.00716">
        <ele>65.5</ele>
        <time>2012-08-15T10:26:42Z</time>
      </trkpt>
      <trkpt lat="47.35191" lon="-0.00732">
        <ele>67.1</ele>
        <time>2012-08-15T10:26:50Z</time>
      </trkpt>
      <trkpt lat="47.35192" lon="-0.00734">
        <ele>67.2</ele>
        <time>2012-08-15T10:26:51Z</time>
      </trkpt>
      <trkpt lat="47.35205" lon="-0.00747">
        <ele>68.3</ele>
        <time>2012-08-15T10:26:58Z</time>
      </trkpt>
      <trkpt lat="47.3522" lon="-0.00761">
        <ele>69.3</ele>
        <time>2012-08-15T10:27:06Z</time>
      </trkpt>
      <trkpt lat="47.35224" lon="-0.00764">
        <ele>69.6</ele>
        <time>2012-08-15T10:27:08Z</time>
      </trkpt>
      <trkpt lat="47.35232" lon="-0.00771">
        <ele>70.1</ele>
        <time>2012-08-15T10:27:12Z</time>
      </trkpt>
      <trkpt lat="47.35243" lon="-0.00781">
        <ele>70.9</ele>
        <time>2012-08-15T10:27:18Z</time>
      </trkpt>
      <trkpt lat="47.35256" lon="-0.00789">
        <ele>71.6</ele>
        <time>2012-08-15T10:27:25Z</time>
      </trkpt>
      <trkpt lat="47.3526" lon="-0.00797">
        <ele>72.1</ele>
        <time>2012-08-15T10:27:29Z</time>
      </trkpt>
      <trkpt lat="47.35256" lon="-0.00808">
        <ele>72.3</ele>
        <time>2012-08-15T10:27:33Z</time>
      </trkpt>
      <trkpt lat="47.35238" lon="-0.00839">
        <ele>72.8</ele>
        <time>2012-08-15T10:27:44Z</time>
      </trkpt>
      <trkpt lat="47.35225" lon="-0.00861">
        <ele>73.1</ele>
        <time>2012-08-15T10:27:52Z</time>
      </trkpt>
      <trkpt lat="47.35217" lon="-0.00882">
        <ele>73.4</ele>
        <time>2012-08-15T10:27:59Z</time>
      </trkpt>
      <trkpt lat="47.35201" lon="-0.00912">
        <ele>73.3</ele>
        <time>2012-08-15T10:28:09Z</time>
      </trkpt>
      <trkpt lat="47.35187" lon="-0.00941">
        <ele>73.4</ele>
        <time>2012-08-15T10:28:19Z</time>
      </trkpt>
      <trkpt lat="47.35174" lon="-0.00961">
        <ele>73</ele>
        <time>2012-08-15T10:28:26Z</time>
      </trkpt>
      <trkpt lat="47.35159" lon="-0.00996">
        <ele>72.7</ele>
        <time>2012-08-15T10:28:36Z</time>
      </trkpt>
      <trkpt lat="47.35145" lon="-0.01028">
        <ele>72.4</ele>
        <time>2012-08-15T10:28:45Z</time>
      </trkpt>
      <trkpt lat="47.35143" lon="-0.01042">
        <ele>71.9</ele>
        <time>2012-08-15T10:28:49Z</time>
      </trkpt>
      <trkpt lat="47.35147" lon="-0.01048">
        <ele>72.1</ele>
        <time>2012-08-15T10:28:52Z</time>
      </trkpt>
      <trkpt lat="47.35145" lon="-0.01067">
        <ele>71.7</ele>
        <time>2012-08-15T10:28:57Z</time>
      </trkpt>
      <trkpt lat="47.35125" lon="-0.01105">
        <ele>70.8</ele>
        <time>2012-08-15T10:29:05Z</time>
      </trkpt>
      <trkpt lat="47.35114" lon="-0.01135">
        <ele>71</ele>
        <time>2012-08-15T10:29:11Z</time>
      </trkpt>
      <trkpt lat="47.351" lon="-0.01174">
        <ele>71.5</ele>
        <time>2012-08-15T10:29:20Z</time>
      </trkpt>
      <trkpt lat="47.3509" lon="-0.01205">
        <ele>71.9</ele>
        <time>2012-08-15T10:29:27Z</time>
      </trkpt>
      <trkpt lat="47.35082" lon="-0.0122">
        <ele>71.8</ele>
        <time>2012-08-15T10:29:32Z</time>
      </trkpt>
      <trkpt lat="47.35087" lon="-0.0123">
        <ele>72.6</ele>
        <time>2012-08-15T10:29:38Z</time>
      </trkpt>
      <trkpt lat="47.35089" lon="-0.0123">
        <ele>72.7</ele>
        <time>2012-08-15T10:29:46Z</time>
      </trkpt>
      <trkpt lat="47.3509" lon="-0.01232">
        <ele>72.9</ele>
        <time>2012-08-15T10:30:12Z</time>
      </trkpt>
      <trkpt lat="47.3509" lon="-0.01232">
        <ele>72.9</ele>
        <time>2012-08-15T10:30:36Z</time>
      </trkpt>
      <trkpt lat="47.3509" lon="-0.01232">
        <ele>72.9</ele>
        <time>2012-08-15T10:30:37Z</time>
      </trkpt>
      <trkpt lat="47.35089" lon="-0.01232">
        <ele>72.8</ele>
        <time>2012-08-15T10:31:06Z</time>
      </trkpt>
      <trkpt lat="47.35089" lon="-0.01232">
        <ele>72.8</ele>
        <time>2012-08-15T10:31:15Z</time>
      </trkpt>
      <trkpt lat="47.35089" lon="-0.01232">
        <ele>72.8</ele>
        <time>2012-08-15T10:31:17Z</time>
      </trkpt>
      <trkpt lat="47.35089" lon="-0.01232">
        <ele>72.8</ele>
        <time>2012-08-15T10:31:18Z</time>
      </trkpt>
      <trkpt lat="47.35089" lon="-0.01232">
        <ele>72.8</ele>
        <time>2012-08-15T10:31:28Z</time>
      </trkpt>
      <trkpt lat="47.35089" lon="-0.01232">
        <ele>72.8</ele>
        <time>2012-08-15T10:31:29Z</time>
      </trkpt>
      <trkpt lat="47.3509" lon="-0.01232">
        <ele>72.9</ele>
        <time>2012-08-15T10:32:25Z</time>
      </trkpt>
      <trkpt lat="47.3509" lon="-0.01232">
        <ele>72.9</ele>
        <time>2012-08-15T10:33:05Z</time>
      </trkpt>
      <trkpt lat="47.3509" lon="-0.01232">
        <ele>72.9</ele>
        <time>2012-08-15T10:33:29Z</time>
      </trkpt>
      <trkpt lat="47.35094" lon="-0.01238">
        <ele>73.6</ele>
        <time>2012-08-15T10:33:59Z</time>
      </trkpt>
      <trkpt lat="47.35102" lon="-0.01246">
        <ele>74.8</ele>
        <time>2012-08-15T10:34:05Z</time>
      </trkpt>
      <trkpt lat="47.35114" lon="-0.01257">
        <ele>76.6</ele>
        <time>2012-08-15T10:34:11Z</time>
      </trkpt>
      <trkpt lat="47.35125" lon="-0.01267">
        <ele>78.1</ele>
        <time>2012-08-15T10:34:17Z</time>
      </trkpt>
      <trkpt lat="47.35131" lon="-0.01274">
        <ele>79</ele>
        <time>2012-08-15T10:34:21Z</time>
      </trkpt>
      <trkpt lat="47.35138" lon="-0.01284">
        <ele>80.4</ele>
        <time>2012-08-15T10:34:28Z</time>
      </trkpt>
      <trkpt lat="47.3514" lon="-0.01286">
        <ele>80.7</ele>
        <time>2012-08-15T10:34:30Z</time>
      </trkpt>
      <trkpt lat="47.35144" lon="-0.01289">
        <ele>81.4</ele>
        <time>2012-08-15T10:34:33Z</time>
      </trkpt>
      <trkpt lat="47.35146" lon="-0.01291">
        <ele>81.7</ele>
        <time>2012-08-15T10:34:34Z</time>
      </trkpt>
      <trkpt lat="47.35154" lon="-0.01298">
        <ele>83.1</ele>
        <time>2012-08-15T10:34:40Z</time>
      </trkpt>
      <trkpt lat="47.35155" lon="-0.01299">
        <ele>83.3</ele>
        <time>2012-08-15T10:34:41Z</time>
      </trkpt>
      <trkpt lat="47.3516" lon="-0.01306">
        <ele>84.3</ele>
        <time>2012-08-15T10:34:45Z</time>
      </trkpt>
      <trkpt lat="47.35164" lon="-0.01308">
        <ele>84.9</ele>
        <time>2012-08-15T10:34:48Z</time>
      </trkpt>
      <trkpt lat="47.35168" lon="-0.01315">
        <ele>85.8</ele>
        <time>2012-08-15T10:34:53Z</time>
      </trkpt>
      <trkpt lat="47.35178" lon="-0.01323">
        <ele>87.3</ele>
        <time>2012-08-15T10:35:00Z</time>
      </trkpt>
      <trkpt lat="47.35185" lon="-0.01328">
        <ele>88.5</ele>
        <time>2012-08-15T10:35:05Z</time>
      </trkpt>
      <trkpt lat="47.35198" lon="-0.01336">
        <ele>90.3</ele>
        <time>2012-08-15T10:35:13Z</time>
      </trkpt>
      <trkpt lat="47.35199" lon="-0.01338">
        <ele>90.5</ele>
        <time>2012-08-15T10:35:14Z</time>
      </trkpt>
      <trkpt lat="47.35203" lon="-0.0134">
        <ele>90.9</ele>
        <time>2012-08-15T10:35:16Z</time>
      </trkpt>
      <trkpt lat="47.35209" lon="-0.01346">
        <ele>91.7</ele>
        <time>2012-08-15T10:35:21Z</time>
      </trkpt>
      <trkpt lat="47.3521" lon="-0.0135">
        <ele>92.1</ele>
        <time>2012-08-15T10:35:23Z</time>
      </trkpt>
      <trkpt lat="47.35213" lon="-0.01355">
        <ele>92.7</ele>
        <time>2012-08-15T10:35:26Z</time>
      </trkpt>
      <trkpt lat="47.35211" lon="-0.01357">
        <ele>92.8</ele>
        <time>2012-08-15T10:35:28Z</time>
      </trkpt>
      <trkpt lat="47.35201" lon="-0.01364">
        <ele>92.8</ele>
        <time>2012-08-15T10:35:34Z</time>
      </trkpt>
      <trkpt lat="47.35186" lon="-0.01373">
        <ele>92.4</ele>
        <time>2012-08-15T10:35:40Z</time>
      </trkpt>
      <trkpt lat="47.35167" lon="-0.01386">
        <ele>91.7</ele>
        <time>2012-08-15T10:35:45Z</time>
      </trkpt>
      <trkpt lat="47.35143" lon="-0.01407">
        <ele>89.9</ele>
        <time>2012-08-15T10:35:51Z</time>
      </trkpt>
      <trkpt lat="47.3514" lon="-0.0141">
        <ele>89.7</ele>
        <time>2012-08-15T10:35:52Z</time>
      </trkpt>
      <trkpt lat="47.35121" lon="-0.0143">
        <ele>88.4</ele>
        <time>2012-08-15T10:35:57Z</time>
      </trkpt>
      <trkpt lat="47.35097" lon="-0.01462">
        <ele>86.9</ele>
        <time>2012-08-15T10:36:04Z</time>
      </trkpt>
      <trkpt lat="47.35094" lon="-0.01467">
        <ele>86.8</ele>
        <time>2012-08-15T10:36:05Z</time>
      </trkpt>
      <trkpt lat="47.35075" lon="-0.01496">
        <ele>85.1</ele>
        <time>2012-08-15T10:36:10Z</time>
      </trkpt>
      <trkpt lat="47.35061" lon="-0.01512">
        <ele>84</ele>
        <time>2012-08-15T10:36:13Z</time>
      </trkpt>
      <trkpt lat="47.35043" lon="-0.01542">
        <ele>83.2</ele>
        <time>2012-08-15T10:36:18Z</time>
      </trkpt>
      <trkpt lat="47.35039" lon="-0.01547">
        <ele>82.9</ele>
        <time>2012-08-15T10:36:19Z</time>
      </trkpt>
      <trkpt lat="47.35018" lon="-0.0157">
        <ele>81.1</ele>
        <time>2012-08-15T10:36:23Z</time>
      </trkpt>
      <trkpt lat="47.35008" lon="-0.01582">
        <ele>80.5</ele>
        <time>2012-08-15T10:36:25Z</time>
      </trkpt>
      <trkpt lat="47.3499" lon="-0.01605">
        <ele>79.2</ele>
        <time>2012-08-15T10:36:29Z</time>
      </trkpt>
      <trkpt lat="47.34971" lon="-0.01625">
        <ele>77.9</ele>
        <time>2012-08-15T10:36:33Z</time>
      </trkpt>
      <trkpt lat="47.34951" lon="-0.01644">
        <ele>76.5</ele>
        <time>2012-08-15T10:36:37Z</time>
      </trkpt>
      <trkpt lat="47.34907" lon="-0.01676">
        <ele>74.3</ele>
        <time>2012-08-15T10:36:45Z</time>
      </trkpt>
      <trkpt lat="47.34902" lon="-0.0168">
        <ele>73.9</ele>
        <time>2012-08-15T10:36:46Z</time>
      </trkpt>
      <trkpt lat="47.34868" lon="-0.01699">
        <ele>72.2</ele>
        <time>2012-08-15T10:36:52Z</time>
      </trkpt>
      <trkpt lat="47.34862" lon="-0.01702">
        <ele>72</ele>
        <time>2012-08-15T10:36:53Z</time>
      </trkpt>
      <trkpt lat="47.34847" lon="-0.01711">
        <ele>71</ele>
        <time>2012-08-15T10:36:56Z</time>
      </trkpt>
      <trkpt lat="47.34812" lon="-0.01735">
        <ele>69.3</ele>
        <time>2012-08-15T10:37:02Z</time>
      </trkpt>
      <trkpt lat="47.34807" lon="-0.01738">
        <ele>69.1</ele>
        <time>2012-08-15T10:37:03Z</time>
      </trkpt>
      <trkpt lat="47.34785" lon="-0.01755">
        <ele>68.3</ele>
        <time>2012-08-15T10:37:07Z</time>
      </trkpt>
      <trkpt lat="47.34764" lon="-0.01774">
        <ele>67.4</ele>
        <time>2012-08-15T10:37:11Z</time>
      </trkpt>
      <trkpt lat="47.34738" lon="-0.0179">
        <ele>66.6</ele>
        <time>2012-08-15T10:37:16Z</time>
      </trkpt>
      <trkpt lat="47.34716" lon="-0.018">
        <ele>65.8</ele>
        <time>2012-08-15T10:37:20Z</time>
      </trkpt>
      <trkpt lat="47.34695" lon="-0.01812">
        <ele>65</ele>
        <time>2012-08-15T10:37:24Z</time>
      </trkpt>
      <trkpt lat="47.34655" lon="-0.01827">
        <ele>63.2</ele>
        <time>2012-08-15T10:37:31Z</time>
      </trkpt>
      <trkpt lat="47.34617" lon="-0.01844">
        <ele>61.2</ele>
        <time>2012-08-15T10:37:37Z</time>
      </trkpt>
      <trkpt lat="47.34591" lon="-0.01855">
        <ele>60.3</ele>
        <time>2012-08-15T10:37:42Z</time>
      </trkpt>
      <trkpt lat="47.34561" lon="-0.01873">
        <ele>59.2</ele>
        <time>2012-08-15T10:37:48Z</time>
      </trkpt>
      <trkpt lat="47.34533" lon="-0.01888">
        <ele>58.2</ele>
        <time>2012-08-15T10:37:54Z</time>
      </trkpt>
      <trkpt lat="47.34523" lon="-0.01893">
        <ele>57.8</ele>
        <time>2012-08-15T10:37:56Z</time>
      </trkpt>
      <trkpt lat="47.34473" lon="-0.0191">
        <ele>55.8</ele>
        <time>2012-08-15T10:38:04Z</time>
      </trkpt>
      <trkpt lat="47.34438" lon="-0.01925">
        <ele>54</ele>
        <time>2012-08-15T10:38:11Z</time>
      </trkpt>
      <trkpt lat="47.34433" lon="-0.01935">
        <ele>54</ele>
        <time>2012-08-15T10:38:15Z</time>
      </trkpt>
      <trkpt lat="47.34435" lon="-0.01937">
        <ele>54.1</ele>
        <time>2012-08-15T10:38:16Z</time>
      </trkpt>
      <trkpt lat="47.34451" lon="-0.01961">
        <ele>54.8</ele>
        <time>2012-08-15T10:38:23Z</time>
      </trkpt>
      <trkpt lat="47.34473" lon="-0.01993">
        <ele>55.3</ele>
        <time>2012-08-15T10:38:31Z</time>
      </trkpt>
      <trkpt lat="47.3449" lon="-0.02019">
        <ele>55.4</ele>
        <time>2012-08-15T10:38:37Z</time>
      </trkpt>
      <trkpt lat="47.34494" lon="-0.02023">
        <ele>55.6</ele>
        <time>2012-08-15T10:38:38Z</time>
      </trkpt>
      <trkpt lat="47.34515" lon="-0.02055">
        <ele>56.5</ele>
        <time>2012-08-15T10:38:45Z</time>
      </trkpt>
      <trkpt lat="47.3454" lon="-0.02094">
        <ele>57.2</ele>
        <time>2012-08-15T10:38:53Z</time>
      </trkpt>
      <trkpt lat="47.3456" lon="-0.02125">
        <ele>58.1</ele>
        <time>2012-08-15T10:38:59Z</time>
      </trkpt>
      <trkpt lat="47.34588" lon="-0.02163">
        <ele>59.2</ele>
        <time>2012-08-15T10:39:07Z</time>
      </trkpt>
      <trkpt lat="47.34597" lon="-0.02176">
        <ele>59.5</ele>
        <time>2012-08-15T10:39:10Z</time>
      </trkpt>
      <trkpt lat="47.34603" lon="-0.02185">
        <ele>59.7</ele>
        <time>2012-08-15T10:39:12Z</time>
      </trkpt>
      <trkpt lat="47.34627" lon="-0.02219">
        <ele>60.6</ele>
        <time>2012-08-15T10:39:20Z</time>
      </trkpt>
      <trkpt lat="47.34652" lon="-0.0226">
        <ele>61.5</ele>
        <time>2012-08-15T10:39:29Z</time>
      </trkpt>
      <trkpt lat="47.34662" lon="-0.02277">
        <ele>61.8</ele>
        <time>2012-08-15T10:39:33Z</time>
      </trkpt>
      <trkpt lat="47.34667" lon="-0.02284">
        <ele>62</ele>
        <time>2012-08-15T10:39:35Z</time>
      </trkpt>
      <trkpt lat="47.34677" lon="-0.02297">
        <ele>62.4</ele>
        <time>2012-08-15T10:39:39Z</time>
      </trkpt>
      <trkpt lat="47.34687" lon="-0.02311">
        <ele>62.9</ele>
        <time>2012-08-15T10:39:43Z</time>
      </trkpt>
      <trkpt lat="47.34696" lon="-0.02326">
        <ele>63.8</ele>
        <time>2012-08-15T10:39:47Z</time>
      </trkpt>
      <trkpt lat="47.34713" lon="-0.02346">
        <ele>64.7</ele>
        <time>2012-08-15T10:39:53Z</time>
      </trkpt>
      <trkpt lat="47.34732" lon="-0.0237">
        <ele>65.7</ele>
        <time>2012-08-15T10:40:00Z</time>
      </trkpt>
      <trkpt lat="47.34752" lon="-0.0239">
        <ele>67</ele>
        <time>2012-08-15T10:40:07Z</time>
      </trkpt>
      <trkpt lat="47.34755" lon="-0.02393">
        <ele>67.1</ele>
        <time>2012-08-15T10:40:08Z</time>
      </trkpt>
      <trkpt lat="47.34775" lon="-0.02411">
        <ele>67.8</ele>
        <time>2012-08-15T10:40:15Z</time>
      </trkpt>
      <trkpt lat="47.3479" lon="-0.02425">
        <ele>69</ele>
        <time>2012-08-15T10:40:21Z</time>
      </trkpt>
      <trkpt lat="47.3481" lon="-0.0244">
        <ele>71</ele>
        <time>2012-08-15T10:40:28Z</time>
      </trkpt>
      <trkpt lat="47.34823" lon="-0.02452">
        <ele>72.6</ele>
        <time>2012-08-15T10:40:34Z</time>
      </trkpt>
      <trkpt lat="47.34836" lon="-0.0246">
        <ele>73.6</ele>
        <time>2012-08-15T10:40:39Z</time>
      </trkpt>
      <trkpt lat="47.34849" lon="-0.02469">
        <ele>74.4</ele>
        <time>2012-08-15T10:40:45Z</time>
      </trkpt>
      <trkpt lat="47.34864" lon="-0.02474">
        <ele>75.2</ele>
        <time>2012-08-15T10:40:52Z</time>
      </trkpt>
      <trkpt lat="47.34874" lon="-0.02479">
        <ele>76</ele>
        <time>2012-08-15T10:40:58Z</time>
      </trkpt>
      <trkpt lat="47.3489" lon="-0.02488">
        <ele>77.1</ele>
        <time>2012-08-15T10:41:03Z</time>
      </trkpt>
      <trkpt lat="47.34912" lon="-0.02496">
        <ele>77.7</ele>
        <time>2012-08-15T10:41:11Z</time>
      </trkpt>
      <trkpt lat="47.34933" lon="-0.02506">
        <ele>79</ele>
        <time>2012-08-15T10:41:19Z</time>
      </trkpt>
      <trkpt lat="47.34952" lon="-0.02514">
        <ele>80</ele>
        <time>2012-08-15T10:41:26Z</time>
      </trkpt>
      <trkpt lat="47.34971" lon="-0.02521">
        <ele>80.5</ele>
        <time>2012-08-15T10:41:34Z</time>
      </trkpt>
      <trkpt lat="47.34995" lon="-0.02531">
        <ele>81.1</ele>
        <time>2012-08-15T10:41:41Z</time>
      </trkpt>
      <trkpt lat="47.35013" lon="-0.02538">
        <ele>82.1</ele>
        <time>2012-08-15T10:41:47Z</time>
      </trkpt>
      <trkpt lat="47.35037" lon="-0.02546">
        <ele>83.4</ele>
        <time>2012-08-15T10:41:55Z</time>
      </trkpt>
      <trkpt lat="47.35064" lon="-0.02549">
        <ele>84.9</ele>
        <time>2012-08-15T10:42:03Z</time>
      </trkpt>
      <trkpt lat="47.35083" lon="-0.0255">
        <ele>86.4</ele>
        <time>2012-08-15T10:42:09Z</time>
      </trkpt>
      <trkpt lat="47.35087" lon="-0.0255">
        <ele>86.7</ele>
        <time>2012-08-15T10:42:10Z</time>
      </trkpt>
      <trkpt lat="47.35093" lon="-0.02551">
        <ele>87.1</ele>
        <time>2012-08-15T10:42:12Z</time>
      </trkpt>
      <trkpt lat="47.35119" lon="-0.02552">
        <ele>89.1</ele>
        <time>2012-08-15T10:42:21Z</time>
      </trkpt>
      <trkpt lat="47.35136" lon="-0.0255">
        <ele>90.6</ele>
        <time>2012-08-15T10:42:27Z</time>
      </trkpt>
      <trkpt lat="47.35146" lon="-0.02549">
        <ele>91.3</ele>
        <time>2012-08-15T10:42:31Z</time>
      </trkpt>
      <trkpt lat="47.35162" lon="-0.02546">
        <ele>92.5</ele>
        <time>2012-08-15T10:42:38Z</time>
      </trkpt>
      <trkpt lat="47.35167" lon="-0.02546">
        <ele>92.7</ele>
        <time>2012-08-15T10:42:40Z</time>
      </trkpt>
      <trkpt lat="47.3518" lon="-0.02548">
        <ele>93.5</ele>
        <time>2012-08-15T10:42:46Z</time>
      </trkpt>
      <trkpt lat="47.35195" lon="-0.02556">
        <ele>94.1</ele>
        <time>2012-08-15T10:42:52Z</time>
      </trkpt>
      <trkpt lat="47.35206" lon="-0.02564">
        <ele>95.5</ele>
        <time>2012-08-15T10:42:57Z</time>
      </trkpt>
      <trkpt lat="47.35213" lon="-0.02566">
        <ele>96</ele>
        <time>2012-08-15T10:43:00Z</time>
      </trkpt>
      <trkpt lat="47.35233" lon="-0.02578">
        <ele>97</ele>
        <time>2012-08-15T10:43:08Z</time>
      </trkpt>
      <trkpt lat="47.35257" lon="-0.02589">
        <ele>97.8</ele>
        <time>2012-08-15T10:43:16Z</time>
      </trkpt>
      <trkpt lat="47.35274" lon="-0.02598">
        <ele>98.9</ele>
        <time>2012-08-15T10:43:22Z</time>
      </trkpt>
      <trkpt lat="47.35294" lon="-0.02607">
        <ele>99.6</ele>
        <time>2012-08-15T10:43:29Z</time>
      </trkpt>
      <trkpt lat="47.35314" lon="-0.02591">
        <ele>100.3</ele>
        <time>2012-08-15T10:43:37Z</time>
      </trkpt>
      <trkpt lat="47.35331" lon="-0.02574">
        <ele>100.9</ele>
        <time>2012-08-15T10:43:44Z</time>
      </trkpt>
      <trkpt lat="47.35333" lon="-0.02571">
        <ele>101</ele>
        <time>2012-08-15T10:43:45Z</time>
      </trkpt>
      <trkpt lat="47.35353" lon="-0.02542">
        <ele>101.7</ele>
        <time>2012-08-15T10:43:51Z</time>
      </trkpt>
      <trkpt lat="47.35377" lon="-0.02505">
        <ele>102.9</ele>
        <time>2012-08-15T10:44:00Z</time>
      </trkpt>
      <trkpt lat="47.35394" lon="-0.02475">
        <ele>103.9</ele>
        <time>2012-08-15T10:44:07Z</time>
      </trkpt>
      <trkpt lat="47.35407" lon="-0.02449">
        <ele>104</ele>
        <time>2012-08-15T10:44:13Z</time>
      </trkpt>
      <trkpt lat="47.35421" lon="-0.02414">
        <ele>105</ele>
        <time>2012-08-15T10:44:21Z</time>
      </trkpt>
      <trkpt lat="47.35436" lon="-0.02391">
        <ele>105</ele>
        <time>2012-08-15T10:44:28Z</time>
      </trkpt>
      <trkpt lat="47.35455" lon="-0.02358">
        <ele>105.4</ele>
        <time>2012-08-15T10:44:36Z</time>
      </trkpt>
      <trkpt lat="47.35473" lon="-0.02329">
        <ele>106</ele>
        <time>2012-08-15T10:44:43Z</time>
      </trkpt>
      <trkpt lat="47.35475" lon="-0.02324">
        <ele>106</ele>
        <time>2012-08-15T10:44:44Z</time>
      </trkpt>
      <trkpt lat="47.35497" lon="-0.0228">
        <ele>106</ele>
        <time>2012-08-15T10:44:53Z</time>
      </trkpt>
      <trkpt lat="47.35515" lon="-0.02251">
        <ele>106</ele>
        <time>2012-08-15T10:44:59Z</time>
      </trkpt>
      <trkpt lat="47.35536" lon="-0.02214">
        <ele>106</ele>
        <time>2012-08-15T10:45:07Z</time>
      </trkpt>
      <trkpt lat="47.3555" lon="-0.02191">
        <ele>106.1</ele>
        <time>2012-08-15T10:45:12Z</time>
      </trkpt>
      <trkpt lat="47.35558" lon="-0.02178">
        <ele>106.6</ele>
        <time>2012-08-15T10:45:15Z</time>
      </trkpt>
      <trkpt lat="47.35576" lon="-0.02144">
        <ele>107</ele>
        <time>2012-08-15T10:45:22Z</time>
      </trkpt>
      <trkpt lat="47.35584" lon="-0.02128">
        <ele>107</ele>
        <time>2012-08-15T10:45:25Z</time>
      </trkpt>
      <trkpt lat="47.35589" lon="-0.02117">
        <ele>107</ele>
        <time>2012-08-15T10:45:27Z</time>
      </trkpt>
      <trkpt lat="47.35597" lon="-0.021">
        <ele>107</ele>
        <time>2012-08-15T10:45:30Z</time>
      </trkpt>
      <trkpt lat="47.35607" lon="-0.02079">
        <ele>107</ele>
        <time>2012-08-15T10:45:34Z</time>
      </trkpt>
      <trkpt lat="47.3561" lon="-0.02075">
        <ele>107</ele>
        <time>2012-08-15T10:45:35Z</time>
      </trkpt>
      <trkpt lat="47.35612" lon="-0.0207">
        <ele>107</ele>
        <time>2012-08-15T10:45:36Z</time>
      </trkpt>
      <trkpt lat="47.35628" lon="-0.02038">
        <ele>107</ele>
        <time>2012-08-15T10:45:43Z</time>
      </trkpt>
      <trkpt lat="47.35637" lon="-0.02019">
        <ele>107</ele>
        <time>2012-08-15T07:06:41Z</time>
      </trkpt>
      <trkpt lat="47.35637" lon="-0.02019">
        <ele>107</ele>
        <time>2012-08-15T07:06:41Z</time>
      </trkpt>
      <trkpt lat="47.35637" lon="-0.02013">
        <ele>107</ele>
        <time>2012-08-15T07:06:42Z</time>
      </trkpt>
      <trkpt lat="47.35638" lon="-0.02006">
        <ele>107</ele>
        <time>2012-08-15T07:06:43Z</time>
      </trkpt>
      <trkpt lat="47.35638" lon="-0.02001">
        <ele>107</ele>
        <time>2012-08-15T07:06:44Z</time>
      </trkpt>
      <trkpt lat="47.35637" lon="-0.01996">
        <ele>107</ele>
        <time>2012-08-15T07:06:45Z</time>
      </trkpt>
      <trkpt lat="47.35635" lon="-0.01991">
        <ele>107</ele>
        <time>2012-08-15T07:06:46Z</time>
      </trkpt>
      <trkpt lat="47.35624" lon="-0.01944">
        <ele>107.5</ele>
        <time>2012-08-15T07:06:53Z</time>
      </trkpt>
      <trkpt lat="47.35613" lon="-0.01899">
        <ele>108</ele>
        <time>2012-08-15T07:07:00Z</time>
      </trkpt>
      <trkpt lat="47.356" lon="-0.01844">
        <ele>108.2</ele>
        <time>2012-08-15T07:07:08Z</time>
      </trkpt>
      <trkpt lat="47.35591" lon="-0.0181">
        <ele>109</ele>
        <time>2012-08-15T07:07:13Z</time>
      </trkpt>
      <trkpt lat="47.3558" lon="-0.01769">
        <ele>109</ele>
        <time>2012-08-15T07:07:19Z</time>
      </trkpt>
      <trkpt lat="47.35576" lon="-0.01746">
        <ele>109</ele>
        <time>2012-08-15T07:07:22Z</time>
      </trkpt>
      <trkpt lat="47.35561" lon="-0.01695">
        <ele>109</ele>
        <time>2012-08-15T07:07:30Z</time>
      </trkpt>
      <trkpt lat="47.35548" lon="-0.01644">
        <ele>109.6</ele>
        <time>2012-08-15T07:07:38Z</time>
      </trkpt>
      <trkpt lat="47.35543" lon="-0.01625">
        <ele>109.5</ele>
        <time>2012-08-15T07:07:41Z</time>
      </trkpt>
      <trkpt lat="47.35529" lon="-0.01573">
        <ele>109</ele>
        <time>2012-08-15T07:07:49Z</time>
      </trkpt>
      <trkpt lat="47.35525" lon="-0.01563">
        <ele>109</ele>
        <time>2012-08-15T07:07:51Z</time>
      </trkpt>
      <trkpt lat="47.35515" lon="-0.01556">
        <ele>109</ele>
        <time>2012-08-15T07:07:54Z</time>
      </trkpt>
      <trkpt lat="47.35484" lon="-0.01552">
        <ele>108.4</ele>
        <time>2012-08-15T07:08:01Z</time>
      </trkpt>
      <trkpt lat="47.35464" lon="-0.01546">
        <ele>108</ele>
        <time>2012-08-15T07:08:06Z</time>
      </trkpt>
      <trkpt lat="47.35442" lon="-0.0154">
        <ele>107.9</ele>
        <time>2012-08-15T07:08:11Z</time>
      </trkpt>
      <trkpt lat="47.35411" lon="-0.01529">
        <ele>107</ele>
        <time>2012-08-15T07:08:19Z</time>
      </trkpt>
      <trkpt lat="47.35398" lon="-0.0152">
        <ele>106.8</ele>
        <time>2012-08-15T07:08:24Z</time>
      </trkpt>
      <trkpt lat="47.35374" lon="-0.01508">
        <ele>106.1</ele>
        <time>2012-08-15T07:08:30Z</time>
      </trkpt>
      <trkpt lat="47.35357" lon="-0.01492">
        <ele>105.9</ele>
        <time>2012-08-15T07:08:35Z</time>
      </trkpt>
      <trkpt lat="47.35343" lon="-0.01483">
        <ele>105.3</ele>
        <time>2012-08-15T07:08:38Z</time>
      </trkpt>
      <trkpt lat="47.35329" lon="-0.01472">
        <ele>105</ele>
        <time>2012-08-15T07:08:41Z</time>
      </trkpt>
      <trkpt lat="47.35296" lon="-0.01452">
        <ele>103.2</ele>
        <time>2012-08-15T07:08:47Z</time>
      </trkpt>
      <trkpt lat="47.35273" lon="-0.01427">
        <ele>100.7</ele>
        <time>2012-08-15T07:08:51Z</time>
      </trkpt>
      <trkpt lat="47.35263" lon="-0.01413">
        <ele>99.8</ele>
        <time>2012-08-15T07:08:53Z</time>
      </trkpt>
      <trkpt lat="47.3524" lon="-0.01385">
        <ele>97.2</ele>
        <time>2012-08-15T07:08:57Z</time>
      </trkpt>
      <trkpt lat="47.35221" lon="-0.01364">
        <ele>94.2</ele>
        <time>2012-08-15T07:09:00Z</time>
      </trkpt>
      <trkpt lat="47.35204" lon="-0.01345">
        <ele>91.3</ele>
        <time>2012-08-15T07:09:03Z</time>
      </trkpt>
      <trkpt lat="47.35197" lon="-0.0134">
        <ele>90.6</ele>
        <time>2012-08-15T07:09:04Z</time>
      </trkpt>
      <trkpt lat="47.35164" lon="-0.01308">
        <ele>84.9</ele>
        <time>2012-08-15T07:09:09Z</time>
      </trkpt>
      <trkpt lat="47.3515" lon="-0.01295">
        <ele>82.4</ele>
        <time>2012-08-15T07:09:11Z</time>
      </trkpt>
      <trkpt lat="47.35144" lon="-0.01289">
        <ele>81.4</ele>
        <time>2012-08-15T07:09:12Z</time>
      </trkpt>
      <trkpt lat="47.3513" lon="-0.01274">
        <ele>78.9</ele>
        <time>2012-08-15T07:09:14Z</time>
      </trkpt>
      <trkpt lat="47.35105" lon="-0.0125">
        <ele>75.3</ele>
        <time>2012-08-15T07:09:17Z</time>
      </trkpt>
      <trkpt lat="47.35089" lon="-0.01232">
        <ele>72.8</ele>
        <time>2012-08-15T07:09:20Z</time>
      </trkpt>
      <trkpt lat="47.35087" lon="-0.01218">
        <ele>72.1</ele>
        <time>2012-08-15T07:09:25Z</time>
      </trkpt>
      <trkpt lat="47.3509" lon="-0.01211">
        <ele>72.1</ele>
        <time>2012-08-15T07:09:27Z</time>
      </trkpt>
      <trkpt lat="47.35098" lon="-0.01186">
        <ele>71.8</ele>
        <time>2012-08-15T07:09:33Z</time>
      </trkpt>
      <trkpt lat="47.3511" lon="-0.01151">
        <ele>71.4</ele>
        <time>2012-08-15T07:09:40Z</time>
      </trkpt>
      <trkpt lat="47.3512" lon="-0.01116">
        <ele>70.8</ele>
        <time>2012-08-15T07:09:46Z</time>
      </trkpt>
      <trkpt lat="47.35137" lon="-0.01074">
        <ele>70.9</ele>
        <time>2012-08-15T07:09:54Z</time>
      </trkpt>
      <trkpt lat="47.35153" lon="-0.01066">
        <ele>72.5</ele>
        <time>2012-08-15T07:10:00Z</time>
      </trkpt>
      <trkpt lat="47.3516" lon="-0.0107">
        <ele>73.3</ele>
        <time>2012-08-15T07:10:03Z</time>
      </trkpt>
      <trkpt lat="47.35181" lon="-0.01082">
        <ele>75.5</ele>
        <time>2012-08-15T07:10:11Z</time>
      </trkpt>
      <trkpt lat="47.35197" lon="-0.01093">
        <ele>77.2</ele>
        <time>2012-08-15T07:10:18Z</time>
      </trkpt>
      <trkpt lat="47.35207" lon="-0.01101">
        <ele>77.9</ele>
        <time>2012-08-15T07:10:23Z</time>
      </trkpt>
      <trkpt lat="47.35221" lon="-0.01111">
        <ele>78.9</ele>
        <time>2012-08-15T07:10:30Z</time>
      </trkpt>
      <trkpt lat="47.35223" lon="-0.01112">
        <ele>79.1</ele>
        <time>2012-08-15T07:10:31Z</time>
      </trkpt>
      <trkpt lat="47.35227" lon="-0.01114">
        <ele>79.8</ele>
        <time>2012-08-15T07:10:33Z</time>
      </trkpt>
      <trkpt lat="47.35231" lon="-0.01117">
        <ele>80.4</ele>
        <time>2012-08-15T07:10:35Z</time>
      </trkpt>
      <trkpt lat="47.35238" lon="-0.01122">
        <ele>81.4</ele>
        <time>2012-08-15T07:10:39Z</time>
      </trkpt>
      <trkpt lat="47.35247" lon="-0.01127">
        <ele>82.6</ele>
        <time>2012-08-15T07:10:45Z</time>
      </trkpt>
      <trkpt lat="47.3525" lon="-0.0113">
        <ele>83</ele>
        <time>2012-08-15T07:10:48Z</time>
      </trkpt>
      <trkpt lat="47.35251" lon="-0.01131">
        <ele>83.1</ele>
        <time>2012-08-15T07:10:51Z</time>
      </trkpt>
      <trkpt lat="47.35255" lon="-0.01133">
        <ele>83.7</ele>
        <time>2012-08-15T07:10:55Z</time>
      </trkpt>
      <trkpt lat="47.35257" lon="-0.01135">
        <ele>84</ele>
        <time>2012-08-15T07:10:57Z</time>
      </trkpt>
      <trkpt lat="47.35264" lon="-0.01134">
        <ele>84.9</ele>
        <time>2012-08-15T07:11:03Z</time>
      </trkpt>
      <trkpt lat="47.35273" lon="-0.01139">
        <ele>86.3</ele>
        <time>2012-08-15T07:11:11Z</time>
      </trkpt>
      <trkpt lat="47.35279" lon="-0.01142">
        <ele>87.1</ele>
        <time>2012-08-15T07:11:15Z</time>
      </trkpt>
      <trkpt lat="47.35292" lon="-0.01142">
        <ele>89</ele>
        <time>2012-08-15T07:11:23Z</time>
      </trkpt>
      <trkpt lat="47.35295" lon="-0.01142">
        <ele>89.4</ele>
        <time>2012-08-15T07:11:25Z</time>
      </trkpt>
      <trkpt lat="47.35316" lon="-0.01147">
        <ele>92.9</ele>
        <time>2012-08-15T07:11:31Z</time>
      </trkpt>
      <trkpt lat="47.3533" lon="-0.01146">
        <ele>95.4</ele>
        <time>2012-08-15T07:11:37Z</time>
      </trkpt>
      <trkpt lat="47.3534" lon="-0.01142">
        <ele>96.7</ele>
        <time>2012-08-15T07:11:44Z</time>
      </trkpt>
      <trkpt lat="47.35346" lon="-0.01136">
        <ele>97.3</ele>
        <time>2012-08-15T07:11:50Z</time>
      </trkpt>
      <trkpt lat="47.3535" lon="-0.01132">
        <ele>97.7</ele>
        <time>2012-08-15T07:11:55Z</time>
      </trkpt>
      <trkpt lat="47.3535" lon="-0.01131">
        <ele>97.7</ele>
        <time>2012-08-15T07:12:00Z</time>
      </trkpt>
      <trkpt lat="47.35351" lon="-0.0113">
        <ele>97.8</ele>
        <time>2012-08-15T07:12:09Z</time>
      </trkpt>
      <trkpt lat="47.35357" lon="-0.01125">
        <ele>98.5</ele>
        <time>2012-08-15T07:12:22Z</time>
      </trkpt>
      <trkpt lat="47.35358" lon="-0.01122">
        <ele>98.6</ele>
        <time>2012-08-15T07:12:28Z</time>
      </trkpt>
      <trkpt lat="47.35358" lon="-0.0112">
        <ele>98.6</ele>
        <time>2012-08-15T07:12:30Z</time>
      </trkpt>
      <trkpt lat="47.35362" lon="-0.01102">
        <ele>98.7</ele>
        <time>2012-08-15T07:12:36Z</time>
      </trkpt>
      <trkpt lat="47.35368" lon="-0.01092">
        <ele>99</ele>
        <time>2012-08-15T07:12:40Z</time>
      </trkpt>
      <trkpt lat="47.35377" lon="-0.01077">
        <ele>99.5</ele>
        <time>2012-08-15T07:12:45Z</time>
      </trkpt>
      <trkpt lat="47.35396" lon="-0.01065">
        <ele>100.9</ele>
        <time>2012-08-15T07:12:52Z</time>
      </trkpt>
      <trkpt lat="47.35417" lon="-0.01057">
        <ele>102.1</ele>
        <time>2012-08-15T07:12:58Z</time>
      </trkpt>
      <trkpt lat="47.35435" lon="-0.01054">
        <ele>102.6</ele>
        <time>2012-08-15T07:13:03Z</time>
      </trkpt>
      <trkpt lat="47.35449" lon="-0.01039">
        <ele>102.4</ele>
        <time>2012-08-15T07:13:08Z</time>
      </trkpt>
      <trkpt lat="47.35468" lon="-0.01032">
        <ele>102.2</ele>
        <time>2012-08-15T07:13:13Z</time>
      </trkpt>
      <trkpt lat="47.35483" lon="-0.01024">
        <ele>101.5</ele>
        <time>2012-08-15T07:13:17Z</time>
      </trkpt>
      <trkpt lat="47.35496" lon="-0.01016">
        <ele>100.7</ele>
        <time>2012-08-15T07:13:21Z</time>
      </trkpt>
      <trkpt lat="47.35514" lon="-0.00998">
        <ele>98.9</ele>
        <time>2012-08-15T07:13:26Z</time>
      </trkpt>
      <trkpt lat="47.35518" lon="-0.00994">
        <ele>98.3</ele>
        <time>2012-08-15T07:13:27Z</time>
      </trkpt>
      <trkpt lat="47.35528" lon="-0.00986">
        <ele>97</ele>
        <time>2012-08-15T07:13:29Z</time>
      </trkpt>
      <trkpt lat="47.35551" lon="-0.00968">
        <ele>93.9</ele>
        <time>2012-08-15T07:13:33Z</time>
      </trkpt>
      <trkpt lat="47.35561" lon="-0.00932">
        <ele>89.9</ele>
        <time>2012-08-15T07:13:38Z</time>
      </trkpt>
      <trkpt lat="47.35561" lon="-0.00923">
        <ele>89.3</ele>
        <time>2012-08-15T07:13:39Z</time>
      </trkpt>
      <trkpt lat="47.35553" lon="-0.00882">
        <ele>85.7</ele>
        <time>2012-08-15T07:13:43Z</time>
      </trkpt>
      <trkpt lat="47.35549" lon="-0.00874">
        <ele>85.3</ele>
        <time>2012-08-15T07:13:44Z</time>
      </trkpt>
      <trkpt lat="47.35537" lon="-0.00857">
        <ele>84.4</ele>
        <time>2012-08-15T07:13:46Z</time>
      </trkpt>
      <trkpt lat="47.35529" lon="-0.00826">
        <ele>82.4</ele>
        <time>2012-08-15T07:13:49Z</time>
      </trkpt>
      <trkpt lat="47.35523" lon="-0.00795">
        <ele>80.2</ele>
        <time>2012-08-15T07:13:52Z</time>
      </trkpt>
      <trkpt lat="47.35512" lon="-0.00764">
        <ele>78</ele>
        <time>2012-08-15T07:13:56Z</time>
      </trkpt>
      <trkpt lat="47.35504" lon="-0.00741">
        <ele>76.7</ele>
        <time>2012-08-15T07:14:00Z</time>
      </trkpt>
      <trkpt lat="47.35511" lon="-0.00736">
        <ele>76.7</ele>
        <time>2012-08-15T07:14:05Z</time>
      </trkpt>
      <trkpt lat="47.35513" lon="-0.00738">
        <ele>76.8</ele>
        <time>2012-08-15T07:14:06Z</time>
      </trkpt>
      <trkpt lat="47.3553" lon="-0.00755">
        <ele>77.4</ele>
        <time>2012-08-15T07:14:12Z</time>
      </trkpt>
      <trkpt lat="47.35533" lon="-0.00759">
        <ele>77.8</ele>
        <time>2012-08-15T07:14:13Z</time>
      </trkpt>
      <trkpt lat="47.35554" lon="-0.00782">
        <ele>79.2</ele>
        <time>2012-08-15T07:14:20Z</time>
      </trkpt>
      <trkpt lat="47.35564" lon="-0.00793">
        <ele>79.7</ele>
        <time>2012-08-15T07:14:24Z</time>
      </trkpt>
      <trkpt lat="47.35573" lon="-0.00805">
        <ele>80</ele>
        <time>2012-08-15T07:14:28Z</time>
      </trkpt>
      <trkpt lat="47.35576" lon="-0.00808">
        <ele>80.2</ele>
        <time>2012-08-15T07:14:29Z</time>
      </trkpt>
      <trkpt lat="47.35589" lon="-0.00825">
        <ele>81.5</ele>
        <time>2012-08-15T07:14:35Z</time>
      </trkpt>
      <trkpt lat="47.35603" lon="-0.00837">
        <ele>82.2</ele>
        <time>2012-08-15T07:14:40Z</time>
      </trkpt>
      <trkpt lat="47.35619" lon="-0.00844">
        <ele>82.8</ele>
        <time>2012-08-15T07:14:45Z</time>
      </trkpt>
      <trkpt lat="47.3564" lon="-0.00849">
        <ele>84.1</ele>
        <time>2012-08-15T07:14:51Z</time>
      </trkpt>
      <trkpt lat="47.35663" lon="-0.00856">
        <ele>86.4</ele>
        <time>2012-08-15T07:14:57Z</time>
      </trkpt>
      <trkpt lat="47.35686" lon="-0.00862">
        <ele>88.4</ele>
        <time>2012-08-15T07:15:04Z</time>
      </trkpt>
      <trkpt lat="47.35704" lon="-0.00866">
        <ele>89.8</ele>
        <time>2012-08-15T07:15:10Z</time>
      </trkpt>
      <trkpt lat="47.35725" lon="-0.00872">
        <ele>91.2</ele>
        <time>2012-08-15T07:15:17Z</time>
      </trkpt>
      <trkpt lat="47.35742" lon="-0.00876">
        <ele>92.4</ele>
        <time>2012-08-15T07:15:22Z</time>
      </trkpt>
      <trkpt lat="47.35758" lon="-0.0088">
        <ele>93.6</ele>
        <time>2012-08-15T07:15:28Z</time>
      </trkpt>
      <trkpt lat="47.35777" lon="-0.00882">
        <ele>94.9</ele>
        <time>2012-08-15T07:15:35Z</time>
      </trkpt>
      <trkpt lat="47.35781" lon="-0.00882">
        <ele>95.2</ele>
        <time>2012-08-15T07:15:36Z</time>
      </trkpt>
      <trkpt lat="47.35799" lon="-0.00885">
        <ele>96.5</ele>
        <time>2012-08-15T07:15:43Z</time>
      </trkpt>
      <trkpt lat="47.35817" lon="-0.00888">
        <ele>97.4</ele>
        <time>2012-08-15T07:15:50Z</time>
      </trkpt>
      <trkpt lat="47.35831" lon="-0.00893">
        <ele>97.9</ele>
        <time>2012-08-15T07:15:55Z</time>
      </trkpt>
      <trkpt lat="47.35852" lon="-0.00898">
        <ele>99.3</ele>
        <time>2012-08-15T07:16:02Z</time>
      </trkpt>
      <trkpt lat="47.35874" lon="-0.00908">
        <ele>100.5</ele>
        <time>2012-08-15T07:16:09Z</time>
      </trkpt>
      <trkpt lat="47.35883" lon="-0.00913">
        <ele>100.8</ele>
        <time>2012-08-15T07:16:12Z</time>
      </trkpt>
      <trkpt lat="47.35898" lon="-0.00898">
        <ele>101</ele>
        <time>2012-08-15T07:16:18Z</time>
      </trkpt>
      <trkpt lat="47.35914" lon="-0.00872">
        <ele>101.6</ele>
        <time>2012-08-15T07:16:25Z</time>
      </trkpt>
      <trkpt lat="47.35932" lon="-0.00844">
        <ele>101.8</ele>
        <time>2012-08-15T07:16:32Z</time>
      </trkpt>
      <trkpt lat="47.35948" lon="-0.00825">
        <ele>101.9</ele>
        <time>2012-08-15T07:16:37Z</time>
      </trkpt>
      <trkpt lat="47.35969" lon="-0.00803">
        <ele>102</ele>
        <time>2012-08-15T07:16:43Z</time>
      </trkpt>
      <trkpt lat="47.35987" lon="-0.00782">
        <ele>102</ele>
        <time>2012-08-15T07:16:49Z</time>
      </trkpt>
      <trkpt lat="47.36002" lon="-0.00765">
        <ele>102.5</ele>
        <time>2012-08-15T07:16:54Z</time>
      </trkpt>
      <trkpt lat="47.3602" lon="-0.00743">
        <ele>103.3</ele>
        <time>2012-08-15T07:17:00Z</time>
      </trkpt>
      <trkpt lat="47.3604" lon="-0.00722">
        <ele>103.6</ele>
        <time>2012-08-15T07:17:06Z</time>
      </trkpt>
      <trkpt lat="47.36045" lon="-0.00719">
        <ele>103.4</ele>
        <time>2012-08-15T07:17:08Z</time>
      </trkpt>
      <trkpt lat="47.3605" lon="-0.00722">
        <ele>103.2</ele>
        <time>2012-08-15T07:17:10Z</time>
      </trkpt>
      <trkpt lat="47.36061" lon="-0.00715">
        <ele>102.8</ele>
        <time>2012-08-15T07:17:14Z</time>
      </trkpt>
      <trkpt lat="47.36085" lon="-0.00685">
        <ele>101.9</ele>
        <time>2012-08-15T07:17:22Z</time>
      </trkpt>
      <trkpt lat="47.36092" lon="-0.00677">
        <ele>101.4</ele>
        <time>2012-08-15T07:17:24Z</time>
      </trkpt>
      <trkpt lat="47.36116" lon="-0.00644">
        <ele>99.8</ele>
        <time>2012-08-15T07:17:31Z</time>
      </trkpt>
      <trkpt lat="47.36122" lon="-0.00635">
        <ele>99.7</ele>
        <time>2012-08-15T07:17:33Z</time>
      </trkpt>
      <trkpt lat="47.36158" lon="-0.00591">
        <ele>97.6</ele>
        <time>2012-08-15T07:17:42Z</time>
      </trkpt>
      <trkpt lat="47.36167" lon="-0.00582">
        <ele>97</ele>
        <time>2012-08-15T07:17:44Z</time>
      </trkpt>
      <trkpt lat="47.36197" lon="-0.00542">
        <ele>96.4</ele>
        <time>2012-08-15T07:17:51Z</time>
      </trkpt>
      <trkpt lat="47.36236" lon="-0.00497">
        <ele>95.6</ele>
        <time>2012-08-15T07:17:59Z</time>
      </trkpt>
      <trkpt lat="47.3624" lon="-0.00492">
        <ele>95.5</ele>
        <time>2012-08-15T07:18:00Z</time>
      </trkpt>
      <trkpt lat="47.36251" lon="-0.00475">
        <ele>95.9</ele>
        <time>2012-08-15T07:18:03Z</time>
      </trkpt>
      <trkpt lat="47.36267" lon="-0.00427">
        <ele>97</ele>
        <time>2012-08-15T07:18:11Z</time>
      </trkpt>
      <trkpt lat="47.36276" lon="-0.00399">
        <ele>97.6</ele>
        <time>2012-08-15T07:18:17Z</time>
      </trkpt>
      <trkpt lat="47.36279" lon="-0.00392">
        <ele>97.9</ele>
        <time>2012-08-15T07:18:19Z</time>
      </trkpt>
      <trkpt lat="47.36284" lon="-0.00387">
        <ele>98.1</ele>
        <time>2012-08-15T07:18:22Z</time>
      </trkpt>
      <trkpt lat="47.36292" lon="-0.00392">
        <ele>97.9</ele>
        <time>2012-08-15T07:18:27Z</time>
      </trkpt>
      <trkpt lat="47.36296" lon="-0.00405">
        <ele>97.4</ele>
        <time>2012-08-15T07:18:31Z</time>
      </trkpt>
      <trkpt lat="47.36306" lon="-0.00416">
        <ele>97</ele>
        <time>2012-08-15T07:18:36Z</time>
      </trkpt>
      <trkpt lat="47.3631" lon="-0.00418">
        <ele>96.8</ele>
        <time>2012-08-15T07:18:37Z</time>
      </trkpt>
      <trkpt lat="47.36317" lon="-0.00424">
        <ele>96.5</ele>
        <time>2012-08-15T07:18:39Z</time>
      </trkpt>
      <trkpt lat="47.36325" lon="-0.0043">
        <ele>96</ele>
        <time>2012-08-15T07:18:41Z</time>
      </trkpt>
      <trkpt lat="47.36352" lon="-0.00452">
        <ele>92.8</ele>
        <time>2012-08-15T07:18:46Z</time>
      </trkpt>
      <trkpt lat="47.36359" lon="-0.00458">
        <ele>91.8</ele>
        <time>2012-08-15T07:18:47Z</time>
      </trkpt>
      <trkpt lat="47.36383" lon="-0.00473">
        <ele>87.8</ele>
        <time>2012-08-15T07:18:50Z</time>
      </trkpt>
      <trkpt lat="47.36399" lon="-0.00485">
        <ele>85.7</ele>
        <time>2012-08-15T07:18:52Z</time>
      </trkpt>
      <trkpt lat="47.36418" lon="-0.00508">
        <ele>82.6</ele>
        <time>2012-08-15T07:18:55Z</time>
      </trkpt>
      <trkpt lat="47.36424" lon="-0.00514">
        <ele>81.7</ele>
        <time>2012-08-15T07:18:56Z</time>
      </trkpt>
      <trkpt lat="47.36445" lon="-0.00533">
        <ele>79</ele>
        <time>2012-08-15T07:18:59Z</time>
      </trkpt>
      <trkpt lat="47.36462" lon="-0.00541">
        <ele>77.4</ele>
        <time>2012-08-15T07:19:01Z</time>
      </trkpt>
      <trkpt lat="47.36478" lon="-0.00546">
        <ele>76.1</ele>
        <time>2012-08-15T07:19:03Z</time>
      </trkpt>
      <trkpt lat="47.36523" lon="-0.0055">
        <ele>73.5</ele>
        <time>2012-08-15T07:19:09Z</time>
      </trkpt>
      <trkpt lat="47.3653" lon="-0.0055">
        <ele>73.1</ele>
        <time>2012-08-15T07:19:10Z</time>
      </trkpt>
      <trkpt lat="47.36554" lon="-0.00555">
        <ele>72.1</ele>
        <time>2012-08-15T07:19:14Z</time>
      </trkpt>
      <trkpt lat="47.36571" lon="-0.00552">
        <ele>71.5</ele>
        <time>2012-08-15T07:19:18Z</time>
      </trkpt>
      <trkpt lat="47.3658" lon="-0.00533">
        <ele>71.2</ele>
        <time>2012-08-15T07:19:22Z</time>
      </trkpt>
      <trkpt lat="47.36584" lon="-0.00525">
        <ele>71.1</ele>
        <time>2012-08-15T07:19:24Z</time>
      </trkpt>
      <trkpt lat="47.36594" lon="-0.0051">
        <ele>71.6</ele>
        <time>2012-08-15T07:19:27Z</time>
      </trkpt>
      <trkpt lat="47.366" lon="-0.00489">
        <ele>72.2</ele>
        <time>2012-08-15T07:19:31Z</time>
      </trkpt>
      <trkpt lat="47.36601" lon="-0.00475">
        <ele>72.3</ele>
        <time>2012-08-15T07:19:34Z</time>
      </trkpt>
      <trkpt lat="47.36607" lon="-0.00455">
        <ele>72.7</ele>
        <time>2012-08-15T07:19:40Z</time>
      </trkpt>
      <trkpt lat="47.36615" lon="-0.00438">
        <ele>73.2</ele>
        <time>2012-08-15T07:19:44Z</time>
      </trkpt>
      <trkpt lat="47.36623" lon="-0.00422">
        <ele>73.8</ele>
        <time>2012-08-15T07:19:48Z</time>
      </trkpt>
      <trkpt lat="47.36627" lon="-0.00412">
        <ele>74.1</ele>
        <time>2012-08-15T07:19:50Z</time>
      </trkpt>
      <trkpt lat="47.3663" lon="-0.00405">
        <ele>74.1</ele>
        <time>2012-08-15T07:19:52Z</time>
      </trkpt>
      <trkpt lat="47.36637" lon="-0.00398">
        <ele>74</ele>
        <time>2012-08-15T07:19:59Z</time>
      </trkpt>
      <trkpt lat="47.36639" lon="-0.00391">
        <ele>74</ele>
        <time>2012-08-15T07:20:07Z</time>
      </trkpt>
      <trkpt lat="47.3664" lon="-0.00389">
        <ele>74</ele>
        <time>2012-08-15T07:20:13Z</time>
      </trkpt>
      <trkpt lat="47.3664" lon="-0.00389">
        <ele>74</ele>
        <time>2012-08-15T07:20:14Z</time>
      </trkpt>
      <trkpt lat="47.36641" lon="-0.00386">
        <ele>74.1</ele>
        <time>2012-08-15T07:20:16Z</time>
      </trkpt>
      <trkpt lat="47.36639" lon="-0.00374">
        <ele>74.5</ele>
        <time>2012-08-15T07:20:22Z</time>
      </trkpt>
      <trkpt lat="47.36635" lon="-0.00366">
        <ele>75</ele>
        <time>2012-08-15T07:20:25Z</time>
      </trkpt>
      <trkpt lat="47.3663" lon="-0.0036">
        <ele>75.4</ele>
        <time>2012-08-15T07:20:28Z</time>
      </trkpt>
      <trkpt lat="47.36613" lon="-0.00343">
        <ele>76.6</ele>
        <time>2012-08-15T07:20:37Z</time>
      </trkpt>
      <trkpt lat="47.36597" lon="-0.00334">
        <ele>77</ele>
        <time>2012-08-15T07:20:44Z</time>
      </trkpt>
      <trkpt lat="47.36581" lon="-0.00321">
        <ele>77.5</ele>
        <time>2012-08-15T07:20:51Z</time>
      </trkpt>
      <trkpt lat="47.36565" lon="-0.00303">
        <ele>78.1</ele>
        <time>2012-08-15T07:20:59Z</time>
      </trkpt>
      <trkpt lat="47.36551" lon="-0.00287">
        <ele>79</ele>
        <time>2012-08-15T07:21:06Z</time>
      </trkpt>
      <trkpt lat="47.36547" lon="-0.00283">
        <ele>79.4</ele>
        <time>2012-08-15T07:21:08Z</time>
      </trkpt>
      <trkpt lat="47.36547" lon="-0.00266">
        <ele>79.9</ele>
        <time>2012-08-15T07:21:12Z</time>
      </trkpt>
      <trkpt lat="47.36547" lon="-0.00226">
        <ele>81.8</ele>
        <time>2012-08-15T07:21:21Z</time>
      </trkpt>
      <trkpt lat="47.36551" lon="-0.00193">
        <ele>83.1</ele>
        <time>2012-08-15T07:21:29Z</time>
      </trkpt>
      <trkpt lat="47.36551" lon="-0.0019">
        <ele>83.3</ele>
        <time>2012-08-15T07:21:30Z</time>
      </trkpt>
      <trkpt lat="47.3654" lon="-0.0018">
        <ele>84</ele>
        <time>2012-08-15T07:21:37Z</time>
      </trkpt>
      <trkpt lat="47.36516" lon="-0.00176">
        <ele>84.9</ele>
        <time>2012-08-15T07:21:46Z</time>
      </trkpt>
      <trkpt lat="47.36506" lon="-0.00175">
        <ele>85.4</ele>
        <time>2012-08-15T07:21:50Z</time>
      </trkpt>
      <trkpt lat="47.36501" lon="-0.00166">
        <ele>86</ele>
        <time>2012-08-15T07:21:56Z</time>
      </trkpt>
      <trkpt lat="47.36496" lon="-0.00154">
        <ele>87.3</ele>
        <time>2012-08-15T07:22:01Z</time>
      </trkpt>
      <trkpt lat="47.36486" lon="-0.00139">
        <ele>89</ele>
        <time>2012-08-15T07:22:08Z</time>
      </trkpt>
      <trkpt lat="47.36472" lon="-0.00127">
        <ele>90.9</ele>
        <time>2012-08-15T07:22:15Z</time>
      </trkpt>
      <trkpt lat="47.36462" lon="-0.00116">
        <ele>92.8</ele>
        <time>2012-08-15T07:22:22Z</time>
      </trkpt>
      <trkpt lat="47.36458" lon="-0.00106">
        <ele>93.7</ele>
        <time>2012-08-15T07:22:28Z</time>
      </trkpt>
      <trkpt lat="47.36452" lon="-0.00091">
        <ele>94.9</ele>
        <time>2012-08-15T07:22:35Z</time>
      </trkpt>
      <trkpt lat="47.36448" lon="-0.00084">
        <ele>95.6</ele>
        <time>2012-08-15T07:22:39Z</time>
      </trkpt>
      <trkpt lat="47.36444" lon="-0.00079">
        <ele>96.2</ele>
        <time>2012-08-15T07:22:42Z</time>
      </trkpt>
      <trkpt lat="47.36443" lon="-0.00078">
        <ele>96.4</ele>
        <time>2012-08-15T07:22:43Z</time>
      </trkpt>
      <trkpt lat="47.36437" lon="-0.00065">
        <ele>97.6</ele>
        <time>2012-08-15T07:22:50Z</time>
      </trkpt>
      <trkpt lat="47.36427" lon="-0.00052">
        <ele>99.1</ele>
        <time>2012-08-15T07:22:57Z</time>
      </trkpt>
      <trkpt lat="47.36422" lon="-0.00048">
        <ele>99.7</ele>
        <time>2012-08-15T07:23:00Z</time>
      </trkpt>
      <trkpt lat="47.36415" lon="-0.00038">
        <ele>100.8</ele>
        <time>2012-08-15T07:23:05Z</time>
      </trkpt>
      <trkpt lat="47.3641" lon="-0.00025">
        <ele>101.8</ele>
        <time>2012-08-15T07:23:11Z</time>
      </trkpt>
      <trkpt lat="47.36405" lon="-0.0002">
        <ele>102.5</ele>
        <time>2012-08-15T07:23:15Z</time>
      </trkpt>
      <trkpt lat="47.36397" lon="-9.0E-5">
        <ele>103.8</ele>
        <time>2012-08-15T07:23:22Z</time>
      </trkpt>
      <trkpt lat="47.36393" lon="-4.0E-5">
        <ele>104.4</ele>
        <time>2012-08-15T07:23:25Z</time>
      </trkpt>
      <trkpt lat="47.36388" lon="9.0E-5">
        <ele>105.4</ele>
        <time>2012-08-15T07:23:30Z</time>
      </trkpt>
      <trkpt lat="47.36388" lon="0.00015">
        <ele>105.6</ele>
        <time>2012-08-15T07:23:32Z</time>
      </trkpt>
      <trkpt lat="47.36391" lon="0.00027">
        <ele>105.8</ele>
        <time>2012-08-15T07:23:36Z</time>
      </trkpt>
      <trkpt lat="47.36399" lon="0.0005">
        <ele>105.6</ele>
        <time>2012-08-15T07:23:43Z</time>
      </trkpt>
      <trkpt lat="47.364" lon="0.00054">
        <ele>105.6</ele>
        <time>2012-08-15T07:23:44Z</time>
      </trkpt>
      <trkpt lat="47.36412" lon="0.00082">
        <ele>106.1</ele>
        <time>2012-08-15T07:23:51Z</time>
      </trkpt>
      <trkpt lat="47.36428" lon="0.00106">
        <ele>106.4</ele>
        <time>2012-08-15T07:23:56Z</time>
      </trkpt>
      <trkpt lat="47.36434" lon="0.00131">
        <ele>106.4</ele>
        <time>2012-08-15T07:24:01Z</time>
      </trkpt>
      <trkpt lat="47.36434" lon="0.00158">
        <ele>106.4</ele>
        <time>2012-08-15T07:24:07Z</time>
      </trkpt>
      <trkpt lat="47.36444" lon="0.0019">
        <ele>106</ele>
        <time>2012-08-15T07:24:13Z</time>
      </trkpt>
      <trkpt lat="47.36445" lon="0.00196">
        <ele>106</ele>
        <time>2012-08-15T07:24:14Z</time>
      </trkpt>
      <trkpt lat="47.36441" lon="0.00231">
        <ele>106.1</ele>
        <time>2012-08-15T07:24:20Z</time>
      </trkpt>
      <trkpt lat="47.36434" lon="0.00277">
        <ele>106.4</ele>
        <time>2012-08-15T07:24:27Z</time>
      </trkpt>
      <trkpt lat="47.36422" lon="0.00313">
        <ele>106.5</ele>
        <time>2012-08-15T07:24:33Z</time>
      </trkpt>
      <trkpt lat="47.36418" lon="0.00324">
        <ele>106.3</ele>
        <time>2012-08-15T07:24:35Z</time>
      </trkpt>
      <trkpt lat="47.3641" lon="0.00349">
        <ele>105.7</ele>
        <time>2012-08-15T07:24:40Z</time>
      </trkpt>
      <trkpt lat="47.36406" lon="0.00358">
        <ele>105.5</ele>
        <time>2012-08-15T07:24:42Z</time>
      </trkpt>
      <trkpt lat="47.36397" lon="0.00391">
        <ele>105.3</ele>
        <time>2012-08-15T07:24:48Z</time>
      </trkpt>
      <trkpt lat="47.36396" lon="0.00401">
        <ele>104.9</ele>
        <time>2012-08-15T07:24:50Z</time>
      </trkpt>
      <trkpt lat="47.36387" lon="0.00426">
        <ele>104.4</ele>
        <time>2012-08-15T07:24:55Z</time>
      </trkpt>
      <trkpt lat="47.3638" lon="0.00459">
        <ele>102.8</ele>
        <time>2012-08-15T07:25:01Z</time>
      </trkpt>
      <trkpt lat="47.3637" lon="0.00481">
        <ele>102.4</ele>
        <time>2012-08-15T07:25:05Z</time>
      </trkpt>
      <trkpt lat="47.36355" lon="0.00506">
        <ele>102</ele>
        <time>2012-08-15T07:25:11Z</time>
      </trkpt>
      <trkpt lat="47.36348" lon="0.00521">
        <ele>101.4</ele>
        <time>2012-08-15T07:25:15Z</time>
      </trkpt>
      <trkpt lat="47.3634" lon="0.00534">
        <ele>101.2</ele>
        <time>2012-08-15T07:25:19Z</time>
      </trkpt>
      <trkpt lat="47.36334" lon="0.00551">
        <ele>101.1</ele>
        <time>2012-08-15T07:25:23Z</time>
      </trkpt>
      <trkpt lat="47.36331" lon="0.00565">
        <ele>100.5</ele>
        <time>2012-08-15T07:25:26Z</time>
      </trkpt>
      <trkpt lat="47.36327" lon="0.00579">
        <ele>100</ele>
        <time>2012-08-15T07:25:30Z</time>
      </trkpt>
      <trkpt lat="47.36322" lon="0.00608">
        <ele>99.9</ele>
        <time>2012-08-15T07:25:37Z</time>
      </trkpt>
      <trkpt lat="47.36313" lon="0.00617">
        <ele>100.3</ele>
        <time>2012-08-15T07:25:41Z</time>
      </trkpt>
      <trkpt lat="47.36302" lon="0.00634">
        <ele>100.3</ele>
        <time>2012-08-15T07:25:46Z</time>
      </trkpt>
      <trkpt lat="47.36298" lon="0.00658">
        <ele>99.6</ele>
        <time>2012-08-15T07:25:53Z</time>
      </trkpt>
      <trkpt lat="47.36289" lon="0.0068">
        <ele>99.6</ele>
        <time>2012-08-15T07:26:00Z</time>
      </trkpt>
      <trkpt lat="47.3629" lon="0.00689">
        <ele>99.6</ele>
        <time>2012-08-15T07:26:02Z</time>
      </trkpt>
      <trkpt lat="47.36292" lon="0.00693">
        <ele>99.5</ele>
        <time>2012-08-15T07:26:03Z</time>
      </trkpt>
      <trkpt lat="47.36285" lon="0.0071">
        <ele>99.3</ele>
        <time>2012-08-15T07:26:08Z</time>
      </trkpt>
      <trkpt lat="47.36275" lon="0.00711">
        <ele>99.4</ele>
        <time>2012-08-15T07:26:11Z</time>
      </trkpt>
      <trkpt lat="47.36236" lon="0.00708">
        <ele>99.5</ele>
        <time>2012-08-15T07:26:21Z</time>
      </trkpt>
      <trkpt lat="47.36219" lon="0.00705">
        <ele>99.4</ele>
        <time>2012-08-15T07:26:25Z</time>
      </trkpt>
      <trkpt lat="47.36181" lon="0.00689">
        <ele>97.7</ele>
        <time>2012-08-15T07:26:34Z</time>
      </trkpt>
      <trkpt lat="47.36127" lon="0.00665">
        <ele>96.6</ele>
        <time>2012-08-15T07:26:46Z</time>
      </trkpt>
      <trkpt lat="47.36103" lon="0.00657">
        <ele>95.7</ele>
        <time>2012-08-15T07:26:51Z</time>
      </trkpt>
      <trkpt lat="47.36066" lon="0.00636">
        <ele>94.3</ele>
        <time>2012-08-15T07:26:59Z</time>
      </trkpt>
      <trkpt lat="47.36061" lon="0.00633">
        <ele>94</ele>
        <time>2012-08-15T07:27:00Z</time>
      </trkpt>
      <trkpt lat="47.36034" lon="0.00617">
        <ele>91.7</ele>
        <time>2012-08-15T07:27:06Z</time>
      </trkpt>
      <trkpt lat="47.36026" lon="0.0061">
        <ele>90.8</ele>
        <time>2012-08-15T07:27:08Z</time>
      </trkpt>
      <trkpt lat="47.36016" lon="0.00599">
        <ele>89.7</ele>
        <time>2012-08-15T07:27:10Z</time>
      </trkpt>
      <trkpt lat="47.36" lon="0.00579">
        <ele>88</ele>
        <time>2012-08-15T07:27:13Z</time>
      </trkpt>
      <trkpt lat="47.35991" lon="0.00569">
        <ele>87.4</ele>
        <time>2012-08-15T07:27:15Z</time>
      </trkpt>
      <trkpt lat="47.35969" lon="0.00545">
        <ele>86.3</ele>
        <time>2012-08-15T07:27:19Z</time>
      </trkpt>
      <trkpt lat="47.35938" lon="0.00513">
        <ele>86.4</ele>
        <time>2012-08-15T07:27:26Z</time>
      </trkpt>
      <trkpt lat="47.35906" lon="0.00491">
        <ele>87.3</ele>
        <time>2012-08-15T07:27:33Z</time>
      </trkpt>
      <trkpt lat="47.35892" lon="0.00484">
        <ele>87.3</ele>
        <time>2012-08-15T07:27:37Z</time>
      </trkpt>
      <trkpt lat="47.35884" lon="0.00482">
        <ele>87.1</ele>
        <time>2012-08-15T07:27:40Z</time>
      </trkpt>
      <trkpt lat="47.35885" lon="0.00501">
        <ele>85.8</ele>
        <time>2012-08-15T07:27:45Z</time>
      </trkpt>
      <trkpt lat="47.35882" lon="0.00521">
        <ele>84.4</ele>
        <time>2012-08-15T07:27:48Z</time>
      </trkpt>
      <trkpt lat="47.35881" lon="0.00527">
        <ele>84</ele>
        <time>2012-08-15T07:27:49Z</time>
      </trkpt>
      <trkpt lat="47.35885" lon="0.00563">
        <ele>82.6</ele>
        <time>2012-08-15T07:27:54Z</time>
      </trkpt>
      <trkpt lat="47.35892" lon="0.00575">
        <ele>82.4</ele>
        <time>2012-08-15T07:27:56Z</time>
      </trkpt>
      <trkpt lat="47.35902" lon="0.00596">
        <ele>82.2</ele>
        <time>2012-08-15T07:28:00Z</time>
      </trkpt>
      <trkpt lat="47.35912" lon="0.00625">
        <ele>82.7</ele>
        <time>2012-08-15T07:28:05Z</time>
      </trkpt>
      <trkpt lat="47.35915" lon="0.00648">
        <ele>82.9</ele>
        <time>2012-08-15T07:28:09Z</time>
      </trkpt>
      <trkpt lat="47.35908" lon="0.00688">
        <ele>82.9</ele>
        <time>2012-08-15T07:28:16Z</time>
      </trkpt>
      <trkpt lat="47.35905" lon="0.00711">
        <ele>82.7</ele>
        <time>2012-08-15T07:28:20Z</time>
      </trkpt>
      <trkpt lat="47.35895" lon="0.00749">
        <ele>81.4</ele>
        <time>2012-08-15T07:28:26Z</time>
      </trkpt>
      <trkpt lat="47.35881" lon="0.00791">
        <ele>80.7</ele>
        <time>2012-08-15T07:28:33Z</time>
      </trkpt>
      <trkpt lat="47.35868" lon="0.00824">
        <ele>80.4</ele>
        <time>2012-08-15T07:28:39Z</time>
      </trkpt>
      <trkpt lat="47.35858" lon="0.0085">
        <ele>79.8</ele>
        <time>2012-08-15T07:28:44Z</time>
      </trkpt>
      <trkpt lat="47.35847" lon="0.00871">
        <ele>79.7</ele>
        <time>2012-08-15T07:28:48Z</time>
      </trkpt>
      <trkpt lat="47.35823" lon="0.00916">
        <ele>79.2</ele>
        <time>2012-08-15T07:28:55Z</time>
      </trkpt>
      <trkpt lat="47.3582" lon="0.00922">
        <ele>79.1</ele>
        <time>2012-08-15T07:28:56Z</time>
      </trkpt>
      <trkpt lat="47.35805" lon="0.00957">
        <ele>79</ele>
        <time>2012-08-15T07:29:02Z</time>
      </trkpt>
      <trkpt lat="47.358" lon="0.00986">
        <ele>79.3</ele>
        <time>2012-08-15T07:29:07Z</time>
      </trkpt>
      <trkpt lat="47.358" lon="0.01014">
        <ele>80.2</ele>
        <time>2012-08-15T07:29:12Z</time>
      </trkpt>
      <trkpt lat="47.35803" lon="0.01041">
        <ele>80.9</ele>
        <time>2012-08-15T07:29:17Z</time>
      </trkpt>
      <trkpt lat="47.35797" lon="0.01057">
        <ele>80.7</ele>
        <time>2012-08-15T07:29:21Z</time>
      </trkpt>
      <trkpt lat="47.35788" lon="0.01073">
        <ele>81</ele>
        <time>2012-08-15T07:29:26Z</time>
      </trkpt>
      <trkpt lat="47.35772" lon="0.01101">
        <ele>80.6</ele>
        <time>2012-08-15T07:29:32Z</time>
      </trkpt>
      <trkpt lat="47.35767" lon="0.01108">
        <ele>80.2</ele>
        <time>2012-08-15T07:29:34Z</time>
      </trkpt>
      <trkpt lat="47.35754" lon="0.01103">
        <ele>79.3</ele>
        <time>2012-08-15T07:29:39Z</time>
      </trkpt>
      <trkpt lat="47.35744" lon="0.01093">
        <ele>78.6</ele>
        <time>2012-08-15T07:29:43Z</time>
      </trkpt>
      <trkpt lat="47.35735" lon="0.01083">
        <ele>77.9</ele>
        <time>2012-08-15T07:29:47Z</time>
      </trkpt>
      <trkpt lat="47.3572" lon="0.01088">
        <ele>76.9</ele>
        <time>2012-08-15T07:29:52Z</time>
      </trkpt>
      <trkpt lat="47.35711" lon="0.01085">
        <ele>76.6</ele>
        <time>2012-08-15T07:29:54Z</time>
      </trkpt>
      <trkpt lat="47.35689" lon="0.01086">
        <ele>75.6</ele>
        <time>2012-08-15T07:29:59Z</time>
      </trkpt>
      <trkpt lat="47.3566" lon="0.01097">
        <ele>74.3</ele>
        <time>2012-08-15T07:30:05Z</time>
      </trkpt>
      <trkpt lat="47.35643" lon="0.01112">
        <ele>74.2</ele>
        <time>2012-08-15T07:30:09Z</time>
      </trkpt>
      <trkpt lat="47.35622" lon="0.01113">
        <ele>73.5</ele>
        <time>2012-08-15T07:30:14Z</time>
      </trkpt>
      <trkpt lat="47.35592" lon="0.01117">
        <ele>72.5</ele>
        <time>2012-08-15T07:30:20Z</time>
      </trkpt>
      <trkpt lat="47.35583" lon="0.01121">
        <ele>72.3</ele>
        <time>2012-08-15T07:30:22Z</time>
      </trkpt>
      <trkpt lat="47.35567" lon="0.01125">
        <ele>71.9</ele>
        <time>2012-08-15T07:30:25Z</time>
      </trkpt>
      <trkpt lat="47.35541" lon="0.01138">
        <ele>70.9</ele>
        <time>2012-08-15T07:30:31Z</time>
      </trkpt>
      <trkpt lat="47.35518" lon="0.01157">
        <ele>70.1</ele>
        <time>2012-08-15T07:30:36Z</time>
      </trkpt>
      <trkpt lat="47.35503" lon="0.01167">
        <ele>69.2</ele>
        <time>2012-08-15T07:30:39Z</time>
      </trkpt>
      <trkpt lat="47.35477" lon="0.01182">
        <ele>69.1</ele>
        <time>2012-08-15T07:30:44Z</time>
      </trkpt>
      <trkpt lat="47.35452" lon="0.01205">
        <ele>69</ele>
        <time>2012-08-15T07:30:50Z</time>
      </trkpt>
      <trkpt lat="47.35435" lon="0.01228">
        <ele>69.3</ele>
        <time>2012-08-15T07:30:55Z</time>
      </trkpt>
      <trkpt lat="47.35432" lon="0.01234">
        <ele>69.4</ele>
        <time>2012-08-15T07:30:56Z</time>
      </trkpt>
      <trkpt lat="47.35415" lon="0.01263">
        <ele>70</ele>
        <time>2012-08-15T07:31:01Z</time>
      </trkpt>
      <trkpt lat="47.35394" lon="0.01294">
        <ele>70</ele>
        <time>2012-08-15T07:31:07Z</time>
      </trkpt>
      <trkpt lat="47.3539" lon="0.01298">
        <ele>70</ele>
        <time>2012-08-15T07:31:08Z</time>
      </trkpt>
      <trkpt lat="47.35371" lon="0.0132">
        <ele>70.6</ele>
        <time>2012-08-15T07:31:14Z</time>
      </trkpt>
      <trkpt lat="47.35366" lon="0.01326">
        <ele>70.8</ele>
        <time>2012-08-15T07:31:19Z</time>
      </trkpt>
      <trkpt lat="47.35366" lon="0.01326">
        <ele>70.8</ele>
        <time>2012-08-15T07:31:52Z</time>
      </trkpt>
      <trkpt lat="47.35363" lon="0.0135">
        <ele>70.9</ele>
        <time>2012-08-15T07:31:59Z</time>
      </trkpt>
      <trkpt lat="47.35369" lon="0.01384">
        <ele>70.7</ele>
        <time>2012-08-15T07:32:05Z</time>
      </trkpt>
      <trkpt lat="47.35377" lon="0.0142">
        <ele>70.4</ele>
        <time>2012-08-15T07:32:11Z</time>
      </trkpt>
      <trkpt lat="47.35387" lon="0.01467">
        <ele>70.8</ele>
        <time>2012-08-15T07:32:18Z</time>
      </trkpt>
      <trkpt lat="47.35391" lon="0.01499">
        <ele>71</ele>
        <time>2012-08-15T07:32:22Z</time>
      </trkpt>
      <trkpt lat="47.35395" lon="0.01516">
        <ele>71</ele>
        <time>2012-08-15T07:32:24Z</time>
      </trkpt>
      <trkpt lat="47.35406" lon="0.01566">
        <ele>72</ele>
        <time>2012-08-15T07:32:31Z</time>
      </trkpt>
      <trkpt lat="47.35409" lon="0.0158">
        <ele>72</ele>
        <time>2012-08-15T07:32:33Z</time>
      </trkpt>
      <trkpt lat="47.35413" lon="0.01608">
        <ele>72</ele>
        <time>2012-08-15T07:32:37Z</time>
      </trkpt>
      <trkpt lat="47.35421" lon="0.01646">
        <ele>73</ele>
        <time>2012-08-15T07:32:43Z</time>
      </trkpt>
      <trkpt lat="47.35432" lon="0.01674">
        <ele>73</ele>
        <time>2012-08-15T07:32:48Z</time>
      </trkpt>
      <trkpt lat="47.35437" lon="0.01711">
        <ele>73.4</ele>
        <time>2012-08-15T07:32:54Z</time>
      </trkpt>
      <trkpt lat="47.3544" lon="0.01723">
        <ele>73.8</ele>
        <time>2012-08-15T07:32:56Z</time>
      </trkpt>
      <trkpt lat="47.35443" lon="0.01744">
        <ele>74</ele>
        <time>2012-08-15T07:33:00Z</time>
      </trkpt>
      <trkpt lat="47.35452" lon="0.01779">
        <ele>75</ele>
        <time>2012-08-15T07:33:06Z</time>
      </trkpt>
      <trkpt lat="47.35458" lon="0.01809">
        <ele>75.5</ele>
        <time>2012-08-15T07:33:11Z</time>
      </trkpt>
      <trkpt lat="47.35464" lon="0.01836">
        <ele>75.7</ele>
        <time>2012-08-15T07:33:15Z</time>
      </trkpt>
      <trkpt lat="47.35472" lon="0.0188">
        <ele>76</ele>
        <time>2012-08-15T07:33:22Z</time>
      </trkpt>
      <trkpt lat="47.35478" lon="0.0191">
        <ele>76.8</ele>
        <time>2012-08-15T07:33:27Z</time>
      </trkpt>
      <trkpt lat="47.35486" lon="0.0194">
        <ele>77</ele>
        <time>2012-08-15T07:33:32Z</time>
      </trkpt>
      <trkpt lat="47.35493" lon="0.01977">
        <ele>77.7</ele>
        <time>2012-08-15T07:33:38Z</time>
      </trkpt>
      <trkpt lat="47.35496" lon="0.01997">
        <ele>77.9</ele>
        <time>2012-08-15T07:33:41Z</time>
      </trkpt>
      <trkpt lat="47.355" lon="0.02012">
        <ele>78</ele>
        <time>2012-08-15T07:33:43Z</time>
      </trkpt>
      <trkpt lat="47.35503" lon="0.02027">
        <ele>78.1</ele>
        <time>2012-08-15T07:33:45Z</time>
      </trkpt>
      <trkpt lat="47.3551" lon="0.02073">
        <ele>78.4</ele>
        <time>2012-08-15T07:33:51Z</time>
      </trkpt>
      <trkpt lat="47.35514" lon="0.02095">
        <ele>78.5</ele>
        <time>2012-08-15T07:33:54Z</time>
      </trkpt>
      <trkpt lat="47.35517" lon="0.02136">
        <ele>79</ele>
        <time>2012-08-15T07:34:00Z</time>
      </trkpt>
      <trkpt lat="47.35517" lon="0.02149">
        <ele>79</ele>
        <time>2012-08-15T07:34:02Z</time>
      </trkpt>
      <trkpt lat="47.35518" lon="0.02182">
        <ele>79</ele>
        <time>2012-08-15T07:34:08Z</time>
      </trkpt>
      <trkpt lat="47.35516" lon="0.02196">
        <ele>79</ele>
        <time>2012-08-15T07:34:11Z</time>
      </trkpt>
      <trkpt lat="47.35513" lon="0.02214">
        <ele>79</ele>
        <time>2012-08-15T07:34:18Z</time>
      </trkpt>
      <trkpt lat="47.35515" lon="0.02218">
        <ele>79</ele>
        <time>2012-08-15T07:34:21Z</time>
      </trkpt>
      <trkpt lat="47.35511" lon="0.02243">
        <ele>79</ele>
        <time>2012-08-15T07:34:28Z</time>
      </trkpt>
      <trkpt lat="47.35508" lon="0.02249">
        <ele>79</ele>
        <time>2012-08-15T07:34:34Z</time>
      </trkpt>
      <trkpt lat="47.35506" lon="0.02254">
        <ele>79.1</ele>
        <time>2012-08-15T07:34:37Z</time>
      </trkpt>
      <trkpt lat="47.35502" lon="0.02261">
        <ele>79.4</ele>
        <time>2012-08-15T07:34:44Z</time>
      </trkpt>
      <trkpt lat="47.35498" lon="0.02267">
        <ele>79.6</ele>
        <time>2012-08-15T07:34:51Z</time>
      </trkpt>
      <trkpt lat="47.35497" lon="0.0227">
        <ele>79.8</ele>
        <time>2012-08-15T07:34:58Z</time>
      </trkpt>
      <trkpt lat="47.35494" lon="0.02278">
        <ele>80</ele>
        <time>2012-08-15T07:35:04Z</time>
      </trkpt>
      <trkpt lat="47.35492" lon="0.02285">
        <ele>80.3</ele>
        <time>2012-08-15T07:35:12Z</time>
      </trkpt>
      <trkpt lat="47.35488" lon="0.02293">
        <ele>80.8</ele>
        <time>2012-08-15T07:35:20Z</time>
      </trkpt>
      <trkpt lat="47.35487" lon="0.02296">
        <ele>81</ele>
        <time>2012-08-15T07:35:24Z</time>
      </trkpt>
      <trkpt lat="47.35483" lon="0.0231">
        <ele>81.8</ele>
        <time>2012-08-15T07:35:33Z</time>
      </trkpt>
      <trkpt lat="47.35482" lon="0.02312">
        <ele>81.9</ele>
        <time>2012-08-15T07:35:39Z</time>
      </trkpt>
      <trkpt lat="47.35475" lon="0.02331">
        <ele>82.8</ele>
        <time>2012-08-15T07:35:47Z</time>
      </trkpt>
      <trkpt lat="47.35472" lon="0.02335">
        <ele>83.1</ele>
        <time>2012-08-15T07:35:49Z</time>
      </trkpt>
      <trkpt lat="47.35467" lon="0.02346">
        <ele>83.5</ele>
        <time>2012-08-15T07:35:55Z</time>
      </trkpt>
      <trkpt lat="47.35459" lon="0.02362">
        <ele>84.5</ele>
        <time>2012-08-15T07:36:02Z</time>
      </trkpt>
      <trkpt lat="47.35454" lon="0.02377">
        <ele>85.2</ele>
        <time>2012-08-15T07:36:08Z</time>
      </trkpt>
      <trkpt lat="47.35451" lon="0.02385">
        <ele>85.6</ele>
        <time>2012-08-15T07:36:11Z</time>
      </trkpt>
      <trkpt lat="47.35444" lon="0.02406">
        <ele>87.2</ele>
        <time>2012-08-15T07:36:18Z</time>
      </trkpt>
      <trkpt lat="47.35443" lon="0.0241">
        <ele>87.5</ele>
        <time>2012-08-15T07:36:19Z</time>
      </trkpt>
      <trkpt lat="47.35439" lon="0.02419">
        <ele>88.1</ele>
        <time>2012-08-15T07:36:22Z</time>
      </trkpt>
      <trkpt lat="47.3543" lon="0.02442">
        <ele>89.4</ele>
        <time>2012-08-15T07:36:29Z</time>
      </trkpt>
      <trkpt lat="47.35425" lon="0.02457">
        <ele>90.3</ele>
        <time>2012-08-15T07:36:35Z</time>
      </trkpt>
      <trkpt lat="47.3542" lon="0.02474">
        <ele>91.1</ele>
        <time>2012-08-15T07:36:41Z</time>
      </trkpt>
      <trkpt lat="47.35414" lon="0.02487">
        <ele>92.1</ele>
        <time>2012-08-15T07:36:46Z</time>
      </trkpt>
      <trkpt lat="47.35407" lon="0.02507">
        <ele>93.3</ele>
        <time>2012-08-15T07:36:53Z</time>
      </trkpt>
      <trkpt lat="47.35403" lon="0.02522">
        <ele>94.2</ele>
        <time>2012-08-15T07:36:58Z</time>
      </trkpt>
      <trkpt lat="47.35399" lon="0.02537">
        <ele>95.1</ele>
        <time>2012-08-15T07:37:03Z</time>
      </trkpt>
      <trkpt lat="47.35391" lon="0.02554">
        <ele>95.9</ele>
        <time>2012-08-15T07:37:09Z</time>
      </trkpt>
      <trkpt lat="47.35383" lon="0.02574">
        <ele>97.5</ele>
        <time>2012-08-15T07:37:15Z</time>
      </trkpt>
      <trkpt lat="47.35376" lon="0.02596">
        <ele>99.4</ele>
        <time>2012-08-15T07:37:22Z</time>
      </trkpt>
      <trkpt lat="47.35369" lon="0.02617">
        <ele>100.9</ele>
        <time>2012-08-15T07:37:29Z</time>
      </trkpt>
      <trkpt lat="47.35362" lon="0.02634">
        <ele>101.8</ele>
        <time>2012-08-15T07:37:36Z</time>
      </trkpt>
      <trkpt lat="47.35359" lon="0.02648">
        <ele>102.3</ele>
        <time>2012-08-15T07:37:42Z</time>
      </trkpt>
      <trkpt lat="47.35352" lon="0.02668">
        <ele>103</ele>
        <time>2012-08-15T07:37:49Z</time>
      </trkpt>
      <trkpt lat="47.35349" lon="0.02675">
        <ele>103.1</ele>
        <time>2012-08-15T07:37:51Z</time>
      </trkpt>
      <trkpt lat="47.35343" lon="0.02683">
        <ele>103.4</ele>
        <time>2012-08-15T07:37:55Z</time>
      </trkpt>
      <trkpt lat="47.35338" lon="0.0269">
        <ele>103.7</ele>
        <time>2012-08-15T07:37:58Z</time>
      </trkpt>
      <trkpt lat="47.35325" lon="0.02703">
        <ele>104.5</ele>
        <time>2012-08-15T07:38:05Z</time>
      </trkpt>
      <trkpt lat="47.35312" lon="0.02713">
        <ele>104.9</ele>
        <time>2012-08-15T07:38:12Z</time>
      </trkpt>
      <trkpt lat="47.3531" lon="0.02715">
        <ele>105</ele>
        <time>2012-08-15T07:38:18Z</time>
      </trkpt>
      <trkpt lat="47.35307" lon="0.02718">
        <ele>105</ele>
        <time>2012-08-15T07:38:30Z</time>
      </trkpt>
      <trkpt lat="47.35303" lon="0.02723">
        <ele>105.1</ele>
        <time>2012-08-15T07:38:39Z</time>
      </trkpt>
      <trkpt lat="47.35293" lon="0.02744">
        <ele>105.9</ele>
        <time>2012-08-15T07:38:46Z</time>
      </trkpt>
      <trkpt lat="47.35288" lon="0.02759">
        <ele>106</ele>
        <time>2012-08-15T07:38:52Z</time>
      </trkpt>
      <trkpt lat="47.35287" lon="0.02762">
        <ele>106</ele>
        <time>2012-08-15T07:38:59Z</time>
      </trkpt>
      <trkpt lat="47.35283" lon="0.02774">
        <ele>106</ele>
        <time>2012-08-15T07:39:05Z</time>
      </trkpt>
      <trkpt lat="47.35273" lon="0.02794">
        <ele>106.2</ele>
        <time>2012-08-15T07:39:11Z</time>
      </trkpt>
      <trkpt lat="47.35263" lon="0.02821">
        <ele>106.2</ele>
        <time>2012-08-15T07:39:17Z</time>
      </trkpt>
      <trkpt lat="47.35254" lon="0.02846">
        <ele>105.9</ele>
        <time>2012-08-15T07:39:23Z</time>
      </trkpt>
      <trkpt lat="47.35246" lon="0.02883">
        <ele>105.3</ele>
        <time>2012-08-15T07:39:30Z</time>
      </trkpt>
      <trkpt lat="47.35235" lon="0.02909">
        <ele>105.5</ele>
        <time>2012-08-15T07:39:36Z</time>
      </trkpt>
      <trkpt lat="47.35225" lon="0.02917">
        <ele>105.9</ele>
        <time>2012-08-15T07:39:41Z</time>
      </trkpt>
      <trkpt lat="47.35223" lon="0.02915">
        <ele>106</ele>
        <time>2012-08-15T07:39:43Z</time>
      </trkpt>
      <trkpt lat="47.35222" lon="0.02912">
        <ele>106</ele>
        <time>2012-08-15T07:39:46Z</time>
      </trkpt>
      <trkpt lat="47.35215" lon="0.02912">
        <ele>106</ele>
        <time>2012-08-15T07:39:52Z</time>
      </trkpt>
      <trkpt lat="47.3521" lon="0.02917">
        <ele>106</ele>
        <time>2012-08-15T07:39:57Z</time>
      </trkpt>
      <trkpt lat="47.35201" lon="0.0293">
        <ele>105.9</ele>
        <time>2012-08-15T07:40:04Z</time>
      </trkpt>
      <trkpt lat="47.35192" lon="0.02951">
        <ele>105.8</ele>
        <time>2012-08-15T07:40:10Z</time>
      </trkpt>
      <trkpt lat="47.35186" lon="0.02983">
        <ele>105.3</ele>
        <time>2012-08-15T07:40:16Z</time>
      </trkpt>
      <trkpt lat="47.35183" lon="0.03008">
        <ele>105.4</ele>
        <time>2012-08-15T07:40:22Z</time>
      </trkpt>
      <trkpt lat="47.35186" lon="0.03035">
        <ele>105.3</ele>
        <time>2012-08-15T07:40:28Z</time>
      </trkpt>
      <trkpt lat="47.35182" lon="0.0306">
        <ele>105.4</ele>
        <time>2012-08-15T07:40:34Z</time>
      </trkpt>
      <trkpt lat="47.35176" lon="0.03087">
        <ele>105</ele>
        <time>2012-08-15T07:40:39Z</time>
      </trkpt>
      <trkpt lat="47.35169" lon="0.03119">
        <ele>104.7</ele>
        <time>2012-08-15T07:40:44Z</time>
      </trkpt>
      <trkpt lat="47.35165" lon="0.03156">
        <ele>103.3</ele>
        <time>2012-08-15T07:40:50Z</time>
      </trkpt>
      <trkpt lat="47.35169" lon="0.03167">
        <ele>103</ele>
        <time>2012-08-15T07:40:53Z</time>
      </trkpt>
      <trkpt lat="47.35185" lon="0.03181">
        <ele>102.3</ele>
        <time>2012-08-15T07:40:59Z</time>
      </trkpt>
      <trkpt lat="47.35203" lon="0.03193">
        <ele>102</ele>
        <time>2012-08-15T07:41:04Z</time>
      </trkpt>
      <trkpt lat="47.35223" lon="0.03211">
        <ele>100.8</ele>
        <time>2012-08-15T07:41:09Z</time>
      </trkpt>
      <trkpt lat="47.35225" lon="0.03216">
        <ele>100.4</ele>
        <time>2012-08-15T07:41:10Z</time>
      </trkpt>
      <trkpt lat="47.35227" lon="0.03235">
        <ele>99.5</ele>
        <time>2012-08-15T07:41:13Z</time>
      </trkpt>
      <trkpt lat="47.35242" lon="0.03273">
        <ele>98.2</ele>
        <time>2012-08-15T07:41:19Z</time>
      </trkpt>
      <trkpt lat="47.3524" lon="0.0329">
        <ele>97.6</ele>
        <time>2012-08-15T07:41:22Z</time>
      </trkpt>
      <trkpt lat="47.35247" lon="0.03322">
        <ele>96.3</ele>
        <time>2012-08-15T07:41:26Z</time>
      </trkpt>
      <trkpt lat="47.35262" lon="0.03352">
        <ele>95.6</ele>
        <time>2012-08-15T07:41:30Z</time>
      </trkpt>
      <trkpt lat="47.35289" lon="0.03389">
        <ele>94</ele>
        <time>2012-08-15T07:41:36Z</time>
      </trkpt>
      <trkpt lat="47.35302" lon="0.03408">
        <ele>93.3</ele>
        <time>2012-08-15T07:41:39Z</time>
      </trkpt>
      <trkpt lat="47.35324" lon="0.03433">
        <ele>90.9</ele>
        <time>2012-08-15T07:41:45Z</time>
      </trkpt>
      <trkpt lat="47.35345" lon="0.03455">
        <ele>88.9</ele>
        <time>2012-08-15T07:41:50Z</time>
      </trkpt>
      <trkpt lat="47.35373" lon="0.03477">
        <ele>86.5</ele>
        <time>2012-08-15T07:41:55Z</time>
      </trkpt>
      <trkpt lat="47.35391" lon="0.035">
        <ele>83.8</ele>
        <time>2012-08-15T07:41:58Z</time>
      </trkpt>
      <trkpt lat="47.35403" lon="0.03523">
        <ele>81.6</ele>
        <time>2012-08-15T07:42:01Z</time>
      </trkpt>
      <trkpt lat="47.35418" lon="0.0354">
        <ele>79.9</ele>
        <time>2012-08-15T07:42:04Z</time>
      </trkpt>
      <trkpt lat="47.35422" lon="0.03544">
        <ele>79.7</ele>
        <time>2012-08-15T07:42:05Z</time>
      </trkpt>
      <trkpt lat="47.35425" lon="0.0355">
        <ele>79.5</ele>
        <time>2012-08-15T07:42:06Z</time>
      </trkpt>
      <trkpt lat="47.35429" lon="0.03556">
        <ele>79.1</ele>
        <time>2012-08-15T07:42:07Z</time>
      </trkpt>
      <trkpt lat="47.35434" lon="0.03563">
        <ele>78.7</ele>
        <time>2012-08-15T07:42:12Z</time>
      </trkpt>
      <trkpt lat="47.35434" lon="0.03563">
        <ele>78.7</ele>
        <time>2012-08-15T07:42:25Z</time>
      </trkpt>
      <trkpt lat="47.35433" lon="0.03567">
        <ele>78.7</ele>
        <time>2012-08-15T07:43:13Z</time>
      </trkpt>
      <trkpt lat="47.35437" lon="0.03567">
        <ele>78.4</ele>
        <time>2012-08-15T07:43:39Z</time>
      </trkpt>
      <trkpt lat="47.3544" lon="0.03567">
        <ele>78.3</ele>
        <time>2012-08-15T07:43:40Z</time>
      </trkpt>
      <trkpt lat="47.35444" lon="0.03566">
        <ele>78</ele>
        <time>2012-08-15T07:43:41Z</time>
      </trkpt>
      <trkpt lat="47.35449" lon="0.03566">
        <ele>77.9</ele>
        <time>2012-08-15T07:43:42Z</time>
      </trkpt>
      <trkpt lat="47.35453" lon="0.03565">
        <ele>77.9</ele>
        <time>2012-08-15T07:43:43Z</time>
      </trkpt>
      <trkpt lat="47.35489" lon="0.03572">
        <ele>77.4</ele>
        <time>2012-08-15T07:43:50Z</time>
      </trkpt>
      <trkpt lat="47.35497" lon="0.03571">
        <ele>77.4</ele>
        <time>2012-08-15T07:43:52Z</time>
      </trkpt>
      <trkpt lat="47.35524" lon="0.03567">
        <ele>78.5</ele>
        <time>2012-08-15T07:43:58Z</time>
      </trkpt>
      <trkpt lat="47.35544" lon="0.03563">
        <ele>79.3</ele>
        <time>2012-08-15T07:44:03Z</time>
      </trkpt>
      <trkpt lat="47.35556" lon="0.0356">
        <ele>79.9</ele>
        <time>2012-08-15T07:44:07Z</time>
      </trkpt>
      <trkpt lat="47.35569" lon="0.0356">
        <ele>80.8</ele>
        <time>2012-08-15T07:44:12Z</time>
      </trkpt>
      <trkpt lat="47.35583" lon="0.03561">
        <ele>81.8</ele>
        <time>2012-08-15T07:44:17Z</time>
      </trkpt>
      <trkpt lat="47.35592" lon="0.03562">
        <ele>82.1</ele>
        <time>2012-08-15T07:44:22Z</time>
      </trkpt>
      <trkpt lat="47.35604" lon="0.03565">
        <ele>82.4</ele>
        <time>2012-08-15T07:44:28Z</time>
      </trkpt>
      <trkpt lat="47.35621" lon="0.03569">
        <ele>82.7</ele>
        <time>2012-08-15T07:44:34Z</time>
      </trkpt>
      <trkpt lat="47.35632" lon="0.03569">
        <ele>82.9</ele>
        <time>2012-08-15T07:44:38Z</time>
      </trkpt>
      <trkpt lat="47.35642" lon="0.0357">
        <ele>83.1</ele>
        <time>2012-08-15T07:44:42Z</time>
      </trkpt>
      <trkpt lat="47.35658" lon="0.03572">
        <ele>83.5</ele>
        <time>2012-08-15T07:44:48Z</time>
      </trkpt>
      <trkpt lat="47.35661" lon="0.03571">
        <ele>83.7</ele>
        <time>2012-08-15T07:44:49Z</time>
      </trkpt>
      <trkpt lat="47.35664" lon="0.0357">
        <ele>83.9</ele>
        <time>2012-08-15T07:44:50Z</time>
      </trkpt>
      <trkpt lat="47.35667" lon="0.03568">
        <ele>84.1</ele>
        <time>2012-08-15T07:44:51Z</time>
      </trkpt>
      <trkpt lat="47.3567" lon="0.03566">
        <ele>84.4</ele>
        <time>2012-08-15T07:44:52Z</time>
      </trkpt>
      <trkpt lat="47.35672" lon="0.03566">
        <ele>84.4</ele>
        <time>2012-08-15T07:44:53Z</time>
      </trkpt>
      <trkpt lat="47.35675" lon="0.03564">
        <ele>84.7</ele>
        <time>2012-08-15T07:44:54Z</time>
      </trkpt>
      <trkpt lat="47.35678" lon="0.03562">
        <ele>84.9</ele>
        <time>2012-08-15T07:44:55Z</time>
      </trkpt>
      <trkpt lat="47.3568" lon="0.0356">
        <ele>85.2</ele>
        <time>2012-08-15T07:44:56Z</time>
      </trkpt>
      <trkpt lat="47.35683" lon="0.03558">
        <ele>85.4</ele>
        <time>2012-08-15T07:44:57Z</time>
      </trkpt>
      <trkpt lat="47.35686" lon="0.03556">
        <ele>85.7</ele>
        <time>2012-08-15T07:44:58Z</time>
      </trkpt>
      <trkpt lat="47.35701" lon="0.03548">
        <ele>86.7</ele>
        <time>2012-08-15T07:45:03Z</time>
      </trkpt>
      <trkpt lat="47.35713" lon="0.03538">
        <ele>87.5</ele>
        <time>2012-08-15T07:45:08Z</time>
      </trkpt>
      <trkpt lat="47.35714" lon="0.03535">
        <ele>87.7</ele>
        <time>2012-08-15T07:45:09Z</time>
      </trkpt>
      <trkpt lat="47.35715" lon="0.03534">
        <ele>87.7</ele>
        <time>2012-08-15T07:45:10Z</time>
      </trkpt>
      <trkpt lat="47.35718" lon="0.03531">
        <ele>87.9</ele>
        <time>2012-08-15T07:45:11Z</time>
      </trkpt>
      <trkpt lat="47.35721" lon="0.03529">
        <ele>88</ele>
        <time>2012-08-15T07:45:12Z</time>
      </trkpt>
      <trkpt lat="47.35723" lon="0.03526">
        <ele>88.2</ele>
        <time>2012-08-15T07:45:13Z</time>
      </trkpt>
      <trkpt lat="47.35739" lon="0.03509">
        <ele>90</ele>
        <time>2012-08-15T07:45:19Z</time>
      </trkpt>
      <trkpt lat="47.35751" lon="0.0349">
        <ele>91.7</ele>
        <time>2012-08-15T07:45:24Z</time>
      </trkpt>
      <trkpt lat="47.35763" lon="0.03476">
        <ele>92.7</ele>
        <time>2012-08-15T07:45:30Z</time>
      </trkpt>
      <trkpt lat="47.35781" lon="0.03458">
        <ele>94.3</ele>
        <time>2012-08-15T07:45:36Z</time>
      </trkpt>
      <trkpt lat="47.35796" lon="0.03458">
        <ele>95.3</ele>
        <time>2012-08-15T07:45:42Z</time>
      </trkpt>
      <trkpt lat="47.35816" lon="0.03456">
        <ele>96.5</ele>
        <time>2012-08-15T07:45:47Z</time>
      </trkpt>
      <trkpt lat="47.35819" lon="0.03456">
        <ele>96.7</ele>
        <time>2012-08-15T07:45:48Z</time>
      </trkpt>
      <trkpt lat="47.35829" lon="0.03456">
        <ele>97</ele>
        <time>2012-08-15T07:45:52Z</time>
      </trkpt>
      <trkpt lat="47.35831" lon="0.03456">
        <ele>97.1</ele>
        <time>2012-08-15T07:45:53Z</time>
      </trkpt>
      <trkpt lat="47.35833" lon="0.03457">
        <ele>97.1</ele>
        <time>2012-08-15T07:45:54Z</time>
      </trkpt>
      <trkpt lat="47.35836" lon="0.03457">
        <ele>97.2</ele>
        <time>2012-08-15T07:45:55Z</time>
      </trkpt>
      <trkpt lat="47.35837" lon="0.03457">
        <ele>97.3</ele>
        <time>2012-08-15T07:45:56Z</time>
      </trkpt>
      <trkpt lat="47.35839" lon="0.03458">
        <ele>97.3</ele>
        <time>2012-08-15T07:45:57Z</time>
      </trkpt>
      <trkpt lat="47.35858" lon="0.03461">
        <ele>98.2</ele>
        <time>2012-08-15T07:46:02Z</time>
      </trkpt>
      <trkpt lat="47.35881" lon="0.0346">
        <ele>98.8</ele>
        <time>2012-08-15T07:46:08Z</time>
      </trkpt>
      <trkpt lat="47.35907" lon="0.0346">
        <ele>98.9</ele>
        <time>2012-08-15T07:46:15Z</time>
      </trkpt>
      <trkpt lat="47.35939" lon="0.03457">
        <ele>99.1</ele>
        <time>2012-08-15T07:46:25Z</time>
      </trkpt>
      <trkpt lat="47.35957" lon="0.03457">
        <ele>98.6</ele>
        <time>2012-08-15T07:46:31Z</time>
      </trkpt>
      <trkpt lat="47.35959" lon="0.03453">
        <ele>98.9</ele>
        <time>2012-08-15T07:46:32Z</time>
      </trkpt>
      <trkpt lat="47.35983" lon="0.03418">
        <ele>99.5</ele>
        <time>2012-08-15T07:46:42Z</time>
      </trkpt>
      <trkpt lat="47.35993" lon="0.03403">
        <ele>99.7</ele>
        <time>2012-08-15T07:46:46Z</time>
      </trkpt>
      <trkpt lat="47.36003" lon="0.03387">
        <ele>99.9</ele>
        <time>2012-08-15T07:46:51Z</time>
      </trkpt>
      <trkpt lat="47.36005" lon="0.03386">
        <ele>99.7</ele>
        <time>2012-08-15T07:46:52Z</time>
      </trkpt>
      <trkpt lat="47.36007" lon="0.03387">
        <ele>99.6</ele>
        <time>2012-08-15T07:46:53Z</time>
      </trkpt>
      <trkpt lat="47.3601" lon="0.03389">
        <ele>99.3</ele>
        <time>2012-08-15T07:46:54Z</time>
      </trkpt>
      <trkpt lat="47.36024" lon="0.03402">
        <ele>97.8</ele>
        <time>2012-08-15T07:46:58Z</time>
      </trkpt>
      <trkpt lat="47.36039" lon="0.03418">
        <ele>95.7</ele>
        <time>2012-08-15T07:47:02Z</time>
      </trkpt>
      <trkpt lat="47.36047" lon="0.03425">
        <ele>94.5</ele>
        <time>2012-08-15T07:47:04Z</time>
      </trkpt>
      <trkpt lat="47.36064" lon="0.03432">
        <ele>92.5</ele>
        <time>2012-08-15T07:47:08Z</time>
      </trkpt>
      <trkpt lat="47.3608" lon="0.03435">
        <ele>90.7</ele>
        <time>2012-08-15T07:47:11Z</time>
      </trkpt>
      <trkpt lat="47.36108" lon="0.03454">
        <ele>89.1</ele>
        <time>2012-08-15T07:47:17Z</time>
      </trkpt>
      <trkpt lat="47.36111" lon="0.0346">
        <ele>89</ele>
        <time>2012-08-15T07:47:18Z</time>
      </trkpt>
      <trkpt lat="47.36132" lon="0.0349">
        <ele>89.9</ele>
        <time>2012-08-15T07:47:24Z</time>
      </trkpt>
      <trkpt lat="47.36135" lon="0.03494">
        <ele>89.9</ele>
        <time>2012-08-15T07:47:25Z</time>
      </trkpt>
      <trkpt lat="47.36154" lon="0.0351">
        <ele>91.4</ele>
        <time>2012-08-15T07:47:32Z</time>
      </trkpt>
      <trkpt lat="47.36157" lon="0.03512">
        <ele>91.7</ele>
        <time>2012-08-15T07:47:33Z</time>
      </trkpt>
      <trkpt lat="47.36175" lon="0.03518">
        <ele>93.3</ele>
        <time>2012-08-15T07:47:39Z</time>
      </trkpt>
      <trkpt lat="47.36186" lon="0.03521">
        <ele>94.3</ele>
        <time>2012-08-15T07:47:43Z</time>
      </trkpt>
      <trkpt lat="47.36202" lon="0.03528">
        <ele>95.3</ele>
        <time>2012-08-15T07:47:49Z</time>
      </trkpt>
      <trkpt lat="47.36216" lon="0.03534">
        <ele>95.5</ele>
        <time>2012-08-15T07:47:54Z</time>
      </trkpt>
      <trkpt lat="47.3623" lon="0.03545">
        <ele>95.7</ele>
        <time>2012-08-15T07:47:59Z</time>
      </trkpt>
      <trkpt lat="47.36239" lon="0.03553">
        <ele>95.7</ele>
        <time>2012-08-15T07:48:02Z</time>
      </trkpt>
      <trkpt lat="47.3625" lon="0.03568">
        <ele>95.6</ele>
        <time>2012-08-15T07:48:06Z</time>
      </trkpt>
      <trkpt lat="47.36262" lon="0.03581">
        <ele>95.1</ele>
        <time>2012-08-15T07:48:09Z</time>
      </trkpt>
      <trkpt lat="47.36272" lon="0.0359">
        <ele>94.5</ele>
        <time>2012-08-15T07:48:11Z</time>
      </trkpt>
      <trkpt lat="47.36292" lon="0.03606">
        <ele>93.3</ele>
        <time>2012-08-15T07:48:15Z</time>
      </trkpt>
      <trkpt lat="47.36314" lon="0.03635">
        <ele>91.2</ele>
        <time>2012-08-15T07:48:20Z</time>
      </trkpt>
      <trkpt lat="47.36339" lon="0.03673">
        <ele>88.8</ele>
        <time>2012-08-15T07:48:25Z</time>
      </trkpt>
      <trkpt lat="47.36368" lon="0.03719">
        <ele>87.4</ele>
        <time>2012-08-15T07:48:32Z</time>
      </trkpt>
      <trkpt lat="47.36387" lon="0.03741">
        <ele>87.3</ele>
        <time>2012-08-15T07:48:37Z</time>
      </trkpt>
      <trkpt lat="47.36394" lon="0.03749">
        <ele>87.2</ele>
        <time>2012-08-15T07:48:39Z</time>
      </trkpt>
      <trkpt lat="47.36418" lon="0.03778">
        <ele>87</ele>
        <time>2012-08-15T07:48:46Z</time>
      </trkpt>
      <trkpt lat="47.36426" lon="0.03793">
        <ele>86.8</ele>
        <time>2012-08-15T07:48:49Z</time>
      </trkpt>
      <trkpt lat="47.3644" lon="0.03821">
        <ele>86.4</ele>
        <time>2012-08-15T07:48:54Z</time>
      </trkpt>
      <trkpt lat="47.36454" lon="0.03846">
        <ele>85.9</ele>
        <time>2012-08-15T07:48:59Z</time>
      </trkpt>
      <trkpt lat="47.36457" lon="0.03852">
        <ele>85.8</ele>
        <time>2012-08-15T07:49:00Z</time>
      </trkpt>
      <trkpt lat="47.36479" lon="0.03885">
        <ele>85.4</ele>
        <time>2012-08-15T07:49:06Z</time>
      </trkpt>
      <trkpt lat="47.36486" lon="0.03894">
        <ele>85.4</ele>
        <time>2012-08-15T07:49:08Z</time>
      </trkpt>
      <trkpt lat="47.36498" lon="0.03914">
        <ele>85.1</ele>
        <time>2012-08-15T07:49:12Z</time>
      </trkpt>
      <trkpt lat="47.36514" lon="0.03945">
        <ele>85</ele>
        <time>2012-08-15T07:49:17Z</time>
      </trkpt>
      <trkpt lat="47.36525" lon="0.03965">
        <ele>84.3</ele>
        <time>2012-08-15T07:49:20Z</time>
      </trkpt>
      <trkpt lat="47.36535" lon="0.03992">
        <ele>83.5</ele>
        <time>2012-08-15T07:49:23Z</time>
      </trkpt>
      <trkpt lat="47.36538" lon="0.04">
        <ele>83.4</ele>
        <time>2012-08-15T07:49:24Z</time>
      </trkpt>
      <trkpt lat="47.36554" lon="0.04033">
        <ele>83</ele>
        <time>2012-08-15T07:49:30Z</time>
      </trkpt>
      <trkpt lat="47.36581" lon="0.04076">
        <ele>84.7</ele>
        <time>2012-08-15T07:49:37Z</time>
      </trkpt>
      <trkpt lat="47.36598" lon="0.04104">
        <ele>85.5</ele>
        <time>2012-08-15T07:49:42Z</time>
      </trkpt>
      <trkpt lat="47.36607" lon="0.04118">
        <ele>86.1</ele>
        <time>2012-08-15T07:49:45Z</time>
      </trkpt>
      <trkpt lat="47.36617" lon="0.04137">
        <ele>87.1</ele>
        <time>2012-08-15T07:49:48Z</time>
      </trkpt>
      <trkpt lat="47.36623" lon="0.0416">
        <ele>88.2</ele>
        <time>2012-08-15T07:49:52Z</time>
      </trkpt>
      <trkpt lat="47.36628" lon="0.04194">
        <ele>88.6</ele>
        <time>2012-08-15T07:49:58Z</time>
      </trkpt>
      <trkpt lat="47.36632" lon="0.04228">
        <ele>90</ele>
        <time>2012-08-15T07:50:04Z</time>
      </trkpt>
      <trkpt lat="47.36638" lon="0.04254">
        <ele>91.1</ele>
        <time>2012-08-15T07:50:09Z</time>
      </trkpt>
      <trkpt lat="47.36642" lon="0.04264">
        <ele>91.7</ele>
        <time>2012-08-15T07:50:11Z</time>
      </trkpt>
      <trkpt lat="47.3665" lon="0.04289">
        <ele>93</ele>
        <time>2012-08-15T07:50:16Z</time>
      </trkpt>
      <trkpt lat="47.3666" lon="0.04316">
        <ele>93.8</ele>
        <time>2012-08-15T07:50:21Z</time>
      </trkpt>
      <trkpt lat="47.36675" lon="0.0435">
        <ele>95</ele>
        <time>2012-08-15T07:50:27Z</time>
      </trkpt>
      <trkpt lat="47.36694" lon="0.04386">
        <ele>96</ele>
        <time>2012-08-15T07:50:33Z</time>
      </trkpt>
      <trkpt lat="47.36712" lon="0.04427">
        <ele>95.9</ele>
        <time>2012-08-15T07:50:39Z</time>
      </trkpt>
      <trkpt lat="47.36724" lon="0.04446">
        <ele>96</ele>
        <time>2012-08-15T07:50:42Z</time>
      </trkpt>
      <trkpt lat="47.36735" lon="0.04465">
        <ele>95.7</ele>
        <time>2012-08-15T07:50:45Z</time>
      </trkpt>
      <trkpt lat="47.36738" lon="0.04471">
        <ele>95.6</ele>
        <time>2012-08-15T07:50:46Z</time>
      </trkpt>
      <trkpt lat="47.36752" lon="0.04506">
        <ele>94.9</ele>
        <time>2012-08-15T07:50:52Z</time>
      </trkpt>
      <trkpt lat="47.36762" lon="0.04535">
        <ele>94.4</ele>
        <time>2012-08-15T07:50:56Z</time>
      </trkpt>
      <trkpt lat="47.36777" lon="0.04577">
        <ele>95</ele>
        <time>2012-08-15T07:51:03Z</time>
      </trkpt>
      <trkpt lat="47.36787" lon="0.04601">
        <ele>95.8</ele>
        <time>2012-08-15T07:51:07Z</time>
      </trkpt>
      <trkpt lat="47.36798" lon="0.04619">
        <ele>96.3</ele>
        <time>2012-08-15T07:51:10Z</time>
      </trkpt>
      <trkpt lat="47.36822" lon="0.04654">
        <ele>97.5</ele>
        <time>2012-08-15T07:51:17Z</time>
      </trkpt>
      <trkpt lat="47.3684" lon="0.04681">
        <ele>98.5</ele>
        <time>2012-08-15T07:51:22Z</time>
      </trkpt>
      <trkpt lat="47.36873" lon="0.04724">
        <ele>99.1</ele>
        <time>2012-08-15T07:51:31Z</time>
      </trkpt>
      <trkpt lat="47.36876" lon="0.04729">
        <ele>99.2</ele>
        <time>2012-08-15T07:51:32Z</time>
      </trkpt>
      <trkpt lat="47.36912" lon="0.04771">
        <ele>100</ele>
        <time>2012-08-15T07:51:41Z</time>
      </trkpt>
      <trkpt lat="47.36927" lon="0.0479">
        <ele>100</ele>
        <time>2012-08-15T07:51:47Z</time>
      </trkpt>
      <trkpt lat="47.36948" lon="0.04807">
        <ele>100</ele>
        <time>2012-08-15T07:51:55Z</time>
      </trkpt>
      <trkpt lat="47.36975" lon="0.04817">
        <ele>100.1</ele>
        <time>2012-08-15T07:52:03Z</time>
      </trkpt>
      <trkpt lat="47.36991" lon="0.04823">
        <ele>100.7</ele>
        <time>2012-08-15T07:52:09Z</time>
      </trkpt>
      <trkpt lat="47.37006" lon="0.04826">
        <ele>101</ele>
        <time>2012-08-15T07:52:14Z</time>
      </trkpt>
      <trkpt lat="47.37022" lon="0.04834">
        <ele>101</ele>
        <time>2012-08-15T07:52:19Z</time>
      </trkpt>
      <trkpt lat="47.37041" lon="0.04843">
        <ele>101</ele>
        <time>2012-08-15T07:52:26Z</time>
      </trkpt>
      <trkpt lat="47.37043" lon="0.04845">
        <ele>101</ele>
        <time>2012-08-15T07:52:27Z</time>
      </trkpt>
      <trkpt lat="47.37045" lon="0.04849">
        <ele>101</ele>
        <time>2012-08-15T07:52:28Z</time>
      </trkpt>
      <trkpt lat="47.37048" lon="0.04855">
        <ele>101</ele>
        <time>2012-08-15T07:52:33Z</time>
      </trkpt>
      <trkpt lat="47.37048" lon="0.04855">
        <ele>101</ele>
        <time>2012-08-15T07:53:02Z</time>
      </trkpt>
      <trkpt lat="47.37048" lon="0.04855">
        <ele>101</ele>
        <time>2012-08-15T07:53:05Z</time>
      </trkpt>
      <trkpt lat="47.37049" lon="0.04857">
        <ele>101</ele>
        <time>2012-08-15T07:53:07Z</time>
      </trkpt>
      <trkpt lat="47.37041" lon="0.04874">
        <ele>101</ele>
        <time>2012-08-15T07:53:14Z</time>
      </trkpt>
      <trkpt lat="47.37032" lon="0.04897">
        <ele>101</ele>
        <time>2012-08-15T07:53:19Z</time>
      </trkpt>
      <trkpt lat="47.37017" lon="0.04936">
        <ele>100.2</ele>
        <time>2012-08-15T07:53:26Z</time>
      </trkpt>
      <trkpt lat="47.37014" lon="0.04942">
        <ele>100</ele>
        <time>2012-08-15T07:53:27Z</time>
      </trkpt>
      <trkpt lat="47.37012" lon="0.04947">
        <ele>99.9</ele>
        <time>2012-08-15T07:53:28Z</time>
      </trkpt>
      <trkpt lat="47.3701" lon="0.04953">
        <ele>99.8</ele>
        <time>2012-08-15T07:53:29Z</time>
      </trkpt>
      <trkpt lat="47.37009" lon="0.04958">
        <ele>99.7</ele>
        <time>2012-08-15T07:53:30Z</time>
      </trkpt>
      <trkpt lat="47.37008" lon="0.04963">
        <ele>99.5</ele>
        <time>2012-08-15T07:53:31Z</time>
      </trkpt>
      <trkpt lat="47.37008" lon="0.04969">
        <ele>99.4</ele>
        <time>2012-08-15T07:53:32Z</time>
      </trkpt>
      <trkpt lat="47.37009" lon="0.04974">
        <ele>99.3</ele>
        <time>2012-08-15T07:53:33Z</time>
      </trkpt>
      <trkpt lat="47.37009" lon="0.0498">
        <ele>99.3</ele>
        <time>2012-08-15T07:53:34Z</time>
      </trkpt>
      <trkpt lat="47.3701" lon="0.04985">
        <ele>99.4</ele>
        <time>2012-08-15T07:53:35Z</time>
      </trkpt>
      <trkpt lat="47.37011" lon="0.0499">
        <ele>99.4</ele>
        <time>2012-08-15T07:53:36Z</time>
      </trkpt>
      <trkpt lat="47.37012" lon="0.04996">
        <ele>99.4</ele>
        <time>2012-08-15T07:53:37Z</time>
      </trkpt>
      <trkpt lat="47.37013" lon="0.05002">
        <ele>99.5</ele>
        <time>2012-08-15T07:53:38Z</time>
      </trkpt>
      <trkpt lat="47.37016" lon="0.05026">
        <ele>99.6</ele>
        <time>2012-08-15T07:53:42Z</time>
      </trkpt>
      <trkpt lat="47.37019" lon="0.05045">
        <ele>99.7</ele>
        <time>2012-08-15T07:53:45Z</time>
      </trkpt>
      <trkpt lat="47.3702" lon="0.05052">
        <ele>99.7</ele>
        <time>2012-08-15T07:53:46Z</time>
      </trkpt>
      <trkpt lat="47.37024" lon="0.05073">
        <ele>99.2</ele>
        <time>2012-08-15T07:53:49Z</time>
      </trkpt>
      <trkpt lat="47.37025" lon="0.0508">
        <ele>99</ele>
        <time>2012-08-15T07:53:50Z</time>
      </trkpt>
      <trkpt lat="47.37036" lon="0.05135">
        <ele>98.7</ele>
        <time>2012-08-15T07:53:57Z</time>
      </trkpt>
      <trkpt lat="47.37041" lon="0.05174">
        <ele>99</ele>
        <time>2012-08-15T07:54:02Z</time>
      </trkpt>
      <trkpt lat="47.37048" lon="0.05222">
        <ele>99.5</ele>
        <time>2012-08-15T07:54:08Z</time>
      </trkpt>
      <trkpt lat="47.37049" lon="0.05229">
        <ele>99.5</ele>
        <time>2012-08-15T07:54:09Z</time>
      </trkpt>
      <trkpt lat="47.3705" lon="0.05237">
        <ele>99.6</ele>
        <time>2012-08-15T07:54:10Z</time>
      </trkpt>
      <trkpt lat="47.3705" lon="0.05244">
        <ele>99.6</ele>
        <time>2012-08-15T07:54:11Z</time>
      </trkpt>
      <trkpt lat="47.37052" lon="0.05251">
        <ele>99.7</ele>
        <time>2012-08-15T07:54:12Z</time>
      </trkpt>
      <trkpt lat="47.37053" lon="0.05259">
        <ele>99.8</ele>
        <time>2012-08-15T07:54:13Z</time>
      </trkpt>
      <trkpt lat="47.3706" lon="0.0529">
        <ele>100.2</ele>
        <time>2012-08-15T07:54:17Z</time>
      </trkpt>
      <trkpt lat="47.3707" lon="0.05325">
        <ele>100.5</ele>
        <time>2012-08-15T07:54:22Z</time>
      </trkpt>
      <trkpt lat="47.37073" lon="0.05332">
        <ele>100.6</ele>
        <time>2012-08-15T07:54:23Z</time>
      </trkpt>
      <trkpt lat="47.37074" lon="0.05339">
        <ele>100.7</ele>
        <time>2012-08-15T07:54:24Z</time>
      </trkpt>
      <trkpt lat="47.37076" lon="0.05346">
        <ele>100.7</ele>
        <time>2012-08-15T07:54:25Z</time>
      </trkpt>
      <trkpt lat="47.37078" lon="0.05353">
        <ele>100.8</ele>
        <time>2012-08-15T07:54:26Z</time>
      </trkpt>
      <trkpt lat="47.3708" lon="0.0536">
        <ele>100.9</ele>
        <time>2012-08-15T07:54:27Z</time>
      </trkpt>
      <trkpt lat="47.37083" lon="0.05376">
        <ele>101</ele>
        <time>2012-08-15T07:54:29Z</time>
      </trkpt>
      <trkpt lat="47.37086" lon="0.05383">
        <ele>101.1</ele>
        <time>2012-08-15T07:54:30Z</time>
      </trkpt>
      <trkpt lat="47.37088" lon="0.0539">
        <ele>101.2</ele>
        <time>2012-08-15T07:54:31Z</time>
      </trkpt>
      <trkpt lat="47.37089" lon="0.05398">
        <ele>101.2</ele>
        <time>2012-08-15T07:54:32Z</time>
      </trkpt>
      <trkpt lat="47.37091" lon="0.05405">
        <ele>101.3</ele>
        <time>2012-08-15T07:54:33Z</time>
      </trkpt>
      <trkpt lat="47.37092" lon="0.05413">
        <ele>101.3</ele>
        <time>2012-08-15T07:54:34Z</time>
      </trkpt>
      <trkpt lat="47.37097" lon="0.05434">
        <ele>100.9</ele>
        <time>2012-08-15T07:54:37Z</time>
      </trkpt>
      <trkpt lat="47.37098" lon="0.05441">
        <ele>100.7</ele>
        <time>2012-08-15T07:54:38Z</time>
      </trkpt>
      <trkpt lat="47.371" lon="0.05447">
        <ele>100.6</ele>
        <time>2012-08-15T07:54:39Z</time>
      </trkpt>
      <trkpt lat="47.37103" lon="0.05453">
        <ele>100.7</ele>
        <time>2012-08-15T07:54:40Z</time>
      </trkpt>
      <trkpt lat="47.37106" lon="0.05459">
        <ele>100.8</ele>
        <time>2012-08-15T07:54:41Z</time>
      </trkpt>
      <trkpt lat="47.37109" lon="0.05466">
        <ele>100.9</ele>
        <time>2012-08-15T07:54:42Z</time>
      </trkpt>
      <trkpt lat="47.37113" lon="0.05473">
        <ele>101</ele>
        <time>2012-08-15T07:54:43Z</time>
      </trkpt>
      <trkpt lat="47.37125" lon="0.05496">
        <ele>100.6</ele>
        <time>2012-08-15T07:54:46Z</time>
      </trkpt>
      <trkpt lat="47.37128" lon="0.05503">
        <ele>100.6</ele>
        <time>2012-08-15T07:54:47Z</time>
      </trkpt>
      <trkpt lat="47.37155" lon="0.05547">
        <ele>101.6</ele>
        <time>2012-08-15T07:54:54Z</time>
      </trkpt>
      <trkpt lat="47.37174" lon="0.05587">
        <ele>102.1</ele>
        <time>2012-08-15T07:55:00Z</time>
      </trkpt>
      <trkpt lat="47.37196" lon="0.05633">
        <ele>102.1</ele>
        <time>2012-08-15T07:55:07Z</time>
      </trkpt>
      <trkpt lat="47.37214" lon="0.0567">
        <ele>102.7</ele>
        <time>2012-08-15T07:55:13Z</time>
      </trkpt>
      <trkpt lat="47.37217" lon="0.05675">
        <ele>102.8</ele>
        <time>2012-08-15T07:55:14Z</time>
      </trkpt>
      <trkpt lat="47.3722" lon="0.05682">
        <ele>102.9</ele>
        <time>2012-08-15T07:55:15Z</time>
      </trkpt>
      <trkpt lat="47.37223" lon="0.05689">
        <ele>103</ele>
        <time>2012-08-15T07:55:16Z</time>
      </trkpt>
      <trkpt lat="47.37226" lon="0.05695">
        <ele>103.1</ele>
        <time>2012-08-15T07:55:17Z</time>
      </trkpt>
      <trkpt lat="47.37231" lon="0.05709">
        <ele>103.2</ele>
        <time>2012-08-15T07:55:19Z</time>
      </trkpt>
      <trkpt lat="47.37234" lon="0.05716">
        <ele>103.1</ele>
        <time>2012-08-15T07:55:20Z</time>
      </trkpt>
      <trkpt lat="47.37238" lon="0.05722">
        <ele>103</ele>
        <time>2012-08-15T07:55:21Z</time>
      </trkpt>
      <trkpt lat="47.37248" lon="0.05741">
        <ele>103</ele>
        <time>2012-08-15T07:55:24Z</time>
      </trkpt>
      <trkpt lat="47.37251" lon="0.05747">
        <ele>103</ele>
        <time>2012-08-15T07:55:25Z</time>
      </trkpt>
      <trkpt lat="47.37255" lon="0.05753">
        <ele>103.2</ele>
        <time>2012-08-15T07:55:26Z</time>
      </trkpt>
      <trkpt lat="47.37262" lon="0.05767">
        <ele>103.2</ele>
        <time>2012-08-15T07:55:28Z</time>
      </trkpt>
      <trkpt lat="47.37265" lon="0.05774">
        <ele>103.1</ele>
        <time>2012-08-15T07:55:29Z</time>
      </trkpt>
      <trkpt lat="47.37278" lon="0.05802">
        <ele>103</ele>
        <time>2012-08-15T07:55:33Z</time>
      </trkpt>
      <trkpt lat="47.37281" lon="0.05808">
        <ele>103.1</ele>
        <time>2012-08-15T07:55:34Z</time>
      </trkpt>
      <trkpt lat="47.37284" lon="0.05815">
        <ele>103.2</ele>
        <time>2012-08-15T07:55:35Z</time>
      </trkpt>
      <trkpt lat="47.37288" lon="0.05821">
        <ele>103.4</ele>
        <time>2012-08-15T07:55:36Z</time>
      </trkpt>
      <trkpt lat="47.37292" lon="0.05826">
        <ele>103.5</ele>
        <time>2012-08-15T07:55:37Z</time>
      </trkpt>
      <trkpt lat="47.37295" lon="0.05832">
        <ele>103.6</ele>
        <time>2012-08-15T07:55:38Z</time>
      </trkpt>
      <trkpt lat="47.37299" lon="0.0584">
        <ele>103.8</ele>
        <time>2012-08-15T07:55:39Z</time>
      </trkpt>
      <trkpt lat="47.37302" lon="0.05846">
        <ele>103.9</ele>
        <time>2012-08-15T07:55:40Z</time>
      </trkpt>
      <trkpt lat="47.37306" lon="0.05852">
        <ele>104</ele>
        <time>2012-08-15T07:55:41Z</time>
      </trkpt>
      <trkpt lat="47.37313" lon="0.05862">
        <ele>103.7</ele>
        <time>2012-08-15T07:55:43Z</time>
      </trkpt>
      <trkpt lat="47.37317" lon="0.05867">
        <ele>103.6</ele>
        <time>2012-08-15T07:55:44Z</time>
      </trkpt>
      <trkpt lat="47.37327" lon="0.05886">
        <ele>103.2</ele>
        <time>2012-08-15T07:55:47Z</time>
      </trkpt>
      <trkpt lat="47.37343" lon="0.05916">
        <ele>103</ele>
        <time>2012-08-15T07:55:52Z</time>
      </trkpt>
      <trkpt lat="47.37347" lon="0.05922">
        <ele>103.1</ele>
        <time>2012-08-15T07:55:53Z</time>
      </trkpt>
      <trkpt lat="47.37356" lon="0.05937">
        <ele>103.1</ele>
        <time>2012-08-15T07:55:55Z</time>
      </trkpt>
      <trkpt lat="47.37361" lon="0.05945">
        <ele>103</ele>
        <time>2012-08-15T07:55:56Z</time>
      </trkpt>
      <trkpt lat="47.37366" lon="0.05963">
        <ele>102.8</ele>
        <time>2012-08-15T07:55:58Z</time>
      </trkpt>
      <trkpt lat="47.37369" lon="0.05972">
        <ele>102.7</ele>
        <time>2012-08-15T07:55:59Z</time>
      </trkpt>
      <trkpt lat="47.37372" lon="0.05982">
        <ele>103</ele>
        <time>2012-08-15T07:56:00Z</time>
      </trkpt>
      <trkpt lat="47.37376" lon="0.05989">
        <ele>103.1</ele>
        <time>2012-08-15T07:56:01Z</time>
      </trkpt>
      <trkpt lat="47.37379" lon="0.05996">
        <ele>103.2</ele>
        <time>2012-08-15T07:56:02Z</time>
      </trkpt>
      <trkpt lat="47.3738" lon="0.06003">
        <ele>103.4</ele>
        <time>2012-08-15T07:56:03Z</time>
      </trkpt>
      <trkpt lat="47.37371" lon="0.06024">
        <ele>104</ele>
        <time>2012-08-15T07:56:07Z</time>
      </trkpt>
      <trkpt lat="47.37342" lon="0.06054">
        <ele>105</ele>
        <time>2012-08-15T07:56:14Z</time>
      </trkpt>
      <trkpt lat="47.37306" lon="0.06083">
        <ele>106</ele>
        <time>2012-08-15T07:56:21Z</time>
      </trkpt>
      <trkpt lat="47.37292" lon="0.06096">
        <ele>105.7</ele>
        <time>2012-08-15T07:56:24Z</time>
      </trkpt>
      <trkpt lat="47.37258" lon="0.06121">
        <ele>106</ele>
        <time>2012-08-15T07:56:31Z</time>
      </trkpt>
      <trkpt lat="47.37254" lon="0.06124">
        <ele>106</ele>
        <time>2012-08-15T07:56:32Z</time>
      </trkpt>
      <trkpt lat="47.37245" lon="0.06132">
        <ele>106</ele>
        <time>2012-08-15T07:56:34Z</time>
      </trkpt>
      <trkpt lat="47.3723" lon="0.06144">
        <ele>106.2</ele>
        <time>2012-08-15T07:56:37Z</time>
      </trkpt>
      <trkpt lat="47.37202" lon="0.06165">
        <ele>106.3</ele>
        <time>2012-08-15T07:56:43Z</time>
      </trkpt>
      <trkpt lat="47.37161" lon="0.06196">
        <ele>107</ele>
        <time>2012-08-15T07:56:51Z</time>
      </trkpt>
      <trkpt lat="47.37138" lon="0.06214">
        <ele>107</ele>
        <time>2012-08-15T07:56:56Z</time>
      </trkpt>
      <trkpt lat="47.37099" lon="0.06245">
        <ele>107.5</ele>
        <time>2012-08-15T07:57:04Z</time>
      </trkpt>
      <trkpt lat="47.3709" lon="0.06252">
        <ele>107.3</ele>
        <time>2012-08-15T07:57:06Z</time>
      </trkpt>
      <trkpt lat="47.37076" lon="0.06264">
        <ele>107.4</ele>
        <time>2012-08-15T07:57:09Z</time>
      </trkpt>
      <trkpt lat="47.37066" lon="0.06272">
        <ele>107.3</ele>
        <time>2012-08-15T07:57:11Z</time>
      </trkpt>
      <trkpt lat="47.37022" lon="0.06308">
        <ele>106.8</ele>
        <time>2012-08-15T07:57:20Z</time>
      </trkpt>
      <trkpt lat="47.37009" lon="0.06321">
        <ele>106.3</ele>
        <time>2012-08-15T07:57:23Z</time>
      </trkpt>
      <trkpt lat="47.36994" lon="0.06332">
        <ele>105.8</ele>
        <time>2012-08-15T07:57:26Z</time>
      </trkpt>
      <trkpt lat="47.3698" lon="0.06343">
        <ele>105.3</ele>
        <time>2012-08-15T07:57:29Z</time>
      </trkpt>
      <trkpt lat="47.36955" lon="0.06359">
        <ele>104.4</ele>
        <time>2012-08-15T07:57:34Z</time>
      </trkpt>
      <trkpt lat="47.36942" lon="0.06369">
        <ele>103.9</ele>
        <time>2012-08-15T07:57:37Z</time>
      </trkpt>
      <trkpt lat="47.36937" lon="0.06367">
        <ele>103.7</ele>
        <time>2012-08-15T07:57:38Z</time>
      </trkpt>
      <trkpt lat="47.36933" lon="0.06364">
        <ele>103.5</ele>
        <time>2012-08-15T07:57:39Z</time>
      </trkpt>
      <trkpt lat="47.36928" lon="0.06359">
        <ele>103.5</ele>
        <time>2012-08-15T07:57:40Z</time>
      </trkpt>
      <trkpt lat="47.36904" lon="0.06328">
        <ele>103.2</ele>
        <time>2012-08-15T07:57:47Z</time>
      </trkpt>
      <trkpt lat="47.36901" lon="0.06328">
        <ele>103</ele>
        <time>2012-08-15T07:57:48Z</time>
      </trkpt>
      <trkpt lat="47.36891" lon="0.06327">
        <ele>102.4</ele>
        <time>2012-08-15T07:57:52Z</time>
      </trkpt>
      <trkpt lat="47.36887" lon="0.06325">
        <ele>102.2</ele>
        <time>2012-08-15T07:57:55Z</time>
      </trkpt>
      <trkpt lat="47.36884" lon="0.06327">
        <ele>102.1</ele>
        <time>2012-08-15T07:57:57Z</time>
      </trkpt>
      <trkpt lat="47.36883" lon="0.06334">
        <ele>101.8</ele>
        <time>2012-08-15T07:58:02Z</time>
      </trkpt>
      <trkpt lat="47.36876" lon="0.06343">
        <ele>101.2</ele>
        <time>2012-08-15T07:58:06Z</time>
      </trkpt>
      <trkpt lat="47.3684" lon="0.06358">
        <ele>98.6</ele>
        <time>2012-08-15T07:58:14Z</time>
      </trkpt>
      <trkpt lat="47.36824" lon="0.06366">
        <ele>97.2</ele>
        <time>2012-08-15T07:58:17Z</time>
      </trkpt>
      <trkpt lat="47.36811" lon="0.06373">
        <ele>96</ele>
        <time>2012-08-15T07:58:19Z</time>
      </trkpt>
      <trkpt lat="47.3677" lon="0.06393">
        <ele>93.3</ele>
        <time>2012-08-15T07:58:24Z</time>
      </trkpt>
      <trkpt lat="47.36753" lon="0.06401">
        <ele>92.2</ele>
        <time>2012-08-15T07:58:26Z</time>
      </trkpt>
      <trkpt lat="47.36725" lon="0.0641">
        <ele>91.1</ele>
        <time>2012-08-15T07:58:30Z</time>
      </trkpt>
      <trkpt lat="47.36714" lon="0.06415">
        <ele>91</ele>
        <time>2012-08-15T07:58:32Z</time>
      </trkpt>
      <trkpt lat="47.367" lon="0.06425">
        <ele>91.2</ele>
        <time>2012-08-15T07:58:35Z</time>
      </trkpt>
      <trkpt lat="47.36677" lon="0.06436">
        <ele>92.5</ele>
        <time>2012-08-15T07:58:40Z</time>
      </trkpt>
      <trkpt lat="47.36646" lon="0.0645">
        <ele>94.5</ele>
        <time>2012-08-15T07:58:48Z</time>
      </trkpt>
      <trkpt lat="47.36633" lon="0.06455">
        <ele>95.4</ele>
        <time>2012-08-15T07:58:52Z</time>
      </trkpt>
      <trkpt lat="47.36609" lon="0.06467">
        <ele>97.2</ele>
        <time>2012-08-15T07:59:00Z</time>
      </trkpt>
      <trkpt lat="47.36603" lon="0.06469">
        <ele>97.6</ele>
        <time>2012-08-15T07:59:02Z</time>
      </trkpt>
      <trkpt lat="47.36578" lon="0.06474">
        <ele>99.4</ele>
        <time>2012-08-15T07:59:10Z</time>
      </trkpt>
      <trkpt lat="47.36547" lon="0.06486">
        <ele>101.6</ele>
        <time>2012-08-15T07:59:19Z</time>
      </trkpt>
      <trkpt lat="47.36523" lon="0.06496">
        <ele>103.3</ele>
        <time>2012-08-15T07:59:26Z</time>
      </trkpt>
      <trkpt lat="47.36495" lon="0.06507">
        <ele>105.2</ele>
        <time>2012-08-15T07:59:34Z</time>
      </trkpt>
      <trkpt lat="47.36468" lon="0.06521">
        <ele>106.9</ele>
        <time>2012-08-15T07:59:42Z</time>
      </trkpt>
      <trkpt lat="47.36437" lon="0.06538">
        <ele>108.3</ele>
        <time>2012-08-15T07:59:51Z</time>
      </trkpt>
      <trkpt lat="47.36418" lon="0.06546">
        <ele>109</ele>
        <time>2012-08-15T07:59:56Z</time>
      </trkpt>
      <trkpt lat="47.36378" lon="0.06564">
        <ele>109</ele>
        <time>2012-08-15T08:00:05Z</time>
      </trkpt>
      <trkpt lat="47.36352" lon="0.06576">
        <ele>108.9</ele>
        <time>2012-08-15T08:00:11Z</time>
      </trkpt>
      <trkpt lat="47.36344" lon="0.06579">
        <ele>108.9</ele>
        <time>2012-08-15T08:00:13Z</time>
      </trkpt>
      <trkpt lat="47.36309" lon="0.06595">
        <ele>108.1</ele>
        <time>2012-08-15T08:00:21Z</time>
      </trkpt>
      <trkpt lat="47.363" lon="0.066">
        <ele>108</ele>
        <time>2012-08-15T08:00:23Z</time>
      </trkpt>
      <trkpt lat="47.36281" lon="0.06608">
        <ele>108</ele>
        <time>2012-08-15T08:00:27Z</time>
      </trkpt>
      <trkpt lat="47.36257" lon="0.06619">
        <ele>107.5</ele>
        <time>2012-08-15T08:00:32Z</time>
      </trkpt>
      <trkpt lat="47.36223" lon="0.06634">
        <ele>107</ele>
        <time>2012-08-15T08:00:39Z</time>
      </trkpt>
      <trkpt lat="47.36183" lon="0.06653">
        <ele>106.6</ele>
        <time>2012-08-15T08:00:47Z</time>
      </trkpt>
      <trkpt lat="47.36178" lon="0.06656">
        <ele>106.4</ele>
        <time>2012-08-15T08:00:48Z</time>
      </trkpt>
      <trkpt lat="47.36168" lon="0.0666">
        <ele>106</ele>
        <time>2012-08-15T08:00:50Z</time>
      </trkpt>
      <trkpt lat="47.3613" lon="0.06678">
        <ele>106</ele>
        <time>2012-08-15T08:00:57Z</time>
      </trkpt>
      <trkpt lat="47.36108" lon="0.06688">
        <ele>105.9</ele>
        <time>2012-08-15T08:01:01Z</time>
      </trkpt>
      <trkpt lat="47.36087" lon="0.06698">
        <ele>105.1</ele>
        <time>2012-08-15T08:01:05Z</time>
      </trkpt>
      <trkpt lat="47.36037" lon="0.06719">
        <ele>103.3</ele>
        <time>2012-08-15T08:01:14Z</time>
      </trkpt>
      <trkpt lat="47.36004" lon="0.06729">
        <ele>101.5</ele>
        <time>2012-08-15T08:01:20Z</time>
      </trkpt>
      <trkpt lat="47.35957" lon="0.06741">
        <ele>99.5</ele>
        <time>2012-08-15T08:01:29Z</time>
      </trkpt>
      <trkpt lat="47.35941" lon="0.06745">
        <ele>99</ele>
        <time>2012-08-15T08:01:32Z</time>
      </trkpt>
      <trkpt lat="47.35895" lon="0.06759">
        <ele>99</ele>
        <time>2012-08-15T08:01:41Z</time>
      </trkpt>
      <trkpt lat="47.3589" lon="0.06761">
        <ele>99</ele>
        <time>2012-08-15T08:01:42Z</time>
      </trkpt>
      <trkpt lat="47.35886" lon="0.06763">
        <ele>99</ele>
        <time>2012-08-15T08:01:43Z</time>
      </trkpt>
      <trkpt lat="47.35882" lon="0.06762">
        <ele>99.1</ele>
        <time>2012-08-15T08:01:44Z</time>
      </trkpt>
      <trkpt lat="47.35879" lon="0.06759">
        <ele>99.1</ele>
        <time>2012-08-15T08:01:45Z</time>
      </trkpt>
      <trkpt lat="47.35876" lon="0.06756">
        <ele>99.1</ele>
        <time>2012-08-15T08:01:46Z</time>
      </trkpt>
      <trkpt lat="47.35872" lon="0.06754">
        <ele>99.1</ele>
        <time>2012-08-15T08:01:47Z</time>
      </trkpt>
      <trkpt lat="47.35868" lon="0.06754">
        <ele>99.1</ele>
        <time>2012-08-15T08:01:48Z</time>
      </trkpt>
      <trkpt lat="47.35865" lon="0.06753">
        <ele>99.1</ele>
        <time>2012-08-15T08:01:49Z</time>
      </trkpt>
      <trkpt lat="47.35847" lon="0.06753">
        <ele>99.1</ele>
        <time>2012-08-15T08:01:54Z</time>
      </trkpt>
      <trkpt lat="47.35835" lon="0.06747">
        <ele>98.9</ele>
        <time>2012-08-15T08:01:57Z</time>
      </trkpt>
      <trkpt lat="47.35831" lon="0.06743">
        <ele>98.7</ele>
        <time>2012-08-15T08:01:58Z</time>
      </trkpt>
      <trkpt lat="47.35827" lon="0.0674">
        <ele>98.5</ele>
        <time>2012-08-15T08:01:59Z</time>
      </trkpt>
      <trkpt lat="47.35824" lon="0.06736">
        <ele>98.3</ele>
        <time>2012-08-15T08:02:00Z</time>
      </trkpt>
      <trkpt lat="47.3582" lon="0.06731">
        <ele>98.2</ele>
        <time>2012-08-15T08:02:01Z</time>
      </trkpt>
      <trkpt lat="47.35816" lon="0.06725">
        <ele>98</ele>
        <time>2012-08-15T08:02:02Z</time>
      </trkpt>
      <trkpt lat="47.35806" lon="0.06706">
        <ele>97.4</ele>
        <time>2012-08-15T08:02:05Z</time>
      </trkpt>
      <trkpt lat="47.35802" lon="0.06699">
        <ele>97</ele>
        <time>2012-08-15T08:02:06Z</time>
      </trkpt>
      <trkpt lat="47.35793" lon="0.06683">
        <ele>96.7</ele>
        <time>2012-08-15T08:02:09Z</time>
      </trkpt>
      <trkpt lat="47.3579" lon="0.06678">
        <ele>96.8</ele>
        <time>2012-08-15T08:02:10Z</time>
      </trkpt>
      <trkpt lat="47.35786" lon="0.06674">
        <ele>96.8</ele>
        <time>2012-08-15T08:02:11Z</time>
      </trkpt>
      <trkpt lat="47.35783" lon="0.06672">
        <ele>96.8</ele>
        <time>2012-08-15T08:02:12Z</time>
      </trkpt>
      <trkpt lat="47.3578" lon="0.06672">
        <ele>96.8</ele>
        <time>2012-08-15T08:02:13Z</time>
      </trkpt>
      <trkpt lat="47.35763" lon="0.06689">
        <ele>95.7</ele>
        <time>2012-08-15T08:02:18Z</time>
      </trkpt>
      <trkpt lat="47.35745" lon="0.06714">
        <ele>93.9</ele>
        <time>2012-08-15T08:02:23Z</time>
      </trkpt>
      <trkpt lat="47.35734" lon="0.06716">
        <ele>92.9</ele>
        <time>2012-08-15T08:02:26Z</time>
      </trkpt>
      <trkpt lat="47.3571" lon="0.06701">
        <ele>91</ele>
        <time>2012-08-15T08:02:33Z</time>
      </trkpt>
      <trkpt lat="47.35691" lon="0.06693">
        <ele>89.6</ele>
        <time>2012-08-15T08:02:39Z</time>
      </trkpt>
      <trkpt lat="47.35691" lon="0.06693">
        <ele>89.6</ele>
        <time>2012-08-15T08:02:42Z</time>
      </trkpt>
      <trkpt lat="47.35685" lon="0.06688">
        <ele>89</ele>
        <time>2012-08-15T08:02:49Z</time>
      </trkpt>
      <trkpt lat="47.35684" lon="0.06688">
        <ele>88.8</ele>
        <time>2012-08-15T08:02:51Z</time>
      </trkpt>
      <trkpt lat="47.35667" lon="0.06675">
        <ele>87.4</ele>
        <time>2012-08-15T08:02:58Z</time>
      </trkpt>
      <trkpt lat="47.3565" lon="0.06668">
        <ele>86.1</ele>
        <time>2012-08-15T08:03:03Z</time>
      </trkpt>
      <trkpt lat="47.35632" lon="0.06659">
        <ele>85.2</ele>
        <time>2012-08-15T08:03:08Z</time>
      </trkpt>
      <trkpt lat="47.35614" lon="0.06638">
        <ele>85.3</ele>
        <time>2012-08-15T08:03:14Z</time>
      </trkpt>
      <trkpt lat="47.35609" lon="0.06628">
        <ele>85.7</ele>
        <time>2012-08-15T08:03:16Z</time>
      </trkpt>
      <trkpt lat="47.35594" lon="0.066">
        <ele>86.2</ele>
        <time>2012-08-15T08:03:21Z</time>
      </trkpt>
      <trkpt lat="47.35579" lon="0.06575">
        <ele>85.7</ele>
        <time>2012-08-15T08:03:26Z</time>
      </trkpt>
      <trkpt lat="47.35568" lon="0.06556">
        <ele>84.9</ele>
        <time>2012-08-15T08:03:30Z</time>
      </trkpt>
      <trkpt lat="47.35538" lon="0.06501">
        <ele>83.1</ele>
        <time>2012-08-15T08:03:40Z</time>
      </trkpt>
      <trkpt lat="47.35524" lon="0.06479">
        <ele>81.7</ele>
        <time>2012-08-15T08:03:45Z</time>
      </trkpt>
      <trkpt lat="47.35516" lon="0.06466">
        <ele>81.2</ele>
        <time>2012-08-15T08:03:48Z</time>
      </trkpt>
      <trkpt lat="47.35504" lon="0.06445">
        <ele>80.3</ele>
        <time>2012-08-15T08:03:52Z</time>
      </trkpt>
      <trkpt lat="47.35498" lon="0.06435">
        <ele>79.9</ele>
        <time>2012-08-15T08:03:54Z</time>
      </trkpt>
      <trkpt lat="47.3549" lon="0.06431">
        <ele>79.3</ele>
        <time>2012-08-15T08:03:58Z</time>
      </trkpt>
      <trkpt lat="47.35489" lon="0.06434">
        <ele>79.2</ele>
        <time>2012-08-15T08:03:59Z</time>
      </trkpt>
      <trkpt lat="47.35487" lon="0.06474">
        <ele>79.1</ele>
        <time>2012-08-15T08:04:07Z</time>
      </trkpt>
      <trkpt lat="47.35486" lon="0.06524">
        <ele>79.4</ele>
        <time>2012-08-15T08:04:15Z</time>
      </trkpt>
      <trkpt lat="47.35486" lon="0.06553">
        <ele>79.5</ele>
        <time>2012-08-15T08:04:19Z</time>
      </trkpt>
      <trkpt lat="47.35485" lon="0.0656">
        <ele>79.4</ele>
        <time>2012-08-15T08:04:20Z</time>
      </trkpt>
      <trkpt lat="47.35484" lon="0.06619">
        <ele>78.8</ele>
        <time>2012-08-15T08:04:28Z</time>
      </trkpt>
      <trkpt lat="47.35485" lon="0.06643">
        <ele>78.8</ele>
        <time>2012-08-15T08:04:31Z</time>
      </trkpt>
      <trkpt lat="47.35486" lon="0.06675">
        <ele>77.4</ele>
        <time>2012-08-15T08:04:35Z</time>
      </trkpt>
      <trkpt lat="47.35499" lon="0.06724">
        <ele>75</ele>
        <time>2012-08-15T08:04:42Z</time>
      </trkpt>
      <trkpt lat="47.35511" lon="0.06757">
        <ele>75.3</ele>
        <time>2012-08-15T08:04:48Z</time>
      </trkpt>
      <trkpt lat="47.35518" lon="0.06775">
        <ele>75.1</ele>
        <time>2012-08-15T08:04:54Z</time>
      </trkpt>
      <trkpt lat="47.35518" lon="0.06777">
        <ele>75</ele>
        <time>2012-08-15T08:05:02Z</time>
      </trkpt>
      <trkpt lat="47.35518" lon="0.06779">
        <ele>75</ele>
        <time>2012-08-15T08:05:09Z</time>
      </trkpt>
      <trkpt lat="47.35517" lon="0.0678">
        <ele>75</ele>
        <time>2012-08-15T08:05:10Z</time>
      </trkpt>
      <trkpt lat="47.35507" lon="0.0679">
        <ele>74.7</ele>
        <time>2012-08-15T08:05:16Z</time>
      </trkpt>
      <trkpt lat="47.35503" lon="0.06795">
        <ele>74.4</ele>
        <time>2012-08-15T08:05:18Z</time>
      </trkpt>
      <trkpt lat="47.35509" lon="0.06823">
        <ele>73.9</ele>
        <time>2012-08-15T08:05:25Z</time>
      </trkpt>
      <trkpt lat="47.35517" lon="0.06843">
        <ele>74.1</ele>
        <time>2012-08-15T08:05:31Z</time>
      </trkpt>
      <trkpt lat="47.35526" lon="0.0687">
        <ele>74.8</ele>
        <time>2012-08-15T08:05:38Z</time>
      </trkpt>
      <trkpt lat="47.35535" lon="0.06898">
        <ele>74.5</ele>
        <time>2012-08-15T08:05:45Z</time>
      </trkpt>
      <trkpt lat="47.35545" lon="0.06927">
        <ele>74.6</ele>
        <time>2012-08-15T08:05:52Z</time>
      </trkpt>
      <trkpt lat="47.35552" lon="0.0695">
        <ele>75.6</ele>
        <time>2012-08-15T08:05:57Z</time>
      </trkpt>
      <trkpt lat="47.35556" lon="0.06979">
        <ele>76.1</ele>
        <time>2012-08-15T08:06:03Z</time>
      </trkpt>
      <trkpt lat="47.35557" lon="0.07012">
        <ele>76.2</ele>
        <time>2012-08-15T08:06:09Z</time>
      </trkpt>
      <trkpt lat="47.35555" lon="0.07029">
        <ele>75.9</ele>
        <time>2012-08-15T08:06:12Z</time>
      </trkpt>
      <trkpt lat="47.3555" lon="0.07081">
        <ele>76.1</ele>
        <time>2012-08-15T08:06:20Z</time>
      </trkpt>
      <trkpt lat="47.35547" lon="0.07094">
        <ele>75.9</ele>
        <time>2012-08-15T08:06:22Z</time>
      </trkpt>
      <trkpt lat="47.35544" lon="0.0712">
        <ele>75.6</ele>
        <time>2012-08-15T08:06:26Z</time>
      </trkpt>
      <trkpt lat="47.35544" lon="0.07126">
        <ele>75.5</ele>
        <time>2012-08-15T08:06:27Z</time>
      </trkpt>
      <trkpt lat="47.35544" lon="0.07133">
        <ele>75.4</ele>
        <time>2012-08-15T08:06:28Z</time>
      </trkpt>
      <trkpt lat="47.35546" lon="0.07166">
        <ele>75.6</ele>
        <time>2012-08-15T08:06:33Z</time>
      </trkpt>
      <trkpt lat="47.35552" lon="0.07201">
        <ele>76.3</ele>
        <time>2012-08-15T08:06:39Z</time>
      </trkpt>
      <trkpt lat="47.35565" lon="0.07243">
        <ele>75.8</ele>
        <time>2012-08-15T08:06:46Z</time>
      </trkpt>
      <trkpt lat="47.35571" lon="0.07266">
        <ele>75.9</ele>
        <time>2012-08-15T08:06:50Z</time>
      </trkpt>
      <trkpt lat="47.35571" lon="0.07278">
        <ele>75.7</ele>
        <time>2012-08-15T08:06:52Z</time>
      </trkpt>
      <trkpt lat="47.3556" lon="0.07302">
        <ele>75.2</ele>
        <time>2012-08-15T08:06:57Z</time>
      </trkpt>
      <trkpt lat="47.35553" lon="0.07313">
        <ele>75.5</ele>
        <time>2012-08-15T08:07:01Z</time>
      </trkpt>
      <trkpt lat="47.35558" lon="0.07329">
        <ele>75.9</ele>
        <time>2012-08-15T08:07:06Z</time>
      </trkpt>
      <trkpt lat="47.35569" lon="0.07346">
        <ele>77.4</ele>
        <time>2012-08-15T08:07:11Z</time>
      </trkpt>
      <trkpt lat="47.35573" lon="0.07355">
        <ele>78</ele>
        <time>2012-08-15T08:07:13Z</time>
      </trkpt>
      <trkpt lat="47.35588" lon="0.07379">
        <ele>77.8</ele>
        <time>2012-08-15T08:07:19Z</time>
      </trkpt>
      <trkpt lat="47.35601" lon="0.07402">
        <ele>77.8</ele>
        <time>2012-08-15T08:07:25Z</time>
      </trkpt>
      <trkpt lat="47.35614" lon="0.07418">
        <ele>78</ele>
        <time>2012-08-15T08:07:30Z</time>
      </trkpt>
      <trkpt lat="47.35627" lon="0.07431">
        <ele>78.2</ele>
        <time>2012-08-15T08:07:35Z</time>
      </trkpt>
      <trkpt lat="47.35642" lon="0.07457">
        <ele>78.4</ele>
        <time>2012-08-15T08:07:41Z</time>
      </trkpt>
      <trkpt lat="47.35655" lon="0.0748">
        <ele>78.7</ele>
        <time>2012-08-15T08:07:46Z</time>
      </trkpt>
      <trkpt lat="47.3567" lon="0.07518">
        <ele>79</ele>
        <time>2012-08-15T08:07:53Z</time>
      </trkpt>
      <trkpt lat="47.35684" lon="0.07555">
        <ele>79.4</ele>
        <time>2012-08-15T08:07:59Z</time>
      </trkpt>
      <trkpt lat="47.35699" lon="0.0759">
        <ele>80.2</ele>
        <time>2012-08-15T08:08:05Z</time>
      </trkpt>
      <trkpt lat="47.35719" lon="0.07637">
        <ele>81</ele>
        <time>2012-08-15T08:08:14Z</time>
      </trkpt>
      <trkpt lat="47.35732" lon="0.07685">
        <ele>81.7</ele>
        <time>2012-08-15T08:08:22Z</time>
      </trkpt>
      <trkpt lat="47.35739" lon="0.07723">
        <ele>82.8</ele>
        <time>2012-08-15T08:08:29Z</time>
      </trkpt>
      <trkpt lat="47.35743" lon="0.07741">
        <ele>83.9</ele>
        <time>2012-08-15T08:08:34Z</time>
      </trkpt>
      <trkpt lat="47.35745" lon="0.07762">
        <ele>84.8</ele>
        <time>2012-08-15T08:08:40Z</time>
      </trkpt>
      <trkpt lat="47.35746" lon="0.07767">
        <ele>84.9</ele>
        <time>2012-08-15T08:08:42Z</time>
      </trkpt>
      <trkpt lat="47.35746" lon="0.0777">
        <ele>85</ele>
        <time>2012-08-15T08:08:43Z</time>
      </trkpt>
      <trkpt lat="47.35747" lon="0.07773">
        <ele>85</ele>
        <time>2012-08-15T08:08:44Z</time>
      </trkpt>
      <trkpt lat="47.35748" lon="0.07775">
        <ele>85</ele>
        <time>2012-08-15T08:08:45Z</time>
      </trkpt>
      <trkpt lat="47.3575" lon="0.07778">
        <ele>85</ele>
        <time>2012-08-15T08:08:46Z</time>
      </trkpt>
      <trkpt lat="47.3575" lon="0.07782">
        <ele>85.3</ele>
        <time>2012-08-15T08:08:47Z</time>
      </trkpt>
      <trkpt lat="47.3575" lon="0.07785">
        <ele>85.5</ele>
        <time>2012-08-15T08:08:48Z</time>
      </trkpt>
      <trkpt lat="47.35749" lon="0.07787">
        <ele>85.7</ele>
        <time>2012-08-15T08:08:52Z</time>
      </trkpt>
      <trkpt lat="47.35749" lon="0.07787">
        <ele>85.7</ele>
        <time>2012-08-15T08:09:01Z</time>
      </trkpt>
      <trkpt lat="47.35749" lon="0.07787">
        <ele>85.7</ele>
        <time>2012-08-15T08:09:06Z</time>
      </trkpt>
      <trkpt lat="47.3575" lon="0.07789">
        <ele>85.8</ele>
        <time>2012-08-15T08:09:50Z</time>
      </trkpt>
      <trkpt lat="47.3575" lon="0.07791">
        <ele>86</ele>
        <time>2012-08-15T08:09:51Z</time>
      </trkpt>
      <trkpt lat="47.35749" lon="0.07793">
        <ele>86.2</ele>
        <time>2012-08-15T08:09:52Z</time>
      </trkpt>
      <trkpt lat="47.35749" lon="0.07795">
        <ele>86.3</ele>
        <time>2012-08-15T08:09:53Z</time>
      </trkpt>
      <trkpt lat="47.35749" lon="0.07798">
        <ele>86.5</ele>
        <time>2012-08-15T08:09:54Z</time>
      </trkpt>
      <trkpt lat="47.35749" lon="0.07801">
        <ele>86.7</ele>
        <time>2012-08-15T08:09:55Z</time>
      </trkpt>
      <trkpt lat="47.35748" lon="0.07804">
        <ele>87</ele>
        <time>2012-08-15T08:09:56Z</time>
      </trkpt>
      <trkpt lat="47.35748" lon="0.07807">
        <ele>87.2</ele>
        <time>2012-08-15T08:09:57Z</time>
      </trkpt>
      <trkpt lat="47.35749" lon="0.07811">
        <ele>87.3</ele>
        <time>2012-08-15T08:09:58Z</time>
      </trkpt>
      <trkpt lat="47.35749" lon="0.07815">
        <ele>87.4</ele>
        <time>2012-08-15T08:09:59Z</time>
      </trkpt>
      <trkpt lat="47.35749" lon="0.07849">
        <ele>88.6</ele>
        <time>2012-08-15T08:10:08Z</time>
      </trkpt>
      <trkpt lat="47.3575" lon="0.07882">
        <ele>89.8</ele>
        <time>2012-08-15T08:10:16Z</time>
      </trkpt>
      <trkpt lat="47.35751" lon="0.07917">
        <ele>89.9</ele>
        <time>2012-08-15T08:10:23Z</time>
      </trkpt>
      <trkpt lat="47.35753" lon="0.07951">
        <ele>91</ele>
        <time>2012-08-15T08:10:30Z</time>
      </trkpt>
      <trkpt lat="47.35755" lon="0.07991">
        <ele>92.3</ele>
        <time>2012-08-15T08:10:38Z</time>
      </trkpt>
      <trkpt lat="47.35758" lon="0.08038">
        <ele>94.6</ele>
        <time>2012-08-15T08:10:49Z</time>
      </trkpt>
      <trkpt lat="47.35761" lon="0.08079">
        <ele>96.1</ele>
        <time>2012-08-15T08:10:58Z</time>
      </trkpt>
      <trkpt lat="47.35761" lon="0.08097">
        <ele>97.2</ele>
        <time>2012-08-15T08:11:02Z</time>
      </trkpt>
      <trkpt lat="47.35761" lon="0.08117">
        <ele>98.5</ele>
        <time>2012-08-15T08:11:08Z</time>
      </trkpt>
      <trkpt lat="47.35762" lon="0.08133">
        <ele>99.3</ele>
        <time>2012-08-15T08:11:14Z</time>
      </trkpt>
      <trkpt lat="47.35762" lon="0.08136">
        <ele>99.4</ele>
        <time>2012-08-15T08:11:15Z</time>
      </trkpt>
      <trkpt lat="47.35763" lon="0.08162">
        <ele>100.4</ele>
        <time>2012-08-15T08:11:22Z</time>
      </trkpt>
      <trkpt lat="47.35767" lon="0.08189">
        <ele>102</ele>
        <time>2012-08-15T08:11:28Z</time>
      </trkpt>
      <trkpt lat="47.35772" lon="0.08225">
        <ele>103.3</ele>
        <time>2012-08-15T08:11:35Z</time>
      </trkpt>
      <trkpt lat="47.35776" lon="0.08248">
        <ele>104</ele>
        <time>2012-08-15T08:11:41Z</time>
      </trkpt>
      <trkpt lat="47.35777" lon="0.08254">
        <ele>104.2</ele>
        <time>2012-08-15T08:11:42Z</time>
      </trkpt>
      <trkpt lat="47.35778" lon="0.08266">
        <ele>104.6</ele>
        <time>2012-08-15T08:11:44Z</time>
      </trkpt>
      <trkpt lat="47.35789" lon="0.08292">
        <ele>104.9</ele>
        <time>2012-08-15T08:11:50Z</time>
      </trkpt>
      <trkpt lat="47.35797" lon="0.08332">
        <ele>105.3</ele>
        <time>2012-08-15T08:11:58Z</time>
      </trkpt>
      <trkpt lat="47.35804" lon="0.08368">
        <ele>106.3</ele>
        <time>2012-08-15T08:12:04Z</time>
      </trkpt>
      <trkpt lat="47.35802" lon="0.08412">
        <ele>108</ele>
        <time>2012-08-15T08:12:11Z</time>
      </trkpt>
      <trkpt lat="47.35805" lon="0.0845">
        <ele>108</ele>
        <time>2012-08-15T08:12:17Z</time>
      </trkpt>
      <trkpt lat="47.35803" lon="0.08481">
        <ele>108.4</ele>
        <time>2012-08-15T08:12:23Z</time>
      </trkpt>
      <trkpt lat="47.35784" lon="0.08498">
        <ele>109.7</ele>
        <time>2012-08-15T08:12:29Z</time>
      </trkpt>
      <trkpt lat="47.35765" lon="0.08497">
        <ele>109.9</ele>
        <time>2012-08-15T08:12:34Z</time>
      </trkpt>
      <trkpt lat="47.35749" lon="0.08491">
        <ele>110</ele>
        <time>2012-08-15T08:12:38Z</time>
      </trkpt>
      <trkpt lat="47.35717" lon="0.08474">
        <ele>111</ele>
        <time>2012-08-15T08:12:46Z</time>
      </trkpt>
      <trkpt lat="47.35701" lon="0.08464">
        <ele>111</ele>
        <time>2012-08-15T08:12:50Z</time>
      </trkpt>
      <trkpt lat="47.35697" lon="0.08461">
        <ele>111</ele>
        <time>2012-08-15T08:12:51Z</time>
      </trkpt>
      <trkpt lat="47.35666" lon="0.08439">
        <ele>111</ele>
        <time>2012-08-15T08:12:59Z</time>
      </trkpt>
      <trkpt lat="47.35642" lon="0.08422">
        <ele>111</ele>
        <time>2012-08-15T08:13:05Z</time>
      </trkpt>
      <trkpt lat="47.35611" lon="0.08401">
        <ele>111</ele>
        <time>2012-08-15T08:13:13Z</time>
      </trkpt>
      <trkpt lat="47.35592" lon="0.08383">
        <ele>111</ele>
        <time>2012-08-15T08:13:19Z</time>
      </trkpt>
      <trkpt lat="47.35586" lon="0.08379">
        <ele>111</ele>
        <time>2012-08-15T08:13:21Z</time>
      </trkpt>
      <trkpt lat="47.35584" lon="0.08377">
        <ele>111</ele>
        <time>2012-08-15T08:13:22Z</time>
      </trkpt>
      <trkpt lat="47.35582" lon="0.08374">
        <ele>111</ele>
        <time>2012-08-15T08:13:23Z</time>
      </trkpt>
      <trkpt lat="47.35564" lon="0.08345">
        <ele>111</ele>
        <time>2012-08-15T08:13:30Z</time>
      </trkpt>
      <trkpt lat="47.35543" lon="0.08309">
        <ele>111</ele>
        <time>2012-08-15T08:13:38Z</time>
      </trkpt>
      <trkpt lat="47.35524" lon="0.08287">
        <ele>111</ele>
        <time>2012-08-15T08:13:45Z</time>
      </trkpt>
      <trkpt lat="47.35507" lon="0.08269">
        <ele>110.7</ele>
        <time>2012-08-15T08:13:51Z</time>
      </trkpt>
      <trkpt lat="47.35465" lon="0.0828">
        <ele>111</ele>
        <time>2012-08-15T08:15:45Z</time>
      </trkpt>
      <trkpt lat="47.35445" lon="0.08293">
        <ele>111</ele>
        <time>2012-08-15T08:15:50Z</time>
      </trkpt>
      <trkpt lat="47.35424" lon="0.08308">
        <ele>111</ele>
        <time>2012-08-15T08:15:56Z</time>
      </trkpt>
      <trkpt lat="47.35404" lon="0.08322">
        <ele>111</ele>
        <time>2012-08-15T08:16:01Z</time>
      </trkpt>
      <trkpt lat="47.35383" lon="0.08335">
        <ele>111</ele>
        <time>2012-08-15T08:16:06Z</time>
      </trkpt>
      <trkpt lat="47.35367" lon="0.08341">
        <ele>111</ele>
        <time>2012-08-15T08:16:09Z</time>
      </trkpt>
      <trkpt lat="47.35337" lon="0.08335">
        <ele>110.1</ele>
        <time>2012-08-15T08:16:14Z</time>
      </trkpt>
      <trkpt lat="47.35317" lon="0.08328">
        <ele>110</ele>
        <time>2012-08-15T08:16:18Z</time>
      </trkpt>
      <trkpt lat="47.35298" lon="0.08322">
        <ele>109.7</ele>
        <time>2012-08-15T08:16:22Z</time>
      </trkpt>
      <trkpt lat="47.3527" lon="0.08311">
        <ele>109</ele>
        <time>2012-08-15T08:16:28Z</time>
      </trkpt>
      <trkpt lat="47.35246" lon="0.08309">
        <ele>108.9</ele>
        <time>2012-08-15T08:16:33Z</time>
      </trkpt>
      <trkpt lat="47.35236" lon="0.08311">
        <ele>108.6</ele>
        <time>2012-08-15T08:16:35Z</time>
      </trkpt>
      <trkpt lat="47.35216" lon="0.08313">
        <ele>108.2</ele>
        <time>2012-08-15T08:16:39Z</time>
      </trkpt>
      <trkpt lat="47.35201" lon="0.08315">
        <ele>108.1</ele>
        <time>2012-08-15T08:16:42Z</time>
      </trkpt>
      <trkpt lat="47.3519" lon="0.08315">
        <ele>108</ele>
        <time>2012-08-15T08:16:44Z</time>
      </trkpt>
      <trkpt lat="47.35166" lon="0.08314">
        <ele>108</ele>
        <time>2012-08-15T08:16:48Z</time>
      </trkpt>
      <trkpt lat="47.35156" lon="0.0831">
        <ele>107.7</ele>
        <time>2012-08-15T08:16:50Z</time>
      </trkpt>
      <trkpt lat="47.35117" lon="0.08296">
        <ele>107</ele>
        <time>2012-08-15T08:16:57Z</time>
      </trkpt>
      <trkpt lat="47.35102" lon="0.0829">
        <ele>107</ele>
        <time>2012-08-15T08:17:00Z</time>
      </trkpt>
      <trkpt lat="47.35092" lon="0.08287">
        <ele>107</ele>
        <time>2012-08-15T08:17:02Z</time>
      </trkpt>
      <trkpt lat="47.35082" lon="0.08285">
        <ele>107</ele>
        <time>2012-08-15T08:17:04Z</time>
      </trkpt>
      <trkpt lat="47.35069" lon="0.08281">
        <ele>107</ele>
        <time>2012-08-15T08:17:07Z</time>
      </trkpt>
      <trkpt lat="47.35062" lon="0.08286">
        <ele>107</ele>
        <time>2012-08-15T08:17:10Z</time>
      </trkpt>
      <trkpt lat="47.35053" lon="0.08304">
        <ele>107</ele>
        <time>2012-08-15T08:17:15Z</time>
      </trkpt>
      <trkpt lat="47.35051" lon="0.08309">
        <ele>107.1</ele>
        <time>2012-08-15T08:17:16Z</time>
      </trkpt>
      <trkpt lat="47.35042" lon="0.08329">
        <ele>107.8</ele>
        <time>2012-08-15T08:17:21Z</time>
      </trkpt>
      <trkpt lat="47.35031" lon="0.08364">
        <ele>108.1</ele>
        <time>2012-08-15T08:17:27Z</time>
      </trkpt>
      <trkpt lat="47.35023" lon="0.08386">
        <ele>108.9</ele>
        <time>2012-08-15T08:17:31Z</time>
      </trkpt>
      <trkpt lat="47.35014" lon="0.08412">
        <ele>109.8</ele>
        <time>2012-08-15T08:17:35Z</time>
      </trkpt>
      <trkpt lat="47.35001" lon="0.08448">
        <ele>110</ele>
        <time>2012-08-15T08:17:40Z</time>
      </trkpt>
      <trkpt lat="47.34986" lon="0.08494">
        <ele>110.9</ele>
        <time>2012-08-15T08:17:47Z</time>
      </trkpt>
      <trkpt lat="47.34982" lon="0.08507">
        <ele>111</ele>
        <time>2012-08-15T08:17:49Z</time>
      </trkpt>
      <trkpt lat="47.34968" lon="0.0855">
        <ele>111</ele>
        <time>2012-08-15T08:17:56Z</time>
      </trkpt>
      <trkpt lat="47.34962" lon="0.08568">
        <ele>111</ele>
        <time>2012-08-15T08:17:59Z</time>
      </trkpt>
      <trkpt lat="47.34951" lon="0.08598">
        <ele>111</ele>
        <time>2012-08-15T08:18:05Z</time>
      </trkpt>
      <trkpt lat="47.34947" lon="0.0861">
        <ele>111</ele>
        <time>2012-08-15T08:18:07Z</time>
      </trkpt>
      <trkpt lat="47.34939" lon="0.08638">
        <ele>110.8</ele>
        <time>2012-08-15T08:18:11Z</time>
      </trkpt>
      <trkpt lat="47.34925" lon="0.08684">
        <ele>110</ele>
        <time>2012-08-15T08:18:18Z</time>
      </trkpt>
      <trkpt lat="47.34913" lon="0.08728">
        <ele>110</ele>
        <time>2012-08-15T08:18:24Z</time>
      </trkpt>
      <trkpt lat="47.34905" lon="0.08748">
        <ele>110</ele>
        <time>2012-08-15T08:18:27Z</time>
      </trkpt>
      <trkpt lat="47.34896" lon="0.08778">
        <ele>110</ele>
        <time>2012-08-15T08:18:31Z</time>
      </trkpt>
      <trkpt lat="47.34889" lon="0.08798">
        <ele>110</ele>
        <time>2012-08-15T08:18:34Z</time>
      </trkpt>
      <trkpt lat="47.34878" lon="0.08832">
        <ele>110</ele>
        <time>2012-08-15T08:18:40Z</time>
      </trkpt>
      <trkpt lat="47.34873" lon="0.0885">
        <ele>110</ele>
        <time>2012-08-15T08:18:43Z</time>
      </trkpt>
      <trkpt lat="47.34866" lon="0.08875">
        <ele>110</ele>
        <time>2012-08-15T08:18:48Z</time>
      </trkpt>
      <trkpt lat="47.34864" lon="0.08882">
        <ele>110</ele>
        <time>2012-08-15T08:18:49Z</time>
      </trkpt>
      <trkpt lat="47.34854" lon="0.08922">
        <ele>110.1</ele>
        <time>2012-08-15T08:18:56Z</time>
      </trkpt>
      <trkpt lat="47.34849" lon="0.08939">
        <ele>110.5</ele>
        <time>2012-08-15T08:18:59Z</time>
      </trkpt>
      <trkpt lat="47.34836" lon="0.08977">
        <ele>110.1</ele>
        <time>2012-08-15T08:19:05Z</time>
      </trkpt>
      <trkpt lat="47.34828" lon="0.09012">
        <ele>110</ele>
        <time>2012-08-15T08:19:09Z</time>
      </trkpt>
      <trkpt lat="47.34821" lon="0.09035">
        <ele>110</ele>
        <time>2012-08-15T08:19:12Z</time>
      </trkpt>
      <trkpt lat="47.34814" lon="0.09059">
        <ele>109.9</ele>
        <time>2012-08-15T08:19:15Z</time>
      </trkpt>
      <trkpt lat="47.34803" lon="0.09095">
        <ele>109</ele>
        <time>2012-08-15T08:19:20Z</time>
      </trkpt>
      <trkpt lat="47.34788" lon="0.09146">
        <ele>108.3</ele>
        <time>2012-08-15T08:19:27Z</time>
      </trkpt>
      <trkpt lat="47.34784" lon="0.09158">
        <ele>108.1</ele>
        <time>2012-08-15T08:19:29Z</time>
      </trkpt>
      <trkpt lat="47.34778" lon="0.09179">
        <ele>108</ele>
        <time>2012-08-15T08:19:32Z</time>
      </trkpt>
      <trkpt lat="47.34771" lon="0.092">
        <ele>108</ele>
        <time>2012-08-15T08:19:35Z</time>
      </trkpt>
      <trkpt lat="47.34766" lon="0.09218">
        <ele>107.6</ele>
        <time>2012-08-15T08:19:38Z</time>
      </trkpt>
      <trkpt lat="47.34757" lon="0.09243">
        <ele>107.1</ele>
        <time>2012-08-15T08:19:42Z</time>
      </trkpt>
      <trkpt lat="47.34753" lon="0.09257">
        <ele>107</ele>
        <time>2012-08-15T08:19:44Z</time>
      </trkpt>
      <trkpt lat="47.34748" lon="0.09271">
        <ele>107</ele>
        <time>2012-08-15T08:19:46Z</time>
      </trkpt>
      <trkpt lat="47.3474" lon="0.09301">
        <ele>106.2</ele>
        <time>2012-08-15T08:19:51Z</time>
      </trkpt>
      <trkpt lat="47.34729" lon="0.09336">
        <ele>106</ele>
        <time>2012-08-15T08:19:56Z</time>
      </trkpt>
      <trkpt lat="47.34713" lon="0.09387">
        <ele>105.1</ele>
        <time>2012-08-15T08:20:03Z</time>
      </trkpt>
      <trkpt lat="47.3471" lon="0.094">
        <ele>104.6</ele>
        <time>2012-08-15T08:20:05Z</time>
      </trkpt>
      <trkpt lat="47.34698" lon="0.09441">
        <ele>103.1</ele>
        <time>2012-08-15T08:20:11Z</time>
      </trkpt>
      <trkpt lat="47.3469" lon="0.09472">
        <ele>102.2</ele>
        <time>2012-08-15T08:20:16Z</time>
      </trkpt>
      <trkpt lat="47.34679" lon="0.09499">
        <ele>102.6</ele>
        <time>2012-08-15T08:20:21Z</time>
      </trkpt>
      <trkpt lat="47.3467" lon="0.09523">
        <ele>102.1</ele>
        <time>2012-08-15T08:20:25Z</time>
      </trkpt>
      <trkpt lat="47.34667" lon="0.09538">
        <ele>102</ele>
        <time>2012-08-15T08:20:27Z</time>
      </trkpt>
      <trkpt lat="47.34659" lon="0.0957">
        <ele>102.3</ele>
        <time>2012-08-15T08:20:32Z</time>
      </trkpt>
      <trkpt lat="47.34645" lon="0.09616">
        <ele>102</ele>
        <time>2012-08-15T08:20:39Z</time>
      </trkpt>
      <trkpt lat="47.34635" lon="0.09657">
        <ele>102</ele>
        <time>2012-08-15T08:20:45Z</time>
      </trkpt>
      <trkpt lat="47.34624" lon="0.09688">
        <ele>102</ele>
        <time>2012-08-15T08:20:50Z</time>
      </trkpt>
      <trkpt lat="47.34601" lon="0.09769">
        <ele>102</ele>
        <time>2012-08-15T08:21:02Z</time>
      </trkpt>
      <trkpt lat="47.34589" lon="0.09809">
        <ele>102</ele>
        <time>2012-08-15T08:21:08Z</time>
      </trkpt>
      <trkpt lat="47.34578" lon="0.09842">
        <ele>102</ele>
        <time>2012-08-15T08:21:13Z</time>
      </trkpt>
      <trkpt lat="47.3457" lon="0.09875">
        <ele>102.2</ele>
        <time>2012-08-15T08:21:18Z</time>
      </trkpt>
      <trkpt lat="47.34559" lon="0.09914">
        <ele>103</ele>
        <time>2012-08-15T08:21:24Z</time>
      </trkpt>
      <trkpt lat="47.34553" lon="0.09927">
        <ele>103</ele>
        <time>2012-08-15T08:21:27Z</time>
      </trkpt>
      <trkpt lat="47.34549" lon="0.09931">
        <ele>103</ele>
        <time>2012-08-15T08:21:32Z</time>
      </trkpt>
      <trkpt lat="47.34549" lon="0.09931">
        <ele>103</ele>
        <time>2012-08-15T08:21:49Z</time>
      </trkpt>
      <trkpt lat="47.34548" lon="0.09932">
        <ele>103</ele>
        <time>2012-08-15T08:21:58Z</time>
      </trkpt>
      <trkpt lat="47.34533" lon="0.09927">
        <ele>103</ele>
        <time>2012-08-15T08:22:04Z</time>
      </trkpt>
      <trkpt lat="47.34515" lon="0.09917">
        <ele>102.5</ele>
        <time>2012-08-15T08:22:11Z</time>
      </trkpt>
      <trkpt lat="47.34497" lon="0.09898">
        <ele>101.2</ele>
        <time>2012-08-15T08:22:18Z</time>
      </trkpt>
      <trkpt lat="47.34494" lon="0.09894">
        <ele>101</ele>
        <time>2012-08-15T08:22:19Z</time>
      </trkpt>
      <trkpt lat="47.34478" lon="0.09882">
        <ele>100</ele>
        <time>2012-08-15T08:22:23Z</time>
      </trkpt>
      <trkpt lat="47.34444" lon="0.0985">
        <ele>98</ele>
        <time>2012-08-15T08:22:31Z</time>
      </trkpt>
      <trkpt lat="47.34414" lon="0.0982">
        <ele>96.4</ele>
        <time>2012-08-15T08:22:37Z</time>
      </trkpt>
      <trkpt lat="47.34409" lon="0.09815">
        <ele>96.1</ele>
        <time>2012-08-15T08:22:38Z</time>
      </trkpt>
      <trkpt lat="47.34404" lon="0.0981">
        <ele>95.7</ele>
        <time>2012-08-15T08:22:39Z</time>
      </trkpt>
      <trkpt lat="47.34368" lon="0.09775">
        <ele>94.9</ele>
        <time>2012-08-15T08:22:47Z</time>
      </trkpt>
      <trkpt lat="47.3436" lon="0.09766">
        <ele>94.6</ele>
        <time>2012-08-15T08:22:49Z</time>
      </trkpt>
      <trkpt lat="47.3434" lon="0.0974">
        <ele>93.7</ele>
        <time>2012-08-15T08:22:55Z</time>
      </trkpt>
      <trkpt lat="47.34327" lon="0.09723">
        <ele>93</ele>
        <time>2012-08-15T08:22:59Z</time>
      </trkpt>
      <trkpt lat="47.34298" lon="0.09695">
        <ele>92</ele>
        <time>2012-08-15T08:23:08Z</time>
      </trkpt>
      <trkpt lat="47.34292" lon="0.0969">
        <ele>91.9</ele>
        <time>2012-08-15T08:23:12Z</time>
      </trkpt>
      <trkpt lat="47.34288" lon="0.09682">
        <ele>91.7</ele>
        <time>2012-08-15T08:23:19Z</time>
      </trkpt>
      <trkpt lat="47.34287" lon="0.09695">
        <ele>92</ele>
        <time>2012-08-15T08:23:25Z</time>
      </trkpt>
      <trkpt lat="47.34286" lon="0.09697">
        <ele>92</ele>
        <time>2012-08-15T08:23:26Z</time>
      </trkpt>
      <trkpt lat="47.34286" lon="0.09699">
        <ele>92</ele>
        <time>2012-08-15T08:23:27Z</time>
      </trkpt>
      <trkpt lat="47.34286" lon="0.09704">
        <ele>92.1</ele>
        <time>2012-08-15T08:23:30Z</time>
      </trkpt>
      <trkpt lat="47.34282" lon="0.0973">
        <ele>92.2</ele>
        <time>2012-08-15T08:23:38Z</time>
      </trkpt>
      <trkpt lat="47.34281" lon="0.09735">
        <ele>92.1</ele>
        <time>2012-08-15T08:23:39Z</time>
      </trkpt>
      <trkpt lat="47.34274" lon="0.09792">
        <ele>92.8</ele>
        <time>2012-08-15T08:23:48Z</time>
      </trkpt>
      <trkpt lat="47.34264" lon="0.09848">
        <ele>91.7</ele>
        <time>2012-08-15T08:23:56Z</time>
      </trkpt>
      <trkpt lat="47.34255" lon="0.09888">
        <ele>91.2</ele>
        <time>2012-08-15T08:24:02Z</time>
      </trkpt>
      <trkpt lat="47.34244" lon="0.09932">
        <ele>90.9</ele>
        <time>2012-08-15T08:24:09Z</time>
      </trkpt>
      <trkpt lat="47.34229" lon="0.09981">
        <ele>92.8</ele>
        <time>2012-08-15T08:24:17Z</time>
      </trkpt>
      <trkpt lat="47.34217" lon="0.10011">
        <ele>94.6</ele>
        <time>2012-08-15T08:24:22Z</time>
      </trkpt>
      <trkpt lat="47.34198" lon="0.10056">
        <ele>97</ele>
        <time>2012-08-15T08:24:30Z</time>
      </trkpt>
      <trkpt lat="47.34191" lon="0.10074">
        <ele>98.2</ele>
        <time>2012-08-15T08:24:33Z</time>
      </trkpt>
      <trkpt lat="47.34187" lon="0.10085">
        <ele>98.8</ele>
        <time>2012-08-15T08:24:35Z</time>
      </trkpt>
      <trkpt lat="47.34171" lon="0.10133">
        <ele>100.9</ele>
        <time>2012-08-15T08:24:43Z</time>
      </trkpt>
      <trkpt lat="47.34165" lon="0.10157">
        <ele>101.6</ele>
        <time>2012-08-15T08:24:47Z</time>
      </trkpt>
      <trkpt lat="47.34152" lon="0.10206">
        <ele>102.9</ele>
        <time>2012-08-15T08:24:55Z</time>
      </trkpt>
      <trkpt lat="47.34147" lon="0.10223">
        <ele>103.3</ele>
        <time>2012-08-15T08:24:58Z</time>
      </trkpt>
      <trkpt lat="47.34144" lon="0.10235">
        <ele>103.6</ele>
        <time>2012-08-15T08:25:00Z</time>
      </trkpt>
      <trkpt lat="47.3414" lon="0.10247">
        <ele>103.9</ele>
        <time>2012-08-15T08:25:02Z</time>
      </trkpt>
      <trkpt lat="47.34135" lon="0.10266">
        <ele>104.3</ele>
        <time>2012-08-15T08:25:05Z</time>
      </trkpt>
      <trkpt lat="47.34134" lon="0.10273">
        <ele>104.5</ele>
        <time>2012-08-15T08:25:06Z</time>
      </trkpt>
      <trkpt lat="47.34129" lon="0.1029">
        <ele>104.4</ele>
        <time>2012-08-15T08:25:09Z</time>
      </trkpt>
      <trkpt lat="47.34119" lon="0.10321">
        <ele>104.8</ele>
        <time>2012-08-15T08:25:15Z</time>
      </trkpt>
      <trkpt lat="47.34114" lon="0.10343">
        <ele>105.1</ele>
        <time>2012-08-15T08:25:21Z</time>
      </trkpt>
      <trkpt lat="47.34113" lon="0.10345">
        <ele>105.1</ele>
        <time>2012-08-15T08:25:22Z</time>
      </trkpt>
      <trkpt lat="47.34106" lon="0.10342">
        <ele>104.7</ele>
        <time>2012-08-15T08:25:25Z</time>
      </trkpt>
      <trkpt lat="47.34091" lon="0.10334">
        <ele>103.6</ele>
        <time>2012-08-15T08:25:30Z</time>
      </trkpt>
      <trkpt lat="47.34085" lon="0.10329">
        <ele>103</ele>
        <time>2012-08-15T08:25:32Z</time>
      </trkpt>
      <trkpt lat="47.34057" lon="0.10311">
        <ele>100.3</ele>
        <time>2012-08-15T08:25:38Z</time>
      </trkpt>
      <trkpt lat="47.34029" lon="0.10293">
        <ele>97.6</ele>
        <time>2012-08-15T08:25:43Z</time>
      </trkpt>
      <trkpt lat="47.34016" lon="0.10283">
        <ele>96</ele>
        <time>2012-08-15T08:25:45Z</time>
      </trkpt>
      <trkpt lat="47.34011" lon="0.10277">
        <ele>95.1</ele>
        <time>2012-08-15T08:25:46Z</time>
      </trkpt>
      <trkpt lat="47.33999" lon="0.10268">
        <ele>93.6</ele>
        <time>2012-08-15T08:25:48Z</time>
      </trkpt>
      <trkpt lat="47.33986" lon="0.1026">
        <ele>92.4</ele>
        <time>2012-08-15T08:25:50Z</time>
      </trkpt>
      <trkpt lat="47.33973" lon="0.10249">
        <ele>91</ele>
        <time>2012-08-15T08:25:52Z</time>
      </trkpt>
      <trkpt lat="47.33955" lon="0.10234">
        <ele>88.8</ele>
        <time>2012-08-15T08:25:55Z</time>
      </trkpt>
      <trkpt lat="47.33948" lon="0.1023">
        <ele>87.9</ele>
        <time>2012-08-15T08:25:56Z</time>
      </trkpt>
      <trkpt lat="47.33935" lon="0.1022">
        <ele>86.2</ele>
        <time>2012-08-15T08:25:58Z</time>
      </trkpt>
      <trkpt lat="47.33904" lon="0.10197">
        <ele>82.3</ele>
        <time>2012-08-15T08:26:03Z</time>
      </trkpt>
      <trkpt lat="47.33887" lon="0.10185">
        <ele>80.5</ele>
        <time>2012-08-15T08:26:06Z</time>
      </trkpt>
      <trkpt lat="47.33868" lon="0.10198">
        <ele>79.7</ele>
        <time>2012-08-15T08:26:11Z</time>
      </trkpt>
      <trkpt lat="47.33842" lon="0.10228">
        <ele>79.4</ele>
        <time>2012-08-15T08:26:18Z</time>
      </trkpt>
      <trkpt lat="47.33818" lon="0.10258">
        <ele>78.7</ele>
        <time>2012-08-15T08:26:25Z</time>
      </trkpt>
      <trkpt lat="47.33806" lon="0.10252">
        <ele>78.1</ele>
        <time>2012-08-15T08:26:29Z</time>
      </trkpt>
      <trkpt lat="47.33792" lon="0.10226">
        <ele>78</ele>
        <time>2012-08-15T08:26:35Z</time>
      </trkpt>
      <trkpt lat="47.33774" lon="0.10192">
        <ele>79.2</ele>
        <time>2012-08-15T08:26:43Z</time>
      </trkpt>
      <trkpt lat="47.33755" lon="0.10155">
        <ele>81.2</ele>
        <time>2012-08-15T08:26:52Z</time>
      </trkpt>
      <trkpt lat="47.33738" lon="0.10123">
        <ele>83.4</ele>
        <time>2012-08-15T08:27:00Z</time>
      </trkpt>
      <trkpt lat="47.33721" lon="0.10093">
        <ele>85.7</ele>
        <time>2012-08-15T08:27:08Z</time>
      </trkpt>
      <trkpt lat="47.33704" lon="0.10064">
        <ele>88</ele>
        <time>2012-08-15T08:27:16Z</time>
      </trkpt>
      <trkpt lat="47.33693" lon="0.10047">
        <ele>89.4</ele>
        <time>2012-08-15T08:27:23Z</time>
      </trkpt>
      <trkpt lat="47.3368" lon="0.10033">
        <ele>90.9</ele>
        <time>2012-08-15T08:27:30Z</time>
      </trkpt>
      <trkpt lat="47.33663" lon="0.10013">
        <ele>93.3</ele>
        <time>2012-08-15T08:27:39Z</time>
      </trkpt>
      <trkpt lat="47.3365" lon="0.09993">
        <ele>94.9</ele>
        <time>2012-08-15T08:27:46Z</time>
      </trkpt>
      <trkpt lat="47.33641" lon="0.09981">
        <ele>95.6</ele>
        <time>2012-08-15T08:27:50Z</time>
      </trkpt>
      <trkpt lat="47.33625" lon="0.09957">
        <ele>97</ele>
        <time>2012-08-15T08:27:57Z</time>
      </trkpt>
      <trkpt lat="47.3361" lon="0.09933">
        <ele>98.5</ele>
        <time>2012-08-15T08:28:04Z</time>
      </trkpt>
      <trkpt lat="47.33595" lon="0.09907">
        <ele>99.9</ele>
        <time>2012-08-15T08:28:11Z</time>
      </trkpt>
      <trkpt lat="47.33585" lon="0.09889">
        <ele>100.9</ele>
        <time>2012-08-15T08:28:16Z</time>
      </trkpt>
      <trkpt lat="47.33575" lon="0.0987">
        <ele>101.3</ele>
        <time>2012-08-15T08:28:21Z</time>
      </trkpt>
      <trkpt lat="47.33563" lon="0.09837">
        <ele>101.7</ele>
        <time>2012-08-15T08:28:28Z</time>
      </trkpt>
      <trkpt lat="47.3355" lon="0.09807">
        <ele>102.2</ele>
        <time>2012-08-15T08:28:34Z</time>
      </trkpt>
      <trkpt lat="47.33546" lon="0.09797">
        <ele>102.5</ele>
        <time>2012-08-15T08:28:36Z</time>
      </trkpt>
      <trkpt lat="47.33536" lon="0.09776">
        <ele>103</ele>
        <time>2012-08-15T08:28:40Z</time>
      </trkpt>
      <trkpt lat="47.33523" lon="0.09734">
        <ele>103.2</ele>
        <time>2012-08-15T08:28:47Z</time>
      </trkpt>
      <trkpt lat="47.33514" lon="0.09712">
        <ele>103.5</ele>
        <time>2012-08-15T08:28:51Z</time>
      </trkpt>
      <trkpt lat="47.33506" lon="0.09694">
        <ele>103.8</ele>
        <time>2012-08-15T08:28:54Z</time>
      </trkpt>
      <trkpt lat="47.33495" lon="0.09674">
        <ele>103.4</ele>
        <time>2012-08-15T08:28:58Z</time>
      </trkpt>
      <trkpt lat="47.33481" lon="0.09647">
        <ele>103.7</ele>
        <time>2012-08-15T08:29:03Z</time>
      </trkpt>
      <trkpt lat="47.33472" lon="0.09629">
        <ele>103.6</ele>
        <time>2012-08-15T08:29:06Z</time>
      </trkpt>
      <trkpt lat="47.33461" lon="0.096">
        <ele>103.4</ele>
        <time>2012-08-15T08:29:12Z</time>
      </trkpt>
      <trkpt lat="47.33453" lon="0.09584">
        <ele>103.7</ele>
        <time>2012-08-15T08:29:17Z</time>
      </trkpt>
      <trkpt lat="47.33448" lon="0.0957">
        <ele>103.4</ele>
        <time>2012-08-15T08:29:20Z</time>
      </trkpt>
      <trkpt lat="47.33432" lon="0.09533">
        <ele>103.1</ele>
        <time>2012-08-15T08:29:27Z</time>
      </trkpt>
      <trkpt lat="47.33427" lon="0.09523">
        <ele>102.9</ele>
        <time>2012-08-15T08:29:29Z</time>
      </trkpt>
      <trkpt lat="47.33411" lon="0.09488">
        <ele>103.1</ele>
        <time>2012-08-15T08:29:35Z</time>
      </trkpt>
      <trkpt lat="47.33391" lon="0.09462">
        <ele>103</ele>
        <time>2012-08-15T08:29:41Z</time>
      </trkpt>
      <trkpt lat="47.33382" lon="0.09451">
        <ele>103.2</ele>
        <time>2012-08-15T08:29:46Z</time>
      </trkpt>
      <trkpt lat="47.33382" lon="0.09451">
        <ele>103.2</ele>
        <time>2012-08-15T08:30:02Z</time>
      </trkpt>
      <trkpt lat="47.33376" lon="0.09464">
        <ele>103.5</ele>
        <time>2012-08-15T08:30:08Z</time>
      </trkpt>
      <trkpt lat="47.33367" lon="0.0949">
        <ele>103.9</ele>
        <time>2012-08-15T08:30:15Z</time>
      </trkpt>
      <trkpt lat="47.33355" lon="0.09518">
        <ele>104</ele>
        <time>2012-08-15T08:30:21Z</time>
      </trkpt>
      <trkpt lat="47.33343" lon="0.09547">
        <ele>104</ele>
        <time>2012-08-15T08:30:26Z</time>
      </trkpt>
      <trkpt lat="47.33328" lon="0.09583">
        <ele>104</ele>
        <time>2012-08-15T08:30:32Z</time>
      </trkpt>
      <trkpt lat="47.33313" lon="0.09622">
        <ele>104.1</ele>
        <time>2012-08-15T08:30:38Z</time>
      </trkpt>
      <trkpt lat="47.33295" lon="0.09667">
        <ele>104</ele>
        <time>2012-08-15T08:30:45Z</time>
      </trkpt>
      <trkpt lat="47.33276" lon="0.09711">
        <ele>104</ele>
        <time>2012-08-15T08:30:52Z</time>
      </trkpt>
      <trkpt lat="47.33259" lon="0.09749">
        <ele>104.3</ele>
        <time>2012-08-15T08:30:58Z</time>
      </trkpt>
      <trkpt lat="47.33236" lon="0.09788">
        <ele>104</ele>
        <time>2012-08-15T08:31:05Z</time>
      </trkpt>
      <trkpt lat="47.33227" lon="0.09802">
        <ele>104</ele>
        <time>2012-08-15T08:31:08Z</time>
      </trkpt>
      <trkpt lat="47.33224" lon="0.09805">
        <ele>104</ele>
        <time>2012-08-15T08:31:09Z</time>
      </trkpt>
      <trkpt lat="47.33221" lon="0.09809">
        <ele>104</ele>
        <time>2012-08-15T08:31:10Z</time>
      </trkpt>
      <trkpt lat="47.33219" lon="0.09812">
        <ele>104</ele>
        <time>2012-08-15T08:31:11Z</time>
      </trkpt>
      <trkpt lat="47.33216" lon="0.09816">
        <ele>104</ele>
        <time>2012-08-15T08:31:12Z</time>
      </trkpt>
      <trkpt lat="47.33213" lon="0.0982">
        <ele>104</ele>
        <time>2012-08-15T08:31:13Z</time>
      </trkpt>
      <trkpt lat="47.3321" lon="0.09823">
        <ele>104</ele>
        <time>2012-08-15T08:31:14Z</time>
      </trkpt>
      <trkpt lat="47.33208" lon="0.09827">
        <ele>104</ele>
        <time>2012-08-15T08:31:15Z</time>
      </trkpt>
      <trkpt lat="47.33196" lon="0.09845">
        <ele>104</ele>
        <time>2012-08-15T08:31:20Z</time>
      </trkpt>
      <trkpt lat="47.33187" lon="0.09858">
        <ele>104</ele>
        <time>2012-08-15T08:31:23Z</time>
      </trkpt>
      <trkpt lat="47.33174" lon="0.0988">
        <ele>103.5</ele>
        <time>2012-08-15T08:31:27Z</time>
      </trkpt>
      <trkpt lat="47.33148" lon="0.09918">
        <ele>103</ele>
        <time>2012-08-15T08:31:33Z</time>
      </trkpt>
      <trkpt lat="47.33124" lon="0.09954">
        <ele>103</ele>
        <time>2012-08-15T08:31:39Z</time>
      </trkpt>
      <trkpt lat="47.33121" lon="0.09961">
        <ele>103</ele>
        <time>2012-08-15T08:31:40Z</time>
      </trkpt>
      <trkpt lat="47.33101" lon="0.09989">
        <ele>103</ele>
        <time>2012-08-15T08:31:45Z</time>
      </trkpt>
      <trkpt lat="47.33098" lon="0.09994">
        <ele>103</ele>
        <time>2012-08-15T08:31:46Z</time>
      </trkpt>
      <trkpt lat="47.33069" lon="0.10032">
        <ele>102.9</ele>
        <time>2012-08-15T08:31:53Z</time>
      </trkpt>
      <trkpt lat="47.3304" lon="0.10068">
        <ele>102</ele>
        <time>2012-08-15T08:32:00Z</time>
      </trkpt>
      <trkpt lat="47.33036" lon="0.10074">
        <ele>102</ele>
        <time>2012-08-15T08:32:01Z</time>
      </trkpt>
      <trkpt lat="47.33032" lon="0.1008">
        <ele>102</ele>
        <time>2012-08-15T08:32:02Z</time>
      </trkpt>
      <trkpt lat="47.33024" lon="0.10091">
        <ele>102</ele>
        <time>2012-08-15T08:32:04Z</time>
      </trkpt>
      <trkpt lat="47.33021" lon="0.10097">
        <ele>102</ele>
        <time>2012-08-15T08:32:05Z</time>
      </trkpt>
      <trkpt lat="47.33017" lon="0.10103">
        <ele>102</ele>
        <time>2012-08-15T08:32:06Z</time>
      </trkpt>
      <trkpt lat="47.33014" lon="0.10109">
        <ele>102</ele>
        <time>2012-08-15T08:32:07Z</time>
      </trkpt>
      <trkpt lat="47.3301" lon="0.10115">
        <ele>102</ele>
        <time>2012-08-15T08:32:08Z</time>
      </trkpt>
      <trkpt lat="47.32987" lon="0.10151">
        <ele>101.5</ele>
        <time>2012-08-15T08:32:14Z</time>
      </trkpt>
      <trkpt lat="47.32967" lon="0.10182">
        <ele>101</ele>
        <time>2012-08-15T08:32:19Z</time>
      </trkpt>
      <trkpt lat="47.32963" lon="0.10187">
        <ele>101</ele>
        <time>2012-08-15T08:32:20Z</time>
      </trkpt>
      <trkpt lat="47.32935" lon="0.1023">
        <ele>102</ele>
        <time>2012-08-15T08:32:27Z</time>
      </trkpt>
      <trkpt lat="47.32909" lon="0.10271">
        <ele>102.8</ele>
        <time>2012-08-15T08:32:34Z</time>
      </trkpt>
      <trkpt lat="47.32906" lon="0.10277">
        <ele>103</ele>
        <time>2012-08-15T08:32:35Z</time>
      </trkpt>
      <trkpt lat="47.32902" lon="0.10283">
        <ele>103</ele>
        <time>2012-08-15T08:32:36Z</time>
      </trkpt>
      <trkpt lat="47.32899" lon="0.10288">
        <ele>103</ele>
        <time>2012-08-15T08:32:37Z</time>
      </trkpt>
      <trkpt lat="47.32895" lon="0.10294">
        <ele>103</ele>
        <time>2012-08-15T08:32:38Z</time>
      </trkpt>
      <trkpt lat="47.32888" lon="0.10305">
        <ele>103</ele>
        <time>2012-08-15T08:32:40Z</time>
      </trkpt>
      <trkpt lat="47.32871" lon="0.10331">
        <ele>103</ele>
        <time>2012-08-15T08:32:46Z</time>
      </trkpt>
      <trkpt lat="47.32864" lon="0.10344">
        <ele>103.4</ele>
        <time>2012-08-15T08:32:50Z</time>
      </trkpt>
      <trkpt lat="47.32864" lon="0.10347">
        <ele>103.5</ele>
        <time>2012-08-15T08:32:51Z</time>
      </trkpt>
      <trkpt lat="47.32865" lon="0.10349">
        <ele>103.6</ele>
        <time>2012-08-15T08:32:52Z</time>
      </trkpt>
      <trkpt lat="47.32867" lon="0.10352">
        <ele>103.7</ele>
        <time>2012-08-15T08:32:53Z</time>
      </trkpt>
      <trkpt lat="47.32869" lon="0.10355">
        <ele>103.8</ele>
        <time>2012-08-15T08:32:54Z</time>
      </trkpt>
      <trkpt lat="47.32871" lon="0.10358">
        <ele>103.9</ele>
        <time>2012-08-15T08:32:55Z</time>
      </trkpt>
      <trkpt lat="47.32874" lon="0.1036">
        <ele>104</ele>
        <time>2012-08-15T08:32:56Z</time>
      </trkpt>
      <trkpt lat="47.32879" lon="0.10364">
        <ele>104</ele>
        <time>2012-08-15T08:32:58Z</time>
      </trkpt>
      <trkpt lat="47.32881" lon="0.10367">
        <ele>104</ele>
        <time>2012-08-15T08:32:59Z</time>
      </trkpt>
      <trkpt lat="47.32884" lon="0.1037">
        <ele>104</ele>
        <time>2012-08-15T08:33:00Z</time>
      </trkpt>
      <trkpt lat="47.3289" lon="0.10375">
        <ele>104</ele>
        <time>2012-08-15T08:33:02Z</time>
      </trkpt>
      <trkpt lat="47.32913" lon="0.10402">
        <ele>104</ele>
        <time>2012-08-15T08:33:08Z</time>
      </trkpt>
      <trkpt lat="47.32938" lon="0.10438">
        <ele>104</ele>
        <time>2012-08-15T08:33:15Z</time>
      </trkpt>
      <trkpt lat="47.32943" lon="0.10442">
        <ele>104</ele>
        <time>2012-08-15T08:33:16Z</time>
      </trkpt>
      <trkpt lat="47.32967" lon="0.10468">
        <ele>103.2</ele>
        <time>2012-08-15T08:33:22Z</time>
      </trkpt>
      <trkpt lat="47.32987" lon="0.10489">
        <ele>103</ele>
        <time>2012-08-15T08:33:27Z</time>
      </trkpt>
      <trkpt lat="47.33005" lon="0.10513">
        <ele>102.8</ele>
        <time>2012-08-15T08:33:32Z</time>
      </trkpt>
      <trkpt lat="47.33023" lon="0.10531">
        <ele>102.2</ele>
        <time>2012-08-15T08:33:36Z</time>
      </trkpt>
      <trkpt lat="47.33048" lon="0.1055">
        <ele>101.3</ele>
        <time>2012-08-15T08:33:41Z</time>
      </trkpt>
      <trkpt lat="47.33084" lon="0.10581">
        <ele>99.1</ele>
        <time>2012-08-15T08:33:48Z</time>
      </trkpt>
      <trkpt lat="47.33103" lon="0.10605">
        <ele>98.3</ele>
        <time>2012-08-15T08:33:52Z</time>
      </trkpt>
      <trkpt lat="47.33139" lon="0.10647">
        <ele>95.7</ele>
        <time>2012-08-15T08:33:59Z</time>
      </trkpt>
      <trkpt lat="47.33158" lon="0.10668">
        <ele>95</ele>
        <time>2012-08-15T08:34:03Z</time>
      </trkpt>
      <trkpt lat="47.33186" lon="0.107">
        <ele>93.2</ele>
        <time>2012-08-15T08:34:09Z</time>
      </trkpt>
      <trkpt lat="47.33192" lon="0.10705">
        <ele>93.1</ele>
        <time>2012-08-15T08:34:10Z</time>
      </trkpt>
      <trkpt lat="47.33216" lon="0.1073">
        <ele>92.7</ele>
        <time>2012-08-15T08:34:15Z</time>
      </trkpt>
      <trkpt lat="47.33243" lon="0.10754">
        <ele>91.9</ele>
        <time>2012-08-15T08:34:20Z</time>
      </trkpt>
      <trkpt lat="47.33254" lon="0.10764">
        <ele>91.6</ele>
        <time>2012-08-15T08:34:22Z</time>
      </trkpt>
      <trkpt lat="47.3328" lon="0.10786">
        <ele>91.7</ele>
        <time>2012-08-15T08:34:27Z</time>
      </trkpt>
      <trkpt lat="47.33316" lon="0.10814">
        <ele>91.1</ele>
        <time>2012-08-15T08:34:34Z</time>
      </trkpt>
      <trkpt lat="47.33339" lon="0.10836">
        <ele>90.9</ele>
        <time>2012-08-15T08:34:39Z</time>
      </trkpt>
      <trkpt lat="47.33359" lon="0.10854">
        <ele>90.9</ele>
        <time>2012-08-15T08:34:43Z</time>
      </trkpt>
      <trkpt lat="47.33388" lon="0.10874">
        <ele>89.6</ele>
        <time>2012-08-15T08:34:49Z</time>
      </trkpt>
      <trkpt lat="47.33421" lon="0.109">
        <ele>87.4</ele>
        <time>2012-08-15T08:34:56Z</time>
      </trkpt>
      <trkpt lat="47.33432" lon="0.10907">
        <ele>86.8</ele>
        <time>2012-08-15T08:34:58Z</time>
      </trkpt>
      <trkpt lat="47.33457" lon="0.10932">
        <ele>84.1</ele>
        <time>2012-08-15T08:35:03Z</time>
      </trkpt>
      <trkpt lat="47.33462" lon="0.10939">
        <ele>83.3</ele>
        <time>2012-08-15T08:35:04Z</time>
      </trkpt>
      <trkpt lat="47.33473" lon="0.10955">
        <ele>81.9</ele>
        <time>2012-08-15T08:35:06Z</time>
      </trkpt>
      <trkpt lat="47.33477" lon="0.10961">
        <ele>81.5</ele>
        <time>2012-08-15T08:35:07Z</time>
      </trkpt>
      <trkpt lat="47.33485" lon="0.10976">
        <ele>80.5</ele>
        <time>2012-08-15T08:35:10Z</time>
      </trkpt>
      <trkpt lat="47.33486" lon="0.10982">
        <ele>80.2</ele>
        <time>2012-08-15T08:35:11Z</time>
      </trkpt>
      <trkpt lat="47.33475" lon="0.11009">
        <ele>80.4</ele>
        <time>2012-08-15T08:35:16Z</time>
      </trkpt>
      <trkpt lat="47.3347" lon="0.11021">
        <ele>80.4</ele>
        <time>2012-08-15T08:35:18Z</time>
      </trkpt>
      <trkpt lat="47.33456" lon="0.11053">
        <ele>79.7</ele>
        <time>2012-08-15T08:35:24Z</time>
      </trkpt>
      <trkpt lat="47.33451" lon="0.11085">
        <ele>78.7</ele>
        <time>2012-08-15T08:35:29Z</time>
      </trkpt>
      <trkpt lat="47.3346" lon="0.1111">
        <ele>76.9</ele>
        <time>2012-08-15T08:35:33Z</time>
      </trkpt>
      <trkpt lat="47.33465" lon="0.11122">
        <ele>76</ele>
        <time>2012-08-15T08:35:35Z</time>
      </trkpt>
      <trkpt lat="47.33469" lon="0.11157">
        <ele>74.5</ele>
        <time>2012-08-15T08:35:41Z</time>
      </trkpt>
      <trkpt lat="47.33468" lon="0.11184">
        <ele>73.5</ele>
        <time>2012-08-15T08:35:46Z</time>
      </trkpt>
      <trkpt lat="47.33462" lon="0.11209">
        <ele>73.2</ele>
        <time>2012-08-15T08:35:51Z</time>
      </trkpt>
      <trkpt lat="47.33453" lon="0.11233">
        <ele>72.9</ele>
        <time>2012-08-15T08:35:56Z</time>
      </trkpt>
      <trkpt lat="47.33449" lon="0.11257">
        <ele>72.6</ele>
        <time>2012-08-15T08:36:01Z</time>
      </trkpt>
      <trkpt lat="47.33446" lon="0.11297">
        <ele>72</ele>
        <time>2012-08-15T08:36:09Z</time>
      </trkpt>
      <trkpt lat="47.33447" lon="0.11324">
        <ele>71.9</ele>
        <time>2012-08-15T08:36:15Z</time>
      </trkpt>
      <trkpt lat="47.33445" lon="0.11354">
        <ele>71.2</ele>
        <time>2012-08-15T08:36:21Z</time>
      </trkpt>
      <trkpt lat="47.33436" lon="0.11377">
        <ele>70.9</ele>
        <time>2012-08-15T08:36:26Z</time>
      </trkpt>
      <trkpt lat="47.33428" lon="0.11403">
        <ele>70.9</ele>
        <time>2012-08-15T08:36:33Z</time>
      </trkpt>
      <trkpt lat="47.33426" lon="0.11411">
        <ele>70.8</ele>
        <time>2012-08-15T08:36:35Z</time>
      </trkpt>
      <trkpt lat="47.3343" lon="0.1143">
        <ele>70.3</ele>
        <time>2012-08-15T08:36:41Z</time>
      </trkpt>
      <trkpt lat="47.33427" lon="0.11437">
        <ele>70.2</ele>
        <time>2012-08-15T08:36:44Z</time>
      </trkpt>
      <trkpt lat="47.3342" lon="0.11456">
        <ele>70</ele>
        <time>2012-08-15T08:36:50Z</time>
      </trkpt>
      <trkpt lat="47.33413" lon="0.11462">
        <ele>70</ele>
        <time>2012-08-15T08:36:56Z</time>
      </trkpt>
      <trkpt lat="47.33409" lon="0.11458">
        <ele>70.1</ele>
        <time>2012-08-15T08:37:00Z</time>
      </trkpt>
      <trkpt lat="47.3341" lon="0.11455">
        <ele>70.1</ele>
        <time>2012-08-15T08:37:06Z</time>
      </trkpt>
      <trkpt lat="47.33409" lon="0.11454">
        <ele>70.2</ele>
        <time>2012-08-15T08:37:55Z</time>
      </trkpt>
      <trkpt lat="47.3341" lon="0.11455">
        <ele>70.1</ele>
        <time>2012-08-15T08:38:08Z</time>
      </trkpt>
      <trkpt lat="47.33407" lon="0.11469">
        <ele>70</ele>
        <time>2012-08-15T08:38:14Z</time>
      </trkpt>
      <trkpt lat="47.33398" lon="0.11469">
        <ele>70.1</ele>
        <time>2012-08-15T08:38:18Z</time>
      </trkpt>
      <trkpt lat="47.33368" lon="0.11474">
        <ele>69.9</ele>
        <time>2012-08-15T08:38:28Z</time>
      </trkpt>
      <trkpt lat="47.33338" lon="0.1148">
        <ele>69.7</ele>
        <time>2012-08-15T08:38:37Z</time>
      </trkpt>
      <trkpt lat="47.33314" lon="0.11486">
        <ele>69.5</ele>
        <time>2012-08-15T08:38:44Z</time>
      </trkpt>
      <trkpt lat="47.33288" lon="0.11492">
        <ele>69.3</ele>
        <time>2012-08-15T08:38:51Z</time>
      </trkpt>
      <trkpt lat="47.33265" lon="0.11492">
        <ele>69.3</ele>
        <time>2012-08-15T08:38:58Z</time>
      </trkpt>
      <trkpt lat="47.33246" lon="0.11483">
        <ele>69.7</ele>
        <time>2012-08-15T08:39:04Z</time>
      </trkpt>
      <trkpt lat="47.33227" lon="0.1147">
        <ele>70.9</ele>
        <time>2012-08-15T08:39:11Z</time>
      </trkpt>
      <trkpt lat="47.33207" lon="0.11468">
        <ele>71.7</ele>
        <time>2012-08-15T08:39:19Z</time>
      </trkpt>
      <trkpt lat="47.33185" lon="0.11479">
        <ele>71.9</ele>
        <time>2012-08-15T08:39:27Z</time>
      </trkpt>
      <trkpt lat="47.33155" lon="0.11501">
        <ele>71.8</ele>
        <time>2012-08-15T08:39:36Z</time>
      </trkpt>
      <trkpt lat="47.33127" lon="0.11522">
        <ele>71.5</ele>
        <time>2012-08-15T08:39:44Z</time>
      </trkpt>
      <trkpt lat="47.33107" lon="0.11543">
        <ele>70.7</ele>
        <time>2012-08-15T08:39:50Z</time>
      </trkpt>
      <trkpt lat="47.33072" lon="0.11566">
        <ele>70.3</ele>
        <time>2012-08-15T08:40:00Z</time>
      </trkpt>
      <trkpt lat="47.33065" lon="0.1157">
        <ele>70.2</ele>
        <time>2012-08-15T08:40:02Z</time>
      </trkpt>
      <trkpt lat="47.33036" lon="0.11582">
        <ele>69.9</ele>
        <time>2012-08-15T08:40:10Z</time>
      </trkpt>
      <trkpt lat="47.33003" lon="0.11583">
        <ele>70</ele>
        <time>2012-08-15T08:40:18Z</time>
      </trkpt>
      <trkpt lat="47.32995" lon="0.11583">
        <ele>70.2</ele>
        <time>2012-08-15T08:40:20Z</time>
      </trkpt>
      <trkpt lat="47.32987" lon="0.11585">
        <ele>70.3</ele>
        <time>2012-08-15T08:40:22Z</time>
      </trkpt>
      <trkpt lat="47.3297" lon="0.11587">
        <ele>70.6</ele>
        <time>2012-08-15T08:40:26Z</time>
      </trkpt>
      <trkpt lat="47.32963" lon="0.11584">
        <ele>70.9</ele>
        <time>2012-08-15T08:40:28Z</time>
      </trkpt>
      <trkpt lat="47.3292" lon="0.11578">
        <ele>70.7</ele>
        <time>2012-08-15T08:40:38Z</time>
      </trkpt>
      <trkpt lat="47.32907" lon="0.11575">
        <ele>70.4</ele>
        <time>2012-08-15T08:40:41Z</time>
      </trkpt>
      <trkpt lat="47.32888" lon="0.11565">
        <ele>70.3</ele>
        <time>2012-08-15T08:40:46Z</time>
      </trkpt>
      <trkpt lat="47.32868" lon="0.11555">
        <ele>70.3</ele>
        <time>2012-08-15T08:40:51Z</time>
      </trkpt>
      <trkpt lat="47.32845" lon="0.11542">
        <ele>70.2</ele>
        <time>2012-08-15T08:40:57Z</time>
      </trkpt>
      <trkpt lat="47.32828" lon="0.11533">
        <ele>70.4</ele>
        <time>2012-08-15T08:41:01Z</time>
      </trkpt>
      <trkpt lat="47.3282" lon="0.11528">
        <ele>70.5</ele>
        <time>2012-08-15T08:41:03Z</time>
      </trkpt>
      <trkpt lat="47.32797" lon="0.11511">
        <ele>70.9</ele>
        <time>2012-08-15T08:41:09Z</time>
      </trkpt>
      <trkpt lat="47.32785" lon="0.11504">
        <ele>71</ele>
        <time>2012-08-15T08:41:12Z</time>
      </trkpt>
      <trkpt lat="47.32766" lon="0.11491">
        <ele>70.8</ele>
        <time>2012-08-15T08:41:17Z</time>
      </trkpt>
      <trkpt lat="47.32758" lon="0.11484">
        <ele>70.7</ele>
        <time>2012-08-15T08:41:19Z</time>
      </trkpt>
      <trkpt lat="47.32743" lon="0.11473">
        <ele>70.4</ele>
        <time>2012-08-15T08:41:23Z</time>
      </trkpt>
      <trkpt lat="47.32722" lon="0.11458">
        <ele>70</ele>
        <time>2012-08-15T08:41:28Z</time>
      </trkpt>
      <trkpt lat="47.32708" lon="0.11417">
        <ele>71.4</ele>
        <time>2012-08-15T08:41:37Z</time>
      </trkpt>
      <trkpt lat="47.32699" lon="0.11388">
        <ele>72.6</ele>
        <time>2012-08-15T08:41:44Z</time>
      </trkpt>
      <trkpt lat="47.32693" lon="0.1137">
        <ele>74</ele>
        <time>2012-08-15T08:41:49Z</time>
      </trkpt>
      <trkpt lat="47.32689" lon="0.11358">
        <ele>74.9</ele>
        <time>2012-08-15T08:41:54Z</time>
      </trkpt>
      <trkpt lat="47.32687" lon="0.11344">
        <ele>76.1</ele>
        <time>2012-08-15T08:41:59Z</time>
      </trkpt>
      <trkpt lat="47.3268" lon="0.1132">
        <ele>77.9</ele>
        <time>2012-08-15T08:42:08Z</time>
      </trkpt>
      <trkpt lat="47.32676" lon="0.11303">
        <ele>79.3</ele>
        <time>2012-08-15T08:42:14Z</time>
      </trkpt>
      <trkpt lat="47.32673" lon="0.11289">
        <ele>80.5</ele>
        <time>2012-08-15T08:42:20Z</time>
      </trkpt>
      <trkpt lat="47.32668" lon="0.11269">
        <ele>81.8</ele>
        <time>2012-08-15T08:42:28Z</time>
      </trkpt>
      <trkpt lat="47.32667" lon="0.11266">
        <ele>81.9</ele>
        <time>2012-08-15T08:42:29Z</time>
      </trkpt>
      <trkpt lat="47.32665" lon="0.11259">
        <ele>82.1</ele>
        <time>2012-08-15T08:42:31Z</time>
      </trkpt>
      <trkpt lat="47.32658" lon="0.11231">
        <ele>81.9</ele>
        <time>2012-08-15T08:42:38Z</time>
      </trkpt>
      <trkpt lat="47.32653" lon="0.11214">
        <ele>80.9</ele>
        <time>2012-08-15T08:42:41Z</time>
      </trkpt>
      <trkpt lat="47.32646" lon="0.11194">
        <ele>79.3</ele>
        <time>2012-08-15T08:42:44Z</time>
      </trkpt>
      <trkpt lat="47.32636" lon="0.11163">
        <ele>79.6</ele>
        <time>2012-08-15T08:42:49Z</time>
      </trkpt>
      <trkpt lat="47.32633" lon="0.11146">
        <ele>81.5</ele>
        <time>2012-08-15T08:42:54Z</time>
      </trkpt>
      <trkpt lat="47.32632" lon="0.1114">
        <ele>82.1</ele>
        <time>2012-08-15T08:42:56Z</time>
      </trkpt>
      <trkpt lat="47.32626" lon="0.11117">
        <ele>84</ele>
        <time>2012-08-15T08:43:04Z</time>
      </trkpt>
      <trkpt lat="47.32623" lon="0.11099">
        <ele>85.6</ele>
        <time>2012-08-15T08:43:11Z</time>
      </trkpt>
      <trkpt lat="47.32621" lon="0.11092">
        <ele>86.3</ele>
        <time>2012-08-15T08:43:14Z</time>
      </trkpt>
      <trkpt lat="47.32615" lon="0.11085">
        <ele>86.9</ele>
        <time>2012-08-15T08:43:19Z</time>
      </trkpt>
      <trkpt lat="47.32608" lon="0.11077">
        <ele>88.1</ele>
        <time>2012-08-15T08:43:26Z</time>
      </trkpt>
      <trkpt lat="47.32602" lon="0.11071">
        <ele>89.5</ele>
        <time>2012-08-15T08:43:32Z</time>
      </trkpt>
      <trkpt lat="47.32593" lon="0.11063">
        <ele>91.3</ele>
        <time>2012-08-15T08:43:41Z</time>
      </trkpt>
      <trkpt lat="47.32592" lon="0.11059">
        <ele>91.8</ele>
        <time>2012-08-15T08:43:43Z</time>
      </trkpt>
      <trkpt lat="47.3259" lon="0.11049">
        <ele>92.8</ele>
        <time>2012-08-15T08:43:48Z</time>
      </trkpt>
      <trkpt lat="47.32591" lon="0.11041">
        <ele>93.4</ele>
        <time>2012-08-15T08:43:52Z</time>
      </trkpt>
      <trkpt lat="47.32594" lon="0.11026">
        <ele>94.4</ele>
        <time>2012-08-15T08:43:59Z</time>
      </trkpt>
      <trkpt lat="47.32594" lon="0.11024">
        <ele>94.6</ele>
        <time>2012-08-15T08:44:00Z</time>
      </trkpt>
      <trkpt lat="47.32594" lon="0.11016">
        <ele>95.2</ele>
        <time>2012-08-15T08:44:04Z</time>
      </trkpt>
      <trkpt lat="47.32593" lon="0.10996">
        <ele>97</ele>
        <time>2012-08-15T08:44:13Z</time>
      </trkpt>
      <trkpt lat="47.32587" lon="0.10974">
        <ele>98.9</ele>
        <time>2012-08-15T08:44:22Z</time>
      </trkpt>
      <trkpt lat="47.3258" lon="0.10948">
        <ele>99.9</ele>
        <time>2012-08-15T08:44:32Z</time>
      </trkpt>
      <trkpt lat="47.32574" lon="0.10923">
        <ele>101.3</ele>
        <time>2012-08-15T08:44:41Z</time>
      </trkpt>
      <trkpt lat="47.32566" lon="0.10887">
        <ele>102.4</ele>
        <time>2012-08-15T08:44:50Z</time>
      </trkpt>
      <trkpt lat="47.32556" lon="0.10855">
        <ele>103.2</ele>
        <time>2012-08-15T08:44:58Z</time>
      </trkpt>
      <trkpt lat="47.32557" lon="0.10835">
        <ele>104</ele>
        <time>2012-08-15T08:45:03Z</time>
      </trkpt>
      <trkpt lat="47.32568" lon="0.10817">
        <ele>104.4</ele>
        <time>2012-08-15T08:45:09Z</time>
      </trkpt>
      <trkpt lat="47.32569" lon="0.10815">
        <ele>104.5</ele>
        <time>2012-08-15T08:45:10Z</time>
      </trkpt>
      <trkpt lat="47.32567" lon="0.10803">
        <ele>104.5</ele>
        <time>2012-08-15T08:45:17Z</time>
      </trkpt>
      <trkpt lat="47.32567" lon="0.10803">
        <ele>104.5</ele>
        <time>2012-08-15T08:45:47Z</time>
      </trkpt>
      <trkpt lat="47.32564" lon="0.10801">
        <ele>104.5</ele>
        <time>2012-08-15T08:45:54Z</time>
      </trkpt>
      <trkpt lat="47.32563" lon="0.108">
        <ele>104.5</ele>
        <time>2012-08-15T08:46:18Z</time>
      </trkpt>
      <trkpt lat="47.32563" lon="0.108">
        <ele>104.5</ele>
        <time>2012-08-15T08:46:43Z</time>
      </trkpt>
      <trkpt lat="47.32559" lon="0.10794">
        <ele>104.5</ele>
        <time>2012-08-15T08:46:47Z</time>
      </trkpt>
      <trkpt lat="47.32544" lon="0.10778">
        <ele>104.2</ele>
        <time>2012-08-15T08:46:54Z</time>
      </trkpt>
      <trkpt lat="47.32523" lon="0.10773">
        <ele>102.9</ele>
        <time>2012-08-15T08:47:00Z</time>
      </trkpt>
      <trkpt lat="47.32488" lon="0.10761">
        <ele>101.3</ele>
        <time>2012-08-15T08:47:08Z</time>
      </trkpt>
      <trkpt lat="47.3246" lon="0.10742">
        <ele>100.5</ele>
        <time>2012-08-15T08:47:16Z</time>
      </trkpt>
      <trkpt lat="47.32451" lon="0.10737">
        <ele>100.3</ele>
        <time>2012-08-15T08:47:18Z</time>
      </trkpt>
      <trkpt lat="47.32436" lon="0.10723">
        <ele>100.3</ele>
        <time>2012-08-15T08:47:22Z</time>
      </trkpt>
      <trkpt lat="47.32421" lon="0.10703">
        <ele>100</ele>
        <time>2012-08-15T08:47:27Z</time>
      </trkpt>
      <trkpt lat="47.32406" lon="0.10684">
        <ele>99.6</ele>
        <time>2012-08-15T08:47:32Z</time>
      </trkpt>
      <trkpt lat="47.32387" lon="0.10672">
        <ele>98.6</ele>
        <time>2012-08-15T08:47:37Z</time>
      </trkpt>
      <trkpt lat="47.32369" lon="0.10672">
        <ele>96.5</ele>
        <time>2012-08-15T08:47:43Z</time>
      </trkpt>
      <trkpt lat="47.32348" lon="0.10659">
        <ele>94.5</ele>
        <time>2012-08-15T08:47:48Z</time>
      </trkpt>
      <trkpt lat="47.32337" lon="0.10652">
        <ele>93.5</ele>
        <time>2012-08-15T08:47:50Z</time>
      </trkpt>
      <trkpt lat="47.32297" lon="0.10642">
        <ele>87.3</ele>
        <time>2012-08-15T08:47:56Z</time>
      </trkpt>
      <trkpt lat="47.32283" lon="0.1064">
        <ele>84.9</ele>
        <time>2012-08-15T08:47:58Z</time>
      </trkpt>
      <trkpt lat="47.32273" lon="0.10638">
        <ele>83</ele>
        <time>2012-08-15T08:48:00Z</time>
      </trkpt>
      <trkpt lat="47.32265" lon="0.10633">
        <ele>81.2</ele>
        <time>2012-08-15T08:48:02Z</time>
      </trkpt>
      <trkpt lat="47.32244" lon="0.10624">
        <ele>76.9</ele>
        <time>2012-08-15T08:48:06Z</time>
      </trkpt>
      <trkpt lat="47.32218" lon="0.10617">
        <ele>72.7</ele>
        <time>2012-08-15T08:48:11Z</time>
      </trkpt>
      <trkpt lat="47.32201" lon="0.10609">
        <ele>71.5</ele>
        <time>2012-08-15T08:48:14Z</time>
      </trkpt>
      <trkpt lat="47.32176" lon="0.10596">
        <ele>71.5</ele>
        <time>2012-08-15T08:48:20Z</time>
      </trkpt>
      <trkpt lat="47.32154" lon="0.10584">
        <ele>72.9</ele>
        <time>2012-08-15T08:48:27Z</time>
      </trkpt>
      <trkpt lat="47.32131" lon="0.10575">
        <ele>74.9</ele>
        <time>2012-08-15T08:48:34Z</time>
      </trkpt>
      <trkpt lat="47.32108" lon="0.10563">
        <ele>76.4</ele>
        <time>2012-08-15T08:48:41Z</time>
      </trkpt>
      <trkpt lat="47.32088" lon="0.10551">
        <ele>76.3</ele>
        <time>2012-08-15T08:48:47Z</time>
      </trkpt>
      <trkpt lat="47.32067" lon="0.10543">
        <ele>75.3</ele>
        <time>2012-08-15T08:48:54Z</time>
      </trkpt>
      <trkpt lat="47.32053" lon="0.10534">
        <ele>74.6</ele>
        <time>2012-08-15T08:48:58Z</time>
      </trkpt>
      <trkpt lat="47.32044" lon="0.10531">
        <ele>74</ele>
        <time>2012-08-15T08:49:00Z</time>
      </trkpt>
      <trkpt lat="47.32017" lon="0.10517">
        <ele>73.5</ele>
        <time>2012-08-15T08:49:06Z</time>
      </trkpt>
      <trkpt lat="47.31991" lon="0.10498">
        <ele>75.6</ele>
        <time>2012-08-15T08:49:14Z</time>
      </trkpt>
      <trkpt lat="47.31981" lon="0.10489">
        <ele>77.1</ele>
        <time>2012-08-15T08:49:19Z</time>
      </trkpt>
      <trkpt lat="47.31969" lon="0.10482">
        <ele>78.9</ele>
        <time>2012-08-15T08:49:25Z</time>
      </trkpt>
      <trkpt lat="47.31961" lon="0.10479">
        <ele>80.2</ele>
        <time>2012-08-15T08:49:29Z</time>
      </trkpt>
      <trkpt lat="47.31949" lon="0.10471">
        <ele>82.6</ele>
        <time>2012-08-15T08:49:37Z</time>
      </trkpt>
      <trkpt lat="47.31944" lon="0.10469">
        <ele>83.3</ele>
        <time>2012-08-15T08:49:41Z</time>
      </trkpt>
      <trkpt lat="47.31932" lon="0.10461">
        <ele>84.2</ele>
        <time>2012-08-15T08:49:49Z</time>
      </trkpt>
      <trkpt lat="47.31919" lon="0.10454">
        <ele>85</ele>
        <time>2012-08-15T08:49:57Z</time>
      </trkpt>
      <trkpt lat="47.319" lon="0.10442">
        <ele>85.1</ele>
        <time>2012-08-15T08:50:03Z</time>
      </trkpt>
      <trkpt lat="47.31891" lon="0.10439">
        <ele>84.7</ele>
        <time>2012-08-15T08:50:05Z</time>
      </trkpt>
      <trkpt lat="47.31852" lon="0.10418">
        <ele>81.6</ele>
        <time>2012-08-15T08:50:13Z</time>
      </trkpt>
      <trkpt lat="47.31841" lon="0.10411">
        <ele>80.7</ele>
        <time>2012-08-15T08:50:15Z</time>
      </trkpt>
      <trkpt lat="47.31829" lon="0.10405">
        <ele>79.7</ele>
        <time>2012-08-15T08:50:17Z</time>
      </trkpt>
      <trkpt lat="47.31811" lon="0.10397">
        <ele>78.1</ele>
        <time>2012-08-15T08:50:20Z</time>
      </trkpt>
      <trkpt lat="47.31782" lon="0.10383">
        <ele>75.9</ele>
        <time>2012-08-15T08:50:25Z</time>
      </trkpt>
      <trkpt lat="47.31776" lon="0.1038">
        <ele>75.4</ele>
        <time>2012-08-15T08:50:26Z</time>
      </trkpt>
      <trkpt lat="47.31759" lon="0.10367">
        <ele>74.5</ele>
        <time>2012-08-15T08:50:29Z</time>
      </trkpt>
      <trkpt lat="47.31742" lon="0.10356">
        <ele>73.1</ele>
        <time>2012-08-15T08:50:32Z</time>
      </trkpt>
      <trkpt lat="47.3173" lon="0.10351">
        <ele>71.7</ele>
        <time>2012-08-15T08:50:34Z</time>
      </trkpt>
      <trkpt lat="47.31698" lon="0.10333">
        <ele>69.4</ele>
        <time>2012-08-15T08:50:39Z</time>
      </trkpt>
      <trkpt lat="47.31674" lon="0.10317">
        <ele>68.5</ele>
        <time>2012-08-15T08:50:43Z</time>
      </trkpt>
      <trkpt lat="47.31658" lon="0.10306">
        <ele>68.3</ele>
        <time>2012-08-15T08:50:46Z</time>
      </trkpt>
      <trkpt lat="47.31641" lon="0.10303">
        <ele>67.2</ele>
        <time>2012-08-15T08:50:50Z</time>
      </trkpt>
      <trkpt lat="47.31636" lon="0.10301">
        <ele>67.1</ele>
        <time>2012-08-15T08:50:56Z</time>
      </trkpt>
      <trkpt lat="47.31636" lon="0.10302">
        <ele>67</ele>
        <time>2012-08-15T08:51:06Z</time>
      </trkpt>
      <trkpt lat="47.31636" lon="0.10302">
        <ele>67</ele>
        <time>2012-08-15T08:51:24Z</time>
      </trkpt>
      <trkpt lat="47.31635" lon="0.10302">
        <ele>67</ele>
        <time>2012-08-15T08:52:00Z</time>
      </trkpt>
      <trkpt lat="47.31634" lon="0.10304">
        <ele>66.9</ele>
        <time>2012-08-15T08:52:07Z</time>
      </trkpt>
      <trkpt lat="47.31633" lon="0.10304">
        <ele>66.8</ele>
        <time>2012-08-15T08:53:25Z</time>
      </trkpt>
      <trkpt lat="47.31624" lon="0.10312">
        <ele>66.1</ele>
        <time>2012-08-15T08:53:30Z</time>
      </trkpt>
      <trkpt lat="47.31616" lon="0.10322">
        <ele>65.1</ele>
        <time>2012-08-15T08:53:33Z</time>
      </trkpt>
      <trkpt lat="47.31589" lon="0.10362">
        <ele>62.2</ele>
        <time>2012-08-15T08:53:41Z</time>
      </trkpt>
      <trkpt lat="47.31576" lon="0.10374">
        <ele>61</ele>
        <time>2012-08-15T08:53:44Z</time>
      </trkpt>
      <trkpt lat="47.31572" lon="0.10377">
        <ele>60.6</ele>
        <time>2012-08-15T08:53:45Z</time>
      </trkpt>
      <trkpt lat="47.31547" lon="0.10402">
        <ele>58.1</ele>
        <time>2012-08-15T08:53:50Z</time>
      </trkpt>
      <trkpt lat="47.31542" lon="0.1041">
        <ele>57.4</ele>
        <time>2012-08-15T08:53:51Z</time>
      </trkpt>
      <trkpt lat="47.31536" lon="0.10418">
        <ele>56.5</ele>
        <time>2012-08-15T08:53:52Z</time>
      </trkpt>
      <trkpt lat="47.3151" lon="0.10471">
        <ele>52.8</ele>
        <time>2012-08-15T08:53:57Z</time>
      </trkpt>
      <trkpt lat="47.31491" lon="0.10502">
        <ele>51.7</ele>
        <time>2012-08-15T08:54:00Z</time>
      </trkpt>
      <trkpt lat="47.31469" lon="0.10537">
        <ele>52</ele>
        <time>2012-08-15T08:54:05Z</time>
      </trkpt>
      <trkpt lat="47.31468" lon="0.10541">
        <ele>52.1</ele>
        <time>2012-08-15T08:54:06Z</time>
      </trkpt>
      <trkpt lat="47.31468" lon="0.10544">
        <ele>52.1</ele>
        <time>2012-08-15T08:54:07Z</time>
      </trkpt>
      <trkpt lat="47.31468" lon="0.10547">
        <ele>52.1</ele>
        <time>2012-08-15T08:54:08Z</time>
      </trkpt>
      <trkpt lat="47.3147" lon="0.10551">
        <ele>52.1</ele>
        <time>2012-08-15T08:54:09Z</time>
      </trkpt>
      <trkpt lat="47.31471" lon="0.10554">
        <ele>52</ele>
        <time>2012-08-15T08:54:10Z</time>
      </trkpt>
      <trkpt lat="47.31473" lon="0.10557">
        <ele>52.1</ele>
        <time>2012-08-15T08:54:11Z</time>
      </trkpt>
      <trkpt lat="47.31475" lon="0.10559">
        <ele>52.1</ele>
        <time>2012-08-15T08:54:12Z</time>
      </trkpt>
      <trkpt lat="47.31488" lon="0.10576">
        <ele>52.3</ele>
        <time>2012-08-15T08:54:18Z</time>
      </trkpt>
      <trkpt lat="47.31488" lon="0.10579">
        <ele>52.4</ele>
        <time>2012-08-15T08:54:19Z</time>
      </trkpt>
      <trkpt lat="47.31487" lon="0.10583">
        <ele>52.5</ele>
        <time>2012-08-15T08:54:20Z</time>
      </trkpt>
      <trkpt lat="47.31485" lon="0.10585">
        <ele>52.6</ele>
        <time>2012-08-15T08:54:21Z</time>
      </trkpt>
      <trkpt lat="47.31484" lon="0.10588">
        <ele>52.6</ele>
        <time>2012-08-15T08:54:22Z</time>
      </trkpt>
      <trkpt lat="47.31482" lon="0.10591">
        <ele>52.7</ele>
        <time>2012-08-15T08:54:23Z</time>
      </trkpt>
      <trkpt lat="47.3147" lon="0.10617">
        <ele>53.3</ele>
        <time>2012-08-15T08:54:30Z</time>
      </trkpt>
      <trkpt lat="47.31452" lon="0.10648">
        <ele>54.8</ele>
        <time>2012-08-15T08:54:40Z</time>
      </trkpt>
      <trkpt lat="47.3144" lon="0.1067">
        <ele>55.4</ele>
        <time>2012-08-15T08:54:48Z</time>
      </trkpt>
      <trkpt lat="47.31424" lon="0.1069">
        <ele>56.8</ele>
        <time>2012-08-15T08:54:57Z</time>
      </trkpt>
      <trkpt lat="47.31412" lon="0.10707">
        <ele>58.1</ele>
        <time>2012-08-15T08:55:04Z</time>
      </trkpt>
      <trkpt lat="47.31399" lon="0.10729">
        <ele>59.3</ele>
        <time>2012-08-15T08:55:12Z</time>
      </trkpt>
      <trkpt lat="47.31387" lon="0.10757">
        <ele>60.3</ele>
        <time>2012-08-15T08:55:22Z</time>
      </trkpt>
      <trkpt lat="47.31383" lon="0.10783">
        <ele>61.5</ele>
        <time>2012-08-15T08:55:30Z</time>
      </trkpt>
      <trkpt lat="47.31379" lon="0.10801">
        <ele>62.7</ele>
        <time>2012-08-15T08:55:36Z</time>
      </trkpt>
      <trkpt lat="47.31374" lon="0.10818">
        <ele>63.2</ele>
        <time>2012-08-15T08:55:41Z</time>
      </trkpt>
      <trkpt lat="47.31371" lon="0.10841">
        <ele>63.7</ele>
        <time>2012-08-15T08:55:47Z</time>
      </trkpt>
      <trkpt lat="47.31364" lon="0.10861">
        <ele>64</ele>
        <time>2012-08-15T08:55:52Z</time>
      </trkpt>
      <trkpt lat="47.31362" lon="0.10877">
        <ele>64.6</ele>
        <time>2012-08-15T08:55:56Z</time>
      </trkpt>
      <trkpt lat="47.31355" lon="0.10902">
        <ele>65.5</ele>
        <time>2012-08-15T08:56:03Z</time>
      </trkpt>
      <trkpt lat="47.31348" lon="0.10918">
        <ele>66</ele>
        <time>2012-08-15T08:56:09Z</time>
      </trkpt>
      <trkpt lat="47.31342" lon="0.10927">
        <ele>66.1</ele>
        <time>2012-08-15T08:56:14Z</time>
      </trkpt>
      <trkpt lat="47.31338" lon="0.10933">
        <ele>66.1</ele>
        <time>2012-08-15T08:56:17Z</time>
      </trkpt>
      <trkpt lat="47.3133" lon="0.10955">
        <ele>66.8</ele>
        <time>2012-08-15T08:56:24Z</time>
      </trkpt>
      <trkpt lat="47.31323" lon="0.1097">
        <ele>67.9</ele>
        <time>2012-08-15T08:56:29Z</time>
      </trkpt>
      <trkpt lat="47.31321" lon="0.10976">
        <ele>68.1</ele>
        <time>2012-08-15T08:56:31Z</time>
      </trkpt>
      <trkpt lat="47.31316" lon="0.10983">
        <ele>68.1</ele>
        <time>2012-08-15T08:56:35Z</time>
      </trkpt>
      <trkpt lat="47.31311" lon="0.10993">
        <ele>68.1</ele>
        <time>2012-08-15T08:56:38Z</time>
      </trkpt>
      <trkpt lat="47.31302" lon="0.11019">
        <ele>68.8</ele>
        <time>2012-08-15T08:56:45Z</time>
      </trkpt>
      <trkpt lat="47.31292" lon="0.11043">
        <ele>69.8</ele>
        <time>2012-08-15T08:56:51Z</time>
      </trkpt>
      <trkpt lat="47.31289" lon="0.11054">
        <ele>70</ele>
        <time>2012-08-15T08:56:54Z</time>
      </trkpt>
      <trkpt lat="47.31281" lon="0.11078">
        <ele>70.9</ele>
        <time>2012-08-15T08:57:00Z</time>
      </trkpt>
      <trkpt lat="47.31279" lon="0.11085">
        <ele>71.2</ele>
        <time>2012-08-15T08:57:03Z</time>
      </trkpt>
      <trkpt lat="47.31277" lon="0.11102">
        <ele>72.4</ele>
        <time>2012-08-15T08:57:09Z</time>
      </trkpt>
      <trkpt lat="47.31277" lon="0.11103">
        <ele>72.4</ele>
        <time>2012-08-15T08:57:10Z</time>
      </trkpt>
      <trkpt lat="47.31277" lon="0.11115">
        <ele>73.1</ele>
        <time>2012-08-15T08:57:14Z</time>
      </trkpt>
      <trkpt lat="47.3128" lon="0.11142">
        <ele>74.4</ele>
        <time>2012-08-15T08:57:20Z</time>
      </trkpt>
      <trkpt lat="47.3128" lon="0.11149">
        <ele>74.9</ele>
        <time>2012-08-15T08:57:22Z</time>
      </trkpt>
      <trkpt lat="47.3128" lon="0.11163">
        <ele>75.9</ele>
        <time>2012-08-15T08:57:26Z</time>
      </trkpt>
      <trkpt lat="47.31282" lon="0.11174">
        <ele>76.8</ele>
        <time>2012-08-15T08:57:30Z</time>
      </trkpt>
      <trkpt lat="47.31283" lon="0.11187">
        <ele>77.8</ele>
        <time>2012-08-15T08:57:34Z</time>
      </trkpt>
      <trkpt lat="47.31285" lon="0.11205">
        <ele>78.9</ele>
        <time>2012-08-15T08:57:39Z</time>
      </trkpt>
      <trkpt lat="47.31288" lon="0.11223">
        <ele>79.8</ele>
        <time>2012-08-15T08:57:45Z</time>
      </trkpt>
      <trkpt lat="47.31289" lon="0.11237">
        <ele>80.3</ele>
        <time>2012-08-15T08:57:49Z</time>
      </trkpt>
      <trkpt lat="47.31288" lon="0.11266">
        <ele>81.3</ele>
        <time>2012-08-15T08:57:55Z</time>
      </trkpt>
      <trkpt lat="47.31285" lon="0.11288">
        <ele>82.3</ele>
        <time>2012-08-15T08:58:01Z</time>
      </trkpt>
      <trkpt lat="47.31283" lon="0.11308">
        <ele>83.6</ele>
        <time>2012-08-15T08:58:07Z</time>
      </trkpt>
      <trkpt lat="47.31282" lon="0.11326">
        <ele>84.8</ele>
        <time>2012-08-15T08:58:13Z</time>
      </trkpt>
      <trkpt lat="47.3128" lon="0.11348">
        <ele>86.2</ele>
        <time>2012-08-15T08:58:20Z</time>
      </trkpt>
      <trkpt lat="47.31279" lon="0.11351">
        <ele>86.4</ele>
        <time>2012-08-15T08:58:21Z</time>
      </trkpt>
      <trkpt lat="47.31277" lon="0.11373">
        <ele>87.8</ele>
        <time>2012-08-15T08:58:28Z</time>
      </trkpt>
      <trkpt lat="47.31277" lon="0.11375">
        <ele>87.9</ele>
        <time>2012-08-15T08:58:29Z</time>
      </trkpt>
      <trkpt lat="47.31272" lon="0.114">
        <ele>89.5</ele>
        <time>2012-08-15T08:58:37Z</time>
      </trkpt>
      <trkpt lat="47.3127" lon="0.11412">
        <ele>90.4</ele>
        <time>2012-08-15T08:58:41Z</time>
      </trkpt>
      <trkpt lat="47.31267" lon="0.11429">
        <ele>91.5</ele>
        <time>2012-08-15T08:58:47Z</time>
      </trkpt>
      <trkpt lat="47.31265" lon="0.11441">
        <ele>92.3</ele>
        <time>2012-08-15T08:58:52Z</time>
      </trkpt>
      <trkpt lat="47.31261" lon="0.1146">
        <ele>93.3</ele>
        <time>2012-08-15T08:58:58Z</time>
      </trkpt>
      <trkpt lat="47.31256" lon="0.1148">
        <ele>94.1</ele>
        <time>2012-08-15T08:59:04Z</time>
      </trkpt>
      <trkpt lat="47.31255" lon="0.11485">
        <ele>94.4</ele>
        <time>2012-08-15T08:59:06Z</time>
      </trkpt>
      <trkpt lat="47.31252" lon="0.11511">
        <ele>95.9</ele>
        <time>2012-08-15T08:59:14Z</time>
      </trkpt>
      <trkpt lat="47.3125" lon="0.1153">
        <ele>97.2</ele>
        <time>2012-08-15T08:59:20Z</time>
      </trkpt>
      <trkpt lat="47.31249" lon="0.11535">
        <ele>97.4</ele>
        <time>2012-08-15T08:59:21Z</time>
      </trkpt>
      <trkpt lat="47.31244" lon="0.11557">
        <ele>98.7</ele>
        <time>2012-08-15T08:59:28Z</time>
      </trkpt>
      <trkpt lat="47.31243" lon="0.11563">
        <ele>99</ele>
        <time>2012-08-15T08:59:30Z</time>
      </trkpt>
      <trkpt lat="47.31244" lon="0.1157">
        <ele>99.6</ele>
        <time>2012-08-15T08:59:33Z</time>
      </trkpt>
      <trkpt lat="47.31242" lon="0.11586">
        <ele>100.5</ele>
        <time>2012-08-15T08:59:38Z</time>
      </trkpt>
      <trkpt lat="47.31235" lon="0.11608">
        <ele>101.3</ele>
        <time>2012-08-15T08:59:45Z</time>
      </trkpt>
      <trkpt lat="47.31234" lon="0.11612">
        <ele>101.5</ele>
        <time>2012-08-15T08:59:46Z</time>
      </trkpt>
      <trkpt lat="47.31231" lon="0.11625">
        <ele>102.3</ele>
        <time>2012-08-15T08:59:52Z</time>
      </trkpt>
      <trkpt lat="47.31225" lon="0.11639">
        <ele>103.1</ele>
        <time>2012-08-15T08:59:58Z</time>
      </trkpt>
      <trkpt lat="47.3122" lon="0.1165">
        <ele>103.8</ele>
        <time>2012-08-15T09:00:03Z</time>
      </trkpt>
      <trkpt lat="47.31219" lon="0.11653">
        <ele>104.1</ele>
        <time>2012-08-15T09:00:04Z</time>
      </trkpt>
      <trkpt lat="47.3121" lon="0.11669">
        <ele>105.1</ele>
        <time>2012-08-15T09:00:10Z</time>
      </trkpt>
      <trkpt lat="47.31205" lon="0.11672">
        <ele>105.2</ele>
        <time>2012-08-15T09:00:12Z</time>
      </trkpt>
      <trkpt lat="47.312" lon="0.11679">
        <ele>105.4</ele>
        <time>2012-08-15T09:00:15Z</time>
      </trkpt>
      <trkpt lat="47.31189" lon="0.11694">
        <ele>106.4</ele>
        <time>2012-08-15T09:00:21Z</time>
      </trkpt>
      <trkpt lat="47.31184" lon="0.11701">
        <ele>106.9</ele>
        <time>2012-08-15T09:00:24Z</time>
      </trkpt>
      <trkpt lat="47.31171" lon="0.11716">
        <ele>107.8</ele>
        <time>2012-08-15T09:00:31Z</time>
      </trkpt>
      <trkpt lat="47.31169" lon="0.11718">
        <ele>107.9</ele>
        <time>2012-08-15T09:00:32Z</time>
      </trkpt>
      <trkpt lat="47.31154" lon="0.11728">
        <ele>108.9</ele>
        <time>2012-08-15T09:00:38Z</time>
      </trkpt>
      <trkpt lat="47.31138" lon="0.11737">
        <ele>110</ele>
        <time>2012-08-15T09:00:44Z</time>
      </trkpt>
      <trkpt lat="47.31128" lon="0.11749">
        <ele>110.4</ele>
        <time>2012-08-15T09:00:48Z</time>
      </trkpt>
      <trkpt lat="47.31126" lon="0.11752">
        <ele>110.4</ele>
        <time>2012-08-15T09:00:49Z</time>
      </trkpt>
      <trkpt lat="47.3112" lon="0.11776">
        <ele>110.4</ele>
        <time>2012-08-15T09:00:55Z</time>
      </trkpt>
      <trkpt lat="47.31114" lon="0.11794">
        <ele>110.3</ele>
        <time>2012-08-15T09:00:59Z</time>
      </trkpt>
      <trkpt lat="47.31112" lon="0.11796">
        <ele>110.3</ele>
        <time>2012-08-15T09:01:01Z</time>
      </trkpt>
      <trkpt lat="47.31106" lon="0.11786">
        <ele>110.9</ele>
        <time>2012-08-15T09:01:08Z</time>
      </trkpt>
      <trkpt lat="47.31092" lon="0.11762">
        <ele>111.7</ele>
        <time>2012-08-15T09:01:15Z</time>
      </trkpt>
      <trkpt lat="47.31083" lon="0.11741">
        <ele>111.7</ele>
        <time>2012-08-15T09:01:21Z</time>
      </trkpt>
      <trkpt lat="47.31068" lon="0.11714">
        <ele>111</ele>
        <time>2012-08-15T09:01:28Z</time>
      </trkpt>
      <trkpt lat="47.3105" lon="0.11683">
        <ele>110.7</ele>
        <time>2012-08-15T09:01:36Z</time>
      </trkpt>
      <trkpt lat="47.31045" lon="0.11675">
        <ele>110.6</ele>
        <time>2012-08-15T09:01:38Z</time>
      </trkpt>
      <trkpt lat="47.31026" lon="0.11642">
        <ele>110.1</ele>
        <time>2012-08-15T09:01:45Z</time>
      </trkpt>
      <trkpt lat="47.31019" lon="0.11629">
        <ele>109.4</ele>
        <time>2012-08-15T09:01:50Z</time>
      </trkpt>
      <trkpt lat="47.31011" lon="0.11617">
        <ele>108.9</ele>
        <time>2012-08-15T09:01:55Z</time>
      </trkpt>
      <trkpt lat="47.30994" lon="0.11603">
        <ele>108.9</ele>
        <time>2012-08-15T09:02:02Z</time>
      </trkpt>
      <trkpt lat="47.30985" lon="0.11594">
        <ele>108.9</ele>
        <time>2012-08-15T09:02:05Z</time>
      </trkpt>
      <trkpt lat="47.30964" lon="0.11578">
        <ele>109.6</ele>
        <time>2012-08-15T09:02:11Z</time>
      </trkpt>
      <trkpt lat="47.30953" lon="0.1157">
        <ele>110.4</ele>
        <time>2012-08-15T09:02:15Z</time>
      </trkpt>
      <trkpt lat="47.30942" lon="0.11563">
        <ele>111.1</ele>
        <time>2012-08-15T09:02:18Z</time>
      </trkpt>
      <trkpt lat="47.30915" lon="0.11543">
        <ele>112</ele>
        <time>2012-08-15T09:02:25Z</time>
      </trkpt>
      <trkpt lat="47.30895" lon="0.11527">
        <ele>112</ele>
        <time>2012-08-15T09:02:31Z</time>
      </trkpt>
      <trkpt lat="47.30875" lon="0.11511">
        <ele>112</ele>
        <time>2012-08-15T09:02:37Z</time>
      </trkpt>
      <trkpt lat="47.30857" lon="0.11491">
        <ele>111.9</ele>
        <time>2012-08-15T09:02:42Z</time>
      </trkpt>
      <trkpt lat="47.30853" lon="0.11487">
        <ele>111.7</ele>
        <time>2012-08-15T09:02:43Z</time>
      </trkpt>
      <trkpt lat="47.30838" lon="0.11467">
        <ele>111.2</ele>
        <time>2012-08-15T09:02:47Z</time>
      </trkpt>
      <trkpt lat="47.30819" lon="0.11438">
        <ele>110.5</ele>
        <time>2012-08-15T09:02:53Z</time>
      </trkpt>
      <trkpt lat="47.30802" lon="0.11413">
        <ele>109.7</ele>
        <time>2012-08-15T09:02:58Z</time>
      </trkpt>
      <trkpt lat="47.30777" lon="0.11383">
        <ele>107.9</ele>
        <time>2012-08-15T09:03:05Z</time>
      </trkpt>
      <trkpt lat="47.30768" lon="0.11377">
        <ele>106.9</ele>
        <time>2012-08-15T09:03:07Z</time>
      </trkpt>
      <trkpt lat="47.30746" lon="0.11363">
        <ele>104.8</ele>
        <time>2012-08-15T09:03:12Z</time>
      </trkpt>
      <trkpt lat="47.30742" lon="0.11362">
        <ele>104.7</ele>
        <time>2012-08-15T09:03:13Z</time>
      </trkpt>
      <trkpt lat="47.30733" lon="0.11359">
        <ele>104.5</ele>
        <time>2012-08-15T09:03:15Z</time>
      </trkpt>
      <trkpt lat="47.3072" lon="0.11346">
        <ele>104.6</ele>
        <time>2012-08-15T09:03:20Z</time>
      </trkpt>
      <trkpt lat="47.30718" lon="0.11343">
        <ele>104.8</ele>
        <time>2012-08-15T09:03:21Z</time>
      </trkpt>
      <trkpt lat="47.30711" lon="0.11332">
        <ele>105.5</ele>
        <time>2012-08-15T09:03:25Z</time>
      </trkpt>
      <trkpt lat="47.30703" lon="0.11323">
        <ele>106.4</ele>
        <time>2012-08-15T09:03:29Z</time>
      </trkpt>
      <trkpt lat="47.30695" lon="0.11311">
        <ele>107.6</ele>
        <time>2012-08-15T09:03:33Z</time>
      </trkpt>
      <trkpt lat="47.30683" lon="0.11296">
        <ele>109.4</ele>
        <time>2012-08-15T09:03:38Z</time>
      </trkpt>
      <trkpt lat="47.30667" lon="0.11275">
        <ele>111</ele>
        <time>2012-08-15T09:03:45Z</time>
      </trkpt>
      <trkpt lat="47.3065" lon="0.11253">
        <ele>111.5</ele>
        <time>2012-08-15T09:03:51Z</time>
      </trkpt>
      <trkpt lat="47.30637" lon="0.1124">
        <ele>112</ele>
        <time>2012-08-15T09:03:55Z</time>
      </trkpt>
      <trkpt lat="47.30612" lon="0.11218">
        <ele>111.9</ele>
        <time>2012-08-15T09:04:01Z</time>
      </trkpt>
      <trkpt lat="47.3059" lon="0.1119">
        <ele>110.7</ele>
        <time>2012-08-15T09:04:07Z</time>
      </trkpt>
      <trkpt lat="47.30576" lon="0.11162">
        <ele>108.6</ele>
        <time>2012-08-15T09:04:12Z</time>
      </trkpt>
      <trkpt lat="47.30567" lon="0.11147">
        <ele>107.2</ele>
        <time>2012-08-15T09:04:15Z</time>
      </trkpt>
      <trkpt lat="47.30554" lon="0.11127">
        <ele>104.4</ele>
        <time>2012-08-15T09:04:18Z</time>
      </trkpt>
      <trkpt lat="47.30517" lon="0.1108">
        <ele>100.7</ele>
        <time>2012-08-15T09:04:25Z</time>
      </trkpt>
      <trkpt lat="47.30513" lon="0.11073">
        <ele>100.3</ele>
        <time>2012-08-15T09:04:26Z</time>
      </trkpt>
      <trkpt lat="47.30492" lon="0.11054">
        <ele>100.4</ele>
        <time>2012-08-15T09:04:31Z</time>
      </trkpt>
      <trkpt lat="47.30484" lon="0.11048">
        <ele>100.2</ele>
        <time>2012-08-15T09:04:33Z</time>
      </trkpt>
      <trkpt lat="47.30462" lon="0.11021">
        <ele>99.7</ele>
        <time>2012-08-15T09:04:39Z</time>
      </trkpt>
      <trkpt lat="47.3046" lon="0.10999">
        <ele>97.7</ele>
        <time>2012-08-15T09:04:42Z</time>
      </trkpt>
      <trkpt lat="47.3046" lon="0.10991">
        <ele>97</ele>
        <time>2012-08-15T09:04:43Z</time>
      </trkpt>
      <trkpt lat="47.30454" lon="0.10958">
        <ele>94.9</ele>
        <time>2012-08-15T09:04:47Z</time>
      </trkpt>
      <trkpt lat="47.30447" lon="0.10937">
        <ele>93.9</ele>
        <time>2012-08-15T09:04:49Z</time>
      </trkpt>
      <trkpt lat="47.30433" lon="0.10894">
        <ele>90.4</ele>
        <time>2012-08-15T09:04:53Z</time>
      </trkpt>
      <trkpt lat="47.30413" lon="0.10867">
        <ele>87.5</ele>
        <time>2012-08-15T09:04:57Z</time>
      </trkpt>
      <trkpt lat="47.30408" lon="0.10863">
        <ele>86.9</ele>
        <time>2012-08-15T09:04:58Z</time>
      </trkpt>
      <trkpt lat="47.30385" lon="0.10842">
        <ele>84.3</ele>
        <time>2012-08-15T09:05:03Z</time>
      </trkpt>
      <trkpt lat="47.30381" lon="0.10836">
        <ele>83.6</ele>
        <time>2012-08-15T09:05:08Z</time>
      </trkpt>
      <trkpt lat="47.3038" lon="0.10832">
        <ele>83.3</ele>
        <time>2012-08-15T09:05:40Z</time>
      </trkpt>
      <trkpt lat="47.3038" lon="0.10832">
        <ele>83.3</ele>
        <time>2012-08-15T09:05:43Z</time>
      </trkpt>
      <trkpt lat="47.3038" lon="0.10832">
        <ele>83.3</ele>
        <time>2012-08-15T09:06:01Z</time>
      </trkpt>
      <trkpt lat="47.30377" lon="0.1083">
        <ele>83</ele>
        <time>2012-08-15T09:06:23Z</time>
      </trkpt>
      <trkpt lat="47.30376" lon="0.10828">
        <ele>82.8</ele>
        <time>2012-08-15T09:06:56Z</time>
      </trkpt>
      <trkpt lat="47.30375" lon="0.10828">
        <ele>82.7</ele>
        <time>2012-08-15T09:06:59Z</time>
      </trkpt>
      <trkpt lat="47.30369" lon="0.10823">
        <ele>81.9</ele>
        <time>2012-08-15T09:07:03Z</time>
      </trkpt>
      <trkpt lat="47.30346" lon="0.10803">
        <ele>78.3</ele>
        <time>2012-08-15T09:07:11Z</time>
      </trkpt>
      <trkpt lat="47.30344" lon="0.10796">
        <ele>77.8</ele>
        <time>2012-08-15T09:07:13Z</time>
      </trkpt>
      <trkpt lat="47.30347" lon="0.10777">
        <ele>77.5</ele>
        <time>2012-08-15T09:07:19Z</time>
      </trkpt>
      <trkpt lat="47.30351" lon="0.10748">
        <ele>77.2</ele>
        <time>2012-08-15T09:07:25Z</time>
      </trkpt>
      <trkpt lat="47.30358" lon="0.10708">
        <ele>76.3</ele>
        <time>2012-08-15T09:07:32Z</time>
      </trkpt>
      <trkpt lat="47.30359" lon="0.10702">
        <ele>76.1</ele>
        <time>2012-08-15T09:07:33Z</time>
      </trkpt>
      <trkpt lat="47.30367" lon="0.10679">
        <ele>75.8</ele>
        <time>2012-08-15T09:07:37Z</time>
      </trkpt>
      <trkpt lat="47.30389" lon="0.10642">
        <ele>75.1</ele>
        <time>2012-08-15T09:07:44Z</time>
      </trkpt>
      <trkpt lat="47.30411" lon="0.10606">
        <ele>74</ele>
        <time>2012-08-15T09:07:51Z</time>
      </trkpt>
      <trkpt lat="47.30418" lon="0.10588">
        <ele>74.1</ele>
        <time>2012-08-15T09:07:54Z</time>
      </trkpt>
      <trkpt lat="47.30425" lon="0.1055">
        <ele>75.8</ele>
        <time>2012-08-15T09:08:01Z</time>
      </trkpt>
      <trkpt lat="47.30431" lon="0.10511">
        <ele>77</ele>
        <time>2012-08-15T09:08:10Z</time>
      </trkpt>
      <trkpt lat="47.30436" lon="0.10473">
        <ele>78.4</ele>
        <time>2012-08-15T09:08:19Z</time>
      </trkpt>
      <trkpt lat="47.30439" lon="0.10443">
        <ele>80.5</ele>
        <time>2012-08-15T09:08:27Z</time>
      </trkpt>
      <trkpt lat="47.30442" lon="0.10416">
        <ele>81.8</ele>
        <time>2012-08-15T09:08:35Z</time>
      </trkpt>
      <trkpt lat="47.3045" lon="0.10406">
        <ele>82.9</ele>
        <time>2012-08-15T09:08:42Z</time>
      </trkpt>
      <trkpt lat="47.30457" lon="0.104">
        <ele>83.7</ele>
        <time>2012-08-15T09:08:48Z</time>
      </trkpt>
      <trkpt lat="47.30465" lon="0.10391">
        <ele>84.5</ele>
        <time>2012-08-15T09:08:55Z</time>
      </trkpt>
      <trkpt lat="47.30477" lon="0.10378">
        <ele>85.6</ele>
        <time>2012-08-15T09:09:03Z</time>
      </trkpt>
      <trkpt lat="47.30481" lon="0.10373">
        <ele>86.1</ele>
        <time>2012-08-15T09:09:06Z</time>
      </trkpt>
      <trkpt lat="47.30493" lon="0.10356">
        <ele>87.1</ele>
        <time>2012-08-15T09:09:14Z</time>
      </trkpt>
      <trkpt lat="47.30501" lon="0.10337">
        <ele>87.3</ele>
        <time>2012-08-15T09:09:20Z</time>
      </trkpt>
      <trkpt lat="47.30514" lon="0.10308">
        <ele>87.6</ele>
        <time>2012-08-15T09:09:29Z</time>
      </trkpt>
      <trkpt lat="47.30531" lon="0.1028">
        <ele>87.7</ele>
        <time>2012-08-15T09:09:38Z</time>
      </trkpt>
      <trkpt lat="47.30542" lon="0.10261">
        <ele>88.3</ele>
        <time>2012-08-15T09:09:46Z</time>
      </trkpt>
      <trkpt lat="47.30548" lon="0.10249">
        <ele>88.1</ele>
        <time>2012-08-15T09:09:53Z</time>
      </trkpt>
      <trkpt lat="47.30548" lon="0.1025">
        <ele>88.2</ele>
        <time>2012-08-15T09:10:00Z</time>
      </trkpt>
      <trkpt lat="47.30548" lon="0.1025">
        <ele>88.2</ele>
        <time>2012-08-15T09:10:19Z</time>
      </trkpt>
      <trkpt lat="47.30548" lon="0.10248">
        <ele>88.1</ele>
        <time>2012-08-15T09:10:30Z</time>
      </trkpt>
      <trkpt lat="47.30554" lon="0.10237">
        <ele>88.4</ele>
        <time>2012-08-15T09:10:36Z</time>
      </trkpt>
      <trkpt lat="47.30568" lon="0.10219">
        <ele>89.1</ele>
        <time>2012-08-15T09:10:44Z</time>
      </trkpt>
      <trkpt lat="47.30586" lon="0.10202">
        <ele>89.8</ele>
        <time>2012-08-15T09:10:52Z</time>
      </trkpt>
      <trkpt lat="47.30598" lon="0.10184">
        <ele>89.5</ele>
        <time>2012-08-15T09:10:59Z</time>
      </trkpt>
      <trkpt lat="47.306" lon="0.1018">
        <ele>89.4</ele>
        <time>2012-08-15T09:11:01Z</time>
      </trkpt>
      <trkpt lat="47.30621" lon="0.10166">
        <ele>89.3</ele>
        <time>2012-08-15T09:11:09Z</time>
      </trkpt>
      <trkpt lat="47.30625" lon="0.10164">
        <ele>89.4</ele>
        <time>2012-08-15T09:11:10Z</time>
      </trkpt>
      <trkpt lat="47.3066" lon="0.10141">
        <ele>86.7</ele>
        <time>2012-08-15T09:11:17Z</time>
      </trkpt>
      <trkpt lat="47.30667" lon="0.10136">
        <ele>86</ele>
        <time>2012-08-15T09:11:18Z</time>
      </trkpt>
      <trkpt lat="47.30679" lon="0.10128">
        <ele>85.4</ele>
        <time>2012-08-15T09:11:20Z</time>
      </trkpt>
      <trkpt lat="47.30696" lon="0.10114">
        <ele>84</ele>
        <time>2012-08-15T09:11:24Z</time>
      </trkpt>
      <trkpt lat="47.30699" lon="0.10108">
        <ele>83.7</ele>
        <time>2012-08-15T09:11:30Z</time>
      </trkpt>
      <trkpt lat="47.30701" lon="0.10104">
        <ele>83.5</ele>
        <time>2012-08-15T09:11:39Z</time>
      </trkpt>
      <trkpt lat="47.30709" lon="0.10095">
        <ele>82.6</ele>
        <time>2012-08-15T09:11:44Z</time>
      </trkpt>
      <trkpt lat="47.30714" lon="0.10087">
        <ele>82</ele>
        <time>2012-08-15T09:11:46Z</time>
      </trkpt>
      <trkpt lat="47.30722" lon="0.10074">
        <ele>80.7</ele>
        <time>2012-08-15T09:11:49Z</time>
      </trkpt>
      <trkpt lat="47.30728" lon="0.10065">
        <ele>79.6</ele>
        <time>2012-08-15T09:11:51Z</time>
      </trkpt>
      <trkpt lat="47.30745" lon="0.10043">
        <ele>76.3</ele>
        <time>2012-08-15T09:11:55Z</time>
      </trkpt>
      <trkpt lat="47.3075" lon="0.10036">
        <ele>75.3</ele>
        <time>2012-08-15T09:11:56Z</time>
      </trkpt>
      <trkpt lat="47.30776" lon="0.09982">
        <ele>70.5</ele>
        <time>2012-08-15T09:12:02Z</time>
      </trkpt>
      <trkpt lat="47.30782" lon="0.09959">
        <ele>68.8</ele>
        <time>2012-08-15T09:12:04Z</time>
      </trkpt>
      <trkpt lat="47.30787" lon="0.0994">
        <ele>67.5</ele>
        <time>2012-08-15T09:12:06Z</time>
      </trkpt>
      <trkpt lat="47.30793" lon="0.09923">
        <ele>66.3</ele>
        <time>2012-08-15T09:12:08Z</time>
      </trkpt>
      <trkpt lat="47.30799" lon="0.09906">
        <ele>64.8</ele>
        <time>2012-08-15T09:12:10Z</time>
      </trkpt>
      <trkpt lat="47.30801" lon="0.09899">
        <ele>64.2</ele>
        <time>2012-08-15T09:12:11Z</time>
      </trkpt>
      <trkpt lat="47.30813" lon="0.09891">
        <ele>63.1</ele>
        <time>2012-08-15T09:12:15Z</time>
      </trkpt>
      <trkpt lat="47.30817" lon="0.09892">
        <ele>63.2</ele>
        <time>2012-08-15T09:12:17Z</time>
      </trkpt>
      <trkpt lat="47.30822" lon="0.09897">
        <ele>63.4</ele>
        <time>2012-08-15T09:12:20Z</time>
      </trkpt>
      <trkpt lat="47.30834" lon="0.09904">
        <ele>63.6</ele>
        <time>2012-08-15T09:12:25Z</time>
      </trkpt>
      <trkpt lat="47.30847" lon="0.09914">
        <ele>64.4</ele>
        <time>2012-08-15T09:12:30Z</time>
      </trkpt>
      <trkpt lat="47.3087" lon="0.09929">
        <ele>65.3</ele>
        <time>2012-08-15T09:12:38Z</time>
      </trkpt>
      <trkpt lat="47.30876" lon="0.09922">
        <ele>64.8</ele>
        <time>2012-08-15T09:12:42Z</time>
      </trkpt>
      <trkpt lat="47.30887" lon="0.09887">
        <ele>63</ele>
        <time>2012-08-15T09:12:49Z</time>
      </trkpt>
      <trkpt lat="47.30899" lon="0.09858">
        <ele>61.5</ele>
        <time>2012-08-15T09:12:54Z</time>
      </trkpt>
      <trkpt lat="47.30915" lon="0.09822">
        <ele>58.3</ele>
        <time>2012-08-15T09:12:59Z</time>
      </trkpt>
      <trkpt lat="47.30932" lon="0.09786">
        <ele>53.9</ele>
        <time>2012-08-15T09:13:03Z</time>
      </trkpt>
      <trkpt lat="47.30936" lon="0.09778">
        <ele>52.9</ele>
        <time>2012-08-15T09:13:04Z</time>
      </trkpt>
      <trkpt lat="47.3095" lon="0.09754">
        <ele>49.7</ele>
        <time>2012-08-15T09:13:09Z</time>
      </trkpt>
      <trkpt lat="47.30944" lon="0.09726">
        <ele>48.3</ele>
        <time>2012-08-15T09:13:15Z</time>
      </trkpt>
      <trkpt lat="47.30937" lon="0.09695">
        <ele>47.6</ele>
        <time>2012-08-15T09:13:20Z</time>
      </trkpt>
      <trkpt lat="47.30936" lon="0.09688">
        <ele>47.3</ele>
        <time>2012-08-15T09:13:21Z</time>
      </trkpt>
      <trkpt lat="47.30931" lon="0.09669">
        <ele>46.6</ele>
        <time>2012-08-15T09:13:24Z</time>
      </trkpt>
      <trkpt lat="47.30929" lon="0.09662">
        <ele>46.5</ele>
        <time>2012-08-15T09:13:25Z</time>
      </trkpt>
      <trkpt lat="47.30917" lon="0.09596">
        <ele>46</ele>
        <time>2012-08-15T09:13:35Z</time>
      </trkpt>
      <trkpt lat="47.30908" lon="0.09551">
        <ele>45.4</ele>
        <time>2012-08-15T09:13:43Z</time>
      </trkpt>
      <trkpt lat="47.309" lon="0.09507">
        <ele>45.8</ele>
        <time>2012-08-15T09:13:51Z</time>
      </trkpt>
      <trkpt lat="47.30893" lon="0.09472">
        <ele>46.2</ele>
        <time>2012-08-15T09:13:57Z</time>
      </trkpt>
      <trkpt lat="47.30886" lon="0.09442">
        <ele>46</ele>
        <time>2012-08-15T09:14:02Z</time>
      </trkpt>
      <trkpt lat="47.30876" lon="0.09389">
        <ele>47.6</ele>
        <time>2012-08-15T09:14:11Z</time>
      </trkpt>
      <trkpt lat="47.30863" lon="0.09327">
        <ele>48.1</ele>
        <time>2012-08-15T09:14:21Z</time>
      </trkpt>
      <trkpt lat="47.30854" lon="0.09277">
        <ele>48.3</ele>
        <time>2012-08-15T09:14:29Z</time>
      </trkpt>
      <trkpt lat="47.30854" lon="0.0927">
        <ele>48.5</ele>
        <time>2012-08-15T09:14:30Z</time>
      </trkpt>
      <trkpt lat="47.30848" lon="0.0922">
        <ele>49.1</ele>
        <time>2012-08-15T09:14:38Z</time>
      </trkpt>
      <trkpt lat="47.30847" lon="0.09214">
        <ele>49.3</ele>
        <time>2012-08-15T09:14:39Z</time>
      </trkpt>
      <trkpt lat="47.30839" lon="0.09159">
        <ele>49.8</ele>
        <time>2012-08-15T09:14:48Z</time>
      </trkpt>
      <trkpt lat="47.30831" lon="0.09119">
        <ele>50.5</ele>
        <time>2012-08-15T09:14:56Z</time>
      </trkpt>
      <trkpt lat="47.30832" lon="0.09116">
        <ele>50.7</ele>
        <time>2012-08-15T09:14:57Z</time>
      </trkpt>
      <trkpt lat="47.30833" lon="0.09113">
        <ele>50.9</ele>
        <time>2012-08-15T09:14:58Z</time>
      </trkpt>
      <trkpt lat="47.30835" lon="0.09112">
        <ele>51.1</ele>
        <time>2012-08-15T09:14:59Z</time>
      </trkpt>
      <trkpt lat="47.30837" lon="0.09111">
        <ele>51.3</ele>
        <time>2012-08-15T09:15:00Z</time>
      </trkpt>
      <trkpt lat="47.30839" lon="0.0911">
        <ele>51.4</ele>
        <time>2012-08-15T09:15:01Z</time>
      </trkpt>
      <trkpt lat="47.30842" lon="0.09109">
        <ele>51.7</ele>
        <time>2012-08-15T09:15:02Z</time>
      </trkpt>
      <trkpt lat="47.30845" lon="0.09108">
        <ele>51.9</ele>
        <time>2012-08-15T09:15:03Z</time>
      </trkpt>
      <trkpt lat="47.30847" lon="0.09106">
        <ele>52.1</ele>
        <time>2012-08-15T09:15:04Z</time>
      </trkpt>
      <trkpt lat="47.3085" lon="0.09104">
        <ele>52.3</ele>
        <time>2012-08-15T09:15:05Z</time>
      </trkpt>
      <trkpt lat="47.30872" lon="0.0909">
        <ele>54.1</ele>
        <time>2012-08-15T09:15:13Z</time>
      </trkpt>
      <trkpt lat="47.30893" lon="0.09075">
        <ele>56.2</ele>
        <time>2012-08-15T09:15:22Z</time>
      </trkpt>
      <trkpt lat="47.30915" lon="0.09058">
        <ele>57.8</ele>
        <time>2012-08-15T09:15:31Z</time>
      </trkpt>
      <trkpt lat="47.30941" lon="0.0904">
        <ele>59.4</ele>
        <time>2012-08-15T09:15:42Z</time>
      </trkpt>
      <trkpt lat="47.30959" lon="0.09027">
        <ele>60.5</ele>
        <time>2012-08-15T09:15:50Z</time>
      </trkpt>
      <trkpt lat="47.30977" lon="0.09016">
        <ele>61.7</ele>
        <time>2012-08-15T09:15:58Z</time>
      </trkpt>
      <trkpt lat="47.30991" lon="0.09005">
        <ele>62.6</ele>
        <time>2012-08-15T09:16:04Z</time>
      </trkpt>
      <trkpt lat="47.3101" lon="0.08991">
        <ele>63.9</ele>
        <time>2012-08-15T09:16:12Z</time>
      </trkpt>
      <trkpt lat="47.31034" lon="0.08976">
        <ele>65.4</ele>
        <time>2012-08-15T09:16:21Z</time>
      </trkpt>
      <trkpt lat="47.31051" lon="0.08957">
        <ele>66.8</ele>
        <time>2012-08-15T09:16:29Z</time>
      </trkpt>
      <trkpt lat="47.3106" lon="0.0894">
        <ele>67.5</ele>
        <time>2012-08-15T09:16:35Z</time>
      </trkpt>
      <trkpt lat="47.31068" lon="0.08915">
        <ele>68.8</ele>
        <time>2012-08-15T09:16:42Z</time>
      </trkpt>
      <trkpt lat="47.3108" lon="0.08888">
        <ele>68.8</ele>
        <time>2012-08-15T09:16:49Z</time>
      </trkpt>
      <trkpt lat="47.3109" lon="0.08874">
        <ele>69.5</ele>
        <time>2012-08-15T09:16:54Z</time>
      </trkpt>
      <trkpt lat="47.31097" lon="0.08856">
        <ele>69.9</ele>
        <time>2012-08-15T09:16:59Z</time>
      </trkpt>
      <trkpt lat="47.31116" lon="0.08826">
        <ele>70.5</ele>
        <time>2012-08-15T09:17:07Z</time>
      </trkpt>
      <trkpt lat="47.3113" lon="0.08806">
        <ele>71.4</ele>
        <time>2012-08-15T09:17:13Z</time>
      </trkpt>
      <trkpt lat="47.31145" lon="0.08787">
        <ele>72.7</ele>
        <time>2012-08-15T09:17:19Z</time>
      </trkpt>
      <trkpt lat="47.31148" lon="0.08785">
        <ele>73</ele>
        <time>2012-08-15T09:17:20Z</time>
      </trkpt>
      <trkpt lat="47.31169" lon="0.08745">
        <ele>74.1</ele>
        <time>2012-08-15T09:17:29Z</time>
      </trkpt>
      <trkpt lat="47.31187" lon="0.08722">
        <ele>75.2</ele>
        <time>2012-08-15T09:17:36Z</time>
      </trkpt>
      <trkpt lat="47.312" lon="0.08711">
        <ele>75.7</ele>
        <time>2012-08-15T09:17:41Z</time>
      </trkpt>
      <trkpt lat="47.31222" lon="0.08688">
        <ele>76.5</ele>
        <time>2012-08-15T09:17:48Z</time>
      </trkpt>
      <trkpt lat="47.31246" lon="0.08659">
        <ele>76.2</ele>
        <time>2012-08-15T09:17:55Z</time>
      </trkpt>
      <trkpt lat="47.31262" lon="0.08637">
        <ele>76.2</ele>
        <time>2012-08-15T09:18:00Z</time>
      </trkpt>
      <trkpt lat="47.3128" lon="0.08614">
        <ele>76.4</ele>
        <time>2012-08-15T09:18:05Z</time>
      </trkpt>
      <trkpt lat="47.31314" lon="0.08582">
        <ele>76.5</ele>
        <time>2012-08-15T09:18:14Z</time>
      </trkpt>
      <trkpt lat="47.31317" lon="0.08578">
        <ele>76.4</ele>
        <time>2012-08-15T09:18:15Z</time>
      </trkpt>
      <trkpt lat="47.31331" lon="0.08566">
        <ele>76.6</ele>
        <time>2012-08-15T09:18:19Z</time>
      </trkpt>
      <trkpt lat="47.31353" lon="0.08548">
        <ele>76.1</ele>
        <time>2012-08-15T09:18:26Z</time>
      </trkpt>
      <trkpt lat="47.31376" lon="0.08528">
        <ele>76.6</ele>
        <time>2012-08-15T09:18:33Z</time>
      </trkpt>
      <trkpt lat="47.31397" lon="0.0851">
        <ele>77</ele>
        <time>2012-08-15T09:18:40Z</time>
      </trkpt>
      <trkpt lat="47.31406" lon="0.08502">
        <ele>77.1</ele>
        <time>2012-08-15T09:18:46Z</time>
      </trkpt>
      <trkpt lat="47.31408" lon="0.08498">
        <ele>76.9</ele>
        <time>2012-08-15T09:19:50Z</time>
      </trkpt>
      <trkpt lat="47.31417" lon="0.08487">
        <ele>76.6</ele>
        <time>2012-08-15T09:19:56Z</time>
      </trkpt>
      <trkpt lat="47.3142" lon="0.08485">
        <ele>76.5</ele>
        <time>2012-08-15T09:19:57Z</time>
      </trkpt>
      <trkpt lat="47.31449" lon="0.08472">
        <ele>76</ele>
        <time>2012-08-15T09:20:03Z</time>
      </trkpt>
      <trkpt lat="47.31472" lon="0.08461">
        <ele>75.2</ele>
        <time>2012-08-15T09:20:08Z</time>
      </trkpt>
      <trkpt lat="47.31477" lon="0.0846">
        <ele>75.1</ele>
        <time>2012-08-15T09:20:09Z</time>
      </trkpt>
      <trkpt lat="47.31509" lon="0.08446">
        <ele>74.1</ele>
        <time>2012-08-15T09:20:16Z</time>
      </trkpt>
      <trkpt lat="47.31541" lon="0.08438">
        <ele>73.2</ele>
        <time>2012-08-15T09:20:23Z</time>
      </trkpt>
      <trkpt lat="47.31569" lon="0.08434">
        <ele>72.4</ele>
        <time>2012-08-15T09:20:29Z</time>
      </trkpt>
      <trkpt lat="47.31593" lon="0.0843">
        <ele>71.8</ele>
        <time>2012-08-15T09:20:34Z</time>
      </trkpt>
      <trkpt lat="47.3163" lon="0.08424">
        <ele>71.3</ele>
        <time>2012-08-15T09:20:42Z</time>
      </trkpt>
      <trkpt lat="47.3165" lon="0.08419">
        <ele>70.7</ele>
        <time>2012-08-15T09:20:47Z</time>
      </trkpt>
      <trkpt lat="47.31663" lon="0.08415">
        <ele>70.1</ele>
        <time>2012-08-15T09:20:50Z</time>
      </trkpt>
      <trkpt lat="47.31686" lon="0.08407">
        <ele>69.2</ele>
        <time>2012-08-15T09:20:55Z</time>
      </trkpt>
      <trkpt lat="47.31718" lon="0.08392">
        <ele>68.2</ele>
        <time>2012-08-15T09:21:02Z</time>
      </trkpt>
      <trkpt lat="47.31741" lon="0.08379">
        <ele>67</ele>
        <time>2012-08-15T09:21:07Z</time>
      </trkpt>
      <trkpt lat="47.31772" lon="0.08365">
        <ele>65.3</ele>
        <time>2012-08-15T09:21:12Z</time>
      </trkpt>
      <trkpt lat="47.318" lon="0.08356">
        <ele>64.1</ele>
        <time>2012-08-15T09:21:16Z</time>
      </trkpt>
      <trkpt lat="47.31813" lon="0.0835">
        <ele>63.3</ele>
        <time>2012-08-15T09:21:18Z</time>
      </trkpt>
      <trkpt lat="47.31831" lon="0.08333">
        <ele>62.1</ele>
        <time>2012-08-15T09:21:21Z</time>
      </trkpt>
      <trkpt lat="47.31837" lon="0.08327">
        <ele>62</ele>
        <time>2012-08-15T09:21:22Z</time>
      </trkpt>
      <trkpt lat="47.31861" lon="0.08285">
        <ele>60.3</ele>
        <time>2012-08-15T09:21:28Z</time>
      </trkpt>
      <trkpt lat="47.31867" lon="0.08273">
        <ele>60</ele>
        <time>2012-08-15T09:21:30Z</time>
      </trkpt>
      <trkpt lat="47.31878" lon="0.08246">
        <ele>59.3</ele>
        <time>2012-08-15T09:21:34Z</time>
      </trkpt>
      <trkpt lat="47.31891" lon="0.08218">
        <ele>58.8</ele>
        <time>2012-08-15T09:21:37Z</time>
      </trkpt>
      <trkpt lat="47.31916" lon="0.08171">
        <ele>56.2</ele>
        <time>2012-08-15T09:21:43Z</time>
      </trkpt>
      <trkpt lat="47.31927" lon="0.08156">
        <ele>56.2</ele>
        <time>2012-08-15T09:21:46Z</time>
      </trkpt>
      <trkpt lat="47.31946" lon="0.08127">
        <ele>56.1</ele>
        <time>2012-08-15T09:21:52Z</time>
      </trkpt>
      <trkpt lat="47.31947" lon="0.08121">
        <ele>56.1</ele>
        <time>2012-08-15T09:21:53Z</time>
      </trkpt>
      <trkpt lat="47.31958" lon="0.08084">
        <ele>56.5</ele>
        <time>2012-08-15T09:21:59Z</time>
      </trkpt>
      <trkpt lat="47.3196" lon="0.08078">
        <ele>56.6</ele>
        <time>2012-08-15T09:22:00Z</time>
      </trkpt>
      <trkpt lat="47.31962" lon="0.08072">
        <ele>56.6</ele>
        <time>2012-08-15T09:22:01Z</time>
      </trkpt>
      <trkpt lat="47.3197" lon="0.08034">
        <ele>57.7</ele>
        <time>2012-08-15T09:22:08Z</time>
      </trkpt>
      <trkpt lat="47.31977" lon="0.07996">
        <ele>58.3</ele>
        <time>2012-08-15T09:22:15Z</time>
      </trkpt>
      <trkpt lat="47.31985" lon="0.0797">
        <ele>59</ele>
        <time>2012-08-15T09:22:20Z</time>
      </trkpt>
      <trkpt lat="47.31992" lon="0.07932">
        <ele>59.8</ele>
        <time>2012-08-15T09:22:27Z</time>
      </trkpt>
      <trkpt lat="47.31999" lon="0.07891">
        <ele>60</ele>
        <time>2012-08-15T09:22:34Z</time>
      </trkpt>
      <trkpt lat="47.32006" lon="0.07856">
        <ele>61.2</ele>
        <time>2012-08-15T09:22:41Z</time>
      </trkpt>
      <trkpt lat="47.32011" lon="0.07833">
        <ele>62</ele>
        <time>2012-08-15T09:22:45Z</time>
      </trkpt>
      <trkpt lat="47.32012" lon="0.07828">
        <ele>62.2</ele>
        <time>2012-08-15T09:22:46Z</time>
      </trkpt>
      <trkpt lat="47.32013" lon="0.07823">
        <ele>62.4</ele>
        <time>2012-08-15T09:22:47Z</time>
      </trkpt>
      <trkpt lat="47.32015" lon="0.07818">
        <ele>62.6</ele>
        <time>2012-08-15T09:22:48Z</time>
      </trkpt>
      <trkpt lat="47.32018" lon="0.07812">
        <ele>62.8</ele>
        <time>2012-08-15T09:22:49Z</time>
      </trkpt>
      <trkpt lat="47.32019" lon="0.07806">
        <ele>63</ele>
        <time>2012-08-15T09:22:50Z</time>
      </trkpt>
      <trkpt lat="47.32019" lon="0.078">
        <ele>63.2</ele>
        <time>2012-08-15T09:22:51Z</time>
      </trkpt>
      <trkpt lat="47.32019" lon="0.07795">
        <ele>63.4</ele>
        <time>2012-08-15T09:22:52Z</time>
      </trkpt>
      <trkpt lat="47.3202" lon="0.07788">
        <ele>63.6</ele>
        <time>2012-08-15T09:22:54Z</time>
      </trkpt>
      <trkpt lat="47.3202" lon="0.07785">
        <ele>63.7</ele>
        <time>2012-08-15T09:22:55Z</time>
      </trkpt>
      <trkpt lat="47.32019" lon="0.07783">
        <ele>63.8</ele>
        <time>2012-08-15T09:22:56Z</time>
      </trkpt>
      <trkpt lat="47.32018" lon="0.07782">
        <ele>63.8</ele>
        <time>2012-08-15T09:22:57Z</time>
      </trkpt>
      <trkpt lat="47.32016" lon="0.07781">
        <ele>63.9</ele>
        <time>2012-08-15T09:22:58Z</time>
      </trkpt>
      <trkpt lat="47.32014" lon="0.07781">
        <ele>63.9</ele>
        <time>2012-08-15T09:22:59Z</time>
      </trkpt>
      <trkpt lat="47.32011" lon="0.0778">
        <ele>63.9</ele>
        <time>2012-08-15T09:23:00Z</time>
      </trkpt>
      <trkpt lat="47.32008" lon="0.0778">
        <ele>63.9</ele>
        <time>2012-08-15T09:23:01Z</time>
      </trkpt>
      <trkpt lat="47.31984" lon="0.0778">
        <ele>63.3</ele>
        <time>2012-08-15T09:23:08Z</time>
      </trkpt>
      <trkpt lat="47.3196" lon="0.07781">
        <ele>62.5</ele>
        <time>2012-08-15T09:23:15Z</time>
      </trkpt>
      <trkpt lat="47.31935" lon="0.0778">
        <ele>62</ele>
        <time>2012-08-15T09:23:21Z</time>
      </trkpt>
      <trkpt lat="47.31906" lon="0.07778">
        <ele>61.6</ele>
        <time>2012-08-15T09:23:28Z</time>
      </trkpt>
      <trkpt lat="47.31879" lon="0.07773">
        <ele>60.7</ele>
        <time>2012-08-15T09:23:36Z</time>
      </trkpt>
      <trkpt lat="47.31862" lon="0.07766">
        <ele>60.4</ele>
        <time>2012-08-15T09:23:41Z</time>
      </trkpt>
      <trkpt lat="47.3186" lon="0.07764">
        <ele>60.5</ele>
        <time>2012-08-15T09:23:42Z</time>
      </trkpt>
      <trkpt lat="47.31859" lon="0.0776">
        <ele>60.6</ele>
        <time>2012-08-15T09:23:43Z</time>
      </trkpt>
      <trkpt lat="47.31861" lon="0.0775">
        <ele>61</ele>
        <time>2012-08-15T09:23:46Z</time>
      </trkpt>
      <trkpt lat="47.31861" lon="0.07738">
        <ele>61</ele>
        <time>2012-08-15T09:23:51Z</time>
      </trkpt>
      <trkpt lat="47.31862" lon="0.07736">
        <ele>61</ele>
        <time>2012-08-15T09:23:52Z</time>
      </trkpt>
      <trkpt lat="47.31872" lon="0.07718">
        <ele>61.5</ele>
        <time>2012-08-15T09:23:58Z</time>
      </trkpt>
      <trkpt lat="47.31884" lon="0.07698">
        <ele>62.7</ele>
        <time>2012-08-15T09:24:04Z</time>
      </trkpt>
      <trkpt lat="47.31901" lon="0.0768">
        <ele>64</ele>
        <time>2012-08-15T09:24:10Z</time>
      </trkpt>
      <trkpt lat="47.31917" lon="0.07665">
        <ele>65.1</ele>
        <time>2012-08-15T09:24:16Z</time>
      </trkpt>
      <trkpt lat="47.31932" lon="0.07655">
        <ele>65.7</ele>
        <time>2012-08-15T09:24:21Z</time>
      </trkpt>
      <trkpt lat="47.31944" lon="0.07638">
        <ele>66</ele>
        <time>2012-08-15T09:24:26Z</time>
      </trkpt>
      <trkpt lat="47.31965" lon="0.07601">
        <ele>67.7</ele>
        <time>2012-08-15T09:24:35Z</time>
      </trkpt>
      <trkpt lat="47.31978" lon="0.07574">
        <ele>68.8</ele>
        <time>2012-08-15T09:24:41Z</time>
      </trkpt>
      <trkpt lat="47.31988" lon="0.07552">
        <ele>70.3</ele>
        <time>2012-08-15T09:24:46Z</time>
      </trkpt>
      <trkpt lat="47.31998" lon="0.07509">
        <ele>71.9</ele>
        <time>2012-08-15T09:24:55Z</time>
      </trkpt>
      <trkpt lat="47.32008" lon="0.07484">
        <ele>73.2</ele>
        <time>2012-08-15T09:25:02Z</time>
      </trkpt>
      <trkpt lat="47.32009" lon="0.07481">
        <ele>73.3</ele>
        <time>2012-08-15T09:25:03Z</time>
      </trkpt>
      <trkpt lat="47.32021" lon="0.07454">
        <ele>75.2</ele>
        <time>2012-08-15T09:25:11Z</time>
      </trkpt>
      <trkpt lat="47.32031" lon="0.07424">
        <ele>77</ele>
        <time>2012-08-15T09:25:20Z</time>
      </trkpt>
      <trkpt lat="47.32037" lon="0.07401">
        <ele>77.7</ele>
        <time>2012-08-15T09:25:27Z</time>
      </trkpt>
      <trkpt lat="47.32041" lon="0.07367">
        <ele>78</ele>
        <time>2012-08-15T09:25:36Z</time>
      </trkpt>
      <trkpt lat="47.32047" lon="0.0734">
        <ele>77.6</ele>
        <time>2012-08-15T09:25:42Z</time>
      </trkpt>
      <trkpt lat="47.32055" lon="0.07313">
        <ele>78</ele>
        <time>2012-08-15T09:25:47Z</time>
      </trkpt>
      <trkpt lat="47.32063" lon="0.07287">
        <ele>78.5</ele>
        <time>2012-08-15T09:25:53Z</time>
      </trkpt>
      <trkpt lat="47.32065" lon="0.07285">
        <ele>78.7</ele>
        <time>2012-08-15T09:25:54Z</time>
      </trkpt>
      <trkpt lat="47.3207" lon="0.07271">
        <ele>79.3</ele>
        <time>2012-08-15T09:25:58Z</time>
      </trkpt>
      <trkpt lat="47.32073" lon="0.07245">
        <ele>80.4</ele>
        <time>2012-08-15T09:26:04Z</time>
      </trkpt>
      <trkpt lat="47.32076" lon="0.07224">
        <ele>81</ele>
        <time>2012-08-15T09:26:09Z</time>
      </trkpt>
      <trkpt lat="47.3208" lon="0.07202">
        <ele>82.4</ele>
        <time>2012-08-15T09:26:15Z</time>
      </trkpt>
      <trkpt lat="47.32081" lon="0.07198">
        <ele>82.7</ele>
        <time>2012-08-15T09:26:16Z</time>
      </trkpt>
      <trkpt lat="47.3209" lon="0.07163">
        <ele>84.6</ele>
        <time>2012-08-15T09:26:26Z</time>
      </trkpt>
      <trkpt lat="47.32095" lon="0.07143">
        <ele>85.7</ele>
        <time>2012-08-15T09:26:32Z</time>
      </trkpt>
      <trkpt lat="47.32102" lon="0.07125">
        <ele>87</ele>
        <time>2012-08-15T09:26:38Z</time>
      </trkpt>
      <trkpt lat="47.32103" lon="0.07122">
        <ele>87.2</ele>
        <time>2012-08-15T09:26:39Z</time>
      </trkpt>
      <trkpt lat="47.32108" lon="0.07101">
        <ele>88.3</ele>
        <time>2012-08-15T09:26:45Z</time>
      </trkpt>
      <trkpt lat="47.32109" lon="0.07097">
        <ele>88.5</ele>
        <time>2012-08-15T09:26:46Z</time>
      </trkpt>
      <trkpt lat="47.32112" lon="0.07087">
        <ele>88.9</ele>
        <time>2012-08-15T09:26:49Z</time>
      </trkpt>
      <trkpt lat="47.32115" lon="0.07069">
        <ele>90.2</ele>
        <time>2012-08-15T09:26:54Z</time>
      </trkpt>
      <trkpt lat="47.32118" lon="0.07045">
        <ele>92.3</ele>
        <time>2012-08-15T09:27:01Z</time>
      </trkpt>
      <trkpt lat="47.32119" lon="0.07035">
        <ele>93.3</ele>
        <time>2012-08-15T09:27:04Z</time>
      </trkpt>
      <trkpt lat="47.32119" lon="0.0702">
        <ele>94.6</ele>
        <time>2012-08-15T09:27:10Z</time>
      </trkpt>
      <trkpt lat="47.32123" lon="0.06995">
        <ele>96.4</ele>
        <time>2012-08-15T09:27:17Z</time>
      </trkpt>
      <trkpt lat="47.32123" lon="0.06974">
        <ele>97.9</ele>
        <time>2012-08-15T09:27:23Z</time>
      </trkpt>
      <trkpt lat="47.3212" lon="0.06943">
        <ele>99.7</ele>
        <time>2012-08-15T09:27:32Z</time>
      </trkpt>
      <trkpt lat="47.3212" lon="0.06908">
        <ele>101</ele>
        <time>2012-08-15T09:27:41Z</time>
      </trkpt>
      <trkpt lat="47.32121" lon="0.0688">
        <ele>102</ele>
        <time>2012-08-15T09:27:48Z</time>
      </trkpt>
      <trkpt lat="47.32121" lon="0.0686">
        <ele>102.7</ele>
        <time>2012-08-15T09:27:53Z</time>
      </trkpt>
      <trkpt lat="47.32124" lon="0.06829">
        <ele>103.6</ele>
        <time>2012-08-15T09:28:01Z</time>
      </trkpt>
      <trkpt lat="47.32127" lon="0.06802">
        <ele>103.9</ele>
        <time>2012-08-15T09:28:08Z</time>
      </trkpt>
      <trkpt lat="47.32132" lon="0.06772">
        <ele>104.5</ele>
        <time>2012-08-15T09:28:14Z</time>
      </trkpt>
      <trkpt lat="47.32138" lon="0.0674">
        <ele>105</ele>
        <time>2012-08-15T09:28:20Z</time>
      </trkpt>
      <trkpt lat="47.32145" lon="0.06708">
        <ele>104.6</ele>
        <time>2012-08-15T09:28:26Z</time>
      </trkpt>
      <trkpt lat="47.32152" lon="0.06672">
        <ele>104.1</ele>
        <time>2012-08-15T09:28:32Z</time>
      </trkpt>
      <trkpt lat="47.32152" lon="0.06657">
        <ele>104.1</ele>
        <time>2012-08-15T09:28:35Z</time>
      </trkpt>
      <trkpt lat="47.32164" lon="0.06619">
        <ele>103.2</ele>
        <time>2012-08-15T09:28:42Z</time>
      </trkpt>
      <trkpt lat="47.3217" lon="0.06602">
        <ele>102.8</ele>
        <time>2012-08-15T09:28:45Z</time>
      </trkpt>
      <trkpt lat="47.32173" lon="0.06596">
        <ele>102.5</ele>
        <time>2012-08-15T09:28:46Z</time>
      </trkpt>
      <trkpt lat="47.32178" lon="0.06578">
        <ele>102.3</ele>
        <time>2012-08-15T09:28:49Z</time>
      </trkpt>
      <trkpt lat="47.32188" lon="0.06546">
        <ele>102.3</ele>
        <time>2012-08-15T09:28:55Z</time>
      </trkpt>
      <trkpt lat="47.322" lon="0.06519">
        <ele>101.6</ele>
        <time>2012-08-15T09:29:00Z</time>
      </trkpt>
      <trkpt lat="47.3222" lon="0.06495">
        <ele>100.3</ele>
        <time>2012-08-15T09:29:04Z</time>
      </trkpt>
      <trkpt lat="47.32249" lon="0.06445">
        <ele>100.1</ele>
        <time>2012-08-15T09:29:12Z</time>
      </trkpt>
      <trkpt lat="47.32257" lon="0.06433">
        <ele>100.2</ele>
        <time>2012-08-15T09:29:14Z</time>
      </trkpt>
      <trkpt lat="47.32265" lon="0.06422">
        <ele>100.3</ele>
        <time>2012-08-15T09:29:16Z</time>
      </trkpt>
      <trkpt lat="47.32269" lon="0.06417">
        <ele>100.3</ele>
        <time>2012-08-15T09:29:17Z</time>
      </trkpt>
      <trkpt lat="47.32282" lon="0.06395">
        <ele>100.6</ele>
        <time>2012-08-15T09:29:21Z</time>
      </trkpt>
      <trkpt lat="47.32286" lon="0.06389">
        <ele>100.7</ele>
        <time>2012-08-15T09:29:22Z</time>
      </trkpt>
      <trkpt lat="47.32306" lon="0.0636">
        <ele>101</ele>
        <time>2012-08-15T09:29:27Z</time>
      </trkpt>
      <trkpt lat="47.32309" lon="0.06354">
        <ele>101.3</ele>
        <time>2012-08-15T09:29:28Z</time>
      </trkpt>
      <trkpt lat="47.32335" lon="0.06316">
        <ele>102</ele>
        <time>2012-08-15T09:29:35Z</time>
      </trkpt>
      <trkpt lat="47.32342" lon="0.06305">
        <ele>102.3</ele>
        <time>2012-08-15T09:29:37Z</time>
      </trkpt>
      <trkpt lat="47.32344" lon="0.06299">
        <ele>102.5</ele>
        <time>2012-08-15T09:29:38Z</time>
      </trkpt>
      <trkpt lat="47.32348" lon="0.06295">
        <ele>102.7</ele>
        <time>2012-08-15T09:29:39Z</time>
      </trkpt>
      <trkpt lat="47.32361" lon="0.06268">
        <ele>103.4</ele>
        <time>2012-08-15T09:29:45Z</time>
      </trkpt>
      <trkpt lat="47.32361" lon="0.06264">
        <ele>103.5</ele>
        <time>2012-08-15T09:29:46Z</time>
      </trkpt>
      <trkpt lat="47.3236" lon="0.06261">
        <ele>103.6</ele>
        <time>2012-08-15T09:29:47Z</time>
      </trkpt>
      <trkpt lat="47.32359" lon="0.06259">
        <ele>103.7</ele>
        <time>2012-08-15T09:29:48Z</time>
      </trkpt>
      <trkpt lat="47.32357" lon="0.06255">
        <ele>103.8</ele>
        <time>2012-08-15T09:29:51Z</time>
      </trkpt>
      <trkpt lat="47.3235" lon="0.06251">
        <ele>104</ele>
        <time>2012-08-15T09:29:57Z</time>
      </trkpt>
      <trkpt lat="47.32341" lon="0.06251">
        <ele>104</ele>
        <time>2012-08-15T09:30:04Z</time>
      </trkpt>
      <trkpt lat="47.3234" lon="0.06251">
        <ele>104</ele>
        <time>2012-08-15T09:30:12Z</time>
      </trkpt>
      <trkpt lat="47.3234" lon="0.06251">
        <ele>104</ele>
        <time>2012-08-15T09:30:58Z</time>
      </trkpt>
      <trkpt lat="47.32334" lon="0.06251">
        <ele>104</ele>
        <time>2012-08-15T09:31:50Z</time>
      </trkpt>
      <trkpt lat="47.32313" lon="0.06247">
        <ele>103.3</ele>
        <time>2012-08-15T09:31:57Z</time>
      </trkpt>
      <trkpt lat="47.3228" lon="0.0624">
        <ele>103.9</ele>
        <time>2012-08-15T09:32:05Z</time>
      </trkpt>
      <trkpt lat="47.32268" lon="0.06237">
        <ele>104.4</ele>
        <time>2012-08-15T09:32:08Z</time>
      </trkpt>
      <trkpt lat="47.32264" lon="0.06236">
        <ele>104.5</ele>
        <time>2012-08-15T09:32:09Z</time>
      </trkpt>
      <trkpt lat="47.32221" lon="0.06222">
        <ele>106</ele>
        <time>2012-08-15T09:32:19Z</time>
      </trkpt>
      <trkpt lat="47.32217" lon="0.06221">
        <ele>106</ele>
        <time>2012-08-15T09:32:20Z</time>
      </trkpt>
      <trkpt lat="47.32171" lon="0.06205">
        <ele>106</ele>
        <time>2012-08-15T09:32:31Z</time>
      </trkpt>
      <trkpt lat="47.32137" lon="0.0619">
        <ele>106</ele>
        <time>2012-08-15T09:32:39Z</time>
      </trkpt>
      <trkpt lat="47.32114" lon="0.06177">
        <ele>106</ele>
        <time>2012-08-15T09:32:45Z</time>
      </trkpt>
      <trkpt lat="47.3209" lon="0.06164">
        <ele>106</ele>
        <time>2012-08-15T09:32:51Z</time>
      </trkpt>
      <trkpt lat="47.32062" lon="0.0615">
        <ele>106.8</ele>
        <time>2012-08-15T09:32:58Z</time>
      </trkpt>
      <trkpt lat="47.3204" lon="0.06138">
        <ele>107</ele>
        <time>2012-08-15T09:33:03Z</time>
      </trkpt>
      <trkpt lat="47.32036" lon="0.06136">
        <ele>106.9</ele>
        <time>2012-08-15T09:33:04Z</time>
      </trkpt>
      <trkpt lat="47.32003" lon="0.06117">
        <ele>106</ele>
        <time>2012-08-15T09:33:12Z</time>
      </trkpt>
      <trkpt lat="47.3197" lon="0.06101">
        <ele>104.6</ele>
        <time>2012-08-15T09:33:19Z</time>
      </trkpt>
      <trkpt lat="47.3194" lon="0.06084">
        <ele>103</ele>
        <time>2012-08-15T09:33:26Z</time>
      </trkpt>
      <trkpt lat="47.31917" lon="0.06072">
        <ele>103</ele>
        <time>2012-08-15T09:33:31Z</time>
      </trkpt>
      <trkpt lat="47.31912" lon="0.06069">
        <ele>103.1</ele>
        <time>2012-08-15T09:33:32Z</time>
      </trkpt>
      <trkpt lat="47.31906" lon="0.06066">
        <ele>103.1</ele>
        <time>2012-08-15T09:33:33Z</time>
      </trkpt>
      <trkpt lat="47.31874" lon="0.06049">
        <ele>103.3</ele>
        <time>2012-08-15T09:33:39Z</time>
      </trkpt>
      <trkpt lat="47.31864" lon="0.06038">
        <ele>103.3</ele>
        <time>2012-08-15T09:33:42Z</time>
      </trkpt>
      <trkpt lat="47.31843" lon="0.06019">
        <ele>103.7</ele>
        <time>2012-08-15T09:33:48Z</time>
      </trkpt>
      <trkpt lat="47.31823" lon="0.06004">
        <ele>104.1</ele>
        <time>2012-08-15T09:33:53Z</time>
      </trkpt>
      <trkpt lat="47.31817" lon="0.05999">
        <ele>104</ele>
        <time>2012-08-15T09:33:55Z</time>
      </trkpt>
      <trkpt lat="47.31814" lon="0.05994">
        <ele>103.9</ele>
        <time>2012-08-15T09:33:56Z</time>
      </trkpt>
      <trkpt lat="47.31812" lon="0.05989">
        <ele>103.9</ele>
        <time>2012-08-15T09:33:57Z</time>
      </trkpt>
      <trkpt lat="47.3181" lon="0.05985">
        <ele>103.9</ele>
        <time>2012-08-15T09:33:58Z</time>
      </trkpt>
      <trkpt lat="47.31806" lon="0.0598">
        <ele>104</ele>
        <time>2012-08-15T09:34:00Z</time>
      </trkpt>
      <trkpt lat="47.31804" lon="0.05978">
        <ele>104</ele>
        <time>2012-08-15T09:34:01Z</time>
      </trkpt>
      <trkpt lat="47.31801" lon="0.05975">
        <ele>104</ele>
        <time>2012-08-15T09:34:02Z</time>
      </trkpt>
      <trkpt lat="47.31799" lon="0.05971">
        <ele>104</ele>
        <time>2012-08-15T09:34:03Z</time>
      </trkpt>
      <trkpt lat="47.31797" lon="0.05968">
        <ele>103.8</ele>
        <time>2012-08-15T09:34:04Z</time>
      </trkpt>
      <trkpt lat="47.31794" lon="0.05964">
        <ele>103.7</ele>
        <time>2012-08-15T09:34:05Z</time>
      </trkpt>
      <trkpt lat="47.3178" lon="0.05934">
        <ele>103</ele>
        <time>2012-08-15T09:34:11Z</time>
      </trkpt>
      <trkpt lat="47.31777" lon="0.05929">
        <ele>103</ele>
        <time>2012-08-15T09:34:12Z</time>
      </trkpt>
      <trkpt lat="47.31768" lon="0.05912">
        <ele>102.9</ele>
        <time>2012-08-15T09:34:15Z</time>
      </trkpt>
      <trkpt lat="47.31755" lon="0.05883">
        <ele>102.6</ele>
        <time>2012-08-15T09:34:20Z</time>
      </trkpt>
      <trkpt lat="47.31743" lon="0.05851">
        <ele>102</ele>
        <time>2012-08-15T09:34:25Z</time>
      </trkpt>
      <trkpt lat="47.3174" lon="0.05845">
        <ele>102</ele>
        <time>2012-08-15T09:34:26Z</time>
      </trkpt>
      <trkpt lat="47.31734" lon="0.05833">
        <ele>102</ele>
        <time>2012-08-15T09:34:28Z</time>
      </trkpt>
      <trkpt lat="47.31732" lon="0.05827">
        <ele>102</ele>
        <time>2012-08-15T09:34:29Z</time>
      </trkpt>
      <trkpt lat="47.31729" lon="0.05821">
        <ele>102</ele>
        <time>2012-08-15T09:34:30Z</time>
      </trkpt>
      <trkpt lat="47.31723" lon="0.0581">
        <ele>102</ele>
        <time>2012-08-15T09:34:32Z</time>
      </trkpt>
      <trkpt lat="47.3171" lon="0.05783">
        <ele>102</ele>
        <time>2012-08-15T09:34:37Z</time>
      </trkpt>
      <trkpt lat="47.31708" lon="0.05778">
        <ele>102</ele>
        <time>2012-08-15T09:34:38Z</time>
      </trkpt>
      <trkpt lat="47.31694" lon="0.05746">
        <ele>102</ele>
        <time>2012-08-15T09:34:44Z</time>
      </trkpt>
      <trkpt lat="47.31686" lon="0.05724">
        <ele>101.7</ele>
        <time>2012-08-15T09:34:48Z</time>
      </trkpt>
      <trkpt lat="47.31684" lon="0.05701">
        <ele>101.6</ele>
        <time>2012-08-15T09:34:54Z</time>
      </trkpt>
      <trkpt lat="47.31676" lon="0.05689">
        <ele>101.3</ele>
        <time>2012-08-15T09:34:59Z</time>
      </trkpt>
      <trkpt lat="47.31674" lon="0.05688">
        <ele>101.3</ele>
        <time>2012-08-15T09:35:01Z</time>
      </trkpt>
      <trkpt lat="47.3166" lon="0.0568">
        <ele>101</ele>
        <time>2012-08-15T09:35:06Z</time>
      </trkpt>
      <trkpt lat="47.31633" lon="0.05664">
        <ele>100.6</ele>
        <time>2012-08-15T09:35:13Z</time>
      </trkpt>
      <trkpt lat="47.31609" lon="0.05654">
        <ele>98.9</ele>
        <time>2012-08-15T09:35:19Z</time>
      </trkpt>
      <trkpt lat="47.31587" lon="0.05643">
        <ele>98.1</ele>
        <time>2012-08-15T09:35:24Z</time>
      </trkpt>
      <trkpt lat="47.31556" lon="0.05629">
        <ele>96</ele>
        <time>2012-08-15T09:35:30Z</time>
      </trkpt>
      <trkpt lat="47.31544" lon="0.05624">
        <ele>95.2</ele>
        <time>2012-08-15T09:35:32Z</time>
      </trkpt>
      <trkpt lat="47.31519" lon="0.05607">
        <ele>93.1</ele>
        <time>2012-08-15T09:35:36Z</time>
      </trkpt>
      <trkpt lat="47.31486" lon="0.05591">
        <ele>88.5</ele>
        <time>2012-08-15T09:35:40Z</time>
      </trkpt>
      <trkpt lat="47.31452" lon="0.05578">
        <ele>81.8</ele>
        <time>2012-08-15T09:35:44Z</time>
      </trkpt>
      <trkpt lat="47.31435" lon="0.05569">
        <ele>79</ele>
        <time>2012-08-15T09:35:46Z</time>
      </trkpt>
      <trkpt lat="47.31421" lon="0.05563">
        <ele>76.7</ele>
        <time>2012-08-15T09:35:48Z</time>
      </trkpt>
      <trkpt lat="47.31412" lon="0.05555">
        <ele>75.7</ele>
        <time>2012-08-15T09:35:50Z</time>
      </trkpt>
      <trkpt lat="47.3141" lon="0.05547">
        <ele>75.8</ele>
        <time>2012-08-15T09:35:53Z</time>
      </trkpt>
      <trkpt lat="47.31415" lon="0.05543">
        <ele>76.3</ele>
        <time>2012-08-15T09:35:57Z</time>
      </trkpt>
      <trkpt lat="47.31418" lon="0.0553">
        <ele>77.1</ele>
        <time>2012-08-15T09:36:03Z</time>
      </trkpt>
      <trkpt lat="47.31427" lon="0.05512">
        <ele>77.9</ele>
        <time>2012-08-15T09:36:10Z</time>
      </trkpt>
      <trkpt lat="47.31434" lon="0.05499">
        <ele>78.3</ele>
        <time>2012-08-15T09:36:16Z</time>
      </trkpt>
      <trkpt lat="47.3145" lon="0.05478">
        <ele>79.5</ele>
        <time>2012-08-15T09:36:23Z</time>
      </trkpt>
      <trkpt lat="47.3146" lon="0.05458">
        <ele>80.1</ele>
        <time>2012-08-15T09:36:29Z</time>
      </trkpt>
      <trkpt lat="47.31467" lon="0.05438">
        <ele>80.7</ele>
        <time>2012-08-15T09:36:34Z</time>
      </trkpt>
      <trkpt lat="47.3147" lon="0.05422">
        <ele>80.9</ele>
        <time>2012-08-15T09:36:38Z</time>
      </trkpt>
      <trkpt lat="47.31475" lon="0.05396">
        <ele>81.9</ele>
        <time>2012-08-15T09:36:45Z</time>
      </trkpt>
      <trkpt lat="47.31481" lon="0.0538">
        <ele>83</ele>
        <time>2012-08-15T09:36:50Z</time>
      </trkpt>
      <trkpt lat="47.31486" lon="0.05364">
        <ele>83.9</ele>
        <time>2012-08-15T09:36:55Z</time>
      </trkpt>
      <trkpt lat="47.31491" lon="0.05333">
        <ele>85.4</ele>
        <time>2012-08-15T09:37:05Z</time>
      </trkpt>
      <trkpt lat="47.31499" lon="0.05319">
        <ele>86.4</ele>
        <time>2012-08-15T09:37:10Z</time>
      </trkpt>
      <trkpt lat="47.31505" lon="0.05301">
        <ele>87.9</ele>
        <time>2012-08-15T09:37:18Z</time>
      </trkpt>
      <trkpt lat="47.31508" lon="0.05292">
        <ele>88.8</ele>
        <time>2012-08-15T09:37:22Z</time>
      </trkpt>
      <trkpt lat="47.31515" lon="0.05275">
        <ele>90.8</ele>
        <time>2012-08-15T09:37:29Z</time>
      </trkpt>
      <trkpt lat="47.31515" lon="0.05262">
        <ele>91.7</ele>
        <time>2012-08-15T09:37:34Z</time>
      </trkpt>
      <trkpt lat="47.31512" lon="0.05245">
        <ele>92.9</ele>
        <time>2012-08-15T09:37:41Z</time>
      </trkpt>
      <trkpt lat="47.31504" lon="0.05234">
        <ele>93.8</ele>
        <time>2012-08-15T09:37:47Z</time>
      </trkpt>
      <trkpt lat="47.31494" lon="0.05218">
        <ele>95.3</ele>
        <time>2012-08-15T09:37:56Z</time>
      </trkpt>
      <trkpt lat="47.31481" lon="0.05201">
        <ele>96.5</ele>
        <time>2012-08-15T09:38:04Z</time>
      </trkpt>
      <trkpt lat="47.31468" lon="0.05183">
        <ele>98</ele>
        <time>2012-08-15T09:38:11Z</time>
      </trkpt>
      <trkpt lat="47.31456" lon="0.05164">
        <ele>99.6</ele>
        <time>2012-08-15T09:38:18Z</time>
      </trkpt>
      <trkpt lat="47.31442" lon="0.05143">
        <ele>100</ele>
        <time>2012-08-15T09:38:25Z</time>
      </trkpt>
      <trkpt lat="47.31422" lon="0.05114">
        <ele>100.9</ele>
        <time>2012-08-15T09:38:35Z</time>
      </trkpt>
      <trkpt lat="47.31407" lon="0.05086">
        <ele>101.9</ele>
        <time>2012-08-15T09:38:44Z</time>
      </trkpt>
      <trkpt lat="47.31392" lon="0.0506">
        <ele>102.1</ele>
        <time>2012-08-15T09:38:52Z</time>
      </trkpt>
      <trkpt lat="47.31377" lon="0.05035">
        <ele>101.1</ele>
        <time>2012-08-15T09:39:00Z</time>
      </trkpt>
      <trkpt lat="47.31359" lon="0.05003">
        <ele>99.7</ele>
        <time>2012-08-15T09:39:08Z</time>
      </trkpt>
      <trkpt lat="47.31336" lon="0.04963">
        <ele>95.1</ele>
        <time>2012-08-15T09:39:15Z</time>
      </trkpt>
      <trkpt lat="47.31322" lon="0.04938">
        <ele>92.3</ele>
        <time>2012-08-15T09:39:18Z</time>
      </trkpt>
      <trkpt lat="47.31305" lon="0.0491">
        <ele>88.9</ele>
        <time>2012-08-15T09:39:21Z</time>
      </trkpt>
      <trkpt lat="47.31281" lon="0.04868">
        <ele>84.7</ele>
        <time>2012-08-15T09:39:25Z</time>
      </trkpt>
      <trkpt lat="47.31274" lon="0.04856">
        <ele>83.1</ele>
        <time>2012-08-15T09:39:26Z</time>
      </trkpt>
      <trkpt lat="47.3126" lon="0.04832">
        <ele>79.4</ele>
        <time>2012-08-15T09:39:28Z</time>
      </trkpt>
      <trkpt lat="47.31245" lon="0.04806">
        <ele>76.5</ele>
        <time>2012-08-15T09:39:30Z</time>
      </trkpt>
      <trkpt lat="47.31238" lon="0.04792">
        <ele>74.9</ele>
        <time>2012-08-15T09:39:31Z</time>
      </trkpt>
      <trkpt lat="47.31218" lon="0.0474">
        <ele>71.8</ele>
        <time>2012-08-15T09:39:35Z</time>
      </trkpt>
      <trkpt lat="47.31202" lon="0.04713">
        <ele>71.3</ele>
        <time>2012-08-15T09:39:38Z</time>
      </trkpt>
      <trkpt lat="47.3119" lon="0.04694">
        <ele>70.9</ele>
        <time>2012-08-15T09:39:40Z</time>
      </trkpt>
      <trkpt lat="47.31173" lon="0.04666">
        <ele>71.2</ele>
        <time>2012-08-15T09:39:43Z</time>
      </trkpt>
      <trkpt lat="47.31167" lon="0.04659">
        <ele>71</ele>
        <time>2012-08-15T09:39:44Z</time>
      </trkpt>
      <trkpt lat="47.31156" lon="0.04636">
        <ele>70.3</ele>
        <time>2012-08-15T09:39:47Z</time>
      </trkpt>
      <trkpt lat="47.31151" lon="0.04622">
        <ele>70.2</ele>
        <time>2012-08-15T09:39:49Z</time>
      </trkpt>
      <trkpt lat="47.3114" lon="0.04599">
        <ele>70.1</ele>
        <time>2012-08-15T09:39:53Z</time>
      </trkpt>
      <trkpt lat="47.31118" lon="0.04566">
        <ele>69.4</ele>
        <time>2012-08-15T09:39:59Z</time>
      </trkpt>
      <trkpt lat="47.311" lon="0.04532">
        <ele>69.4</ele>
        <time>2012-08-15T09:40:05Z</time>
      </trkpt>
      <trkpt lat="47.3109" lon="0.04516">
        <ele>69.3</ele>
        <time>2012-08-15T09:40:08Z</time>
      </trkpt>
      <trkpt lat="47.31071" lon="0.04504">
        <ele>68.2</ele>
        <time>2012-08-15T09:40:12Z</time>
      </trkpt>
      <trkpt lat="47.31048" lon="0.04509">
        <ele>67</ele>
        <time>2012-08-15T09:40:17Z</time>
      </trkpt>
      <trkpt lat="47.31037" lon="0.04503">
        <ele>66.4</ele>
        <time>2012-08-15T09:40:20Z</time>
      </trkpt>
      <trkpt lat="47.31036" lon="0.0449">
        <ele>66.4</ele>
        <time>2012-08-15T09:40:23Z</time>
      </trkpt>
      <trkpt lat="47.31038" lon="0.04455">
        <ele>66.7</ele>
        <time>2012-08-15T09:40:29Z</time>
      </trkpt>
      <trkpt lat="47.31038" lon="0.04442">
        <ele>66.7</ele>
        <time>2012-08-15T09:40:31Z</time>
      </trkpt>
      <trkpt lat="47.31039" lon="0.04416">
        <ele>66.8</ele>
        <time>2012-08-15T09:40:35Z</time>
      </trkpt>
      <trkpt lat="47.3104" lon="0.04378">
        <ele>66.9</ele>
        <time>2012-08-15T09:40:40Z</time>
      </trkpt>
      <trkpt lat="47.31042" lon="0.0434">
        <ele>67</ele>
        <time>2012-08-15T09:40:45Z</time>
      </trkpt>
      <trkpt lat="47.31053" lon="0.0431">
        <ele>67.1</ele>
        <time>2012-08-15T09:40:51Z</time>
      </trkpt>
      <trkpt lat="47.31069" lon="0.04292">
        <ele>67.5</ele>
        <time>2012-08-15T09:40:57Z</time>
      </trkpt>
      <trkpt lat="47.31076" lon="0.04282">
        <ele>67.6</ele>
        <time>2012-08-15T09:41:00Z</time>
      </trkpt>
      <trkpt lat="47.3109" lon="0.04259">
        <ele>68.5</ele>
        <time>2012-08-15T09:41:07Z</time>
      </trkpt>
      <trkpt lat="47.31102" lon="0.04244">
        <ele>69.2</ele>
        <time>2012-08-15T09:41:11Z</time>
      </trkpt>
      <trkpt lat="47.31104" lon="0.04241">
        <ele>69.3</ele>
        <time>2012-08-15T09:41:12Z</time>
      </trkpt>
      <trkpt lat="47.31116" lon="0.0423">
        <ele>70.4</ele>
        <time>2012-08-15T09:41:17Z</time>
      </trkpt>
      <trkpt lat="47.31123" lon="0.04226">
        <ele>70.9</ele>
        <time>2012-08-15T09:41:20Z</time>
      </trkpt>
      <trkpt lat="47.3113" lon="0.04229">
        <ele>71.4</ele>
        <time>2012-08-15T09:41:26Z</time>
      </trkpt>
      <trkpt lat="47.31135" lon="0.04232">
        <ele>71.7</ele>
        <time>2012-08-15T09:41:47Z</time>
      </trkpt>
      <trkpt lat="47.31135" lon="0.04233">
        <ele>71.7</ele>
        <time>2012-08-15T09:42:03Z</time>
      </trkpt>
      <trkpt lat="47.31138" lon="0.04235">
        <ele>71.9</ele>
        <time>2012-08-15T09:43:58Z</time>
      </trkpt>
      <trkpt lat="47.31138" lon="0.04235">
        <ele>71.9</ele>
        <time>2012-08-15T09:43:59Z</time>
      </trkpt>
      <trkpt lat="47.31138" lon="0.04241">
        <ele>71.9</ele>
        <time>2012-08-15T09:44:38Z</time>
      </trkpt>
      <trkpt lat="47.31149" lon="0.04258">
        <ele>73.3</ele>
        <time>2012-08-15T09:44:44Z</time>
      </trkpt>
      <trkpt lat="47.31161" lon="0.04276">
        <ele>74.6</ele>
        <time>2012-08-15T09:44:50Z</time>
      </trkpt>
      <trkpt lat="47.31172" lon="0.043">
        <ele>75.6</ele>
        <time>2012-08-15T09:44:56Z</time>
      </trkpt>
      <trkpt lat="47.31183" lon="0.04321">
        <ele>76.4</ele>
        <time>2012-08-15T09:45:01Z</time>
      </trkpt>
      <trkpt lat="47.31192" lon="0.04344">
        <ele>76.8</ele>
        <time>2012-08-15T09:45:06Z</time>
      </trkpt>
      <trkpt lat="47.31201" lon="0.04368">
        <ele>77.9</ele>
        <time>2012-08-15T09:45:11Z</time>
      </trkpt>
      <trkpt lat="47.31206" lon="0.04406">
        <ele>78.2</ele>
        <time>2012-08-15T09:45:18Z</time>
      </trkpt>
      <trkpt lat="47.3121" lon="0.04434">
        <ele>78.1</ele>
        <time>2012-08-15T09:45:24Z</time>
      </trkpt>
      <trkpt lat="47.31214" lon="0.04458">
        <ele>77.8</ele>
        <time>2012-08-15T09:45:29Z</time>
      </trkpt>
      <trkpt lat="47.31223" lon="0.04479">
        <ele>78.1</ele>
        <time>2012-08-15T09:45:33Z</time>
      </trkpt>
      <trkpt lat="47.3123" lon="0.04498">
        <ele>78.6</ele>
        <time>2012-08-15T09:45:38Z</time>
      </trkpt>
      <trkpt lat="47.31237" lon="0.04513">
        <ele>78.6</ele>
        <time>2012-08-15T09:45:44Z</time>
      </trkpt>
      <trkpt lat="47.31256" lon="0.04533">
        <ele>79.2</ele>
        <time>2012-08-15T09:45:52Z</time>
      </trkpt>
      <trkpt lat="47.31263" lon="0.0454">
        <ele>79.3</ele>
        <time>2012-08-15T09:45:55Z</time>
      </trkpt>
      <trkpt lat="47.31274" lon="0.04564">
        <ele>78.3</ele>
        <time>2012-08-15T09:46:01Z</time>
      </trkpt>
      <trkpt lat="47.31291" lon="0.04595">
        <ele>77.5</ele>
        <time>2012-08-15T09:46:08Z</time>
      </trkpt>
      <trkpt lat="47.31311" lon="0.04624">
        <ele>77.7</ele>
        <time>2012-08-15T09:46:14Z</time>
      </trkpt>
      <trkpt lat="47.31317" lon="0.04638">
        <ele>77.4</ele>
        <time>2012-08-15T09:46:19Z</time>
      </trkpt>
      <trkpt lat="47.31329" lon="0.04659">
        <ele>77.7</ele>
        <time>2012-08-15T09:46:25Z</time>
      </trkpt>
      <trkpt lat="47.31339" lon="0.04671">
        <ele>78.2</ele>
        <time>2012-08-15T09:46:28Z</time>
      </trkpt>
      <trkpt lat="47.31372" lon="0.04708">
        <ele>79.9</ele>
        <time>2012-08-15T09:46:35Z</time>
      </trkpt>
      <trkpt lat="47.31395" lon="0.04726">
        <ele>81.4</ele>
        <time>2012-08-15T09:46:40Z</time>
      </trkpt>
      <trkpt lat="47.31415" lon="0.04741">
        <ele>83.3</ele>
        <time>2012-08-15T09:46:47Z</time>
      </trkpt>
      <trkpt lat="47.31421" lon="0.04746">
        <ele>83.9</ele>
        <time>2012-08-15T09:46:49Z</time>
      </trkpt>
      <trkpt lat="47.31435" lon="0.04758">
        <ele>85.2</ele>
        <time>2012-08-15T09:46:55Z</time>
      </trkpt>
      <trkpt lat="47.31442" lon="0.04764">
        <ele>85.9</ele>
        <time>2012-08-15T09:46:59Z</time>
      </trkpt>
      <trkpt lat="47.31455" lon="0.04775">
        <ele>87.5</ele>
        <time>2012-08-15T09:47:05Z</time>
      </trkpt>
      <trkpt lat="47.31467" lon="0.04788">
        <ele>89.4</ele>
        <time>2012-08-15T09:47:12Z</time>
      </trkpt>
      <trkpt lat="47.31472" lon="0.04792">
        <ele>90</ele>
        <time>2012-08-15T09:47:15Z</time>
      </trkpt>
      <trkpt lat="47.31481" lon="0.04803">
        <ele>91.4</ele>
        <time>2012-08-15T09:47:21Z</time>
      </trkpt>
      <trkpt lat="47.31491" lon="0.04816">
        <ele>93.6</ele>
        <time>2012-08-15T09:47:28Z</time>
      </trkpt>
      <trkpt lat="47.315" lon="0.04826">
        <ele>95.2</ele>
        <time>2012-08-15T09:47:33Z</time>
      </trkpt>
      <trkpt lat="47.31505" lon="0.04831">
        <ele>96</ele>
        <time>2012-08-15T09:47:37Z</time>
      </trkpt>
      <trkpt lat="47.31515" lon="0.04846">
        <ele>97.5</ele>
        <time>2012-08-15T09:47:44Z</time>
      </trkpt>
      <trkpt lat="47.31522" lon="0.04856">
        <ele>98.4</ele>
        <time>2012-08-15T09:47:49Z</time>
      </trkpt>
      <trkpt lat="47.31533" lon="0.04876">
        <ele>99.5</ele>
        <time>2012-08-15T09:47:56Z</time>
      </trkpt>
      <trkpt lat="47.31545" lon="0.049">
        <ele>100</ele>
        <time>2012-08-15T09:48:03Z</time>
      </trkpt>
      <trkpt lat="47.31555" lon="0.04918">
        <ele>100</ele>
        <time>2012-08-15T09:48:08Z</time>
      </trkpt>
      <trkpt lat="47.31572" lon="0.04948">
        <ele>99.4</ele>
        <time>2012-08-15T09:48:14Z</time>
      </trkpt>
      <trkpt lat="47.31587" lon="0.04973">
        <ele>98.9</ele>
        <time>2012-08-15T09:48:19Z</time>
      </trkpt>
      <trkpt lat="47.31615" lon="0.05023">
        <ele>96.7</ele>
        <time>2012-08-15T09:48:28Z</time>
      </trkpt>
      <trkpt lat="47.31618" lon="0.0503">
        <ele>96.4</ele>
        <time>2012-08-15T09:48:29Z</time>
      </trkpt>
      <trkpt lat="47.31636" lon="0.05071">
        <ele>94.2</ele>
        <time>2012-08-15T09:48:35Z</time>
      </trkpt>
      <trkpt lat="47.31646" lon="0.05092">
        <ele>93.6</ele>
        <time>2012-08-15T09:48:38Z</time>
      </trkpt>
      <trkpt lat="47.3167" lon="0.05126">
        <ele>93.3</ele>
        <time>2012-08-15T09:48:44Z</time>
      </trkpt>
      <trkpt lat="47.31678" lon="0.05147">
        <ele>93.5</ele>
        <time>2012-08-15T09:48:48Z</time>
      </trkpt>
      <trkpt lat="47.31686" lon="0.05164">
        <ele>93.5</ele>
        <time>2012-08-15T09:48:51Z</time>
      </trkpt>
      <trkpt lat="47.31708" lon="0.05208">
        <ele>93.5</ele>
        <time>2012-08-15T09:48:58Z</time>
      </trkpt>
      <trkpt lat="47.31711" lon="0.05215">
        <ele>93.5</ele>
        <time>2012-08-15T09:48:59Z</time>
      </trkpt>
      <trkpt lat="47.31725" lon="0.05241">
        <ele>93.5</ele>
        <time>2012-08-15T09:49:03Z</time>
      </trkpt>
      <trkpt lat="47.31736" lon="0.05261">
        <ele>93.4</ele>
        <time>2012-08-15T09:49:06Z</time>
      </trkpt>
      <trkpt lat="47.31746" lon="0.05281">
        <ele>93.3</ele>
        <time>2012-08-15T09:49:09Z</time>
      </trkpt>
      <trkpt lat="47.31752" lon="0.05294">
        <ele>92.8</ele>
        <time>2012-08-15T09:49:11Z</time>
      </trkpt>
      <trkpt lat="47.31762" lon="0.05323">
        <ele>92.5</ele>
        <time>2012-08-15T09:49:15Z</time>
      </trkpt>
      <trkpt lat="47.31782" lon="0.05357">
        <ele>91.4</ele>
        <time>2012-08-15T09:49:21Z</time>
      </trkpt>
      <trkpt lat="47.31795" lon="0.05367">
        <ele>90.4</ele>
        <time>2012-08-15T09:49:25Z</time>
      </trkpt>
      <trkpt lat="47.31812" lon="0.05374">
        <ele>89</ele>
        <time>2012-08-15T09:49:28Z</time>
      </trkpt>
      <trkpt lat="47.31834" lon="0.05386">
        <ele>87.8</ele>
        <time>2012-08-15T09:49:31Z</time>
      </trkpt>
      <trkpt lat="47.31852" lon="0.05393">
        <ele>86.8</ele>
        <time>2012-08-15T09:49:33Z</time>
      </trkpt>
      <trkpt lat="47.31893" lon="0.05419">
        <ele>86</ele>
        <time>2012-08-15T09:49:39Z</time>
      </trkpt>
      <trkpt lat="47.31906" lon="0.05429">
        <ele>86.3</ele>
        <time>2012-08-15T09:49:42Z</time>
      </trkpt>
      <trkpt lat="47.31919" lon="0.05441">
        <ele>86.6</ele>
        <time>2012-08-15T09:49:46Z</time>
      </trkpt>
      <trkpt lat="47.31929" lon="0.05449">
        <ele>86.3</ele>
        <time>2012-08-15T09:49:50Z</time>
      </trkpt>
      <trkpt lat="47.31952" lon="0.05466">
        <ele>85.2</ele>
        <time>2012-08-15T09:49:54Z</time>
      </trkpt>
      <trkpt lat="47.3199" lon="0.05499">
        <ele>83.3</ele>
        <time>2012-08-15T09:50:00Z</time>
      </trkpt>
      <trkpt lat="47.32014" lon="0.05519">
        <ele>82.8</ele>
        <time>2012-08-15T09:50:04Z</time>
      </trkpt>
      <trkpt lat="47.32037" lon="0.05536">
        <ele>83.3</ele>
        <time>2012-08-15T09:50:09Z</time>
      </trkpt>
      <trkpt lat="47.32042" lon="0.0554">
        <ele>83.4</ele>
        <time>2012-08-15T09:50:10Z</time>
      </trkpt>
      <trkpt lat="47.32051" lon="0.05544">
        <ele>83.6</ele>
        <time>2012-08-15T09:50:12Z</time>
      </trkpt>
      <trkpt lat="47.32069" lon="0.05547">
        <ele>83.5</ele>
        <time>2012-08-15T09:50:16Z</time>
      </trkpt>
      <trkpt lat="47.32081" lon="0.05534">
        <ele>82.5</ele>
        <time>2012-08-15T09:50:20Z</time>
      </trkpt>
      <trkpt lat="47.32087" lon="0.05525">
        <ele>81.9</ele>
        <time>2012-08-15T09:50:22Z</time>
      </trkpt>
      <trkpt lat="47.32106" lon="0.05495">
        <ele>80.8</ele>
        <time>2012-08-15T09:50:28Z</time>
      </trkpt>
      <trkpt lat="47.32112" lon="0.05488">
        <ele>80.6</ele>
        <time>2012-08-15T09:50:30Z</time>
      </trkpt>
      <trkpt lat="47.32127" lon="0.05459">
        <ele>79.8</ele>
        <time>2012-08-15T09:50:36Z</time>
      </trkpt>
      <trkpt lat="47.32121" lon="0.05422">
        <ele>79.1</ele>
        <time>2012-08-15T09:50:41Z</time>
      </trkpt>
      <trkpt lat="47.32122" lon="0.05394">
        <ele>79</ele>
        <time>2012-08-15T09:50:45Z</time>
      </trkpt>
      <trkpt lat="47.32125" lon="0.05365">
        <ele>78.6</ele>
        <time>2012-08-15T09:50:49Z</time>
      </trkpt>
      <trkpt lat="47.32117" lon="0.05305">
        <ele>78.2</ele>
        <time>2012-08-15T09:50:57Z</time>
      </trkpt>
      <trkpt lat="47.32122" lon="0.05283">
        <ele>78.4</ele>
        <time>2012-08-15T09:51:00Z</time>
      </trkpt>
      <trkpt lat="47.32133" lon="0.05253">
        <ele>77.9</ele>
        <time>2012-08-15T09:51:02Z</time>
      </trkpt>
      <trkpt lat="47.32148" lon="0.05227">
        <ele>78.4</ele>
      </trkpt>
      <trkpt lat="47.32147" lon="0.0522">
        <ele>78.3</ele>
        <time>2012-08-15T09:51:07Z</time>
      </trkpt>
      <trkpt lat="47.32157" lon="0.05205">
        <ele>78.7</ele>
        <time>2012-08-15T09:51:10Z</time>
      </trkpt>
      <trkpt lat="47.32187" lon="0.05191">
        <ele>80.5</ele>
        <time>2012-08-15T09:51:15Z</time>
      </trkpt>
      <trkpt lat="47.32192" lon="0.05176">
        <ele>80.8</ele>
        <time>2012-08-15T09:51:17Z</time>
      </trkpt>
      <trkpt lat="47.32198" lon="0.05153">
        <ele>80.8</ele>
        <time>2012-08-15T09:51:20Z</time>
      </trkpt>
      <trkpt lat="47.32199" lon="0.05137">
        <ele>80.5</ele>
        <time>2012-08-15T09:51:22Z</time>
      </trkpt>
      <trkpt lat="47.32213" lon="0.05101">
        <ele>81.3</ele>
        <time>2012-08-15T09:51:27Z</time>
      </trkpt>
      <trkpt lat="47.3222" lon="0.05087">
        <ele>81.8</ele>
      </trkpt>
      <trkpt lat="47.32234" lon="0.05057">
        <ele>81.9</ele>
        <time>2012-08-15T09:51:34Z</time>
      </trkpt>
      <trkpt lat="47.32245" lon="0.0504">
        <ele>82.2</ele>
        <time>2012-08-15T09:51:37Z</time>
      </trkpt>
      <trkpt lat="47.32261" lon="0.05017">
        <ele>82.4</ele>
        <time>2012-08-15T09:51:41Z</time>
      </trkpt>
      <trkpt lat="47.32267" lon="0.05004">
        <ele>82.4</ele>
        <time>2012-08-15T09:51:43Z</time>
      </trkpt>
      <trkpt lat="47.32276" lon="0.04977">
        <ele>81.3</ele>
        <time>2012-08-15T09:51:47Z</time>
      </trkpt>
      <trkpt lat="47.32283" lon="0.04904">
        <ele>79.4</ele>
        <time>2012-08-15T09:51:56Z</time>
      </trkpt>
      <trkpt lat="47.3229" lon="0.04871">
        <ele>79.6</ele>
        <time>2012-08-15T09:52:00Z</time>
      </trkpt>
      <trkpt lat="47.32297" lon="0.0484">
        <ele>78.9</ele>
        <time>2012-08-15T09:52:04Z</time>
      </trkpt>
      <trkpt lat="47.32303" lon="0.04822">
        <ele>78.9</ele>
        <time>2012-08-15T09:52:07Z</time>
      </trkpt>
      <trkpt lat="47.32308" lon="0.04796">
        <ele>78.9</ele>
        <time>2012-08-15T09:52:11Z</time>
      </trkpt>
      <trkpt lat="47.32309" lon="0.04772">
        <ele>78.4</ele>
        <time>2012-08-15T09:52:14Z</time>
      </trkpt>
      <trkpt lat="47.32312" lon="0.04724">
        <ele>78.7</ele>
        <time>2012-08-15T09:52:19Z</time>
      </trkpt>
      <trkpt lat="47.32312" lon="0.04715">
        <ele>78.8</ele>
        <time>2012-08-15T09:52:20Z</time>
      </trkpt>
      <trkpt lat="47.32317" lon="0.04672">
        <ele>79.6</ele>
        <time>2012-08-15T09:52:25Z</time>
      </trkpt>
      <trkpt lat="47.32329" lon="0.04633">
        <ele>81.2</ele>
        <time>2012-08-15T09:52:30Z</time>
      </trkpt>
      <trkpt lat="47.32332" lon="0.04618">
        <ele>81.1</ele>
        <time>2012-08-15T09:52:32Z</time>
      </trkpt>
      <trkpt lat="47.32342" lon="0.04577">
        <ele>80.8</ele>
        <time>2012-08-15T09:52:38Z</time>
      </trkpt>
      <trkpt lat="47.32347" lon="0.04561">
        <ele>80.4</ele>
        <time>2012-08-15T09:52:42Z</time>
      </trkpt>
      <trkpt lat="47.32345" lon="0.04535">
        <ele>78.6</ele>
        <time>2012-08-15T09:52:46Z</time>
      </trkpt>
      <trkpt lat="47.32349" lon="0.04518">
        <ele>78.1</ele>
        <time>2012-08-15T09:52:49Z</time>
      </trkpt>
      <trkpt lat="47.32349" lon="0.04507">
        <ele>77.5</ele>
        <time>2012-08-15T09:52:51Z</time>
      </trkpt>
      <trkpt lat="47.32364" lon="0.04473">
        <ele>78.2</ele>
        <time>2012-08-15T09:52:57Z</time>
      </trkpt>
      <trkpt lat="47.32366" lon="0.04469">
        <ele>78.4</ele>
        <time>2012-08-15T09:52:58Z</time>
      </trkpt>
      <trkpt lat="47.32373" lon="0.04439">
        <ele>78.9</ele>
        <time>2012-08-15T09:53:03Z</time>
      </trkpt>
      <trkpt lat="47.3238" lon="0.04396">
        <ele>79.9</ele>
        <time>2012-08-15T09:53:10Z</time>
      </trkpt>
      <trkpt lat="47.32382" lon="0.04375">
        <ele>80.3</ele>
        <time>2012-08-15T09:53:13Z</time>
      </trkpt>
      <trkpt lat="47.324" lon="0.04325">
        <ele>82.6</ele>
        <time>2012-08-15T09:53:21Z</time>
      </trkpt>
      <trkpt lat="47.32409" lon="0.04299">
        <ele>83.7</ele>
        <time>2012-08-15T09:53:26Z</time>
      </trkpt>
      <trkpt lat="47.32414" lon="0.04279">
        <ele>83.7</ele>
        <time>2012-08-15T09:53:29Z</time>
      </trkpt>
      <trkpt lat="47.32427" lon="0.04237">
        <ele>85</ele>
        <time>2012-08-15T09:53:36Z</time>
      </trkpt>
      <trkpt lat="47.32438" lon="0.04216">
        <ele>85.6</ele>
        <time>2012-08-15T09:53:41Z</time>
      </trkpt>
      <trkpt lat="47.32443" lon="0.04196">
        <ele>84.9</ele>
        <time>2012-08-15T09:53:45Z</time>
      </trkpt>
      <trkpt lat="47.32452" lon="0.04157">
        <ele>81.7</ele>
        <time>2012-08-15T09:53:50Z</time>
      </trkpt>
      <trkpt lat="47.32467" lon="0.04112">
        <ele>78.5</ele>
        <time>2012-08-15T09:53:56Z</time>
      </trkpt>
      <trkpt lat="47.32479" lon="0.04082">
        <ele>77.4</ele>
        <time>2012-08-15T09:54:01Z</time>
      </trkpt>
      <trkpt lat="47.32482" lon="0.04077">
        <ele>77.5</ele>
        <time>2012-08-15T09:54:02Z</time>
      </trkpt>
      <trkpt lat="47.3249" lon="0.04044">
        <ele>76.9</ele>
        <time>2012-08-15T09:54:07Z</time>
      </trkpt>
      <trkpt lat="47.32498" lon="0.04004">
        <ele>76</ele>
        <time>2012-08-15T09:54:12Z</time>
      </trkpt>
      <trkpt lat="47.325" lon="0.03988">
        <ele>75.6</ele>
        <time>2012-08-15T09:54:14Z</time>
      </trkpt>
      <trkpt lat="47.32501" lon="0.03938">
        <ele>73.8</ele>
        <time>2012-08-15T09:54:20Z</time>
      </trkpt>
      <trkpt lat="47.32501" lon="0.03931">
        <ele>73.6</ele>
        <time>2012-08-15T09:54:21Z</time>
      </trkpt>
      <trkpt lat="47.32509" lon="0.03888">
        <ele>72.3</ele>
        <time>2012-08-15T09:54:27Z</time>
      </trkpt>
      <trkpt lat="47.32515" lon="0.03854">
        <ele>70.7</ele>
        <time>2012-08-15T09:54:31Z</time>
      </trkpt>
      <trkpt lat="47.32522" lon="0.03806">
        <ele>68.8</ele>
        <time>2012-08-15T09:54:37Z</time>
      </trkpt>
      <trkpt lat="47.32533" lon="0.03803">
        <ele>68.8</ele>
        <time>2012-08-15T09:54:39Z</time>
      </trkpt>
      <trkpt lat="47.32547" lon="0.038">
        <ele>68.7</ele>
        <time>2012-08-15T09:54:43Z</time>
      </trkpt>
      <trkpt lat="47.32566" lon="0.03801">
        <ele>68.8</ele>
        <time>2012-08-15T09:54:47Z</time>
      </trkpt>
      <trkpt lat="47.32577" lon="0.03802">
        <ele>68.9</ele>
        <time>2012-08-15T09:54:49Z</time>
      </trkpt>
      <trkpt lat="47.32597" lon="0.03812">
        <ele>69.1</ele>
        <time>2012-08-15T09:54:54Z</time>
      </trkpt>
      <trkpt lat="47.3261" lon="0.03821">
        <ele>69.5</ele>
        <time>2012-08-15T09:54:58Z</time>
      </trkpt>
      <trkpt lat="47.32629" lon="0.03835">
        <ele>70.7</ele>
        <time>2012-08-15T09:55:04Z</time>
      </trkpt>
      <trkpt lat="47.32639" lon="0.03846">
        <ele>71.5</ele>
        <time>2012-08-15T09:55:09Z</time>
      </trkpt>
      <trkpt lat="47.32648" lon="0.03855">
        <ele>72.4</ele>
        <time>2012-08-15T09:55:16Z</time>
      </trkpt>
      <trkpt lat="47.32663" lon="0.03864">
        <ele>73.9</ele>
        <time>2012-08-15T09:55:22Z</time>
      </trkpt>
      <trkpt lat="47.32679" lon="0.03876">
        <ele>75.5</ele>
        <time>2012-08-15T09:55:27Z</time>
      </trkpt>
      <trkpt lat="47.32698" lon="0.03891">
        <ele>77.1</ele>
        <time>2012-08-15T09:55:33Z</time>
      </trkpt>
      <trkpt lat="47.32712" lon="0.03901">
        <ele>77.4</ele>
        <time>2012-08-15T09:55:38Z</time>
      </trkpt>
      <trkpt lat="47.32717" lon="0.03902">
        <ele>77.5</ele>
        <time>2012-08-15T09:55:40Z</time>
      </trkpt>
      <trkpt lat="47.32741" lon="0.03887">
        <ele>77.6</ele>
        <time>2012-08-15T09:55:48Z</time>
      </trkpt>
      <trkpt lat="47.32761" lon="0.03867">
        <ele>77.3</ele>
        <time>2012-08-15T09:55:55Z</time>
      </trkpt>
      <trkpt lat="47.32778" lon="0.03848">
        <ele>76.1</ele>
        <time>2012-08-15T09:56:01Z</time>
      </trkpt>
      <trkpt lat="47.3278" lon="0.03843">
        <ele>75.9</ele>
        <time>2012-08-15T09:56:02Z</time>
      </trkpt>
      <trkpt lat="47.32801" lon="0.03809">
        <ele>75.1</ele>
        <time>2012-08-15T09:56:10Z</time>
      </trkpt>
      <trkpt lat="47.32811" lon="0.03786">
        <ele>74.6</ele>
        <time>2012-08-15T09:56:15Z</time>
      </trkpt>
      <trkpt lat="47.32821" lon="0.03763">
        <ele>73.5</ele>
        <time>2012-08-15T09:56:20Z</time>
      </trkpt>
      <trkpt lat="47.32828" lon="0.03749">
        <ele>72.7</ele>
        <time>2012-08-15T09:56:25Z</time>
      </trkpt>
      <trkpt lat="47.3284" lon="0.03753">
        <ele>73.5</ele>
        <time>2012-08-15T09:56:30Z</time>
      </trkpt>
      <trkpt lat="47.32846" lon="0.03752">
        <ele>73.6</ele>
        <time>2012-08-15T09:56:32Z</time>
      </trkpt>
      <trkpt lat="47.32858" lon="0.03749">
        <ele>73.8</ele>
        <time>2012-08-15T09:56:37Z</time>
      </trkpt>
      <trkpt lat="47.32873" lon="0.03758">
        <ele>76</ele>
        <time>2012-08-15T09:56:43Z</time>
      </trkpt>
      <trkpt lat="47.32884" lon="0.0376">
        <ele>77.3</ele>
        <time>2012-08-15T09:56:49Z</time>
      </trkpt>
      <trkpt lat="47.32896" lon="0.03765">
        <ele>78.8</ele>
        <time>2012-08-15T09:56:53Z</time>
      </trkpt>
      <trkpt lat="47.32909" lon="0.0377">
        <ele>80.6</ele>
        <time>2012-08-15T09:56:59Z</time>
      </trkpt>
      <trkpt lat="47.32927" lon="0.03774">
        <ele>82.5</ele>
        <time>2012-08-15T09:57:05Z</time>
      </trkpt>
      <trkpt lat="47.32941" lon="0.03782">
        <ele>84.1</ele>
        <time>2012-08-15T09:57:11Z</time>
      </trkpt>
      <trkpt lat="47.32949" lon="0.03785">
        <ele>85</ele>
        <time>2012-08-15T09:57:16Z</time>
      </trkpt>
      <trkpt lat="47.32963" lon="0.03779">
        <ele>86.1</ele>
        <time>2012-08-15T09:57:23Z</time>
      </trkpt>
      <trkpt lat="47.32971" lon="0.03777">
        <ele>86.8</ele>
        <time>2012-08-15T09:57:28Z</time>
      </trkpt>
      <trkpt lat="47.32987" lon="0.03782">
        <ele>87.8</ele>
        <time>2012-08-15T09:57:36Z</time>
      </trkpt>
      <trkpt lat="47.32989" lon="0.03782">
        <ele>87.8</ele>
        <time>2012-08-15T09:57:37Z</time>
      </trkpt>
      <trkpt lat="47.3301" lon="0.0379">
        <ele>87.9</ele>
        <time>2012-08-15T09:57:45Z</time>
      </trkpt>
      <trkpt lat="47.33021" lon="0.03794">
        <ele>87.5</ele>
        <time>2012-08-15T09:57:49Z</time>
      </trkpt>
      <trkpt lat="47.33027" lon="0.03798">
        <ele>87.5</ele>
        <time>2012-08-15T09:57:51Z</time>
      </trkpt>
      <trkpt lat="47.33035" lon="0.03799">
        <ele>87</ele>
        <time>2012-08-15T09:57:54Z</time>
      </trkpt>
      <trkpt lat="47.33044" lon="0.03776">
        <ele>84.7</ele>
        <time>2012-08-15T09:58:01Z</time>
      </trkpt>
      <trkpt lat="47.33046" lon="0.03742">
        <ele>82.1</ele>
        <time>2012-08-15T09:58:05Z</time>
      </trkpt>
      <trkpt lat="47.33053" lon="0.03704">
        <ele>78.2</ele>
        <time>2012-08-15T09:58:09Z</time>
      </trkpt>
      <trkpt lat="47.33055" lon="0.03694">
        <ele>77</ele>
        <time>2012-08-15T09:58:10Z</time>
      </trkpt>
      <trkpt lat="47.33059" lon="0.03681">
        <ele>75.3</ele>
        <time>2012-08-15T09:58:12Z</time>
      </trkpt>
      <trkpt lat="47.3306" lon="0.03674">
        <ele>74.5</ele>
        <time>2012-08-15T09:58:13Z</time>
      </trkpt>
      <trkpt lat="47.33065" lon="0.03651">
        <ele>71.6</ele>
        <time>2012-08-15T09:58:16Z</time>
      </trkpt>
      <trkpt lat="47.33071" lon="0.03625">
        <ele>68.9</ele>
        <time>2012-08-15T09:58:19Z</time>
      </trkpt>
      <trkpt lat="47.33077" lon="0.03607">
        <ele>67.1</ele>
        <time>2012-08-15T09:58:21Z</time>
      </trkpt>
      <trkpt lat="47.33081" lon="0.0359">
        <ele>65.6</ele>
        <time>2012-08-15T09:58:25Z</time>
      </trkpt>
      <trkpt lat="47.33089" lon="0.03568">
        <ele>63.8</ele>
        <time>2012-08-15T09:58:30Z</time>
      </trkpt>
      <trkpt lat="47.33103" lon="0.03529">
        <ele>61.4</ele>
        <time>2012-08-15T09:58:37Z</time>
      </trkpt>
      <trkpt lat="47.33108" lon="0.03515">
        <ele>60.6</ele>
        <time>2012-08-15T09:58:39Z</time>
      </trkpt>
      <trkpt lat="47.33117" lon="0.03491">
        <ele>59.5</ele>
        <time>2012-08-15T09:58:43Z</time>
      </trkpt>
      <trkpt lat="47.33137" lon="0.03449">
        <ele>58</ele>
        <time>2012-08-15T09:58:50Z</time>
      </trkpt>
      <trkpt lat="47.33171" lon="0.03392">
        <ele>57</ele>
        <time>2012-08-15T09:58:59Z</time>
      </trkpt>
      <trkpt lat="47.33201" lon="0.03344">
        <ele>56.5</ele>
        <time>2012-08-15T09:59:07Z</time>
      </trkpt>
      <trkpt lat="47.33231" lon="0.033">
        <ele>56.3</ele>
        <time>2012-08-15T09:59:15Z</time>
      </trkpt>
      <trkpt lat="47.33265" lon="0.03246">
        <ele>55.9</ele>
        <time>2012-08-15T09:59:25Z</time>
      </trkpt>
      <trkpt lat="47.33277" lon="0.03232">
        <ele>55.4</ele>
        <time>2012-08-15T09:59:28Z</time>
      </trkpt>
      <trkpt lat="47.33295" lon="0.03206">
        <ele>54.6</ele>
        <time>2012-08-15T09:59:34Z</time>
      </trkpt>
      <trkpt lat="47.333" lon="0.03197">
        <ele>54.3</ele>
        <time>2012-08-15T09:59:39Z</time>
      </trkpt>
      <trkpt lat="47.333" lon="0.03197">
        <ele>54.3</ele>
        <time>2012-08-15T10:00:02Z</time>
      </trkpt>
      <trkpt lat="47.333" lon="0.03197">
        <ele>54.3</ele>
        <time>2012-08-15T10:00:18Z</time>
      </trkpt>
      <trkpt lat="47.333" lon="0.03196">
        <ele>54.2</ele>
        <time>2012-08-15T10:01:12Z</time>
      </trkpt>
      <trkpt lat="47.333" lon="0.03196">
        <ele>54.2</ele>
        <time>2012-08-15T10:01:39Z</time>
      </trkpt>
      <trkpt lat="47.33293" lon="0.03179">
        <ele>53.9</ele>
        <time>2012-08-15T10:01:45Z</time>
      </trkpt>
      <trkpt lat="47.33291" lon="0.03176">
        <ele>53.9</ele>
        <time>2012-08-15T10:01:46Z</time>
      </trkpt>
      <trkpt lat="47.33268" lon="0.03139">
        <ele>53</ele>
        <time>2012-08-15T10:01:54Z</time>
      </trkpt>
      <trkpt lat="47.33236" lon="0.03088">
        <ele>52.2</ele>
        <time>2012-08-15T10:02:03Z</time>
      </trkpt>
      <trkpt lat="47.33201" lon="0.03026">
        <ele>51.8</ele>
        <time>2012-08-15T10:02:13Z</time>
      </trkpt>
      <trkpt lat="47.33176" lon="0.0298">
        <ele>52</ele>
        <time>2012-08-15T10:02:21Z</time>
      </trkpt>
      <trkpt lat="47.33168" lon="0.02965">
        <ele>52</ele>
        <time>2012-08-15T10:02:24Z</time>
      </trkpt>
      <trkpt lat="47.33169" lon="0.0295">
        <ele>52</ele>
        <time>2012-08-15T10:02:28Z</time>
      </trkpt>
      <trkpt lat="47.33175" lon="0.02943">
        <ele>52</ele>
        <time>2012-08-15T10:02:30Z</time>
      </trkpt>
      <trkpt lat="47.3321" lon="0.0289">
        <ele>51.5</ele>
        <time>2012-08-15T10:02:40Z</time>
      </trkpt>
      <trkpt lat="47.33224" lon="0.02866">
        <ele>51</ele>
        <time>2012-08-15T10:02:44Z</time>
      </trkpt>
      <trkpt lat="47.33241" lon="0.02857">
        <ele>50.9</ele>
        <time>2012-08-15T10:02:48Z</time>
      </trkpt>
      <trkpt lat="47.33249" lon="0.02864">
        <ele>51</ele>
        <time>2012-08-15T10:02:50Z</time>
      </trkpt>
      <trkpt lat="47.33278" lon="0.02902">
        <ele>50</ele>
        <time>2012-08-15T10:02:58Z</time>
      </trkpt>
      <trkpt lat="47.33297" lon="0.02914">
        <ele>49.3</ele>
        <time>2012-08-15T10:03:03Z</time>
      </trkpt>
      <trkpt lat="47.33306" lon="0.02901">
        <ele>49</ele>
        <time>2012-08-15T10:03:06Z</time>
      </trkpt>
      <trkpt lat="47.33337" lon="0.02846">
        <ele>46.9</ele>
        <time>2012-08-15T10:03:15Z</time>
      </trkpt>
      <trkpt lat="47.33364" lon="0.02797">
        <ele>45.6</ele>
        <time>2012-08-15T10:03:23Z</time>
      </trkpt>
      <trkpt lat="47.33376" lon="0.0278">
        <ele>45</ele>
        <time>2012-08-15T10:03:26Z</time>
      </trkpt>
      <trkpt lat="47.3338" lon="0.02774">
        <ele>45</ele>
        <time>2012-08-15T10:03:27Z</time>
      </trkpt>
      <trkpt lat="47.33387" lon="0.02766">
        <ele>45</ele>
        <time>2012-08-15T10:03:29Z</time>
      </trkpt>
      <trkpt lat="47.33405" lon="0.02756">
        <ele>45.6</ele>
        <time>2012-08-15T10:03:34Z</time>
      </trkpt>
      <trkpt lat="47.33409" lon="0.02765">
        <ele>45.7</ele>
        <time>2012-08-15T10:03:36Z</time>
      </trkpt>
      <trkpt lat="47.3341" lon="0.02771">
        <ele>45.8</ele>
        <time>2012-08-15T10:03:37Z</time>
      </trkpt>
      <trkpt lat="47.33413" lon="0.02783">
        <ele>45.9</ele>
        <time>2012-08-15T10:03:39Z</time>
      </trkpt>
      <trkpt lat="47.33421" lon="0.02803">
        <ele>46</ele>
        <time>2012-08-15T10:03:42Z</time>
      </trkpt>
      <trkpt lat="47.33425" lon="0.02809">
        <ele>46</ele>
        <time>2012-08-15T10:03:43Z</time>
      </trkpt>
      <trkpt lat="47.33429" lon="0.02815">
        <ele>46</ele>
        <time>2012-08-15T10:03:44Z</time>
      </trkpt>
      <trkpt lat="47.33432" lon="0.02821">
        <ele>46</ele>
        <time>2012-08-15T10:03:45Z</time>
      </trkpt>
      <trkpt lat="47.33436" lon="0.02826">
        <ele>46</ele>
        <time>2012-08-15T10:03:46Z</time>
      </trkpt>
      <trkpt lat="47.33444" lon="0.02836">
        <ele>46</ele>
        <time>2012-08-15T10:03:48Z</time>
      </trkpt>
      <trkpt lat="47.3346" lon="0.02856">
        <ele>46.1</ele>
        <time>2012-08-15T10:03:52Z</time>
      </trkpt>
      <trkpt lat="47.33465" lon="0.02857">
        <ele>46.1</ele>
        <time>2012-08-15T10:03:53Z</time>
      </trkpt>
      <trkpt lat="47.33477" lon="0.02848">
        <ele>46.6</ele>
        <time>2012-08-15T10:03:56Z</time>
      </trkpt>
      <trkpt lat="47.33483" lon="0.02838">
        <ele>47.2</ele>
        <time>2012-08-15T10:03:58Z</time>
      </trkpt>
      <trkpt lat="47.33502" lon="0.02812">
        <ele>48.9</ele>
        <time>2012-08-15T10:04:04Z</time>
      </trkpt>
      <trkpt lat="47.33507" lon="0.02801">
        <ele>49.3</ele>
        <time>2012-08-15T10:04:06Z</time>
      </trkpt>
      <trkpt lat="47.33526" lon="0.02766">
        <ele>49.9</ele>
        <time>2012-08-15T10:04:13Z</time>
      </trkpt>
      <trkpt lat="47.33553" lon="0.02722">
        <ele>50.9</ele>
        <time>2012-08-15T10:04:22Z</time>
      </trkpt>
      <trkpt lat="47.33574" lon="0.02685">
        <ele>51.8</ele>
        <time>2012-08-15T10:04:30Z</time>
      </trkpt>
      <trkpt lat="47.33599" lon="0.02638">
        <ele>53.6</ele>
        <time>2012-08-15T10:04:40Z</time>
      </trkpt>
      <trkpt lat="47.33623" lon="0.02595">
        <ele>54.4</ele>
        <time>2012-08-15T10:04:49Z</time>
      </trkpt>
      <trkpt lat="47.33638" lon="0.02564">
        <ele>55</ele>
        <time>2012-08-15T10:04:55Z</time>
      </trkpt>
      <trkpt lat="47.33668" lon="0.02512">
        <ele>56</ele>
        <time>2012-08-15T10:05:06Z</time>
      </trkpt>
      <trkpt lat="47.33673" lon="0.02503">
        <ele>56.2</ele>
        <time>2012-08-15T10:05:08Z</time>
      </trkpt>
      <trkpt lat="47.33686" lon="0.02486">
        <ele>56.7</ele>
        <time>2012-08-15T10:05:12Z</time>
      </trkpt>
      <trkpt lat="47.33697" lon="0.02469">
        <ele>57.1</ele>
        <time>2012-08-15T10:05:16Z</time>
      </trkpt>
      <trkpt lat="47.33721" lon="0.02434">
        <ele>58</ele>
        <time>2012-08-15T10:05:24Z</time>
      </trkpt>
      <trkpt lat="47.33725" lon="0.02425">
        <ele>58.2</ele>
        <time>2012-08-15T10:05:26Z</time>
      </trkpt>
      <trkpt lat="47.33736" lon="0.02428">
        <ele>58.8</ele>
        <time>2012-08-15T10:05:31Z</time>
      </trkpt>
      <trkpt lat="47.33751" lon="0.02449">
        <ele>59.1</ele>
        <time>2012-08-15T10:05:37Z</time>
      </trkpt>
      <trkpt lat="47.33759" lon="0.02463">
        <ele>59.6</ele>
        <time>2012-08-15T10:05:41Z</time>
      </trkpt>
      <trkpt lat="47.3376" lon="0.02467">
        <ele>59.7</ele>
        <time>2012-08-15T10:05:43Z</time>
      </trkpt>
      <trkpt lat="47.3377" lon="0.02486">
        <ele>60.1</ele>
        <time>2012-08-15T10:05:49Z</time>
      </trkpt>
      <trkpt lat="47.33783" lon="0.02504">
        <ele>60.3</ele>
        <time>2012-08-15T10:05:53Z</time>
      </trkpt>
      <trkpt lat="47.338" lon="0.02525">
        <ele>60.9</ele>
        <time>2012-08-15T10:05:58Z</time>
      </trkpt>
      <trkpt lat="47.33802" lon="0.02529">
        <ele>60.9</ele>
        <time>2012-08-15T10:05:59Z</time>
      </trkpt>
      <trkpt lat="47.33813" lon="0.02541">
        <ele>61.3</ele>
        <time>2012-08-15T10:06:02Z</time>
      </trkpt>
      <trkpt lat="47.33832" lon="0.02565">
        <ele>62</ele>
        <time>2012-08-15T10:06:07Z</time>
      </trkpt>
      <trkpt lat="47.33852" lon="0.02591">
        <ele>62.6</ele>
        <time>2012-08-15T10:06:13Z</time>
      </trkpt>
      <trkpt lat="47.33864" lon="0.02629">
        <ele>62.5</ele>
        <time>2012-08-15T10:06:20Z</time>
      </trkpt>
      <trkpt lat="47.33874" lon="0.02656">
        <ele>62.5</ele>
        <time>2012-08-15T10:06:25Z</time>
      </trkpt>
      <trkpt lat="47.33885" lon="0.02675">
        <ele>62.6</ele>
        <time>2012-08-15T10:06:30Z</time>
      </trkpt>
      <trkpt lat="47.33905" lon="0.02684">
        <ele>63.3</ele>
        <time>2012-08-15T10:06:35Z</time>
      </trkpt>
      <trkpt lat="47.33913" lon="0.02688">
        <ele>63.8</ele>
        <time>2012-08-15T10:06:43Z</time>
      </trkpt>
      <trkpt lat="47.33913" lon="0.02688">
        <ele>63.8</ele>
        <time>2012-08-15T10:06:47Z</time>
      </trkpt>
      <trkpt lat="47.33915" lon="0.02687">
        <ele>63.9</ele>
        <time>2012-08-15T10:06:54Z</time>
      </trkpt>
      <trkpt lat="47.33921" lon="0.02684">
        <ele>64.2</ele>
        <time>2012-08-15T10:06:59Z</time>
      </trkpt>
      <trkpt lat="47.3393" lon="0.0268">
        <ele>64.7</ele>
        <time>2012-08-15T10:07:04Z</time>
      </trkpt>
      <trkpt lat="47.33943" lon="0.02671">
        <ele>65.7</ele>
        <time>2012-08-15T10:07:11Z</time>
      </trkpt>
      <trkpt lat="47.3395" lon="0.02663">
        <ele>66.5</ele>
        <time>2012-08-15T10:07:15Z</time>
      </trkpt>
      <trkpt lat="47.33955" lon="0.02653">
        <ele>67.3</ele>
        <time>2012-08-15T10:07:19Z</time>
      </trkpt>
      <trkpt lat="47.33967" lon="0.02642">
        <ele>68.5</ele>
        <time>2012-08-15T10:07:23Z</time>
      </trkpt>
      <trkpt lat="47.33989" lon="0.02619">
        <ele>70.9</ele>
        <time>2012-08-15T10:07:31Z</time>
      </trkpt>
      <trkpt lat="47.33992" lon="0.02612">
        <ele>71.4</ele>
        <time>2012-08-15T10:07:33Z</time>
      </trkpt>
      <trkpt lat="47.34008" lon="0.02588">
        <ele>73.5</ele>
        <time>2012-08-15T10:07:41Z</time>
      </trkpt>
      <trkpt lat="47.34019" lon="0.02566">
        <ele>74.8</ele>
        <time>2012-08-15T10:07:47Z</time>
      </trkpt>
      <trkpt lat="47.3402" lon="0.02563">
        <ele>75</ele>
        <time>2012-08-15T10:07:48Z</time>
      </trkpt>
      <trkpt lat="47.34033" lon="0.02546">
        <ele>76.6</ele>
        <time>2012-08-15T10:07:55Z</time>
      </trkpt>
      <trkpt lat="47.34039" lon="0.0253">
        <ele>77.6</ele>
        <time>2012-08-15T10:08:00Z</time>
      </trkpt>
      <trkpt lat="47.34047" lon="0.02521">
        <ele>78.8</ele>
        <time>2012-08-15T10:08:04Z</time>
      </trkpt>
      <trkpt lat="47.34057" lon="0.02504">
        <ele>80.2</ele>
        <time>2012-08-15T10:08:11Z</time>
      </trkpt>
      <trkpt lat="47.34063" lon="0.02499">
        <ele>81.1</ele>
        <time>2012-08-15T10:08:14Z</time>
      </trkpt>
      <trkpt lat="47.34069" lon="0.02492">
        <ele>82.1</ele>
        <time>2012-08-15T10:08:17Z</time>
      </trkpt>
      <trkpt lat="47.34082" lon="0.02476">
        <ele>83.8</ele>
        <time>2012-08-15T10:08:24Z</time>
      </trkpt>
      <trkpt lat="47.34089" lon="0.02466">
        <ele>84.6</ele>
        <time>2012-08-15T10:08:28Z</time>
      </trkpt>
      <trkpt lat="47.34097" lon="0.02453">
        <ele>85.5</ele>
        <time>2012-08-15T10:08:34Z</time>
      </trkpt>
      <trkpt lat="47.341" lon="0.0245">
        <ele>85.8</ele>
        <time>2012-08-15T10:08:36Z</time>
      </trkpt>
      <trkpt lat="47.3411" lon="0.02434">
        <ele>87.3</ele>
        <time>2012-08-15T10:08:43Z</time>
      </trkpt>
      <trkpt lat="47.3412" lon="0.02428">
        <ele>88.9</ele>
        <time>2012-08-15T10:08:48Z</time>
      </trkpt>
      <trkpt lat="47.34131" lon="0.02428">
        <ele>90.5</ele>
        <time>2012-08-15T10:08:53Z</time>
      </trkpt>
      <trkpt lat="47.34133" lon="0.02429">
        <ele>90.7</ele>
        <time>2012-08-15T10:08:55Z</time>
      </trkpt>
      <trkpt lat="47.3414" lon="0.02438">
        <ele>91.4</ele>
        <time>2012-08-15T10:09:00Z</time>
      </trkpt>
      <trkpt lat="47.34145" lon="0.02445">
        <ele>91.9</ele>
        <time>2012-08-15T10:09:04Z</time>
      </trkpt>
      <trkpt lat="47.34154" lon="0.02453">
        <ele>92.9</ele>
        <time>2012-08-15T10:09:09Z</time>
      </trkpt>
      <trkpt lat="47.34157" lon="0.02458">
        <ele>93.1</ele>
        <time>2012-08-15T10:09:12Z</time>
      </trkpt>
      <trkpt lat="47.34168" lon="0.02469">
        <ele>94.3</ele>
        <time>2012-08-15T10:09:20Z</time>
      </trkpt>
      <trkpt lat="47.3417" lon="0.02473">
        <ele>94.4</ele>
        <time>2012-08-15T10:09:22Z</time>
      </trkpt>
      <trkpt lat="47.3418" lon="0.02487">
        <ele>95.1</ele>
        <time>2012-08-15T10:09:30Z</time>
      </trkpt>
      <trkpt lat="47.34181" lon="0.0249">
        <ele>95.1</ele>
        <time>2012-08-15T10:09:32Z</time>
      </trkpt>
      <trkpt lat="47.3419" lon="0.02499">
        <ele>95.6</ele>
        <time>2012-08-15T10:09:38Z</time>
      </trkpt>
      <trkpt lat="47.34205" lon="0.02505">
        <ele>97</ele>
        <time>2012-08-15T10:09:44Z</time>
      </trkpt>
      <trkpt lat="47.34208" lon="0.02505">
        <ele>97.3</ele>
        <time>2012-08-15T10:09:46Z</time>
      </trkpt>
      <trkpt lat="47.34215" lon="0.025">
        <ele>98.2</ele>
        <time>2012-08-15T10:09:51Z</time>
      </trkpt>
      <trkpt lat="47.34227" lon="0.02487">
        <ele>100.4</ele>
        <time>2012-08-15T10:09:58Z</time>
      </trkpt>
      <trkpt lat="47.34235" lon="0.02479">
        <ele>101.5</ele>
        <time>2012-08-15T10:10:03Z</time>
      </trkpt>
      <trkpt lat="47.3424" lon="0.02476">
        <ele>102.1</ele>
        <time>2012-08-15T10:10:05Z</time>
      </trkpt>
      <trkpt lat="47.34256" lon="0.02458">
        <ele>103.7</ele>
        <time>2012-08-15T10:10:13Z</time>
      </trkpt>
      <trkpt lat="47.34263" lon="0.02455">
        <ele>104.1</ele>
        <time>2012-08-15T10:10:26Z</time>
      </trkpt>
      <trkpt lat="47.34264" lon="0.02454">
        <ele>104.2</ele>
        <time>2012-08-15T10:10:27Z</time>
      </trkpt>
      <trkpt lat="47.34274" lon="0.02439">
        <ele>104.9</ele>
        <time>2012-08-15T10:10:34Z</time>
      </trkpt>
      <trkpt lat="47.34285" lon="0.02426">
        <ele>105.2</ele>
        <time>2012-08-15T10:10:39Z</time>
      </trkpt>
      <trkpt lat="47.34288" lon="0.0242">
        <ele>105.3</ele>
        <time>2012-08-15T10:10:41Z</time>
      </trkpt>
      <trkpt lat="47.34307" lon="0.024">
        <ele>106</ele>
        <time>2012-08-15T10:10:49Z</time>
      </trkpt>
      <trkpt lat="47.34328" lon="0.02377">
        <ele>106.9</ele>
        <time>2012-08-15T10:10:56Z</time>
      </trkpt>
      <trkpt lat="47.34343" lon="0.02359">
        <ele>107</ele>
        <time>2012-08-15T10:11:01Z</time>
      </trkpt>
      <trkpt lat="47.34347" lon="0.0236">
        <ele>107</ele>
        <time>2012-08-15T10:11:03Z</time>
      </trkpt>
      <trkpt lat="47.34361" lon="0.0237">
        <ele>107</ele>
        <time>2012-08-15T10:11:10Z</time>
      </trkpt>
      <trkpt lat="47.34373" lon="0.02382">
        <ele>107</ele>
        <time>2012-08-15T10:11:14Z</time>
      </trkpt>
      <trkpt lat="47.34389" lon="0.02398">
        <ele>107</ele>
        <time>2012-08-15T10:11:19Z</time>
      </trkpt>
      <trkpt lat="47.34391" lon="0.02401">
        <ele>107</ele>
        <time>2012-08-15T10:11:20Z</time>
      </trkpt>
      <trkpt lat="47.34423" lon="0.02434">
        <ele>106</ele>
        <time>2012-08-15T10:11:28Z</time>
      </trkpt>
      <trkpt lat="47.34437" lon="0.02448">
        <ele>105.9</ele>
        <time>2012-08-15T10:11:31Z</time>
      </trkpt>
      <trkpt lat="47.34452" lon="0.02461">
        <ele>105.3</ele>
        <time>2012-08-15T10:11:35Z</time>
      </trkpt>
      <trkpt lat="47.34465" lon="0.02471">
        <ele>105</ele>
        <time>2012-08-15T10:11:39Z</time>
      </trkpt>
      <trkpt lat="47.34483" lon="0.0249">
        <ele>104.8</ele>
        <time>2012-08-15T10:11:45Z</time>
      </trkpt>
      <trkpt lat="47.34498" lon="0.02506">
        <ele>104.1</ele>
        <time>2012-08-15T10:11:51Z</time>
      </trkpt>
      <trkpt lat="47.34518" lon="0.02517">
        <ele>104</ele>
        <time>2012-08-15T10:11:56Z</time>
      </trkpt>
      <trkpt lat="47.3453" lon="0.02532">
        <ele>103.9</ele>
        <time>2012-08-15T10:12:01Z</time>
      </trkpt>
      <trkpt lat="47.3454" lon="0.02544">
        <ele>103.7</ele>
        <time>2012-08-15T10:12:05Z</time>
      </trkpt>
      <trkpt lat="47.34546" lon="0.02541">
        <ele>103.8</ele>
        <time>2012-08-15T10:12:09Z</time>
      </trkpt>
      <trkpt lat="47.34546" lon="0.02535">
        <ele>103.9</ele>
        <time>2012-08-15T10:12:11Z</time>
      </trkpt>
      <trkpt lat="47.34545" lon="0.02519">
        <ele>103.8</ele>
        <time>2012-08-15T10:12:14Z</time>
      </trkpt>
      <trkpt lat="47.34546" lon="0.02482">
        <ele>103.3</ele>
        <time>2012-08-15T10:12:20Z</time>
      </trkpt>
      <trkpt lat="47.34546" lon="0.02476">
        <ele>103.3</ele>
        <time>2012-08-15T10:12:21Z</time>
      </trkpt>
      <trkpt lat="47.34544" lon="0.02441">
        <ele>103.4</ele>
        <time>2012-08-15T10:12:27Z</time>
      </trkpt>
      <trkpt lat="47.34547" lon="0.02411">
        <ele>103.1</ele>
        <time>2012-08-15T10:12:31Z</time>
      </trkpt>
      <trkpt lat="47.34564" lon="0.02379">
        <ele>101.6</ele>
        <time>2012-08-15T10:12:36Z</time>
      </trkpt>
      <trkpt lat="47.3458" lon="0.02347">
        <ele>100.2</ele>
        <time>2012-08-15T10:12:40Z</time>
      </trkpt>
      <trkpt lat="47.34597" lon="0.02313">
        <ele>99.1</ele>
        <time>2012-08-15T10:12:43Z</time>
      </trkpt>
      <trkpt lat="47.34617" lon="0.02257">
        <ele>97.3</ele>
        <time>2012-08-15T10:12:48Z</time>
      </trkpt>
      <trkpt lat="47.3463" lon="0.02224">
        <ele>96.4</ele>
        <time>2012-08-15T10:12:51Z</time>
      </trkpt>
      <trkpt lat="47.34647" lon="0.02169">
        <ele>94.5</ele>
        <time>2012-08-15T10:12:56Z</time>
      </trkpt>
      <trkpt lat="47.34668" lon="0.02145">
        <ele>92.9</ele>
        <time>2012-08-15T10:13:00Z</time>
      </trkpt>
      <trkpt lat="47.34675" lon="0.02141">
        <ele>92.4</ele>
        <time>2012-08-15T10:13:01Z</time>
      </trkpt>
      <trkpt lat="47.34703" lon="0.02122">
        <ele>91.1</ele>
        <time>2012-08-15T10:13:05Z</time>
      </trkpt>
      <trkpt lat="47.34732" lon="0.02098">
        <ele>89.5</ele>
        <time>2012-08-15T10:13:09Z</time>
      </trkpt>
      <trkpt lat="47.34747" lon="0.02088">
        <ele>88.4</ele>
        <time>2012-08-15T10:13:11Z</time>
      </trkpt>
      <trkpt lat="47.3476" lon="0.02078">
        <ele>87.8</ele>
        <time>2012-08-15T10:13:13Z</time>
      </trkpt>
      <trkpt lat="47.3478" lon="0.02071">
        <ele>86.9</ele>
        <time>2012-08-15T10:13:16Z</time>
      </trkpt>
      <trkpt lat="47.34798" lon="0.02064">
        <ele>86.3</ele>
        <time>2012-08-15T10:13:19Z</time>
      </trkpt>
      <trkpt lat="47.3481" lon="0.02056">
        <ele>85.8</ele>
        <time>2012-08-15T10:13:21Z</time>
      </trkpt>
      <trkpt lat="47.34851" lon="0.02033">
        <ele>84.5</ele>
        <time>2012-08-15T10:13:27Z</time>
      </trkpt>
      <trkpt lat="47.34888" lon="0.02011">
        <ele>83.4</ele>
        <time>2012-08-15T10:13:32Z</time>
      </trkpt>
      <trkpt lat="47.3491" lon="0.01998">
        <ele>82.2</ele>
        <time>2012-08-15T10:13:35Z</time>
      </trkpt>
      <trkpt lat="47.3494" lon="0.01978">
        <ele>81.3</ele>
        <time>2012-08-15T10:13:39Z</time>
      </trkpt>
      <trkpt lat="47.34984" lon="0.01938">
        <ele>80</ele>
        <time>2012-08-15T10:13:46Z</time>
      </trkpt>
      <trkpt lat="47.35002" lon="0.0192">
        <ele>80</ele>
        <time>2012-08-15T10:13:49Z</time>
      </trkpt>
      <trkpt lat="47.3502" lon="0.01899">
        <ele>80</ele>
        <time>2012-08-15T10:13:52Z</time>
      </trkpt>
      <trkpt lat="47.35059" lon="0.01844">
        <ele>79</ele>
        <time>2012-08-15T10:13:59Z</time>
      </trkpt>
      <trkpt lat="47.35064" lon="0.01837">
        <ele>79</ele>
        <time>2012-08-15T10:14:00Z</time>
      </trkpt>
      <trkpt lat="47.35092" lon="0.01801">
        <ele>77.9</ele>
        <time>2012-08-15T10:14:05Z</time>
      </trkpt>
      <trkpt lat="47.35096" lon="0.01794">
        <ele>77.8</ele>
        <time>2012-08-15T10:14:06Z</time>
      </trkpt>
      <trkpt lat="47.35101" lon="0.01786">
        <ele>77.6</ele>
        <time>2012-08-15T10:14:07Z</time>
      </trkpt>
      <trkpt lat="47.35104" lon="0.0178">
        <ele>77.3</ele>
        <time>2012-08-15T10:14:08Z</time>
      </trkpt>
      <trkpt lat="47.35108" lon="0.01773">
        <ele>77.1</ele>
        <time>2012-08-15T10:14:09Z</time>
      </trkpt>
    </trkseg>
  </trk>
</gpx>